<?xml version='1.0' encoding='UTF-8'?><gpx version="1.1" creator="JPX - https://github.com/jenetics/jpx" xmlns="http://www.topografix.com/GPX/1/1"><trk><trkseg><trkpt lat="43.9814815" lon="11.0729558"><ele>831.0</ele><time>2026-04-18T07:57:43.401Z</time></trkpt><trkpt lat="43.9815348" lon="11.0728586"><ele>831.0</ele><time>2026-04-18T07:57:44.406Z</time></trkpt><trkpt lat="43.981592" lon="11.0727607"><ele>831.0</ele><time>2026-04-18T07:57:45.391Z</time></trkpt><trkpt lat="43.9816545" lon="11.0726483"><ele>831.0</ele><time>2026-04-18T07:57:46.386Z</time></trkpt><trkpt lat="43.9817259" lon="11.0725234"><ele>831.0</ele><time>2026-04-18T07:57:47.381Z</time></trkpt><trkpt lat="43.9818007" lon="11.0723971"><ele>832.8</ele><time>2026-04-18T07:57:48.382Z</time></trkpt><trkpt lat="43.9818773" lon="11.0722793"><ele>834.5999999999999</ele><time>2026-04-18T07:57:49.381Z</time></trkpt><trkpt lat="43.9819626" lon="11.0721806"><ele>836.4</ele><time>2026-04-18T07:57:50.376Z</time></trkpt><trkpt lat="43.9820591" lon="11.0721028"><ele>838.2</ele><time>2026-04-18T07:57:51.386Z</time></trkpt><trkpt lat="43.9821541" lon="11.0720222"><ele>840.0</ele><time>2026-04-18T07:57:52.408Z</time></trkpt><trkpt lat="43.9822417" lon="11.0719355"><ele>840.0</ele><time>2026-04-18T07:57:53.376Z</time></trkpt><trkpt lat="43.982327" lon="11.0718434"><ele>840.0</ele><time>2026-04-18T07:57:54.386Z</time></trkpt><trkpt lat="43.9824087" lon="11.0717526"><ele>840.0</ele><time>2026-04-18T07:57:55.402Z</time></trkpt><trkpt lat="43.9824914" lon="11.0716714"><ele>840.0</ele><time>2026-04-18T07:57:56.388Z</time></trkpt><trkpt lat="43.9825812" lon="11.0716097"><ele>840.0</ele><time>2026-04-18T07:57:57.397Z</time></trkpt><trkpt lat="43.9826778" lon="11.0715432"><ele>840.4</ele><time>2026-04-18T07:57:58.383Z</time></trkpt><trkpt lat="43.9827786" lon="11.0714707"><ele>840.8</ele><time>2026-04-18T07:57:59.39Z</time></trkpt><trkpt lat="43.9828805" lon="11.0714042"><ele>841.2</ele><time>2026-04-18T07:58:00.399Z</time></trkpt><trkpt lat="43.9829774" lon="11.0713442"><ele>841.6</ele><time>2026-04-18T07:58:01.385Z</time></trkpt><trkpt lat="43.9830662" lon="11.0712856"><ele>842.0</ele><time>2026-04-18T07:58:02.404Z</time></trkpt><trkpt lat="43.9831407" lon="11.07122"><ele>842.0</ele><time>2026-04-18T07:58:03.41Z</time></trkpt><trkpt lat="43.9831898" lon="11.0711284"><ele>842.0</ele><time>2026-04-18T07:58:04.419Z</time></trkpt><trkpt lat="43.9832231" lon="11.0710124"><ele>842.0</ele><time>2026-04-18T07:58:05.4Z</time></trkpt><trkpt lat="43.9832492" lon="11.0708731"><ele>842.0</ele><time>2026-04-18T07:58:06.414Z</time></trkpt><trkpt lat="43.9832717" lon="11.0707387"><ele>842.0</ele><time>2026-04-18T07:58:07.411Z</time></trkpt><trkpt lat="43.9832896" lon="11.0706164"><ele>842.8333333333334</ele><time>2026-04-18T07:58:08.401Z</time></trkpt><trkpt lat="43.9832908" lon="11.0704961"><ele>843.6666666666667</ele><time>2026-04-18T07:58:09.397Z</time></trkpt><trkpt lat="43.9832775" lon="11.0703808"><ele>844.5</ele><time>2026-04-18T07:58:10.395Z</time></trkpt><trkpt lat="43.9832568" lon="11.070269"><ele>845.3333333333333</ele><time>2026-04-18T07:58:11.411Z</time></trkpt><trkpt lat="43.9832498" lon="11.070165"><ele>846.1666666666666</ele><time>2026-04-18T07:58:12.399Z</time></trkpt><trkpt lat="43.9832635" lon="11.0700704"><ele>847.0</ele><time>2026-04-18T07:58:13.388Z</time></trkpt><trkpt lat="43.9832898" lon="11.0699756"><ele>848.8333333333333</ele><time>2026-04-18T07:58:14.391Z</time></trkpt><trkpt lat="43.9833211" lon="11.0698814"><ele>850.6666666666666</ele><time>2026-04-18T07:58:15.386Z</time></trkpt><trkpt lat="43.9833517" lon="11.0697892"><ele>852.5</ele><time>2026-04-18T07:58:16.393Z</time></trkpt><trkpt lat="43.9833774" lon="11.0696982"><ele>854.3333333333333</ele><time>2026-04-18T07:58:17.386Z</time></trkpt><trkpt lat="43.9833977" lon="11.0696041"><ele>856.1666666666666</ele><time>2026-04-18T07:58:18.386Z</time></trkpt><trkpt lat="43.9834127" lon="11.0694393"><ele>858.0</ele><time>2026-04-18T07:58:20.392Z</time></trkpt><trkpt lat="43.9834172" lon="11.0692709"><ele>855.5</ele><time>2026-04-18T07:58:22.384Z</time></trkpt><trkpt lat="43.9834119" lon="11.0691773"><ele>853.0</ele><time>2026-04-18T07:58:23.388Z</time></trkpt><trkpt lat="43.9834035" lon="11.06908"><ele>850.5</ele><time>2026-04-18T07:58:24.389Z</time></trkpt><trkpt lat="43.9834053" lon="11.0689687"><ele>848.0</ele><time>2026-04-18T07:58:25.399Z</time></trkpt><trkpt lat="43.98342" lon="11.0688513"><ele>845.5</ele><time>2026-04-18T07:58:26.4Z</time></trkpt><trkpt lat="43.9834442" lon="11.0687201"><ele>843.0</ele><time>2026-04-18T07:58:27.412Z</time></trkpt><trkpt lat="43.9834798" lon="11.0685717"><ele>843.0</ele><time>2026-04-18T07:58:28.408Z</time></trkpt><trkpt lat="43.9835181" lon="11.0684062"><ele>843.0</ele><time>2026-04-18T07:58:29.411Z</time></trkpt><trkpt lat="43.9835567" lon="11.0682279"><ele>843.0</ele><time>2026-04-18T07:58:30.405Z</time></trkpt><trkpt lat="43.9835864" lon="11.0680523"><ele>843.0</ele><time>2026-04-18T07:58:31.415Z</time></trkpt><trkpt lat="43.9836142" lon="11.0678933"><ele>847.25</ele><time>2026-04-18T07:58:32.4Z</time></trkpt><trkpt lat="43.9836484" lon="11.0677402"><ele>851.5</ele><time>2026-04-18T07:58:33.396Z</time></trkpt><trkpt lat="43.9836914" lon="11.0675872"><ele>855.75</ele><time>2026-04-18T07:58:34.402Z</time></trkpt><trkpt lat="43.9837432" lon="11.0674277"><ele>860.0</ele><time>2026-04-18T07:58:35.417Z</time></trkpt><trkpt lat="43.9837977" lon="11.0672721"><ele>860.8</ele><time>2026-04-18T07:58:36.411Z</time></trkpt><trkpt lat="43.9838501" lon="11.0671225"><ele>861.6</ele><time>2026-04-18T07:58:37.405Z</time></trkpt><trkpt lat="43.9838953" lon="11.0669895"><ele>862.4000000000001</ele><time>2026-04-18T07:58:38.392Z</time></trkpt><trkpt lat="43.983926" lon="11.0668705"><ele>863.2</ele><time>2026-04-18T07:58:39.39Z</time></trkpt><trkpt lat="43.9839348" lon="11.0667529"><ele>864.0</ele><time>2026-04-18T07:58:40.4Z</time></trkpt><trkpt lat="43.9839291" lon="11.06663"><ele>864.6</ele><time>2026-04-18T07:58:41.386Z</time></trkpt><trkpt lat="43.9839258" lon="11.0665003"><ele>865.2</ele><time>2026-04-18T07:58:42.398Z</time></trkpt><trkpt lat="43.9839298" lon="11.0663632"><ele>865.8000000000001</ele><time>2026-04-18T07:58:43.401Z</time></trkpt><trkpt lat="43.9839459" lon="11.0662222"><ele>866.4000000000001</ele><time>2026-04-18T07:58:44.396Z</time></trkpt><trkpt lat="43.983983" lon="11.066074"><ele>867.0</ele><time>2026-04-18T07:58:45.401Z</time></trkpt><trkpt lat="43.9840293" lon="11.0659192"><ele>869.0</ele><time>2026-04-18T07:58:46.392Z</time></trkpt><trkpt lat="43.9840785" lon="11.0657549"><ele>871.0</ele><time>2026-04-18T07:58:47.398Z</time></trkpt><trkpt lat="43.9841262" lon="11.0655887"><ele>873.0</ele><time>2026-04-18T07:58:48.392Z</time></trkpt><trkpt lat="43.9841679" lon="11.065426"><ele>875.0</ele><time>2026-04-18T07:58:49.393Z</time></trkpt><trkpt lat="43.984193" lon="11.0652815"><ele>876.4</ele><time>2026-04-18T07:58:50.397Z</time></trkpt><trkpt lat="43.9842053" lon="11.0651474"><ele>877.8</ele><time>2026-04-18T07:58:51.395Z</time></trkpt><trkpt lat="43.9841976" lon="11.065017"><ele>879.2</ele><time>2026-04-18T07:58:52.4Z</time></trkpt><trkpt lat="43.9841702" lon="11.0648865"><ele>880.6</ele><time>2026-04-18T07:58:53.406Z</time></trkpt><trkpt lat="43.9841348" lon="11.0647555"><ele>882.0</ele><time>2026-04-18T07:58:54.395Z</time></trkpt><trkpt lat="43.9841022" lon="11.0646194"><ele>882.0</ele><time>2026-04-18T07:58:55.403Z</time></trkpt><trkpt lat="43.9840872" lon="11.0644753"><ele>882.0</ele><time>2026-04-18T07:58:56.395Z</time></trkpt><trkpt lat="43.984096" lon="11.0643265"><ele>882.0</ele><time>2026-04-18T07:58:57.394Z</time></trkpt><trkpt lat="43.9841179" lon="11.0641616"><ele>882.0</ele><time>2026-04-18T07:58:58.403Z</time></trkpt><trkpt lat="43.9841437" lon="11.0639988"><ele>881.6</ele><time>2026-04-18T07:58:59.393Z</time></trkpt><trkpt lat="43.9841601" lon="11.0638456"><ele>881.2</ele><time>2026-04-18T07:59:00.392Z</time></trkpt><trkpt lat="43.9841693" lon="11.0636971"><ele>880.8</ele><time>2026-04-18T07:59:01.401Z</time></trkpt><trkpt lat="43.9841818" lon="11.0635489"><ele>880.4</ele><time>2026-04-18T07:59:02.42Z</time></trkpt><trkpt lat="43.9841997" lon="11.0634063"><ele>880.0</ele><time>2026-04-18T07:59:03.412Z</time></trkpt><trkpt lat="43.9842181" lon="11.0632669"><ele>877.1666666666666</ele><time>2026-04-18T07:59:04.396Z</time></trkpt><trkpt lat="43.9842292" lon="11.0631347"><ele>874.3333333333333</ele><time>2026-04-18T07:59:05.404Z</time></trkpt><trkpt lat="43.9842316" lon="11.0630129"><ele>871.5</ele><time>2026-04-18T07:59:06.418Z</time></trkpt><trkpt lat="43.9842347" lon="11.0629012"><ele>868.6666666666667</ele><time>2026-04-18T07:59:07.4Z</time></trkpt><trkpt lat="43.9842553" lon="11.0627869"><ele>865.8333333333334</ele><time>2026-04-18T07:59:08.393Z</time></trkpt><trkpt lat="43.9842867" lon="11.0626593"><ele>863.0</ele><time>2026-04-18T07:59:09.403Z</time></trkpt><trkpt lat="43.9843273" lon="11.0625145"><ele>865.5</ele><time>2026-04-18T07:59:10.393Z</time></trkpt><trkpt lat="43.98438" lon="11.0623576"><ele>868.0</ele><time>2026-04-18T07:59:11.398Z</time></trkpt><trkpt lat="43.9844366" lon="11.0622055"><ele>870.5</ele><time>2026-04-18T07:59:12.403Z</time></trkpt><trkpt lat="43.9844942" lon="11.0620618"><ele>873.0</ele><time>2026-04-18T07:59:13.398Z</time></trkpt><trkpt lat="43.9845629" lon="11.0619304"><ele>873.0</ele><time>2026-04-18T07:59:14.397Z</time></trkpt><trkpt lat="43.9846367" lon="11.0618138"><ele>873.0</ele><time>2026-04-18T07:59:15.391Z</time></trkpt><trkpt lat="43.9847074" lon="11.0617028"><ele>873.0</ele><time>2026-04-18T07:59:16.382Z</time></trkpt><trkpt lat="43.9847787" lon="11.0616057"><ele>873.0</ele><time>2026-04-18T07:59:17.385Z</time></trkpt><trkpt lat="43.9848492" lon="11.0615222"><ele>873.0</ele><time>2026-04-18T07:59:18.384Z</time></trkpt><trkpt lat="43.9849214" lon="11.06145"><ele>873.5</ele><time>2026-04-18T07:59:19.389Z</time></trkpt><trkpt lat="43.9849913" lon="11.0613839"><ele>874.0</ele><time>2026-04-18T07:59:20.385Z</time></trkpt><trkpt lat="43.9850551" lon="11.061322"><ele>874.5</ele><time>2026-04-18T07:59:21.39Z</time></trkpt><trkpt lat="43.9850991" lon="11.0612542"><ele>875.0</ele><time>2026-04-18T07:59:22.386Z</time></trkpt><trkpt lat="43.9851217" lon="11.0610847"><ele>875.5</ele><time>2026-04-18T07:59:24.388Z</time></trkpt><trkpt lat="43.9850884" lon="11.0609856"><ele>876.0</ele><time>2026-04-18T07:59:25.386Z</time></trkpt><trkpt lat="43.9850495" lon="11.0608653"><ele>877.1666666666666</ele><time>2026-04-18T07:59:26.394Z</time></trkpt><trkpt lat="43.9850149" lon="11.0607412"><ele>878.3333333333333</ele><time>2026-04-18T07:59:27.394Z</time></trkpt><trkpt lat="43.9849881" lon="11.0606234"><ele>879.5</ele><time>2026-04-18T07:59:28.383Z</time></trkpt><trkpt lat="43.984966" lon="11.0605008"><ele>880.6666666666666</ele><time>2026-04-18T07:59:29.404Z</time></trkpt><trkpt lat="43.9849404" lon="11.0603826"><ele>881.8333333333333</ele><time>2026-04-18T07:59:30.393Z</time></trkpt><trkpt lat="43.9849161" lon="11.060271"><ele>883.0</ele><time>2026-04-18T07:59:31.393Z</time></trkpt><trkpt lat="43.9849084" lon="11.0601734"><ele>883.0</ele><time>2026-04-18T07:59:32.383Z</time></trkpt><trkpt lat="43.9849736" lon="11.0600188"><ele>883.0</ele><time>2026-04-18T07:59:34.371Z</time></trkpt><trkpt lat="43.9850341" lon="11.0599478"><ele>883.0</ele><time>2026-04-18T07:59:35.383Z</time></trkpt><trkpt lat="43.9851055" lon="11.0598766"><ele>883.0</ele><time>2026-04-18T07:59:36.375Z</time></trkpt><trkpt lat="43.9851848" lon="11.0597937"><ele>883.0</ele><time>2026-04-18T07:59:37.398Z</time></trkpt><trkpt lat="43.9852563" lon="11.0596974"><ele>881.5999999999999</ele><time>2026-04-18T07:59:38.383Z</time></trkpt><trkpt lat="43.9853144" lon="11.0595905"><ele>880.1999999999999</ele><time>2026-04-18T07:59:39.381Z</time></trkpt><trkpt lat="43.985362" lon="11.0594869"><ele>878.8</ele><time>2026-04-18T07:59:40.381Z</time></trkpt><trkpt lat="43.9854025" lon="11.0594065"><ele>877.4</ele><time>2026-04-18T07:59:41.372Z</time></trkpt><trkpt lat="43.9855219" lon="11.0593325"><ele>876.0</ele><time>2026-04-18T07:59:43.376Z</time></trkpt><trkpt lat="43.9855988" lon="11.0593033"><ele>876.0</ele><time>2026-04-18T07:59:44.382Z</time></trkpt><trkpt lat="43.9856767" lon="11.0592629"><ele>876.0</ele><time>2026-04-18T07:59:45.373Z</time></trkpt><trkpt lat="43.9857511" lon="11.059218"><ele>876.0</ele><time>2026-04-18T07:59:46.376Z</time></trkpt><trkpt lat="43.9858246" lon="11.0591642"><ele>876.0</ele><time>2026-04-18T07:59:47.376Z</time></trkpt><trkpt lat="43.9858951" lon="11.0591012"><ele>876.0</ele><time>2026-04-18T07:59:48.378Z</time></trkpt><trkpt lat="43.9859609" lon="11.0590263"><ele>876.0</ele><time>2026-04-18T07:59:49.383Z</time></trkpt><trkpt lat="43.9860264" lon="11.0589393"><ele>875.0</ele><time>2026-04-18T07:59:50.385Z</time></trkpt><trkpt lat="43.9860872" lon="11.0588385"><ele>873.9999999999999</ele><time>2026-04-18T07:59:51.404Z</time></trkpt><trkpt lat="43.9861457" lon="11.0587336"><ele>872.9999999999999</ele><time>2026-04-18T07:59:52.393Z</time></trkpt><trkpt lat="43.9862028" lon="11.058634"><ele>872.0</ele><time>2026-04-18T07:59:53.391Z</time></trkpt><trkpt lat="43.9862583" lon="11.0585454"><ele>871.0</ele><time>2026-04-18T07:59:54.382Z</time></trkpt><trkpt lat="43.9863243" lon="11.0584739"><ele>870.9999999999999</ele><time>2026-04-18T07:59:55.393Z</time></trkpt><trkpt lat="43.9863917" lon="11.0584181"><ele>871.0</ele><time>2026-04-18T07:59:56.377Z</time></trkpt><trkpt lat="43.9864565" lon="11.0583709"><ele>871.0</ele><time>2026-04-18T07:59:57.387Z</time></trkpt><trkpt lat="43.9865234" lon="11.0583372"><ele>871.0</ele><time>2026-04-18T07:59:58.391Z</time></trkpt><trkpt lat="43.9866022" lon="11.0583191"><ele>870.9999999999999</ele><time>2026-04-18T07:59:59.391Z</time></trkpt><trkpt lat="43.9866927" lon="11.0583136"><ele>871.0</ele><time>2026-04-18T08:00:00.389Z</time></trkpt><trkpt lat="43.9867846" lon="11.0583236"><ele>869.1666666666666</ele><time>2026-04-18T08:00:01.388Z</time></trkpt><trkpt lat="43.986878" lon="11.0583492"><ele>867.3333333333333</ele><time>2026-04-18T08:00:02.38Z</time></trkpt><trkpt lat="43.9869641" lon="11.0583821"><ele>865.5</ele><time>2026-04-18T08:00:03.379Z</time></trkpt><trkpt lat="43.9870406" lon="11.0584012"><ele>863.6666666666667</ele><time>2026-04-18T08:00:04.379Z</time></trkpt><trkpt lat="43.987107" lon="11.0583909"><ele>861.8333333333334</ele><time>2026-04-18T08:00:05.38Z</time></trkpt><trkpt lat="43.987173" lon="11.058353"><ele>860.0</ele><time>2026-04-18T08:00:06.383Z</time></trkpt><trkpt lat="43.9872404" lon="11.0582976"><ele>859.8333333333334</ele><time>2026-04-18T08:00:07.39Z</time></trkpt><trkpt lat="43.9873003" lon="11.0582332"><ele>859.6666666666667</ele><time>2026-04-18T08:00:08.419Z</time></trkpt><trkpt lat="43.9873506" lon="11.0581714"><ele>859.5</ele><time>2026-04-18T08:00:09.397Z</time></trkpt><trkpt lat="43.9874326" lon="11.0580709"><ele>859.3333333333333</ele><time>2026-04-18T08:00:11.391Z</time></trkpt><trkpt lat="43.9874853" lon="11.0579869"><ele>859.1666666666666</ele><time>2026-04-18T08:00:13.406Z</time></trkpt><trkpt lat="43.9875019" lon="11.0578931"><ele>859.0</ele><time>2026-04-18T08:00:15.415Z</time></trkpt><trkpt lat="43.9875111" lon="11.0577729"><ele>860.8000000000001</ele><time>2026-04-18T08:00:17.424Z</time></trkpt><trkpt lat="43.9875391" lon="11.0576738"><ele>862.6000000000001</ele><time>2026-04-18T08:00:19.412Z</time></trkpt><trkpt lat="43.9876248" lon="11.0575473"><ele>864.4</ele><time>2026-04-18T08:00:21.393Z</time></trkpt><trkpt lat="43.9877521" lon="11.0574914"><ele>866.2</ele><time>2026-04-18T08:00:23.392Z</time></trkpt><trkpt lat="43.9878375" lon="11.0574832"><ele>868.0</ele><time>2026-04-18T08:00:24.393Z</time></trkpt><trkpt lat="43.9879297" lon="11.0574645"><ele>865.4</ele><time>2026-04-18T08:00:25.397Z</time></trkpt><trkpt lat="43.9880166" lon="11.0574207"><ele>862.8</ele><time>2026-04-18T08:00:26.392Z</time></trkpt><trkpt lat="43.9880948" lon="11.0573529"><ele>860.2</ele><time>2026-04-18T08:00:27.396Z</time></trkpt><trkpt lat="43.9881633" lon="11.0572728"><ele>857.6</ele><time>2026-04-18T08:00:28.386Z</time></trkpt><trkpt lat="43.9882207" lon="11.0571822"><ele>855.0</ele><time>2026-04-18T08:00:29.395Z</time></trkpt><trkpt lat="43.9882705" lon="11.0570779"><ele>855.0</ele><time>2026-04-18T08:00:30.389Z</time></trkpt><trkpt lat="43.9883113" lon="11.056961"><ele>855.0</ele><time>2026-04-18T08:00:31.388Z</time></trkpt><trkpt lat="43.9883439" lon="11.0568382"><ele>855.0</ele><time>2026-04-18T08:00:32.4Z</time></trkpt><trkpt lat="43.9883525" lon="11.0567126"><ele>855.0</ele><time>2026-04-18T08:00:33.396Z</time></trkpt><trkpt lat="43.9883509" lon="11.0565994"><ele>855.0</ele><time>2026-04-18T08:00:34.393Z</time></trkpt><trkpt lat="43.988351" lon="11.0564943"><ele>855.0</ele><time>2026-04-18T08:00:35.384Z</time></trkpt><trkpt lat="43.9883642" lon="11.0564005"><ele>858.6666666666666</ele><time>2026-04-18T08:00:36.381Z</time></trkpt><trkpt lat="43.9883884" lon="11.0562938"><ele>862.3333333333333</ele><time>2026-04-18T08:00:37.376Z</time></trkpt><trkpt lat="43.9884011" lon="11.0561837"><ele>866.0</ele><time>2026-04-18T08:00:38.397Z</time></trkpt><trkpt lat="43.9884072" lon="11.0560722"><ele>869.6666666666666</ele><time>2026-04-18T08:00:39.386Z</time></trkpt><trkpt lat="43.9884027" lon="11.0559552"><ele>873.3333333333333</ele><time>2026-04-18T08:00:40.385Z</time></trkpt><trkpt lat="43.9883939" lon="11.0558394"><ele>877.0</ele><time>2026-04-18T08:00:41.392Z</time></trkpt><trkpt lat="43.9883856" lon="11.0557344"><ele>876.9999999999999</ele><time>2026-04-18T08:00:42.392Z</time></trkpt><trkpt lat="43.9883815" lon="11.0556281"><ele>877.0</ele><time>2026-04-18T08:00:43.391Z</time></trkpt><trkpt lat="43.9883743" lon="11.0555113"><ele>877.0</ele><time>2026-04-18T08:00:44.386Z</time></trkpt><trkpt lat="43.9883651" lon="11.055394"><ele>877.0</ele><time>2026-04-18T08:00:45.388Z</time></trkpt><trkpt lat="43.988362" lon="11.0552837"><ele>876.9999999999999</ele><time>2026-04-18T08:00:46.388Z</time></trkpt><trkpt lat="43.9883635" lon="11.0551787"><ele>877.0</ele><time>2026-04-18T08:00:47.374Z</time></trkpt><trkpt lat="43.9883773" lon="11.0550778"><ele>876.9999999999999</ele><time>2026-04-18T08:00:48.382Z</time></trkpt><trkpt lat="43.9884063" lon="11.054976"><ele>877.0</ele><time>2026-04-18T08:00:49.383Z</time></trkpt><trkpt lat="43.9884466" lon="11.0548763"><ele>877.0</ele><time>2026-04-18T08:00:50.376Z</time></trkpt><trkpt lat="43.9884847" lon="11.0547812"><ele>877.0</ele><time>2026-04-18T08:00:51.382Z</time></trkpt><trkpt lat="43.9885246" lon="11.0546868"><ele>876.9999999999999</ele><time>2026-04-18T08:00:52.385Z</time></trkpt><trkpt lat="43.9885624" lon="11.0546071"><ele>877.0</ele><time>2026-04-18T08:00:53.386Z</time></trkpt><trkpt lat="43.9885871" lon="11.0545192"><ele>875.2</ele><time>2026-04-18T08:00:54.374Z</time></trkpt><trkpt lat="43.9885919" lon="11.0543349"><ele>873.4000000000001</ele><time>2026-04-18T08:00:56.386Z</time></trkpt><trkpt lat="43.9885868" lon="11.0542206"><ele>871.5999999999999</ele><time>2026-04-18T08:00:57.39Z</time></trkpt><trkpt lat="43.988592" lon="11.0541034"><ele>869.8</ele><time>2026-04-18T08:00:58.393Z</time></trkpt><trkpt lat="43.9885989" lon="11.0539895"><ele>868.0</ele><time>2026-04-18T08:00:59.403Z</time></trkpt><trkpt lat="43.9886139" lon="11.0538776"><ele>862.9999999999999</ele><time>2026-04-18T08:01:00.405Z</time></trkpt><trkpt lat="43.9886314" lon="11.0537668"><ele>858.0</ele><time>2026-04-18T08:01:01.402Z</time></trkpt><trkpt lat="43.9886585" lon="11.0536616"><ele>853.0</ele><time>2026-04-18T08:01:02.412Z</time></trkpt><trkpt lat="43.9886871" lon="11.0535517"><ele>848.0</ele><time>2026-04-18T08:01:03.407Z</time></trkpt><trkpt lat="43.988729" lon="11.0534353"><ele>842.9999999999999</ele><time>2026-04-18T08:01:04.401Z</time></trkpt><trkpt lat="43.9887786" lon="11.0533267"><ele>838.0</ele><time>2026-04-18T08:01:05.411Z</time></trkpt><trkpt lat="43.9888301" lon="11.053226"><ele>838.4999999999999</ele><time>2026-04-18T08:01:06.401Z</time></trkpt><trkpt lat="43.9888881" lon="11.0531515"><ele>839.0</ele><time>2026-04-18T08:01:07.409Z</time></trkpt><trkpt lat="43.9889451" lon="11.0531081"><ele>839.5</ele><time>2026-04-18T08:01:08.401Z</time></trkpt><trkpt lat="43.9890748" lon="11.0530892"><ele>840.0</ele><time>2026-04-18T08:01:10.381Z</time></trkpt><trkpt lat="43.98916" lon="11.0530843"><ele>840.4999999999999</ele><time>2026-04-18T08:01:11.377Z</time></trkpt><trkpt lat="43.9892453" lon="11.0530841"><ele>841.0</ele><time>2026-04-18T08:01:12.373Z</time></trkpt><trkpt lat="43.9893251" lon="11.0530826"><ele>840.9999999999999</ele><time>2026-04-18T08:01:13.379Z</time></trkpt><trkpt lat="43.9894057" lon="11.0530701"><ele>841.0</ele><time>2026-04-18T08:01:14.366Z</time></trkpt><trkpt lat="43.9894809" lon="11.0530534"><ele>841.0</ele><time>2026-04-18T08:01:15.368Z</time></trkpt><trkpt lat="43.9895597" lon="11.0530102"><ele>841.0</ele><time>2026-04-18T08:01:16.379Z</time></trkpt><trkpt lat="43.9896325" lon="11.052985"><ele>840.9999999999999</ele><time>2026-04-18T08:01:17.38Z</time></trkpt><trkpt lat="43.9897165" lon="11.0529431"><ele>841.0</ele><time>2026-04-18T08:01:18.371Z</time></trkpt><trkpt lat="43.9897933" lon="11.0529159"><ele>841.0</ele><time>2026-04-18T08:01:19.375Z</time></trkpt><trkpt lat="43.9898672" lon="11.0528865"><ele>841.0</ele><time>2026-04-18T08:01:20.364Z</time></trkpt><trkpt lat="43.9899237" lon="11.0528427"><ele>841.0</ele><time>2026-04-18T08:01:21.366Z</time></trkpt><trkpt lat="43.9899883" lon="11.0526918"><ele>841.0</ele><time>2026-04-18T08:01:23.366Z</time></trkpt><trkpt lat="43.9900198" lon="11.052615"><ele>841.0</ele><time>2026-04-18T08:01:24.362Z</time></trkpt><trkpt lat="43.9900727" lon="11.0524651"><ele>840.4</ele><time>2026-04-18T08:01:26.36Z</time></trkpt><trkpt lat="43.9900723" lon="11.0523218"><ele>839.8</ele><time>2026-04-18T08:01:28.357Z</time></trkpt><trkpt lat="43.9899813" lon="11.0522058"><ele>839.1999999999999</ele><time>2026-04-18T08:01:30.376Z</time></trkpt><trkpt lat="43.9899063" lon="11.0521359"><ele>838.5999999999999</ele><time>2026-04-18T08:01:31.369Z</time></trkpt><trkpt lat="43.9898314" lon="11.0520523"><ele>838.0</ele><time>2026-04-18T08:01:32.377Z</time></trkpt><trkpt lat="43.9897729" lon="11.0519777"><ele>837.9999999999999</ele><time>2026-04-18T08:01:33.371Z</time></trkpt><trkpt lat="43.989734" lon="11.0518997"><ele>838.0</ele><time>2026-04-18T08:01:34.362Z</time></trkpt><trkpt lat="43.9897111" lon="11.0518012"><ele>838.0</ele><time>2026-04-18T08:01:35.363Z</time></trkpt><trkpt lat="43.9896956" lon="11.0516976"><ele>838.0</ele><time>2026-04-18T08:01:36.365Z</time></trkpt><trkpt lat="43.9896941" lon="11.0516037"><ele>837.9999999999999</ele><time>2026-04-18T08:01:37.369Z</time></trkpt><trkpt lat="43.989707" lon="11.0514912"><ele>838.0</ele><time>2026-04-18T08:01:38.365Z</time></trkpt><trkpt lat="43.9897263" lon="11.0513727"><ele>838.1666666666666</ele><time>2026-04-18T08:01:39.369Z</time></trkpt><trkpt lat="43.9897661" lon="11.0512657"><ele>838.3333333333333</ele><time>2026-04-18T08:01:40.385Z</time></trkpt><trkpt lat="43.9898133" lon="11.0511705"><ele>838.5</ele><time>2026-04-18T08:01:41.362Z</time></trkpt><trkpt lat="43.9898671" lon="11.0511006"><ele>838.6666666666667</ele><time>2026-04-18T08:01:42.368Z</time></trkpt><trkpt lat="43.9899213" lon="11.0509641"><ele>838.8333333333334</ele><time>2026-04-18T08:01:44.369Z</time></trkpt><trkpt lat="43.9899437" lon="11.0508789"><ele>839.0</ele><time>2026-04-18T08:01:45.368Z</time></trkpt><trkpt lat="43.9899554" lon="11.0507899"><ele>839.0</ele><time>2026-04-18T08:01:46.364Z</time></trkpt><trkpt lat="43.9899112" lon="11.0506379"><ele>839.0</ele><time>2026-04-18T08:01:48.36Z</time></trkpt><trkpt lat="43.9898451" lon="11.0506113"><ele>839.0</ele><time>2026-04-18T08:01:49.363Z</time></trkpt><trkpt lat="43.9897478" lon="11.0506026"><ele>839.0</ele><time>2026-04-18T08:01:50.373Z</time></trkpt><trkpt lat="43.989647" lon="11.0505787"><ele>839.0</ele><time>2026-04-18T08:01:51.379Z</time></trkpt><trkpt lat="43.9895539" lon="11.0505383"><ele>839.0000000000001</ele><time>2026-04-18T08:01:52.405Z</time></trkpt><trkpt lat="43.9894892" lon="11.050476"><ele>839.0</ele><time>2026-04-18T08:01:53.394Z</time></trkpt><trkpt lat="43.9894633" lon="11.050391"><ele>839.0</ele><time>2026-04-18T08:01:54.392Z</time></trkpt><trkpt lat="43.9894501" lon="11.0502872"><ele>839.0</ele><time>2026-04-18T08:01:55.391Z</time></trkpt><trkpt lat="43.9894325" lon="11.0501597"><ele>839.0000000000001</ele><time>2026-04-18T08:01:56.387Z</time></trkpt><trkpt lat="43.989434" lon="11.050022"><ele>839.0</ele><time>2026-04-18T08:01:57.386Z</time></trkpt><trkpt lat="43.9894439" lon="11.0498727"><ele>838.8000000000001</ele><time>2026-04-18T08:01:58.382Z</time></trkpt><trkpt lat="43.9894737" lon="11.0497422"><ele>838.6</ele><time>2026-04-18T08:01:59.397Z</time></trkpt><trkpt lat="43.9895219" lon="11.0496164"><ele>838.4</ele><time>2026-04-18T08:02:00.386Z</time></trkpt><trkpt lat="43.9895685" lon="11.0494801"><ele>838.2</ele><time>2026-04-18T08:02:01.395Z</time></trkpt><trkpt lat="43.9896213" lon="11.0493474"><ele>838.0</ele><time>2026-04-18T08:02:02.412Z</time></trkpt><trkpt lat="43.9896729" lon="11.0492021"><ele>837.25</ele><time>2026-04-18T08:02:03.384Z</time></trkpt><trkpt lat="43.989719" lon="11.0490405"><ele>836.5</ele><time>2026-04-18T08:02:04.385Z</time></trkpt><trkpt lat="43.9897584" lon="11.0488741"><ele>835.75</ele><time>2026-04-18T08:02:05.391Z</time></trkpt><trkpt lat="43.9897916" lon="11.0487069"><ele>835.0</ele><time>2026-04-18T08:02:06.387Z</time></trkpt><trkpt lat="43.9898289" lon="11.0485386"><ele>835.0</ele><time>2026-04-18T08:02:07.39Z</time></trkpt><trkpt lat="43.9898662" lon="11.0483735"><ele>835.0</ele><time>2026-04-18T08:02:08.382Z</time></trkpt><trkpt lat="43.9899094" lon="11.0482105"><ele>835.0</ele><time>2026-04-18T08:02:09.382Z</time></trkpt><trkpt lat="43.9899538" lon="11.0480503"><ele>835.0</ele><time>2026-04-18T08:02:10.389Z</time></trkpt><trkpt lat="43.9899955" lon="11.0479012"><ele>834.4</ele><time>2026-04-18T08:02:11.406Z</time></trkpt><trkpt lat="43.9900326" lon="11.0477553"><ele>833.8</ele><time>2026-04-18T08:02:12.385Z</time></trkpt><trkpt lat="43.9900639" lon="11.0476168"><ele>833.2</ele><time>2026-04-18T08:02:13.397Z</time></trkpt><trkpt lat="43.9900831" lon="11.0474939"><ele>832.6</ele><time>2026-04-18T08:02:14.395Z</time></trkpt><trkpt lat="43.9901065" lon="11.0473902"><ele>832.0</ele><time>2026-04-18T08:02:15.385Z</time></trkpt><trkpt lat="43.9901953" lon="11.0472683"><ele>831.9999999999999</ele><time>2026-04-18T08:02:17.383Z</time></trkpt><trkpt lat="43.9902524" lon="11.0472117"><ele>832.0</ele><time>2026-04-18T08:02:18.373Z</time></trkpt><trkpt lat="43.9903167" lon="11.047147"><ele>832.0</ele><time>2026-04-18T08:02:19.368Z</time></trkpt><trkpt lat="43.9903817" lon="11.0470633"><ele>832.0</ele><time>2026-04-18T08:02:20.379Z</time></trkpt><trkpt lat="43.9904461" lon="11.0469884"><ele>831.9999999999999</ele><time>2026-04-18T08:02:21.366Z</time></trkpt><trkpt lat="43.9905081" lon="11.0469287"><ele>832.0</ele><time>2026-04-18T08:02:22.364Z</time></trkpt><trkpt lat="43.9905799" lon="11.0468801"><ele>831.9999999999999</ele><time>2026-04-18T08:02:23.379Z</time></trkpt><trkpt lat="43.9906589" lon="11.0468494"><ele>832.0</ele><time>2026-04-18T08:02:24.37Z</time></trkpt><trkpt lat="43.9907371" lon="11.0468158"><ele>832.0</ele><time>2026-04-18T08:02:25.367Z</time></trkpt><trkpt lat="43.9908018" lon="11.0467955"><ele>832.0</ele><time>2026-04-18T08:02:26.359Z</time></trkpt><trkpt lat="43.9908696" lon="11.046786"><ele>831.9999999999999</ele><time>2026-04-18T08:02:27.366Z</time></trkpt><trkpt lat="43.9909595" lon="11.0467273"><ele>832.0</ele><time>2026-04-18T08:02:29.368Z</time></trkpt><trkpt lat="43.9909757" lon="11.0466089"><ele>835.6666666666666</ele><time>2026-04-18T08:02:31.377Z</time></trkpt><trkpt lat="43.9909427" lon="11.0464868"><ele>839.3333333333333</ele><time>2026-04-18T08:02:33.371Z</time></trkpt><trkpt lat="43.9908303" lon="11.0464449"><ele>843.0</ele><time>2026-04-18T08:02:35.38Z</time></trkpt><trkpt lat="43.9907613" lon="11.0464151"><ele>846.6666666666667</ele><time>2026-04-18T08:02:36.361Z</time></trkpt><trkpt lat="43.9906891" lon="11.0463699"><ele>850.3333333333334</ele><time>2026-04-18T08:02:37.369Z</time></trkpt><trkpt lat="43.9906282" lon="11.0463063"><ele>854.0</ele><time>2026-04-18T08:02:38.367Z</time></trkpt><trkpt lat="43.9905642" lon="11.0462375"><ele>854.0</ele><time>2026-04-18T08:02:39.372Z</time></trkpt><trkpt lat="43.9904812" lon="11.04618"><ele>854.0000000000001</ele><time>2026-04-18T08:02:40.377Z</time></trkpt><trkpt lat="43.9904033" lon="11.0461196"><ele>854.0000000000001</ele><time>2026-04-18T08:02:41.369Z</time></trkpt><trkpt lat="43.990332" lon="11.0460418"><ele>854.0</ele><time>2026-04-18T08:02:42.388Z</time></trkpt><trkpt lat="43.9902593" lon="11.0459399"><ele>854.0</ele><time>2026-04-18T08:02:43.363Z</time></trkpt><trkpt lat="43.9901962" lon="11.0458213"><ele>856.1666666666667</ele><time>2026-04-18T08:02:44.372Z</time></trkpt><trkpt lat="43.990143" lon="11.0456987"><ele>858.3333333333334</ele><time>2026-04-18T08:02:45.375Z</time></trkpt><trkpt lat="43.9900899" lon="11.0455884"><ele>860.5</ele><time>2026-04-18T08:02:46.392Z</time></trkpt><trkpt lat="43.9900344" lon="11.0455069"><ele>862.6666666666667</ele><time>2026-04-18T08:02:47.383Z</time></trkpt><trkpt lat="43.9899633" lon="11.0454512"><ele>864.8333333333334</ele><time>2026-04-18T08:02:48.393Z</time></trkpt><trkpt lat="43.9898913" lon="11.0453941"><ele>867.0</ele><time>2026-04-18T08:02:49.387Z</time></trkpt><trkpt lat="43.9898306" lon="11.0453461"><ele>860.0</ele><time>2026-04-18T08:02:50.382Z</time></trkpt><trkpt lat="43.9897768" lon="11.0452732"><ele>853.0</ele><time>2026-04-18T08:02:51.394Z</time></trkpt><trkpt lat="43.9897434" lon="11.0451682"><ele>846.0</ele><time>2026-04-18T08:02:52.397Z</time></trkpt><trkpt lat="43.9897408" lon="11.0450159"><ele>839.0</ele><time>2026-04-18T08:02:53.387Z</time></trkpt><trkpt lat="43.9897221" lon="11.0448421"><ele>832.0</ele><time>2026-04-18T08:02:54.382Z</time></trkpt><trkpt lat="43.9896853" lon="11.0446751"><ele>831.0</ele><time>2026-04-18T08:02:55.378Z</time></trkpt><trkpt lat="43.9896347" lon="11.0445284"><ele>830.0</ele><time>2026-04-18T08:02:56.378Z</time></trkpt><trkpt lat="43.9895921" lon="11.0443994"><ele>829.0</ele><time>2026-04-18T08:02:57.4Z</time></trkpt><trkpt lat="43.9895603" lon="11.0442899"><ele>828.0</ele><time>2026-04-18T08:02:58.398Z</time></trkpt><trkpt lat="43.9895703" lon="11.0441347"><ele>827.0</ele><time>2026-04-18T08:03:00.391Z</time></trkpt><trkpt lat="43.989677" lon="11.0440386"><ele>829.1666666666667</ele><time>2026-04-18T08:03:02.387Z</time></trkpt><trkpt lat="43.9897506" lon="11.0440027"><ele>831.3333333333334</ele><time>2026-04-18T08:03:03.37Z</time></trkpt><trkpt lat="43.9898365" lon="11.0439881"><ele>833.5</ele><time>2026-04-18T08:03:04.38Z</time></trkpt><trkpt lat="43.9899311" lon="11.0439824"><ele>835.6666666666667</ele><time>2026-04-18T08:03:05.371Z</time></trkpt><trkpt lat="43.9900272" lon="11.043986"><ele>837.8333333333334</ele><time>2026-04-18T08:03:06.367Z</time></trkpt><trkpt lat="43.9901185" lon="11.0439842"><ele>840.0</ele><time>2026-04-18T08:03:07.372Z</time></trkpt><trkpt lat="43.9901975" lon="11.0439604"><ele>840.0</ele><time>2026-04-18T08:03:08.385Z</time></trkpt><trkpt lat="43.9902655" lon="11.0439046"><ele>840.0</ele><time>2026-04-18T08:03:09.383Z</time></trkpt><trkpt lat="43.9903309" lon="11.0438229"><ele>840.0</ele><time>2026-04-18T08:03:10.381Z</time></trkpt><trkpt lat="43.9903845" lon="11.0437126"><ele>840.0</ele><time>2026-04-18T08:03:11.369Z</time></trkpt><trkpt lat="43.9904342" lon="11.0435994"><ele>840.0</ele><time>2026-04-18T08:03:12.369Z</time></trkpt><trkpt lat="43.9904805" lon="11.0434965"><ele>840.0</ele><time>2026-04-18T08:03:13.386Z</time></trkpt><trkpt lat="43.9905218" lon="11.0434218"><ele>840.0</ele><time>2026-04-18T08:03:14.367Z</time></trkpt><trkpt lat="43.9905755" lon="11.0433645"><ele>840.0</ele><time>2026-04-18T08:03:15.369Z</time></trkpt><trkpt lat="43.9906363" lon="11.0433262"><ele>840.0</ele><time>2026-04-18T08:03:16.362Z</time></trkpt><trkpt lat="43.9907079" lon="11.0433101"><ele>840.0</ele><time>2026-04-18T08:03:17.366Z</time></trkpt><trkpt lat="43.9907809" lon="11.0432878"><ele>840.0</ele><time>2026-04-18T08:03:18.368Z</time></trkpt><trkpt lat="43.9908422" lon="11.0431899"><ele>840.0</ele><time>2026-04-18T08:03:20.376Z</time></trkpt><trkpt lat="43.9908113" lon="11.0430053"><ele>839.4</ele><time>2026-04-18T08:03:22.365Z</time></trkpt><trkpt lat="43.9907727" lon="11.0428894"><ele>838.8</ele><time>2026-04-18T08:03:23.359Z</time></trkpt><trkpt lat="43.9907331" lon="11.042775"><ele>838.2</ele><time>2026-04-18T08:03:24.367Z</time></trkpt><trkpt lat="43.9907045" lon="11.0426694"><ele>837.6</ele><time>2026-04-18T08:03:25.367Z</time></trkpt><trkpt lat="43.9907091" lon="11.0425769"><ele>837.0</ele><time>2026-04-18T08:03:26.371Z</time></trkpt><trkpt lat="43.9908027" lon="11.0424578"><ele>842.8333333333334</ele><time>2026-04-18T08:03:28.371Z</time></trkpt><trkpt lat="43.990877" lon="11.042381"><ele>848.6666666666667</ele><time>2026-04-18T08:03:29.368Z</time></trkpt><trkpt lat="43.9909409" lon="11.0422851"><ele>854.5</ele><time>2026-04-18T08:03:30.382Z</time></trkpt><trkpt lat="43.9909885" lon="11.0421879"><ele>860.3333333333334</ele><time>2026-04-18T08:03:31.381Z</time></trkpt><trkpt lat="43.9910136" lon="11.0420864"><ele>866.1666666666667</ele><time>2026-04-18T08:03:32.39Z</time></trkpt><trkpt lat="43.9910252" lon="11.0419907"><ele>872.0</ele><time>2026-04-18T08:03:33.381Z</time></trkpt><trkpt lat="43.9909956" lon="11.0418847"><ele>872.0000000000001</ele><time>2026-04-18T08:03:35.388Z</time></trkpt><trkpt lat="43.9909094" lon="11.0418435"><ele>872.0</ele><time>2026-04-18T08:03:37.383Z</time></trkpt><trkpt lat="43.9908413" lon="11.0418169"><ele>872.0</ele><time>2026-04-18T08:03:38.398Z</time></trkpt><trkpt lat="43.9907597" lon="11.0417895"><ele>872.0</ele><time>2026-04-18T08:03:39.405Z</time></trkpt><trkpt lat="43.9906681" lon="11.0417371"><ele>872.0000000000001</ele><time>2026-04-18T08:03:40.398Z</time></trkpt><trkpt lat="43.9905867" lon="11.0416467"><ele>872.0</ele><time>2026-04-18T08:03:41.393Z</time></trkpt><trkpt lat="43.9904927" lon="11.0415531"><ele>867.5</ele><time>2026-04-18T08:03:42.387Z</time></trkpt><trkpt lat="43.9903991" lon="11.041451"><ele>863.0</ele><time>2026-04-18T08:03:43.398Z</time></trkpt><trkpt lat="43.9903039" lon="11.0413369"><ele>858.5</ele><time>2026-04-18T08:03:44.389Z</time></trkpt><trkpt lat="43.9902107" lon="11.0412214"><ele>854.0</ele><time>2026-04-18T08:03:45.393Z</time></trkpt><trkpt lat="43.9901179" lon="11.0411062"><ele>854.0</ele><time>2026-04-18T08:03:46.395Z</time></trkpt><trkpt lat="43.9900242" lon="11.0410201"><ele>854.0000000000001</ele><time>2026-04-18T08:03:47.379Z</time></trkpt><trkpt lat="43.9899375" lon="11.0409641"><ele>854.0000000000001</ele><time>2026-04-18T08:03:48.387Z</time></trkpt><trkpt lat="43.9898806" lon="11.0409194"><ele>854.0</ele><time>2026-04-18T08:03:49.369Z</time></trkpt><trkpt lat="43.9898299" lon="11.0408344"><ele>854.0</ele><time>2026-04-18T08:03:51.375Z</time></trkpt><trkpt lat="43.9899233" lon="11.0408721"><ele>854.0</ele><time>2026-04-18T08:03:57.401Z</time></trkpt><trkpt lat="43.9900584" lon="11.0409276"><ele>854.0000000000001</ele><time>2026-04-18T08:03:59.402Z</time></trkpt><trkpt lat="43.990141" lon="11.0409768"><ele>854.0000000000001</ele><time>2026-04-18T08:04:00.379Z</time></trkpt><trkpt lat="43.9902309" lon="11.041031"><ele>854.0</ele><time>2026-04-18T08:04:01.387Z</time></trkpt><trkpt lat="43.9903217" lon="11.0410838"><ele>854.0</ele><time>2026-04-18T08:04:02.393Z</time></trkpt><trkpt lat="43.9903921" lon="11.0411066"><ele>854.0</ele><time>2026-04-18T08:04:03.377Z</time></trkpt><trkpt lat="43.9904612" lon="11.0410545"><ele>854.0000000000001</ele><time>2026-04-18T08:04:05.388Z</time></trkpt><trkpt lat="43.9904181" lon="11.0409384"><ele>854.0000000000001</ele><time>2026-04-18T08:04:07.402Z</time></trkpt><trkpt lat="43.9903135" lon="11.0408285"><ele>854.0</ele><time>2026-04-18T08:04:09.376Z</time></trkpt><trkpt lat="43.9902353" lon="11.0407623"><ele>854.0</ele><time>2026-04-18T08:04:10.384Z</time></trkpt><trkpt lat="43.990154" lon="11.0406703"><ele>855.0</ele><time>2026-04-18T08:04:11.378Z</time></trkpt><trkpt lat="43.9900755" lon="11.0405557"><ele>856.0000000000001</ele><time>2026-04-18T08:04:12.381Z</time></trkpt><trkpt lat="43.9900188" lon="11.0404234"><ele>857.0000000000001</ele><time>2026-04-18T08:04:13.394Z</time></trkpt><trkpt lat="43.9899674" lon="11.0402897"><ele>858.0</ele><time>2026-04-18T08:04:14.411Z</time></trkpt><trkpt lat="43.9899314" lon="11.0401482"><ele>859.0</ele><time>2026-04-18T08:04:15.4Z</time></trkpt><trkpt lat="43.9899053" lon="11.0399862"><ele>855.0</ele><time>2026-04-18T08:04:16.391Z</time></trkpt><trkpt lat="43.9898961" lon="11.0398324"><ele>851.0000000000001</ele><time>2026-04-18T08:04:17.403Z</time></trkpt><trkpt lat="43.9898977" lon="11.0396921"><ele>847.0</ele><time>2026-04-18T08:04:18.404Z</time></trkpt><trkpt lat="43.989938" lon="11.0395855"><ele>843.0</ele><time>2026-04-18T08:04:19.407Z</time></trkpt><trkpt lat="43.9899977" lon="11.0395109"><ele>839.0</ele><time>2026-04-18T08:04:20.389Z</time></trkpt><trkpt lat="43.9900745" lon="11.0394698"><ele>839.0</ele><time>2026-04-18T08:04:21.402Z</time></trkpt><trkpt lat="43.9901519" lon="11.0394553"><ele>839.0</ele><time>2026-04-18T08:04:22.403Z</time></trkpt><trkpt lat="43.9902362" lon="11.0394646"><ele>839.0</ele><time>2026-04-18T08:04:23.401Z</time></trkpt><trkpt lat="43.990326" lon="11.0394976"><ele>839.0</ele><time>2026-04-18T08:04:24.391Z</time></trkpt><trkpt lat="43.9904164" lon="11.0395658"><ele>839.0</ele><time>2026-04-18T08:04:25.407Z</time></trkpt><trkpt lat="43.9905156" lon="11.039651"><ele>839.0</ele><time>2026-04-18T08:04:26.397Z</time></trkpt><trkpt lat="43.9906258" lon="11.0397275"><ele>839.0</ele><time>2026-04-18T08:04:27.386Z</time></trkpt><trkpt lat="43.9907471" lon="11.0397994"><ele>839.0</ele><time>2026-04-18T08:04:28.378Z</time></trkpt><trkpt lat="43.9908686" lon="11.0398712"><ele>839.0</ele><time>2026-04-18T08:04:29.383Z</time></trkpt><trkpt lat="43.9909982" lon="11.0399395"><ele>847.75</ele><time>2026-04-18T08:04:30.387Z</time></trkpt><trkpt lat="43.9911183" lon="11.0400092"><ele>856.5</ele><time>2026-04-18T08:04:31.405Z</time></trkpt><trkpt lat="43.9912361" lon="11.0400753"><ele>865.25</ele><time>2026-04-18T08:04:32.412Z</time></trkpt><trkpt lat="43.991346" lon="11.0401378"><ele>874.0</ele><time>2026-04-18T08:04:33.392Z</time></trkpt><trkpt lat="43.9914471" lon="11.0401789"><ele>874.0</ele><time>2026-04-18T08:04:34.391Z</time></trkpt><trkpt lat="43.9915454" lon="11.0401908"><ele>874.0000000000001</ele><time>2026-04-18T08:04:35.376Z</time></trkpt><trkpt lat="43.9916364" lon="11.0401678"><ele>874.0000000000001</ele><time>2026-04-18T08:04:36.379Z</time></trkpt><trkpt lat="43.9917221" lon="11.0400938"><ele>874.0</ele><time>2026-04-18T08:04:37.373Z</time></trkpt><trkpt lat="43.9917991" lon="11.0399621"><ele>874.0</ele><time>2026-04-18T08:04:38.378Z</time></trkpt><trkpt lat="43.9918603" lon="11.0397931"><ele>876.5</ele><time>2026-04-18T08:04:39.376Z</time></trkpt><trkpt lat="43.9919185" lon="11.0396335"><ele>879.0</ele><time>2026-04-18T08:04:40.38Z</time></trkpt><trkpt lat="43.991981" lon="11.0394977"><ele>881.5</ele><time>2026-04-18T08:04:41.379Z</time></trkpt><trkpt lat="43.9920612" lon="11.03941"><ele>884.0</ele><time>2026-04-18T08:04:42.382Z</time></trkpt><trkpt lat="43.9921592" lon="11.039344"><ele>884.0</ele><time>2026-04-18T08:04:43.375Z</time></trkpt><trkpt lat="43.9922658" lon="11.0392887"><ele>884.0000000000001</ele><time>2026-04-18T08:04:44.388Z</time></trkpt><trkpt lat="43.9923557" lon="11.0392159"><ele>884.0000000000001</ele><time>2026-04-18T08:04:45.372Z</time></trkpt><trkpt lat="43.9924169" lon="11.0391203"><ele>884.0</ele><time>2026-04-18T08:04:46.371Z</time></trkpt><trkpt lat="43.9924429" lon="11.0390033"><ele>884.0</ele><time>2026-04-18T08:04:47.385Z</time></trkpt><trkpt lat="43.992434" lon="11.0388789"><ele>881.8000000000001</ele><time>2026-04-18T08:04:48.375Z</time></trkpt><trkpt lat="43.9924171" lon="11.0387632"><ele>879.6000000000001</ele><time>2026-04-18T08:04:49.392Z</time></trkpt><trkpt lat="43.9924521" lon="11.0386553"><ele>877.4</ele><time>2026-04-18T08:04:51.372Z</time></trkpt><trkpt lat="43.9925499" lon="11.0387003"><ele>875.2</ele><time>2026-04-18T08:04:53.386Z</time></trkpt><trkpt lat="43.992619" lon="11.0387696"><ele>873.0</ele><time>2026-04-18T08:04:54.366Z</time></trkpt><trkpt lat="43.9926806" lon="11.0388692"><ele>878.1666666666666</ele><time>2026-04-18T08:04:55.376Z</time></trkpt><trkpt lat="43.9927471" lon="11.0389496"><ele>883.3333333333333</ele><time>2026-04-18T08:04:56.379Z</time></trkpt><trkpt lat="43.9928137" lon="11.039005"><ele>888.5</ele><time>2026-04-18T08:04:57.381Z</time></trkpt><trkpt lat="43.9928851" lon="11.0390164"><ele>893.6666666666666</ele><time>2026-04-18T08:04:58.374Z</time></trkpt><trkpt lat="43.9929431" lon="11.0389572"><ele>898.8333333333333</ele><time>2026-04-18T08:04:59.385Z</time></trkpt><trkpt lat="43.99299" lon="11.0388576"><ele>904.0</ele><time>2026-04-18T08:05:00.382Z</time></trkpt><trkpt lat="43.9930085" lon="11.0387347"><ele>904.0</ele><time>2026-04-18T08:05:01.381Z</time></trkpt><trkpt lat="43.9930118" lon="11.038614"><ele>904.0000000000001</ele><time>2026-04-18T08:05:02.385Z</time></trkpt><trkpt lat="43.9930156" lon="11.038497"><ele>904.0000000000001</ele><time>2026-04-18T08:05:03.373Z</time></trkpt><trkpt lat="43.9930301" lon="11.0383987"><ele>904.0</ele><time>2026-04-18T08:05:04.378Z</time></trkpt><trkpt lat="43.9930948" lon="11.0382769"><ele>904.0</ele><time>2026-04-18T08:05:06.375Z</time></trkpt><trkpt lat="43.9931993" lon="11.0382321"><ele>901.6</ele><time>2026-04-18T08:05:08.386Z</time></trkpt><trkpt lat="43.9932869" lon="11.0382324"><ele>899.2</ele><time>2026-04-18T08:05:09.394Z</time></trkpt><trkpt lat="43.9933746" lon="11.0382353"><ele>896.8000000000001</ele><time>2026-04-18T08:05:10.383Z</time></trkpt><trkpt lat="43.9934682" lon="11.0382542"><ele>894.4000000000001</ele><time>2026-04-18T08:05:11.398Z</time></trkpt><trkpt lat="43.9935686" lon="11.0382756"><ele>892.0</ele><time>2026-04-18T08:05:12.402Z</time></trkpt><trkpt lat="43.9936619" lon="11.0382804"><ele>896.1666666666666</ele><time>2026-04-18T08:05:13.405Z</time></trkpt><trkpt lat="43.9937473" lon="11.0382619"><ele>900.3333333333333</ele><time>2026-04-18T08:05:14.39Z</time></trkpt><trkpt lat="43.9938208" lon="11.0382138"><ele>904.5</ele><time>2026-04-18T08:05:15.401Z</time></trkpt><trkpt lat="43.9938807" lon="11.0381463"><ele>908.6666666666667</ele><time>2026-04-18T08:05:16.379Z</time></trkpt><trkpt lat="43.9939335" lon="11.0380612"><ele>912.8333333333334</ele><time>2026-04-18T08:05:17.377Z</time></trkpt><trkpt lat="43.9939737" lon="11.0379591"><ele>917.0</ele><time>2026-04-18T08:05:18.384Z</time></trkpt><trkpt lat="43.9940065" lon="11.0378481"><ele>917.0</ele><time>2026-04-18T08:05:19.377Z</time></trkpt><trkpt lat="43.9940313" lon="11.0377261"><ele>917.0</ele><time>2026-04-18T08:05:20.365Z</time></trkpt><trkpt lat="43.9940538" lon="11.0375976"><ele>917.0</ele><time>2026-04-18T08:05:21.364Z</time></trkpt><trkpt lat="43.9940578" lon="11.037465"><ele>917.0</ele><time>2026-04-18T08:05:22.366Z</time></trkpt><trkpt lat="43.9940302" lon="11.0373305"><ele>917.0</ele><time>2026-04-18T08:05:23.363Z</time></trkpt><trkpt lat="43.9939815" lon="11.0371974"><ele>917.25</ele><time>2026-04-18T08:05:24.363Z</time></trkpt><trkpt lat="43.9939276" lon="11.0370531"><ele>917.5</ele><time>2026-04-18T08:05:25.366Z</time></trkpt><trkpt lat="43.9938764" lon="11.0368859"><ele>917.75</ele><time>2026-04-18T08:05:26.369Z</time></trkpt><trkpt lat="43.9938207" lon="11.036719"><ele>918.0</ele><time>2026-04-18T08:05:27.39Z</time></trkpt><trkpt lat="43.9937677" lon="11.0365519"><ele>919.0</ele><time>2026-04-18T08:05:28.39Z</time></trkpt><trkpt lat="43.9937464" lon="11.0363934"><ele>920.0</ele><time>2026-04-18T08:05:29.398Z</time></trkpt><trkpt lat="43.9937537" lon="11.0362553"><ele>921.0</ele><time>2026-04-18T08:05:30.384Z</time></trkpt><trkpt lat="43.99379" lon="11.0361137"><ele>922.0</ele><time>2026-04-18T08:05:31.391Z</time></trkpt><trkpt lat="43.9938256" lon="11.0359558"><ele>923.0</ele><time>2026-04-18T08:05:32.397Z</time></trkpt><trkpt lat="43.9938653" lon="11.0357873"><ele>923.0</ele><time>2026-04-18T08:05:33.388Z</time></trkpt><trkpt lat="43.993876" lon="11.0356304"><ele>923.0</ele><time>2026-04-18T08:05:34.392Z</time></trkpt><trkpt lat="43.9938794" lon="11.0354976"><ele>923.0</ele><time>2026-04-18T08:05:35.387Z</time></trkpt><trkpt lat="43.9938913" lon="11.0353822"><ele>923.0</ele><time>2026-04-18T08:05:36.395Z</time></trkpt><trkpt lat="43.9939149" lon="11.0352919"><ele>923.0</ele><time>2026-04-18T08:05:37.387Z</time></trkpt><trkpt lat="43.9939984" lon="11.0352385"><ele>923.0</ele><time>2026-04-18T08:05:39.375Z</time></trkpt><trkpt lat="43.9940913" lon="11.0353129"><ele>923.0</ele><time>2026-04-18T08:05:41.386Z</time></trkpt><trkpt lat="43.99414" lon="11.0354443"><ele>923.0</ele><time>2026-04-18T08:05:43.389Z</time></trkpt><trkpt lat="43.9941745" lon="11.0355344"><ele>923.0</ele><time>2026-04-18T08:05:44.402Z</time></trkpt><trkpt lat="43.9942131" lon="11.0356512"><ele>923.0</ele><time>2026-04-18T08:05:45.374Z</time></trkpt><trkpt lat="43.9942592" lon="11.0357923"><ele>930.75</ele><time>2026-04-18T08:05:46.395Z</time></trkpt><trkpt lat="43.9943042" lon="11.0359401"><ele>938.5</ele><time>2026-04-18T08:05:47.381Z</time></trkpt><trkpt lat="43.9943532" lon="11.036087"><ele>946.25</ele><time>2026-04-18T08:05:48.392Z</time></trkpt><trkpt lat="43.9944014" lon="11.0362323"><ele>954.0</ele><time>2026-04-18T08:05:49.388Z</time></trkpt><trkpt lat="43.9944254" lon="11.0363904"><ele>954.0</ele><time>2026-04-18T08:05:50.383Z</time></trkpt><trkpt lat="43.9944376" lon="11.0365426"><ele>954.0000000000001</ele><time>2026-04-18T08:05:51.378Z</time></trkpt><trkpt lat="43.9944609" lon="11.0366797"><ele>954.0000000000001</ele><time>2026-04-18T08:05:52.392Z</time></trkpt><trkpt lat="43.9945003" lon="11.0367636"><ele>954.0</ele><time>2026-04-18T08:05:53.39Z</time></trkpt><trkpt lat="43.9946161" lon="11.0367506"><ele>954.0</ele><time>2026-04-18T08:05:55.389Z</time></trkpt><trkpt lat="43.9946872" lon="11.0366806"><ele>954.0</ele><time>2026-04-18T08:05:56.381Z</time></trkpt><trkpt lat="43.9947625" lon="11.0365968"><ele>954.0000000000001</ele><time>2026-04-18T08:05:57.378Z</time></trkpt><trkpt lat="43.9948351" lon="11.036507"><ele>954.0000000000001</ele><time>2026-04-18T08:05:58.386Z</time></trkpt><trkpt lat="43.9948913" lon="11.0364142"><ele>954.0</ele><time>2026-04-18T08:05:59.393Z</time></trkpt><trkpt lat="43.9949181" lon="11.0362923"><ele>954.0</ele><time>2026-04-18T08:06:00.389Z</time></trkpt><trkpt lat="43.9949022" lon="11.0361587"><ele>954.0</ele><time>2026-04-18T08:06:01.396Z</time></trkpt><trkpt lat="43.9948678" lon="11.0360294"><ele>954.0000000000001</ele><time>2026-04-18T08:06:02.397Z</time></trkpt><trkpt lat="43.9948269" lon="11.0358993"><ele>954.0000000000001</ele><time>2026-04-18T08:06:03.382Z</time></trkpt><trkpt lat="43.9947978" lon="11.0357682"><ele>954.0</ele><time>2026-04-18T08:06:04.384Z</time></trkpt><trkpt lat="43.9947848" lon="11.0356354"><ele>954.0</ele><time>2026-04-18T08:06:05.382Z</time></trkpt><trkpt lat="43.9947885" lon="11.0355006"><ele>954.4000000000001</ele><time>2026-04-18T08:06:06.387Z</time></trkpt><trkpt lat="43.9948224" lon="11.035375"><ele>954.8000000000001</ele><time>2026-04-18T08:06:07.382Z</time></trkpt><trkpt lat="43.9948727" lon="11.0352684"><ele>955.1999999999999</ele><time>2026-04-18T08:06:08.383Z</time></trkpt><trkpt lat="43.9949389" lon="11.0351806"><ele>955.5999999999999</ele><time>2026-04-18T08:06:09.379Z</time></trkpt><trkpt lat="43.995015" lon="11.0351016"><ele>956.0</ele><time>2026-04-18T08:06:10.376Z</time></trkpt><trkpt lat="43.9951005" lon="11.0350308"><ele>956.0</ele><time>2026-04-18T08:06:11.373Z</time></trkpt><trkpt lat="43.9951883" lon="11.0349852"><ele>955.9999999999999</ele><time>2026-04-18T08:06:12.38Z</time></trkpt><trkpt lat="43.9952844" lon="11.0349707"><ele>955.9999999999999</ele><time>2026-04-18T08:06:13.382Z</time></trkpt><trkpt lat="43.9953865" lon="11.034982"><ele>956.0</ele><time>2026-04-18T08:06:14.378Z</time></trkpt><trkpt lat="43.9954955" lon="11.0350111"><ele>956.0</ele><time>2026-04-18T08:06:15.379Z</time></trkpt><trkpt lat="43.9956036" lon="11.0350506"><ele>956.0</ele><time>2026-04-18T08:06:16.369Z</time></trkpt><trkpt lat="43.9957165" lon="11.0350961"><ele>956.0</ele><time>2026-04-18T08:06:17.388Z</time></trkpt><trkpt lat="43.995836" lon="11.0351362"><ele>956.0</ele><time>2026-04-18T08:06:18.384Z</time></trkpt><trkpt lat="43.9959577" lon="11.0351657"><ele>956.0</ele><time>2026-04-18T08:06:19.373Z</time></trkpt><trkpt lat="43.9960792" lon="11.0352027"><ele>955.8</ele><time>2026-04-18T08:06:20.389Z</time></trkpt><trkpt lat="43.9961904" lon="11.0352458"><ele>955.5999999999999</ele><time>2026-04-18T08:06:21.392Z</time></trkpt><trkpt lat="43.9963026" lon="11.035304"><ele>955.4</ele><time>2026-04-18T08:06:22.383Z</time></trkpt><trkpt lat="43.9964042" lon="11.0353621"><ele>955.2</ele><time>2026-04-18T08:06:23.378Z</time></trkpt><trkpt lat="43.9964991" lon="11.0354096"><ele>955.0</ele><time>2026-04-18T08:06:24.37Z</time></trkpt><trkpt lat="43.996582" lon="11.035416"><ele>955.0</ele><time>2026-04-18T08:06:25.373Z</time></trkpt><trkpt lat="43.9966558" lon="11.0353887"><ele>955.0</ele><time>2026-04-18T08:06:26.369Z</time></trkpt><trkpt lat="43.9967314" lon="11.0353117"><ele>955.0</ele><time>2026-04-18T08:06:27.372Z</time></trkpt><trkpt lat="43.996819" lon="11.0352225"><ele>955.0</ele><time>2026-04-18T08:06:28.361Z</time></trkpt><trkpt lat="43.9968982" lon="11.0350994"><ele>955.0</ele><time>2026-04-18T08:06:29.367Z</time></trkpt><trkpt lat="43.9969742" lon="11.0349625"><ele>957.25</ele><time>2026-04-18T08:06:30.37Z</time></trkpt><trkpt lat="43.9970524" lon="11.0348169"><ele>959.5</ele><time>2026-04-18T08:06:31.376Z</time></trkpt><trkpt lat="43.9971298" lon="11.0346561"><ele>961.75</ele><time>2026-04-18T08:06:32.377Z</time></trkpt><trkpt lat="43.9972112" lon="11.034491"><ele>964.0</ele><time>2026-04-18T08:06:33.377Z</time></trkpt><trkpt lat="43.9972979" lon="11.034328"><ele>964.0</ele><time>2026-04-18T08:06:34.376Z</time></trkpt><trkpt lat="43.9973857" lon="11.0341746"><ele>964.0</ele><time>2026-04-18T08:06:35.367Z</time></trkpt><trkpt lat="43.9974745" lon="11.034021"><ele>964.0</ele><time>2026-04-18T08:06:36.368Z</time></trkpt><trkpt lat="43.9975615" lon="11.0338779"><ele>964.0</ele><time>2026-04-18T08:06:37.37Z</time></trkpt><trkpt lat="43.9976489" lon="11.0337368"><ele>967.5</ele><time>2026-04-18T08:06:38.367Z</time></trkpt><trkpt lat="43.9977405" lon="11.033605"><ele>971.0</ele><time>2026-04-18T08:06:39.373Z</time></trkpt><trkpt lat="43.9978373" lon="11.0334739"><ele>974.5</ele><time>2026-04-18T08:06:40.373Z</time></trkpt><trkpt lat="43.9979326" lon="11.0333398"><ele>978.0</ele><time>2026-04-18T08:06:41.368Z</time></trkpt><trkpt lat="43.9980215" lon="11.033196"><ele>978.0</ele><time>2026-04-18T08:06:42.386Z</time></trkpt><trkpt lat="43.9981063" lon="11.0330569"><ele>978.0</ele><time>2026-04-18T08:06:43.384Z</time></trkpt><trkpt lat="43.9981907" lon="11.0329237"><ele>978.0</ele><time>2026-04-18T08:06:44.381Z</time></trkpt><trkpt lat="43.9982847" lon="11.0328011"><ele>978.0</ele><time>2026-04-18T08:06:45.386Z</time></trkpt><trkpt lat="43.9983865" lon="11.0326981"><ele>983.4</ele><time>2026-04-18T08:06:46.392Z</time></trkpt><trkpt lat="43.9984891" lon="11.0326106"><ele>988.8</ele><time>2026-04-18T08:06:47.39Z</time></trkpt><trkpt lat="43.9985772" lon="11.0325238"><ele>994.2</ele><time>2026-04-18T08:06:48.391Z</time></trkpt><trkpt lat="43.9986438" lon="11.0324374"><ele>999.6</ele><time>2026-04-18T08:06:49.383Z</time></trkpt><trkpt lat="43.9986905" lon="11.0323487"><ele>1005.0</ele><time>2026-04-18T08:06:50.379Z</time></trkpt><trkpt lat="43.9987146" lon="11.0322571"><ele>1005.2</ele><time>2026-04-18T08:06:51.379Z</time></trkpt><trkpt lat="43.9987022" lon="11.0321676"><ele>1005.4</ele><time>2026-04-18T08:06:52.38Z</time></trkpt><trkpt lat="43.9986578" lon="11.0320714"><ele>1005.5999999999999</ele><time>2026-04-18T08:06:53.386Z</time></trkpt><trkpt lat="43.9986053" lon="11.0319561"><ele>1005.8</ele><time>2026-04-18T08:06:54.381Z</time></trkpt><trkpt lat="43.9985703" lon="11.0318278"><ele>1006.0</ele><time>2026-04-18T08:06:55.381Z</time></trkpt><trkpt lat="43.9985302" lon="11.0316851"><ele>1007.0</ele><time>2026-04-18T08:06:56.381Z</time></trkpt><trkpt lat="43.998496" lon="11.031546"><ele>1008.0</ele><time>2026-04-18T08:06:57.386Z</time></trkpt><trkpt lat="43.9984933" lon="11.0313849"><ele>1009.0</ele><time>2026-04-18T08:06:58.383Z</time></trkpt><trkpt lat="43.9984875" lon="11.0312228"><ele>1010.0</ele><time>2026-04-18T08:06:59.392Z</time></trkpt><trkpt lat="43.9984851" lon="11.0310491"><ele>1010.0</ele><time>2026-04-18T08:07:00.387Z</time></trkpt><trkpt lat="43.9984758" lon="11.0308757"><ele>1010.0</ele><time>2026-04-18T08:07:01.389Z</time></trkpt><trkpt lat="43.9984682" lon="11.0306955"><ele>1010.0</ele><time>2026-04-18T08:07:02.396Z</time></trkpt><trkpt lat="43.9984602" lon="11.030509"><ele>1010.0</ele><time>2026-04-18T08:07:03.384Z</time></trkpt><trkpt lat="43.99842" lon="11.0303394"><ele>1010.8</ele><time>2026-04-18T08:07:04.388Z</time></trkpt><trkpt lat="43.99836" lon="11.0301937"><ele>1011.6</ele><time>2026-04-18T08:07:05.376Z</time></trkpt><trkpt lat="43.9982808" lon="11.0300608"><ele>1012.4000000000001</ele><time>2026-04-18T08:07:06.369Z</time></trkpt><trkpt lat="43.9982222" lon="11.0299373"><ele>1013.2</ele><time>2026-04-18T08:07:07.371Z</time></trkpt><trkpt lat="43.9981862" lon="11.029814"><ele>1014.0</ele><time>2026-04-18T08:07:08.385Z</time></trkpt><trkpt lat="43.9981852" lon="11.0297114"><ele>1011.5</ele><time>2026-04-18T08:07:09.378Z</time></trkpt><trkpt lat="43.9981993" lon="11.0296206"><ele>1009.0</ele><time>2026-04-18T08:07:10.386Z</time></trkpt><trkpt lat="43.9982298" lon="11.0294891"><ele>1006.5</ele><time>2026-04-18T08:07:12.382Z</time></trkpt><trkpt lat="43.9982169" lon="11.0293132"><ele>1004.0</ele><time>2026-04-18T08:07:14.38Z</time></trkpt><trkpt lat="43.9982053" lon="11.0292139"><ele>1001.5</ele><time>2026-04-18T08:07:15.385Z</time></trkpt><trkpt lat="43.9982043" lon="11.0290978"><ele>999.0</ele><time>2026-04-18T08:07:16.385Z</time></trkpt><trkpt lat="43.9981973" lon="11.0289805"><ele>998.6</ele><time>2026-04-18T08:07:17.376Z</time></trkpt><trkpt lat="43.9981922" lon="11.0288543"><ele>998.2</ele><time>2026-04-18T08:07:18.384Z</time></trkpt><trkpt lat="43.9981734" lon="11.0287286"><ele>997.8000000000001</ele><time>2026-04-18T08:07:19.395Z</time></trkpt><trkpt lat="43.9981408" lon="11.0286069"><ele>997.4000000000001</ele><time>2026-04-18T08:07:20.381Z</time></trkpt><trkpt lat="43.9980966" lon="11.028492"><ele>997.0</ele><time>2026-04-18T08:07:21.389Z</time></trkpt><trkpt lat="43.9980475" lon="11.0283836"><ele>995.9999999999999</ele><time>2026-04-18T08:07:22.399Z</time></trkpt><trkpt lat="43.9980064" lon="11.0282831"><ele>995.0</ele><time>2026-04-18T08:07:23.395Z</time></trkpt><trkpt lat="43.9979703" lon="11.0281815"><ele>994.0</ele><time>2026-04-18T08:07:24.4Z</time></trkpt><trkpt lat="43.9979333" lon="11.0280799"><ele>993.0</ele><time>2026-04-18T08:07:25.394Z</time></trkpt><trkpt lat="43.9978906" lon="11.0279801"><ele>991.9999999999999</ele><time>2026-04-18T08:07:26.404Z</time></trkpt><trkpt lat="43.9978462" lon="11.0278818"><ele>991.0</ele><time>2026-04-18T08:07:27.414Z</time></trkpt><trkpt lat="43.9978064" lon="11.0277791"><ele>990.9999999999999</ele><time>2026-04-18T08:07:28.415Z</time></trkpt><trkpt lat="43.997774" lon="11.027676"><ele>991.0</ele><time>2026-04-18T08:07:29.429Z</time></trkpt><trkpt lat="43.997754" lon="11.0275624"><ele>991.0</ele><time>2026-04-18T08:07:30.425Z</time></trkpt><trkpt lat="43.9977396" lon="11.0274413"><ele>991.0</ele><time>2026-04-18T08:07:31.414Z</time></trkpt><trkpt lat="43.997729" lon="11.0273326"><ele>990.9999999999999</ele><time>2026-04-18T08:07:32.404Z</time></trkpt><trkpt lat="43.9977182" lon="11.0272236"><ele>991.0</ele><time>2026-04-18T08:07:33.409Z</time></trkpt><trkpt lat="43.9976997" lon="11.0270795"><ele>990.5714285714287</ele><time>2026-04-18T08:07:35.393Z</time></trkpt><trkpt lat="43.9976805" lon="11.0269732"><ele>990.1428571428571</ele><time>2026-04-18T08:07:37.392Z</time></trkpt><trkpt lat="43.997667" lon="11.0268856"><ele>989.7142857142858</ele><time>2026-04-18T08:07:39.409Z</time></trkpt><trkpt lat="43.9976617" lon="11.026764"><ele>989.2857142857143</ele><time>2026-04-18T08:07:43.41Z</time></trkpt><trkpt lat="43.9976553" lon="11.0266609"><ele>988.8571428571429</ele><time>2026-04-18T08:07:46.405Z</time></trkpt><trkpt lat="43.9976335" lon="11.0265774"><ele>988.4285714285714</ele><time>2026-04-18T08:07:49.415Z</time></trkpt><trkpt lat="43.9976015" lon="11.0264783"><ele>988.0</ele><time>2026-04-18T08:07:52.413Z</time></trkpt><trkpt lat="43.9975574" lon="11.0264134"><ele>987.4285714285714</ele><time>2026-04-18T08:07:54.407Z</time></trkpt><trkpt lat="43.997521" lon="11.0263375"><ele>986.8571428571429</ele><time>2026-04-18T08:07:56.401Z</time></trkpt><trkpt lat="43.9974873" lon="11.0262591"><ele>986.2857142857143</ele><time>2026-04-18T08:07:59.41Z</time></trkpt><trkpt lat="43.9974515" lon="11.0261855"><ele>985.7142857142858</ele><time>2026-04-18T08:08:03.409Z</time></trkpt><trkpt lat="43.9974061" lon="11.0261159"><ele>985.1428571428571</ele><time>2026-04-18T08:08:06.416Z</time></trkpt><trkpt lat="43.9973653" lon="11.026013"><ele>984.5714285714287</ele><time>2026-04-18T08:08:10.416Z</time></trkpt><trkpt lat="43.9973382" lon="11.0259085"><ele>984.0000000000001</ele><time>2026-04-18T08:08:13.417Z</time></trkpt><trkpt lat="43.9972999" lon="11.0258138"><ele>981.1428571428573</ele><time>2026-04-18T08:08:17.417Z</time></trkpt><trkpt lat="43.9972865" lon="11.0257171"><ele>978.2857142857143</ele><time>2026-04-18T08:08:21.428Z</time></trkpt><trkpt lat="43.99727" lon="11.0256093"><ele>975.4285714285716</ele><time>2026-04-18T08:08:25.409Z</time></trkpt><trkpt lat="43.9972483" lon="11.0255044"><ele>972.5714285714287</ele><time>2026-04-18T08:08:29.411Z</time></trkpt><trkpt lat="43.9972286" lon="11.025404"><ele>969.7142857142858</ele><time>2026-04-18T08:08:32.399Z</time></trkpt><trkpt lat="43.9972078" lon="11.0253114"><ele>966.8571428571429</ele><time>2026-04-18T08:08:35.397Z</time></trkpt><trkpt lat="43.9972102" lon="11.0252159"><ele>964.0</ele><time>2026-04-18T08:08:39.409Z</time></trkpt><trkpt lat="43.9972428" lon="11.0251198"><ele>963.9999999999999</ele><time>2026-04-18T08:08:43.403Z</time></trkpt><trkpt lat="43.9972447" lon="11.0249819"><ele>964.0</ele><time>2026-04-18T08:08:45.4Z</time></trkpt><trkpt lat="43.9972442" lon="11.0248858"><ele>964.0</ele><time>2026-04-18T08:08:46.393Z</time></trkpt><trkpt lat="43.9972523" lon="11.0247848"><ele>964.0</ele><time>2026-04-18T08:08:47.398Z</time></trkpt><trkpt lat="43.9972726" lon="11.0246749"><ele>963.9999999999999</ele><time>2026-04-18T08:08:48.399Z</time></trkpt><trkpt lat="43.9973137" lon="11.0245687"><ele>964.0</ele><time>2026-04-18T08:08:49.393Z</time></trkpt><trkpt lat="43.9973747" lon="11.0244561"><ele>962.4000000000001</ele><time>2026-04-18T08:08:50.396Z</time></trkpt><trkpt lat="43.9974466" lon="11.024342"><ele>960.8000000000001</ele><time>2026-04-18T08:08:51.397Z</time></trkpt><trkpt lat="43.9975335" lon="11.0242418"><ele>959.1999999999999</ele><time>2026-04-18T08:08:52.426Z</time></trkpt><trkpt lat="43.9976222" lon="11.0241572"><ele>957.5999999999999</ele><time>2026-04-18T08:08:53.394Z</time></trkpt><trkpt lat="43.997705" lon="11.0240723"><ele>956.0</ele><time>2026-04-18T08:08:54.395Z</time></trkpt><trkpt lat="43.9977817" lon="11.0239772"><ele>953.4</ele><time>2026-04-18T08:08:55.393Z</time></trkpt><trkpt lat="43.9978535" lon="11.0238736"><ele>950.8</ele><time>2026-04-18T08:08:56.39Z</time></trkpt><trkpt lat="43.9979146" lon="11.0237615"><ele>948.1999999999999</ele><time>2026-04-18T08:08:57.395Z</time></trkpt><trkpt lat="43.9979643" lon="11.0236302"><ele>945.5999999999999</ele><time>2026-04-18T08:08:58.391Z</time></trkpt><trkpt lat="43.9980091" lon="11.0234707"><ele>943.0</ele><time>2026-04-18T08:08:59.393Z</time></trkpt><trkpt lat="43.998053" lon="11.0233074"><ele>941.2</ele><time>2026-04-18T08:09:00.388Z</time></trkpt><trkpt lat="43.9980893" lon="11.023155"><ele>939.4</ele><time>2026-04-18T08:09:01.387Z</time></trkpt><trkpt lat="43.9981245" lon="11.0230231"><ele>937.6000000000001</ele><time>2026-04-18T08:09:02.38Z</time></trkpt><trkpt lat="43.9981658" lon="11.0229086"><ele>935.8000000000001</ele><time>2026-04-18T08:09:03.393Z</time></trkpt><trkpt lat="43.9982071" lon="11.0228077"><ele>934.0</ele><time>2026-04-18T08:09:04.379Z</time></trkpt><trkpt lat="43.9982472" lon="11.0227269"><ele>933.9999999999999</ele><time>2026-04-18T08:09:05.382Z</time></trkpt><trkpt lat="43.9982867" lon="11.0226562"><ele>934.0</ele><time>2026-04-18T08:09:06.378Z</time></trkpt><trkpt lat="43.9983055" lon="11.022554"><ele>934.0</ele><time>2026-04-18T08:09:08.388Z</time></trkpt><trkpt lat="43.9982166" lon="11.022532"><ele>934.0</ele><time>2026-04-18T08:09:10.386Z</time></trkpt><trkpt lat="43.9981407" lon="11.0226514"><ele>933.9999999999999</ele><time>2026-04-18T08:09:12.385Z</time></trkpt><trkpt lat="43.9981109" lon="11.0227571"><ele>934.0</ele><time>2026-04-18T08:09:13.377Z</time></trkpt><trkpt lat="43.9980723" lon="11.0228644"><ele>934.0</ele><time>2026-04-18T08:09:14.378Z</time></trkpt><trkpt lat="43.9980221" lon="11.022988"><ele>934.0000000000001</ele><time>2026-04-18T08:09:15.374Z</time></trkpt><trkpt lat="43.9979577" lon="11.0231148"><ele>934.0000000000001</ele><time>2026-04-18T08:09:16.374Z</time></trkpt><trkpt lat="43.9978928" lon="11.0232486"><ele>934.0</ele><time>2026-04-18T08:09:17.378Z</time></trkpt><trkpt lat="43.9978208" lon="11.0233762"><ele>934.0</ele><time>2026-04-18T08:09:18.375Z</time></trkpt><trkpt lat="43.9977457" lon="11.0234951"><ele>932.4000000000001</ele><time>2026-04-18T08:09:19.373Z</time></trkpt><trkpt lat="43.9976745" lon="11.0235912"><ele>930.8000000000001</ele><time>2026-04-18T08:09:20.364Z</time></trkpt><trkpt lat="43.9975913" lon="11.0236661"><ele>929.1999999999999</ele><time>2026-04-18T08:09:21.377Z</time></trkpt><trkpt lat="43.9975035" lon="11.0237372"><ele>927.5999999999999</ele><time>2026-04-18T08:09:22.379Z</time></trkpt><trkpt lat="43.9973886" lon="11.0237804"><ele>926.0</ele><time>2026-04-18T08:09:23.372Z</time></trkpt><trkpt lat="43.997266" lon="11.023786"><ele>926.0</ele><time>2026-04-18T08:09:24.377Z</time></trkpt><trkpt lat="43.9971385" lon="11.0237941"><ele>926.0</ele><time>2026-04-18T08:09:25.376Z</time></trkpt><trkpt lat="43.9970191" lon="11.0238281"><ele>926.0</ele><time>2026-04-18T08:09:26.377Z</time></trkpt><trkpt lat="43.9969118" lon="11.0238782"><ele>926.0</ele><time>2026-04-18T08:09:27.389Z</time></trkpt><trkpt lat="43.9968193" lon="11.0239598"><ele>926.0000000000001</ele><time>2026-04-18T08:09:28.389Z</time></trkpt><trkpt lat="43.9967452" lon="11.0240346"><ele>926.0</ele><time>2026-04-18T08:09:29.379Z</time></trkpt><trkpt lat="43.9966885" lon="11.0241098"><ele>926.0</ele><time>2026-04-18T08:09:30.384Z</time></trkpt><trkpt lat="43.9966394" lon="11.0241676"><ele>926.0</ele><time>2026-04-18T08:09:31.371Z</time></trkpt><trkpt lat="43.9965553" lon="11.0241719"><ele>926.0000000000001</ele><time>2026-04-18T08:09:33.378Z</time></trkpt><trkpt lat="43.9965664" lon="11.0240685"><ele>926.0</ele><time>2026-04-18T08:09:35.395Z</time></trkpt><trkpt lat="43.9966319" lon="11.0239546"><ele>926.0</ele><time>2026-04-18T08:09:36.396Z</time></trkpt><trkpt lat="43.9967126" lon="11.023829"><ele>926.0</ele><time>2026-04-18T08:09:37.378Z</time></trkpt><trkpt lat="43.9968096" lon="11.0236881"><ele>926.0</ele><time>2026-04-18T08:09:38.379Z</time></trkpt><trkpt lat="43.996914" lon="11.0235364"><ele>926.0</ele><time>2026-04-18T08:09:39.37Z</time></trkpt><trkpt lat="43.9970253" lon="11.0233945"><ele>921.75</ele><time>2026-04-18T08:09:40.369Z</time></trkpt><trkpt lat="43.99713" lon="11.0232849"><ele>917.5</ele><time>2026-04-18T08:09:41.371Z</time></trkpt><trkpt lat="43.9972282" lon="11.0232034"><ele>913.25</ele><time>2026-04-18T08:09:42.374Z</time></trkpt><trkpt lat="43.9973315" lon="11.0231382"><ele>909.0</ele><time>2026-04-18T08:09:43.376Z</time></trkpt><trkpt lat="43.9974356" lon="11.0230838"><ele>914.0</ele><time>2026-04-18T08:09:44.366Z</time></trkpt><trkpt lat="43.997537" lon="11.0230081"><ele>919.0000000000001</ele><time>2026-04-18T08:09:45.375Z</time></trkpt><trkpt lat="43.9976147" lon="11.0229225"><ele>924.0000000000001</ele><time>2026-04-18T08:09:46.372Z</time></trkpt><trkpt lat="43.9976597" lon="11.0228088"><ele>929.0</ele><time>2026-04-18T08:09:47.371Z</time></trkpt><trkpt lat="43.9976752" lon="11.0226613"><ele>934.0</ele><time>2026-04-18T08:09:48.368Z</time></trkpt><trkpt lat="43.9976675" lon="11.0225001"><ele>930.0</ele><time>2026-04-18T08:09:49.366Z</time></trkpt><trkpt lat="43.9976313" lon="11.0223317"><ele>926.0</ele><time>2026-04-18T08:09:50.37Z</time></trkpt><trkpt lat="43.9975685" lon="11.0221748"><ele>922.0</ele><time>2026-04-18T08:09:51.366Z</time></trkpt><trkpt lat="43.9975059" lon="11.0220304"><ele>918.0</ele><time>2026-04-18T08:09:52.365Z</time></trkpt><trkpt lat="43.9974867" lon="11.0218899"><ele>914.25</ele><time>2026-04-18T08:09:53.385Z</time></trkpt><trkpt lat="43.9974925" lon="11.0217585"><ele>910.5</ele><time>2026-04-18T08:09:54.384Z</time></trkpt><trkpt lat="43.9975322" lon="11.0216148"><ele>906.75</ele><time>2026-04-18T08:09:55.383Z</time></trkpt><trkpt lat="43.9975979" lon="11.0214714"><ele>903.0</ele><time>2026-04-18T08:09:56.387Z</time></trkpt><trkpt lat="43.9976877" lon="11.0213458"><ele>903.0</ele><time>2026-04-18T08:09:57.383Z</time></trkpt><trkpt lat="43.9977802" lon="11.0212173"><ele>903.0</ele><time>2026-04-18T08:09:58.378Z</time></trkpt><trkpt lat="43.997876" lon="11.0210966"><ele>903.0</ele><time>2026-04-18T08:09:59.376Z</time></trkpt><trkpt lat="43.9979639" lon="11.0209862"><ele>903.0</ele><time>2026-04-18T08:10:00.377Z</time></trkpt><trkpt lat="43.9980455" lon="11.020875"><ele>901.5999999999999</ele><time>2026-04-18T08:10:01.376Z</time></trkpt><trkpt lat="43.998092" lon="11.0207555"><ele>900.1999999999999</ele><time>2026-04-18T08:10:02.375Z</time></trkpt><trkpt lat="43.9981113" lon="11.0206184"><ele>898.8</ele><time>2026-04-18T08:10:03.383Z</time></trkpt><trkpt lat="43.9980935" lon="11.0204666"><ele>897.4</ele><time>2026-04-18T08:10:04.372Z</time></trkpt><trkpt lat="43.9980551" lon="11.0203028"><ele>896.0</ele><time>2026-04-18T08:10:05.369Z</time></trkpt><trkpt lat="43.9980042" lon="11.0201294"><ele>894.0</ele><time>2026-04-18T08:10:06.385Z</time></trkpt><trkpt lat="43.99795" lon="11.0199462"><ele>892.0</ele><time>2026-04-18T08:10:07.395Z</time></trkpt><trkpt lat="43.9978992" lon="11.0197554"><ele>890.0</ele><time>2026-04-18T08:10:08.388Z</time></trkpt><trkpt lat="43.9978578" lon="11.019565"><ele>888.0</ele><time>2026-04-18T08:10:09.41Z</time></trkpt><trkpt lat="43.9978243" lon="11.0193827"><ele>888.0</ele><time>2026-04-18T08:10:10.397Z</time></trkpt><trkpt lat="43.9977984" lon="11.0191982"><ele>888.0</ele><time>2026-04-18T08:10:11.403Z</time></trkpt><trkpt lat="43.9977928" lon="11.0190214"><ele>888.0</ele><time>2026-04-18T08:10:12.402Z</time></trkpt><trkpt lat="43.9978031" lon="11.0188626"><ele>888.0</ele><time>2026-04-18T08:10:13.385Z</time></trkpt><trkpt lat="43.9978135" lon="11.0187124"><ele>887.0</ele><time>2026-04-18T08:10:14.387Z</time></trkpt><trkpt lat="43.9978215" lon="11.0185757"><ele>886.0</ele><time>2026-04-18T08:10:15.397Z</time></trkpt><trkpt lat="43.9978271" lon="11.0184607"><ele>885.0</ele><time>2026-04-18T08:10:16.399Z</time></trkpt><trkpt lat="43.9978706" lon="11.0183706"><ele>884.0</ele><time>2026-04-18T08:10:24.408Z</time></trkpt><trkpt lat="43.9979346" lon="11.0182327"><ele>883.0</ele><time>2026-04-18T08:10:26.39Z</time></trkpt><trkpt lat="43.997972" lon="11.0181266"><ele>882.4</ele><time>2026-04-18T08:10:27.386Z</time></trkpt><trkpt lat="43.9980125" lon="11.0180049"><ele>881.8</ele><time>2026-04-18T08:10:28.393Z</time></trkpt><trkpt lat="43.9980572" lon="11.0178725"><ele>881.2</ele><time>2026-04-18T08:10:29.381Z</time></trkpt><trkpt lat="43.9981017" lon="11.0177298"><ele>880.6</ele><time>2026-04-18T08:10:30.392Z</time></trkpt><trkpt lat="43.9981338" lon="11.0175881"><ele>880.0</ele><time>2026-04-18T08:10:31.388Z</time></trkpt><trkpt lat="43.9981478" lon="11.017444"><ele>880.0</ele><time>2026-04-18T08:10:32.365Z</time></trkpt><trkpt lat="43.9981526" lon="11.0173046"><ele>880.0</ele><time>2026-04-18T08:10:33.385Z</time></trkpt><trkpt lat="43.998148" lon="11.0171683"><ele>880.0</ele><time>2026-04-18T08:10:34.375Z</time></trkpt><trkpt lat="43.9981538" lon="11.0170372"><ele>880.0</ele><time>2026-04-18T08:10:35.389Z</time></trkpt><trkpt lat="43.9981709" lon="11.0169025"><ele>880.0</ele><time>2026-04-18T08:10:36.382Z</time></trkpt><trkpt lat="43.9981943" lon="11.0167637"><ele>879.8333333333333</ele><time>2026-04-18T08:10:37.386Z</time></trkpt><trkpt lat="43.998216" lon="11.016636"><ele>879.6666666666666</ele><time>2026-04-18T08:10:38.38Z</time></trkpt><trkpt lat="43.9982225" lon="11.0165093"><ele>879.5</ele><time>2026-04-18T08:10:39.385Z</time></trkpt><trkpt lat="43.9982214" lon="11.0163897"><ele>879.3333333333333</ele><time>2026-04-18T08:10:40.38Z</time></trkpt><trkpt lat="43.9982242" lon="11.0162716"><ele>879.1666666666666</ele><time>2026-04-18T08:10:41.368Z</time></trkpt><trkpt lat="43.9982378" lon="11.0161688"><ele>879.0</ele><time>2026-04-18T08:10:42.372Z</time></trkpt><trkpt lat="43.9982484" lon="11.0160484"><ele>879.0</ele><time>2026-04-18T08:10:43.368Z</time></trkpt><trkpt lat="43.9982637" lon="11.0159197"><ele>879.0000000000001</ele><time>2026-04-18T08:10:44.372Z</time></trkpt><trkpt lat="43.998281" lon="11.0157878"><ele>879.0000000000001</ele><time>2026-04-18T08:10:45.37Z</time></trkpt><trkpt lat="43.9982981" lon="11.015655"><ele>879.0</ele><time>2026-04-18T08:10:46.375Z</time></trkpt><trkpt lat="43.9983119" lon="11.0155257"><ele>879.0</ele><time>2026-04-18T08:10:47.369Z</time></trkpt><trkpt lat="43.9983197" lon="11.0153984"><ele>879.2</ele><time>2026-04-18T08:10:48.373Z</time></trkpt><trkpt lat="43.9983318" lon="11.0152656"><ele>879.4000000000001</ele><time>2026-04-18T08:10:49.377Z</time></trkpt><trkpt lat="43.9983337" lon="11.0151435"><ele>879.6</ele><time>2026-04-18T08:10:50.367Z</time></trkpt><trkpt lat="43.9983334" lon="11.0150477"><ele>879.8</ele><time>2026-04-18T08:10:51.372Z</time></trkpt><trkpt lat="43.998282" lon="11.0149557"><ele>880.0</ele><time>2026-04-18T08:10:53.365Z</time></trkpt><trkpt lat="43.9981535" lon="11.0149435"><ele>885.0</ele><time>2026-04-18T08:10:55.386Z</time></trkpt><trkpt lat="43.9980677" lon="11.0149429"><ele>890.0</ele><time>2026-04-18T08:10:56.369Z</time></trkpt><trkpt lat="43.9979728" lon="11.0149454"><ele>895.0</ele><time>2026-04-18T08:10:57.37Z</time></trkpt><trkpt lat="43.9978743" lon="11.014938"><ele>900.0</ele><time>2026-04-18T08:10:58.371Z</time></trkpt><trkpt lat="43.9977723" lon="11.0149247"><ele>905.0</ele><time>2026-04-18T08:10:59.371Z</time></trkpt><trkpt lat="43.9976698" lon="11.0149015"><ele>905.0</ele><time>2026-04-18T08:11:00.376Z</time></trkpt><trkpt lat="43.9975699" lon="11.0148772"><ele>905.0</ele><time>2026-04-18T08:11:01.382Z</time></trkpt><trkpt lat="43.9974677" lon="11.014849"><ele>905.0</ele><time>2026-04-18T08:11:02.38Z</time></trkpt><trkpt lat="43.9973666" lon="11.0148193"><ele>905.0</ele><time>2026-04-18T08:11:03.408Z</time></trkpt><trkpt lat="43.9972656" lon="11.0147945"><ele>905.0</ele><time>2026-04-18T08:11:04.385Z</time></trkpt><trkpt lat="43.9971715" lon="11.0147659"><ele>907.8</ele><time>2026-04-18T08:11:05.379Z</time></trkpt><trkpt lat="43.997073" lon="11.01474"><ele>910.6</ele><time>2026-04-18T08:11:06.387Z</time></trkpt><trkpt lat="43.9969791" lon="11.0147098"><ele>913.4000000000001</ele><time>2026-04-18T08:11:07.377Z</time></trkpt><trkpt lat="43.9968756" lon="11.014679"><ele>916.2</ele><time>2026-04-18T08:11:08.378Z</time></trkpt><trkpt lat="43.9967726" lon="11.0146379"><ele>919.0</ele><time>2026-04-18T08:11:09.376Z</time></trkpt><trkpt lat="43.9966704" lon="11.0145939"><ele>917.8000000000001</ele><time>2026-04-18T08:11:10.375Z</time></trkpt><trkpt lat="43.9965645" lon="11.0145495"><ele>916.6000000000001</ele><time>2026-04-18T08:11:11.378Z</time></trkpt><trkpt lat="43.9964546" lon="11.0145092"><ele>915.4</ele><time>2026-04-18T08:11:12.372Z</time></trkpt><trkpt lat="43.9963546" lon="11.0144646"><ele>914.2</ele><time>2026-04-18T08:11:13.375Z</time></trkpt><trkpt lat="43.9962612" lon="11.0144205"><ele>913.0</ele><time>2026-04-18T08:11:14.374Z</time></trkpt><trkpt lat="43.996187" lon="11.0143781"><ele>912.9999999999999</ele><time>2026-04-18T08:11:15.375Z</time></trkpt><trkpt lat="43.9961278" lon="11.014337"><ele>913.0</ele><time>2026-04-18T08:11:16.375Z</time></trkpt><trkpt lat="43.9960681" lon="11.0143035"><ele>912.9999999999999</ele><time>2026-04-18T08:11:17.37Z</time></trkpt><trkpt lat="43.9959721" lon="11.0142469"><ele>912.9999999999999</ele><time>2026-04-18T08:11:19.375Z</time></trkpt><trkpt lat="43.9959418" lon="11.0141453"><ele>913.0</ele><time>2026-04-18T08:11:50.761Z</time></trkpt><trkpt lat="43.9958872" lon="11.0140961"><ele>912.9999999999999</ele><time>2026-04-18T08:12:22.447Z</time></trkpt><trkpt lat="43.9958507" lon="11.0141749"><ele>912.9999999999999</ele><time>2026-04-18T08:12:51.389Z</time></trkpt><trkpt lat="43.9957674" lon="11.0141557"><ele>913.2</ele><time>2026-04-18T08:12:54.372Z</time></trkpt><trkpt lat="43.9957012" lon="11.0141272"><ele>913.4</ele><time>2026-04-18T08:12:56.369Z</time></trkpt><trkpt lat="43.9956095" lon="11.0140889"><ele>913.6000000000001</ele><time>2026-04-18T08:12:58.365Z</time></trkpt><trkpt lat="43.995504" lon="11.0140343"><ele>913.8000000000001</ele><time>2026-04-18T08:13:00.37Z</time></trkpt><trkpt lat="43.9954221" lon="11.0139712"><ele>914.0</ele><time>2026-04-18T08:13:02.373Z</time></trkpt><trkpt lat="43.9953511" lon="11.0139224"><ele>914.0000000000001</ele><time>2026-04-18T08:13:05.382Z</time></trkpt><trkpt lat="43.9952617" lon="11.0139064"><ele>914.0</ele><time>2026-04-18T08:13:08.386Z</time></trkpt><trkpt lat="43.9951937" lon="11.0138887"><ele>914.0</ele><time>2026-04-18T08:13:10.385Z</time></trkpt><trkpt lat="43.9951056" lon="11.0138554"><ele>914.0</ele><time>2026-04-18T08:13:13.385Z</time></trkpt><trkpt lat="43.9950291" lon="11.0138123"><ele>914.0000000000001</ele><time>2026-04-18T08:13:15.378Z</time></trkpt><trkpt lat="43.9949444" lon="11.0137717"><ele>914.0</ele><time>2026-04-18T08:13:17.384Z</time></trkpt><trkpt lat="43.9948686" lon="11.0137378"><ele>910.5000000000001</ele><time>2026-04-18T08:13:19.387Z</time></trkpt><trkpt lat="43.9947799" lon="11.0137201"><ele>907.0</ele><time>2026-04-18T08:13:21.389Z</time></trkpt><trkpt lat="43.994708" lon="11.013715"><ele>903.5</ele><time>2026-04-18T08:13:23.402Z</time></trkpt><trkpt lat="43.9946329" lon="11.0137016"><ele>900.0</ele><time>2026-04-18T08:13:26.386Z</time></trkpt><trkpt lat="43.9945606" lon="11.0136728"><ele>896.5000000000001</ele><time>2026-04-18T08:13:29.406Z</time></trkpt><trkpt lat="43.9944947" lon="11.0137299"><ele>893.0</ele><time>2026-04-18T08:13:33.078Z</time></trkpt><trkpt lat="43.9945471" lon="11.0139098"><ele>893.0</ele><time>2026-04-18T08:13:35.507Z</time></trkpt><trkpt lat="43.9945226" lon="11.013829"><ele>893.0</ele><time>2026-04-18T08:13:37.532Z</time></trkpt><trkpt lat="43.9944917" lon="11.0137501"><ele>893.0</ele><time>2026-04-18T08:13:39.535Z</time></trkpt><trkpt lat="43.9944636" lon="11.0136657"><ele>893.0</ele><time>2026-04-18T08:13:42.54Z</time></trkpt><trkpt lat="43.9944142" lon="11.0135886"><ele>893.0</ele><time>2026-04-18T08:13:46.541Z</time></trkpt><trkpt lat="43.9943449" lon="11.01357"><ele>893.0</ele><time>2026-04-18T08:13:48.545Z</time></trkpt><trkpt lat="43.9942484" lon="11.0135522"><ele>893.0</ele><time>2026-04-18T08:13:50.554Z</time></trkpt><trkpt lat="43.9941321" lon="11.0135113"><ele>889.8333333333334</ele><time>2026-04-18T08:13:52.554Z</time></trkpt><trkpt lat="43.99407" lon="11.0134945"><ele>886.6666666666667</ele><time>2026-04-18T08:13:53.554Z</time></trkpt><trkpt lat="43.9939951" lon="11.0134814"><ele>883.5</ele><time>2026-04-18T08:13:54.547Z</time></trkpt><trkpt lat="43.9939298" lon="11.0134718"><ele>880.3333333333333</ele><time>2026-04-18T08:13:55.546Z</time></trkpt><trkpt lat="43.9938095" lon="11.0134412"><ele>877.1666666666666</ele><time>2026-04-18T08:13:57.555Z</time></trkpt><trkpt lat="43.9937479" lon="11.0134196"><ele>874.0</ele><time>2026-04-18T08:13:58.559Z</time></trkpt><trkpt lat="43.9936831" lon="11.0134035"><ele>873.9999999999999</ele><time>2026-04-18T08:13:59.548Z</time></trkpt><trkpt lat="43.9936162" lon="11.0133846"><ele>874.0</ele><time>2026-04-18T08:14:00.553Z</time></trkpt><trkpt lat="43.9935534" lon="11.0133551"><ele>874.0</ele><time>2026-04-18T08:14:01.54Z</time></trkpt><trkpt lat="43.9934934" lon="11.0133208"><ele>874.0</ele><time>2026-04-18T08:14:02.521Z</time></trkpt><trkpt lat="43.9934353" lon="11.013275"><ele>873.9999999999999</ele><time>2026-04-18T08:14:03.524Z</time></trkpt><trkpt lat="43.9933573" lon="11.0131718"><ele>874.0</ele><time>2026-04-18T08:14:05.532Z</time></trkpt><trkpt lat="43.9932799" lon="11.0131699"><ele>875.2</ele><time>2026-04-18T08:14:08.54Z</time></trkpt><trkpt lat="43.9931978" lon="11.0132207"><ele>876.4000000000001</ele><time>2026-04-18T08:14:10.538Z</time></trkpt><trkpt lat="43.9931259" lon="11.0132738"><ele>877.6</ele><time>2026-04-18T08:14:12.539Z</time></trkpt><trkpt lat="43.9930283" lon="11.013313"><ele>878.8</ele><time>2026-04-18T08:14:14.538Z</time></trkpt><trkpt lat="43.9929226" lon="11.0133753"><ele>880.0</ele><time>2026-04-18T08:14:16.541Z</time></trkpt><trkpt lat="43.992805" lon="11.0134089"><ele>878.2857142857142</ele><time>2026-04-18T08:14:18.537Z</time></trkpt><trkpt lat="43.9927348" lon="11.0134251"><ele>876.5714285714286</ele><time>2026-04-18T08:14:19.527Z</time></trkpt><trkpt lat="43.9926568" lon="11.0134403"><ele>874.8571428571429</ele><time>2026-04-18T08:14:20.531Z</time></trkpt><trkpt lat="43.9925769" lon="11.0134608"><ele>873.1428571428571</ele><time>2026-04-18T08:14:21.529Z</time></trkpt><trkpt lat="43.9925175" lon="11.0134956"><ele>871.4285714285714</ele><time>2026-04-18T08:14:22.52Z</time></trkpt><trkpt lat="43.992462" lon="11.0135435"><ele>869.7142857142857</ele><time>2026-04-18T08:14:23.525Z</time></trkpt><trkpt lat="43.9924098" lon="11.0135973"><ele>868.0</ele><time>2026-04-18T08:14:24.522Z</time></trkpt><trkpt lat="43.9923264" lon="11.0136822"><ele>867.9999999999999</ele><time>2026-04-18T08:14:26.543Z</time></trkpt><trkpt lat="43.9922698" lon="11.0137557"><ele>868.0</ele><time>2026-04-18T08:14:28.534Z</time></trkpt><trkpt lat="43.9922239" lon="11.0138208"><ele>868.0</ele><time>2026-04-18T08:14:30.542Z</time></trkpt><trkpt lat="43.9921481" lon="11.0138854"><ele>868.0</ele><time>2026-04-18T08:14:32.538Z</time></trkpt><trkpt lat="43.9920694" lon="11.0139611"><ele>867.9999999999999</ele><time>2026-04-18T08:14:34.547Z</time></trkpt><trkpt lat="43.991993" lon="11.0140418"><ele>868.0</ele><time>2026-04-18T08:14:36.549Z</time></trkpt><trkpt lat="43.9919054" lon="11.0141337"><ele>866.8</ele><time>2026-04-18T08:14:38.536Z</time></trkpt><trkpt lat="43.991845" lon="11.0141695"><ele>865.5999999999999</ele><time>2026-04-18T08:14:39.54Z</time></trkpt><trkpt lat="43.9917318" lon="11.0142242"><ele>864.4000000000001</ele><time>2026-04-18T08:14:41.558Z</time></trkpt><trkpt lat="43.9916293" lon="11.0142578"><ele>863.2</ele><time>2026-04-18T08:14:43.536Z</time></trkpt><trkpt lat="43.9915306" lon="11.0142383"><ele>862.0</ele><time>2026-04-18T08:14:45.555Z</time></trkpt><trkpt lat="43.9914458" lon="11.0141838"><ele>861.9999999999999</ele><time>2026-04-18T08:14:47.55Z</time></trkpt><trkpt lat="43.9913691" lon="11.0141792"><ele>862.0</ele><time>2026-04-18T08:14:49.56Z</time></trkpt><trkpt lat="43.9912909" lon="11.0142233"><ele>862.0</ele><time>2026-04-18T08:14:51.543Z</time></trkpt><trkpt lat="43.9912115" lon="11.0142811"><ele>862.0</ele><time>2026-04-18T08:14:53.53Z</time></trkpt><trkpt lat="43.9911395" lon="11.0143638"><ele>861.9999999999999</ele><time>2026-04-18T08:14:55.538Z</time></trkpt><trkpt lat="43.9910962" lon="11.0144821"><ele>862.0</ele><time>2026-04-18T08:14:57.545Z</time></trkpt><trkpt lat="43.9910336" lon="11.0145805"><ele>861.9999999999999</ele><time>2026-04-18T08:14:59.535Z</time></trkpt><trkpt lat="43.9909681" lon="11.0146633"><ele>862.0</ele><time>2026-04-18T08:15:01.537Z</time></trkpt><trkpt lat="43.9909096" lon="11.0147342"><ele>862.0</ele><time>2026-04-18T08:15:03.529Z</time></trkpt><trkpt lat="43.9908455" lon="11.0147857"><ele>862.0</ele><time>2026-04-18T08:15:05.545Z</time></trkpt><trkpt lat="43.9907697" lon="11.0148493"><ele>861.9999999999999</ele><time>2026-04-18T08:15:07.542Z</time></trkpt><trkpt lat="43.9907006" lon="11.0149001"><ele>862.0</ele><time>2026-04-18T08:15:09.545Z</time></trkpt><trkpt lat="43.9906452" lon="11.0149759"><ele>860.2</ele><time>2026-04-18T08:15:11.536Z</time></trkpt><trkpt lat="43.9906051" lon="11.0150704"><ele>858.4000000000001</ele><time>2026-04-18T08:15:13.528Z</time></trkpt><trkpt lat="43.9905643" lon="11.0151739"><ele>856.5999999999999</ele><time>2026-04-18T08:15:15.535Z</time></trkpt><trkpt lat="43.9905147" lon="11.0152893"><ele>854.8</ele><time>2026-04-18T08:15:17.532Z</time></trkpt><trkpt lat="43.9904575" lon="11.0154091"><ele>853.0</ele><time>2026-04-18T08:15:19.539Z</time></trkpt><trkpt lat="43.990371" lon="11.0154978"><ele>852.9999999999999</ele><time>2026-04-18T08:15:21.538Z</time></trkpt><trkpt lat="43.9902927" lon="11.0155595"><ele>853.0</ele><time>2026-04-18T08:15:23.541Z</time></trkpt><trkpt lat="43.9902178" lon="11.0155821"><ele>853.0</ele><time>2026-04-18T08:15:25.541Z</time></trkpt><trkpt lat="43.9901354" lon="11.0155893"><ele>853.0</ele><time>2026-04-18T08:15:27.565Z</time></trkpt><trkpt lat="43.9900443" lon="11.015608"><ele>852.9999999999999</ele><time>2026-04-18T08:15:29.553Z</time></trkpt><trkpt lat="43.9899528" lon="11.0156346"><ele>853.0</ele><time>2026-04-18T08:15:31.544Z</time></trkpt><trkpt lat="43.9898768" lon="11.0156585"><ele>855.6666666666666</ele><time>2026-04-18T08:15:33.543Z</time></trkpt><trkpt lat="43.9897928" lon="11.0156918"><ele>858.3333333333333</ele><time>2026-04-18T08:15:39.54Z</time></trkpt><trkpt lat="43.9897243" lon="11.0157649"><ele>861.0</ele><time>2026-04-18T08:15:42.548Z</time></trkpt><trkpt lat="43.9896604" lon="11.0158115"><ele>863.6666666666667</ele><time>2026-04-18T08:15:44.537Z</time></trkpt><trkpt lat="43.9895868" lon="11.0158149"><ele>866.3333333333334</ele><time>2026-04-18T08:15:47.552Z</time></trkpt><trkpt lat="43.9895281" lon="11.0158664"><ele>869.0</ele><time>2026-04-18T08:15:50.534Z</time></trkpt><trkpt lat="43.9894736" lon="11.015911"><ele>869.0000000000001</ele><time>2026-04-18T08:15:53.549Z</time></trkpt><trkpt lat="43.989397" lon="11.0159443"><ele>869.0</ele><time>2026-04-18T08:15:56.54Z</time></trkpt><trkpt lat="43.9893084" lon="11.0159717"><ele>869.0</ele><time>2026-04-18T08:15:59.537Z</time></trkpt><trkpt lat="43.9892387" lon="11.01599"><ele>869.0</ele><time>2026-04-18T08:16:01.539Z</time></trkpt><trkpt lat="43.9891501" lon="11.0160135"><ele>869.0000000000001</ele><time>2026-04-18T08:16:04.547Z</time></trkpt><trkpt lat="43.9890631" lon="11.0160017"><ele>869.0</ele><time>2026-04-18T08:16:07.543Z</time></trkpt><trkpt lat="43.9889993" lon="11.0159686"><ele>873.1666666666667</ele><time>2026-04-18T08:16:10.544Z</time></trkpt><trkpt lat="43.9889379" lon="11.0159885"><ele>877.3333333333334</ele><time>2026-04-18T08:16:12.531Z</time></trkpt><trkpt lat="43.9888343" lon="11.0160524"><ele>881.5</ele><time>2026-04-18T08:16:14.514Z</time></trkpt><trkpt lat="43.9887652" lon="11.0160913"><ele>885.6666666666667</ele><time>2026-04-18T08:16:15.519Z</time></trkpt><trkpt lat="43.9886865" lon="11.0161288"><ele>889.8333333333334</ele><time>2026-04-18T08:16:16.514Z</time></trkpt><trkpt lat="43.9886025" lon="11.0161659"><ele>894.0</ele><time>2026-04-18T08:16:17.416Z</time></trkpt><trkpt lat="43.9885094" lon="11.0162026"><ele>894.0</ele><time>2026-04-18T08:16:18.379Z</time></trkpt><trkpt lat="43.988409" lon="11.0162413"><ele>894.0000000000001</ele><time>2026-04-18T08:16:19.38Z</time></trkpt><trkpt lat="43.9882993" lon="11.0162847"><ele>894.0000000000001</ele><time>2026-04-18T08:16:20.375Z</time></trkpt><trkpt lat="43.988186" lon="11.0163199"><ele>894.0</ele><time>2026-04-18T08:16:21.399Z</time></trkpt><trkpt lat="43.9880728" lon="11.0163398"><ele>894.0</ele><time>2026-04-18T08:16:22.399Z</time></trkpt><trkpt lat="43.9879561" lon="11.0163376"><ele>894.6</ele><time>2026-04-18T08:16:23.378Z</time></trkpt><trkpt lat="43.9878408" lon="11.0162961"><ele>895.2</ele><time>2026-04-18T08:16:24.38Z</time></trkpt><trkpt lat="43.9877416" lon="11.0162172"><ele>895.8000000000001</ele><time>2026-04-18T08:16:25.379Z</time></trkpt><trkpt lat="43.9876726" lon="11.0161091"><ele>896.4000000000001</ele><time>2026-04-18T08:16:26.38Z</time></trkpt><trkpt lat="43.9876416" lon="11.0160001"><ele>897.0</ele><time>2026-04-18T08:16:27.387Z</time></trkpt><trkpt lat="43.9876505" lon="11.0158707"><ele>902.5</ele><time>2026-04-18T08:16:28.374Z</time></trkpt><trkpt lat="43.9876744" lon="11.015726"><ele>908.0</ele><time>2026-04-18T08:16:29.382Z</time></trkpt><trkpt lat="43.9877002" lon="11.0155663"><ele>913.5</ele><time>2026-04-18T08:16:30.392Z</time></trkpt><trkpt lat="43.9877272" lon="11.0154011"><ele>919.0</ele><time>2026-04-18T08:16:31.375Z</time></trkpt><trkpt lat="43.9877483" lon="11.0152334"><ele>919.0</ele><time>2026-04-18T08:16:32.377Z</time></trkpt><trkpt lat="43.9877655" lon="11.0150615"><ele>919.0000000000001</ele><time>2026-04-18T08:16:33.374Z</time></trkpt><trkpt lat="43.9877507" lon="11.0149059"><ele>919.0000000000001</ele><time>2026-04-18T08:16:34.368Z</time></trkpt><trkpt lat="43.9877081" lon="11.0147802"><ele>919.0</ele><time>2026-04-18T08:16:35.371Z</time></trkpt><trkpt lat="43.9876431" lon="11.014692"><ele>919.0</ele><time>2026-04-18T08:16:36.382Z</time></trkpt><trkpt lat="43.9875666" lon="11.0146187"><ele>912.6</ele><time>2026-04-18T08:16:37.378Z</time></trkpt><trkpt lat="43.98749" lon="11.0145349"><ele>906.2</ele><time>2026-04-18T08:16:38.383Z</time></trkpt><trkpt lat="43.9874291" lon="11.01443"><ele>899.8000000000001</ele><time>2026-04-18T08:16:39.405Z</time></trkpt><trkpt lat="43.987403" lon="11.0143173"><ele>893.4000000000001</ele><time>2026-04-18T08:16:40.382Z</time></trkpt><trkpt lat="43.9874113" lon="11.0141975"><ele>887.0</ele><time>2026-04-18T08:16:41.381Z</time></trkpt><trkpt lat="43.9874726" lon="11.0140731"><ele>896.25</ele><time>2026-04-18T08:16:42.371Z</time></trkpt><trkpt lat="43.9875565" lon="11.0139492"><ele>905.5</ele><time>2026-04-18T08:16:43.373Z</time></trkpt><trkpt lat="43.9876477" lon="11.0138214"><ele>914.75</ele><time>2026-04-18T08:16:44.367Z</time></trkpt><trkpt lat="43.9877403" lon="11.0136876"><ele>924.0</ele><time>2026-04-18T08:16:45.371Z</time></trkpt><trkpt lat="43.9878393" lon="11.0135595"><ele>924.0</ele><time>2026-04-18T08:16:46.369Z</time></trkpt><trkpt lat="43.9879322" lon="11.0134438"><ele>924.0000000000001</ele><time>2026-04-18T08:16:47.364Z</time></trkpt><trkpt lat="43.9880184" lon="11.0133384"><ele>924.0000000000001</ele><time>2026-04-18T08:16:48.359Z</time></trkpt><trkpt lat="43.9880877" lon="11.0132458"><ele>924.0</ele><time>2026-04-18T08:16:49.365Z</time></trkpt><trkpt lat="43.9881352" lon="11.0131262"><ele>924.0</ele><time>2026-04-18T08:16:50.361Z</time></trkpt><trkpt lat="43.9881535" lon="11.0130156"><ele>922.3333333333334</ele><time>2026-04-18T08:16:51.366Z</time></trkpt><trkpt lat="43.9881523" lon="11.0128972"><ele>920.6666666666667</ele><time>2026-04-18T08:16:52.361Z</time></trkpt><trkpt lat="43.9881589" lon="11.0127804"><ele>919.0</ele><time>2026-04-18T08:16:53.368Z</time></trkpt><trkpt lat="43.9881725" lon="11.012672"><ele>917.3333333333334</ele><time>2026-04-18T08:16:54.361Z</time></trkpt><trkpt lat="43.988204" lon="11.0125677"><ele>915.6666666666667</ele><time>2026-04-18T08:16:55.366Z</time></trkpt><trkpt lat="43.9882596" lon="11.0124774"><ele>914.0</ele><time>2026-04-18T08:16:56.361Z</time></trkpt><trkpt lat="43.9883073" lon="11.0123748"><ele>917.4000000000001</ele><time>2026-04-18T08:16:57.36Z</time></trkpt><trkpt lat="43.9883465" lon="11.0122586"><ele>920.8000000000001</ele><time>2026-04-18T08:16:58.358Z</time></trkpt><trkpt lat="43.988365" lon="11.0121238"><ele>924.1999999999999</ele><time>2026-04-18T08:16:59.362Z</time></trkpt><trkpt lat="43.9883632" lon="11.0119685"><ele>927.5999999999999</ele><time>2026-04-18T08:17:00.373Z</time></trkpt><trkpt lat="43.9883473" lon="11.0118091"><ele>931.0</ele><time>2026-04-18T08:17:01.366Z</time></trkpt><trkpt lat="43.9883076" lon="11.0116423"><ele>931.0</ele><time>2026-04-18T08:17:02.37Z</time></trkpt><trkpt lat="43.9882635" lon="11.0114746"><ele>930.9999999999999</ele><time>2026-04-18T08:17:03.37Z</time></trkpt><trkpt lat="43.9882342" lon="11.0113258"><ele>930.9999999999999</ele><time>2026-04-18T08:17:04.367Z</time></trkpt><trkpt lat="43.9882121" lon="11.0111876"><ele>931.0</ele><time>2026-04-18T08:17:05.369Z</time></trkpt><trkpt lat="43.9881857" lon="11.0110638"><ele>931.0</ele><time>2026-04-18T08:17:06.369Z</time></trkpt><trkpt lat="43.9881527" lon="11.0109571"><ele>931.0</ele><time>2026-04-18T08:17:07.363Z</time></trkpt><trkpt lat="43.9881055" lon="11.0108648"><ele>930.9999999999999</ele><time>2026-04-18T08:17:08.373Z</time></trkpt><trkpt lat="43.9880399" lon="11.0108038"><ele>930.9999999999999</ele><time>2026-04-18T08:17:09.383Z</time></trkpt><trkpt lat="43.9879511" lon="11.0107958"><ele>931.0</ele><time>2026-04-18T08:17:10.386Z</time></trkpt><trkpt lat="43.9878517" lon="11.0108165"><ele>931.0</ele><time>2026-04-18T08:17:11.367Z</time></trkpt><trkpt lat="43.9877525" lon="11.0108295"><ele>931.4</ele><time>2026-04-18T08:17:12.371Z</time></trkpt><trkpt lat="43.9876628" lon="11.0108235"><ele>931.8</ele><time>2026-04-18T08:17:13.368Z</time></trkpt><trkpt lat="43.9875778" lon="11.010784"><ele>932.1999999999999</ele><time>2026-04-18T08:17:14.368Z</time></trkpt><trkpt lat="43.9875077" lon="11.0107138"><ele>932.5999999999999</ele><time>2026-04-18T08:17:15.371Z</time></trkpt><trkpt lat="43.9874266" lon="11.0106436"><ele>933.0</ele><time>2026-04-18T08:17:16.366Z</time></trkpt><trkpt lat="43.9873289" lon="11.010587"><ele>933.0</ele><time>2026-04-18T08:17:17.381Z</time></trkpt><trkpt lat="43.987224" lon="11.010575"><ele>933.0</ele><time>2026-04-18T08:17:18.376Z</time></trkpt><trkpt lat="43.9871103" lon="11.0105984"><ele>933.0</ele><time>2026-04-18T08:17:19.371Z</time></trkpt><trkpt lat="43.9869971" lon="11.0106172"><ele>933.0</ele><time>2026-04-18T08:17:20.37Z</time></trkpt><trkpt lat="43.9868889" lon="11.0106308"><ele>933.0</ele><time>2026-04-18T08:17:21.366Z</time></trkpt><trkpt lat="43.9867933" lon="11.0106197"><ele>933.0</ele><time>2026-04-18T08:17:22.368Z</time></trkpt><trkpt lat="43.9867089" lon="11.0105736"><ele>933.0</ele><time>2026-04-18T08:17:23.364Z</time></trkpt><trkpt lat="43.986657" lon="11.0104957"><ele>933.0</ele><time>2026-04-18T08:17:24.372Z</time></trkpt><trkpt lat="43.9866342" lon="11.0103843"><ele>933.0</ele><time>2026-04-18T08:17:25.362Z</time></trkpt><trkpt lat="43.9866292" lon="11.0102452"><ele>933.0</ele><time>2026-04-18T08:17:26.37Z</time></trkpt><trkpt lat="43.9866212" lon="11.0101012"><ele>933.3333333333334</ele><time>2026-04-18T08:17:27.365Z</time></trkpt><trkpt lat="43.9865994" lon="11.0099736"><ele>933.6666666666667</ele><time>2026-04-18T08:17:28.367Z</time></trkpt><trkpt lat="43.9865457" lon="11.0098921"><ele>934.0</ele><time>2026-04-18T08:17:29.372Z</time></trkpt><trkpt lat="43.9864694" lon="11.0098577"><ele>934.3333333333334</ele><time>2026-04-18T08:17:30.369Z</time></trkpt><trkpt lat="43.9863772" lon="11.0098773"><ele>934.6666666666667</ele><time>2026-04-18T08:17:31.36Z</time></trkpt><trkpt lat="43.9862816" lon="11.0099242"><ele>935.0</ele><time>2026-04-18T08:17:32.362Z</time></trkpt><trkpt lat="43.9861814" lon="11.0099936"><ele>926.5</ele><time>2026-04-18T08:17:33.361Z</time></trkpt><trkpt lat="43.9860839" lon="11.0100803"><ele>918.0</ele><time>2026-04-18T08:17:34.362Z</time></trkpt><trkpt lat="43.9859891" lon="11.0101635"><ele>909.5</ele><time>2026-04-18T08:17:35.36Z</time></trkpt><trkpt lat="43.9858864" lon="11.0102315"><ele>901.0</ele><time>2026-04-18T08:17:36.365Z</time></trkpt><trkpt lat="43.9857874" lon="11.0102947"><ele>901.0</ele><time>2026-04-18T08:17:37.367Z</time></trkpt><trkpt lat="43.9856788" lon="11.0103533"><ele>901.0</ele><time>2026-04-18T08:17:38.365Z</time></trkpt><trkpt lat="43.9855624" lon="11.0104033"><ele>901.0</ele><time>2026-04-18T08:17:39.376Z</time></trkpt><trkpt lat="43.9854335" lon="11.0104381"><ele>901.0</ele><time>2026-04-18T08:17:40.369Z</time></trkpt><trkpt lat="43.9853024" lon="11.010464"><ele>901.0</ele><time>2026-04-18T08:17:41.384Z</time></trkpt><trkpt lat="43.9851715" lon="11.010492"><ele>901.0</ele><time>2026-04-18T08:17:42.377Z</time></trkpt><trkpt lat="43.9850395" lon="11.0105437"><ele>901.0</ele><time>2026-04-18T08:17:43.374Z</time></trkpt><trkpt lat="43.9849215" lon="11.0106287"><ele>901.0</ele><time>2026-04-18T08:17:44.372Z</time></trkpt><trkpt lat="43.9848205" lon="11.0107407"><ele>894.8</ele><time>2026-04-18T08:17:45.374Z</time></trkpt><trkpt lat="43.9847305" lon="11.0108446"><ele>888.5999999999999</ele><time>2026-04-18T08:17:46.375Z</time></trkpt><trkpt lat="43.9846407" lon="11.0109256"><ele>882.4</ele><time>2026-04-18T08:17:47.381Z</time></trkpt><trkpt lat="43.9845508" lon="11.0109596"><ele>876.2</ele><time>2026-04-18T08:17:48.375Z</time></trkpt><trkpt lat="43.9844531" lon="11.0109315"><ele>870.0</ele><time>2026-04-18T08:17:49.376Z</time></trkpt><trkpt lat="43.9843674" lon="11.0108406"><ele>874.5</ele><time>2026-04-18T08:17:50.374Z</time></trkpt><trkpt lat="43.9842954" lon="11.010705"><ele>879.0</ele><time>2026-04-18T08:17:51.381Z</time></trkpt><trkpt lat="43.9842527" lon="11.0105374"><ele>883.5</ele><time>2026-04-18T08:17:52.372Z</time></trkpt><trkpt lat="43.9842158" lon="11.0103617"><ele>888.0</ele><time>2026-04-18T08:17:53.375Z</time></trkpt><trkpt lat="43.9841715" lon="11.0101874"><ele>888.0</ele><time>2026-04-18T08:17:54.379Z</time></trkpt><trkpt lat="43.9841196" lon="11.0100121"><ele>888.0</ele><time>2026-04-18T08:17:55.374Z</time></trkpt><trkpt lat="43.9840616" lon="11.0098369"><ele>888.0</ele><time>2026-04-18T08:17:56.377Z</time></trkpt><trkpt lat="43.9839826" lon="11.009676"><ele>888.0</ele><time>2026-04-18T08:17:57.378Z</time></trkpt><trkpt lat="43.9838904" lon="11.0095152"><ele>894.0</ele><time>2026-04-18T08:17:58.374Z</time></trkpt><trkpt lat="43.9837943" lon="11.0093664"><ele>900.0</ele><time>2026-04-18T08:17:59.369Z</time></trkpt><trkpt lat="43.9836887" lon="11.009237"><ele>906.0</ele><time>2026-04-18T08:18:00.369Z</time></trkpt><trkpt lat="43.9835807" lon="11.0091192"><ele>912.0</ele><time>2026-04-18T08:18:01.373Z</time></trkpt><trkpt lat="43.9834676" lon="11.0090091"><ele>911.25</ele><time>2026-04-18T08:18:02.367Z</time></trkpt><trkpt lat="43.9833505" lon="11.0089189"><ele>910.5</ele><time>2026-04-18T08:18:03.373Z</time></trkpt><trkpt lat="43.9832216" lon="11.0088436"><ele>909.75</ele><time>2026-04-18T08:18:04.37Z</time></trkpt><trkpt lat="43.9830887" lon="11.00876"><ele>909.0</ele><time>2026-04-18T08:18:05.375Z</time></trkpt><trkpt lat="43.982949" lon="11.0086998"><ele>909.0</ele><time>2026-04-18T08:18:06.38Z</time></trkpt><trkpt lat="43.982797" lon="11.0086258"><ele>909.0</ele><time>2026-04-18T08:18:07.377Z</time></trkpt><trkpt lat="43.9826523" lon="11.008552"><ele>909.0</ele><time>2026-04-18T08:18:08.385Z</time></trkpt><trkpt lat="43.9825113" lon="11.0084664"><ele>907.0</ele><time>2026-04-18T08:18:09.387Z</time></trkpt><trkpt lat="43.9823698" lon="11.0083763"><ele>905.0</ele><time>2026-04-18T08:18:10.385Z</time></trkpt><trkpt lat="43.9822346" lon="11.0082882"><ele>903.0</ele><time>2026-04-18T08:18:11.398Z</time></trkpt><trkpt lat="43.9820977" lon="11.0081928"><ele>903.0</ele><time>2026-04-18T08:18:12.406Z</time></trkpt><trkpt lat="43.9819746" lon="11.0080734"><ele>903.0</ele><time>2026-04-18T08:18:13.392Z</time></trkpt><trkpt lat="43.9818596" lon="11.0079568"><ele>903.0</ele><time>2026-04-18T08:18:14.389Z</time></trkpt><trkpt lat="43.9817389" lon="11.0078431"><ele>903.0</ele><time>2026-04-18T08:18:15.391Z</time></trkpt><trkpt lat="43.9816184" lon="11.0077305"><ele>897.75</ele><time>2026-04-18T08:18:16.394Z</time></trkpt><trkpt lat="43.9815057" lon="11.0076236"><ele>892.5</ele><time>2026-04-18T08:18:17.382Z</time></trkpt><trkpt lat="43.9813815" lon="11.0075157"><ele>887.25</ele><time>2026-04-18T08:18:18.392Z</time></trkpt><trkpt lat="43.9812553" lon="11.0074089"><ele>882.0</ele><time>2026-04-18T08:18:19.382Z</time></trkpt><trkpt lat="43.9811251" lon="11.0072918"><ele>882.0</ele><time>2026-04-18T08:18:20.383Z</time></trkpt><trkpt lat="43.9809975" lon="11.0071785"><ele>882.0</ele><time>2026-04-18T08:18:21.384Z</time></trkpt><trkpt lat="43.980869" lon="11.0070665"><ele>882.0</ele><time>2026-04-18T08:18:22.385Z</time></trkpt><trkpt lat="43.9807367" lon="11.0069483"><ele>875.6666666666667</ele><time>2026-04-18T08:18:23.39Z</time></trkpt><trkpt lat="43.9806111" lon="11.0068183"><ele>869.3333333333334</ele><time>2026-04-18T08:18:24.385Z</time></trkpt><trkpt lat="43.9804891" lon="11.0066908"><ele>863.0</ele><time>2026-04-18T08:18:25.385Z</time></trkpt><trkpt lat="43.9803748" lon="11.0065627"><ele>862.0</ele><time>2026-04-18T08:18:26.386Z</time></trkpt><trkpt lat="43.9802761" lon="11.0064342"><ele>861.0</ele><time>2026-04-18T08:18:27.395Z</time></trkpt><trkpt lat="43.9801871" lon="11.0063043"><ele>860.0</ele><time>2026-04-18T08:18:28.398Z</time></trkpt><trkpt lat="43.9801174" lon="11.0061891"><ele>859.0</ele><time>2026-04-18T08:18:29.393Z</time></trkpt><trkpt lat="43.9800711" lon="11.0060521"><ele>859.0</ele><time>2026-04-18T08:18:30.394Z</time></trkpt><trkpt lat="43.9800541" lon="11.0059179"><ele>859.0000000000001</ele><time>2026-04-18T08:18:31.386Z</time></trkpt><trkpt lat="43.980088" lon="11.0057762"><ele>859.0000000000001</ele><time>2026-04-18T08:18:32.392Z</time></trkpt><trkpt lat="43.9801384" lon="11.005627"><ele>859.0</ele><time>2026-04-18T08:18:33.397Z</time></trkpt><trkpt lat="43.9801983" lon="11.0054893"><ele>859.0</ele><time>2026-04-18T08:18:34.386Z</time></trkpt><trkpt lat="43.9802602" lon="11.0053687"><ele>858.0</ele><time>2026-04-18T08:18:35.393Z</time></trkpt><trkpt lat="43.9803235" lon="11.0052545"><ele>857.0000000000001</ele><time>2026-04-18T08:18:36.389Z</time></trkpt><trkpt lat="43.9803857" lon="11.0051456"><ele>856.0000000000001</ele><time>2026-04-18T08:18:37.39Z</time></trkpt><trkpt lat="43.9804444" lon="11.0050363"><ele>855.0</ele><time>2026-04-18T08:18:38.381Z</time></trkpt><trkpt lat="43.9804996" lon="11.0049287"><ele>854.0</ele><time>2026-04-18T08:18:39.39Z</time></trkpt><trkpt lat="43.9805552" lon="11.0048161"><ele>855.4000000000001</ele><time>2026-04-18T08:18:40.383Z</time></trkpt><trkpt lat="43.9806096" lon="11.0047008"><ele>856.8000000000001</ele><time>2026-04-18T08:18:41.386Z</time></trkpt><trkpt lat="43.9806655" lon="11.004577"><ele>858.1999999999999</ele><time>2026-04-18T08:18:42.381Z</time></trkpt><trkpt lat="43.9807233" lon="11.0044542"><ele>859.5999999999999</ele><time>2026-04-18T08:18:43.394Z</time></trkpt><trkpt lat="43.9807864" lon="11.0043258"><ele>861.0</ele><time>2026-04-18T08:18:44.381Z</time></trkpt><trkpt lat="43.9808495" lon="11.0041934"><ele>858.0</ele><time>2026-04-18T08:18:45.379Z</time></trkpt><trkpt lat="43.9809126" lon="11.0040569"><ele>855.0</ele><time>2026-04-18T08:18:46.389Z</time></trkpt><trkpt lat="43.980978" lon="11.0039208"><ele>852.0</ele><time>2026-04-18T08:18:47.384Z</time></trkpt><trkpt lat="43.981048" lon="11.0037856"><ele>849.0</ele><time>2026-04-18T08:18:48.384Z</time></trkpt><trkpt lat="43.9811205" lon="11.0036528"><ele>849.0</ele><time>2026-04-18T08:18:49.378Z</time></trkpt><trkpt lat="43.9811982" lon="11.0035333"><ele>849.0</ele><time>2026-04-18T08:18:50.38Z</time></trkpt><trkpt lat="43.981267" lon="11.0034352"><ele>849.0</ele><time>2026-04-18T08:18:51.381Z</time></trkpt><trkpt lat="43.9813262" lon="11.0033622"><ele>849.0</ele><time>2026-04-18T08:18:52.382Z</time></trkpt><trkpt lat="43.98138" lon="11.0033068"><ele>849.0</ele><time>2026-04-18T08:18:53.382Z</time></trkpt><trkpt lat="43.9814288" lon="11.0032305"><ele>849.0</ele><time>2026-04-18T08:18:55.375Z</time></trkpt><trkpt lat="43.9813432" lon="11.0032265"><ele>846.3333333333334</ele><time>2026-04-18T08:19:02.397Z</time></trkpt><trkpt lat="43.9812673" lon="11.0032635"><ele>843.6666666666667</ele><time>2026-04-18T08:19:05.39Z</time></trkpt><trkpt lat="43.981185" lon="11.0032882"><ele>841.0</ele><time>2026-04-18T08:19:08.393Z</time></trkpt><trkpt lat="43.9811032" lon="11.0032954"><ele>838.3333333333334</ele><time>2026-04-18T08:19:10.399Z</time></trkpt><trkpt lat="43.981039" lon="11.0032822"><ele>835.6666666666667</ele><time>2026-04-18T08:19:11.401Z</time></trkpt><trkpt lat="43.9809618" lon="11.0032716"><ele>833.0</ele><time>2026-04-18T08:19:12.38Z</time></trkpt><trkpt lat="43.9808877" lon="11.0032632"><ele>832.5000000000001</ele><time>2026-04-18T08:19:13.384Z</time></trkpt><trkpt lat="43.9808166" lon="11.0032689"><ele>832.0</ele><time>2026-04-18T08:19:14.394Z</time></trkpt><trkpt lat="43.9807453" lon="11.0032766"><ele>831.5</ele><time>2026-04-18T08:19:15.375Z</time></trkpt><trkpt lat="43.9806777" lon="11.0032871"><ele>831.0</ele><time>2026-04-18T08:19:16.383Z</time></trkpt><trkpt lat="43.9806116" lon="11.0032985"><ele>830.5000000000001</ele><time>2026-04-18T08:19:17.373Z</time></trkpt><trkpt lat="43.9805482" lon="11.0033165"><ele>830.0</ele><time>2026-04-18T08:19:18.376Z</time></trkpt><trkpt lat="43.9804299" lon="11.0033536"><ele>830.0</ele><time>2026-04-18T08:19:20.374Z</time></trkpt><trkpt lat="43.9803674" lon="11.0033676"><ele>830.0</ele><time>2026-04-18T08:19:21.374Z</time></trkpt><trkpt lat="43.9803018" lon="11.0033822"><ele>830.0</ele><time>2026-04-18T08:19:22.382Z</time></trkpt><trkpt lat="43.980237" lon="11.0033952"><ele>830.0</ele><time>2026-04-18T08:19:23.384Z</time></trkpt><trkpt lat="43.9801719" lon="11.0034046"><ele>830.0</ele><time>2026-04-18T08:19:24.372Z</time></trkpt><trkpt lat="43.9801063" lon="11.0034136"><ele>830.0</ele><time>2026-04-18T08:19:25.379Z</time></trkpt><trkpt lat="43.9800396" lon="11.0034272"><ele>830.0</ele><time>2026-04-18T08:19:26.37Z</time></trkpt><trkpt lat="43.9799754" lon="11.0034464"><ele>827.6666666666667</ele><time>2026-04-18T08:19:27.371Z</time></trkpt><trkpt lat="43.9799109" lon="11.0034718"><ele>825.3333333333334</ele><time>2026-04-18T08:19:28.372Z</time></trkpt><trkpt lat="43.9798403" lon="11.0035051"><ele>823.0</ele><time>2026-04-18T08:19:29.371Z</time></trkpt><trkpt lat="43.9797716" lon="11.0035547"><ele>820.6666666666667</ele><time>2026-04-18T08:19:30.374Z</time></trkpt><trkpt lat="43.9797002" lon="11.0036006"><ele>818.3333333333334</ele><time>2026-04-18T08:19:31.372Z</time></trkpt><trkpt lat="43.9796228" lon="11.003634"><ele>816.0</ele><time>2026-04-18T08:19:32.379Z</time></trkpt><trkpt lat="43.9795394" lon="11.003655"><ele>816.0</ele><time>2026-04-18T08:19:33.377Z</time></trkpt><trkpt lat="43.9794579" lon="11.0036632"><ele>816.0</ele><time>2026-04-18T08:19:34.378Z</time></trkpt><trkpt lat="43.9793856" lon="11.0036502"><ele>816.0</ele><time>2026-04-18T08:19:35.374Z</time></trkpt><trkpt lat="43.9793068" lon="11.0036198"><ele>816.0</ele><time>2026-04-18T08:19:36.375Z</time></trkpt><trkpt lat="43.9792306" lon="11.0035886"><ele>816.0</ele><time>2026-04-18T08:19:37.377Z</time></trkpt><trkpt lat="43.9791575" lon="11.0035496"><ele>816.0</ele><time>2026-04-18T08:19:38.371Z</time></trkpt><trkpt lat="43.979083" lon="11.0035121"><ele>813.8333333333334</ele><time>2026-04-18T08:19:39.383Z</time></trkpt><trkpt lat="43.9790051" lon="11.0034893"><ele>811.6666666666667</ele><time>2026-04-18T08:19:40.373Z</time></trkpt><trkpt lat="43.9789326" lon="11.0034897"><ele>809.5</ele><time>2026-04-18T08:19:41.384Z</time></trkpt><trkpt lat="43.9788567" lon="11.0034927"><ele>807.3333333333334</ele><time>2026-04-18T08:19:42.374Z</time></trkpt><trkpt lat="43.9787786" lon="11.0035015"><ele>805.1666666666667</ele><time>2026-04-18T08:19:43.381Z</time></trkpt><trkpt lat="43.9786991" lon="11.0035076"><ele>803.0</ele><time>2026-04-18T08:19:44.378Z</time></trkpt><trkpt lat="43.9786216" lon="11.0035156"><ele>802.9999999999999</ele><time>2026-04-18T08:19:45.394Z</time></trkpt><trkpt lat="43.9785479" lon="11.0035238"><ele>803.0</ele><time>2026-04-18T08:19:46.376Z</time></trkpt><trkpt lat="43.9784791" lon="11.0035317"><ele>803.0</ele><time>2026-04-18T08:19:47.392Z</time></trkpt><trkpt lat="43.9784138" lon="11.003534"><ele>803.0</ele><time>2026-04-18T08:19:48.387Z</time></trkpt><trkpt lat="43.9783398" lon="11.0035389"><ele>803.0</ele><time>2026-04-18T08:19:49.388Z</time></trkpt><trkpt lat="43.9782651" lon="11.0035555"><ele>802.9999999999999</ele><time>2026-04-18T08:19:50.375Z</time></trkpt><trkpt lat="43.9781928" lon="11.0035863"><ele>803.0</ele><time>2026-04-18T08:19:51.375Z</time></trkpt><trkpt lat="43.9781304" lon="11.003621"><ele>800.8</ele><time>2026-04-18T08:19:52.379Z</time></trkpt><trkpt lat="43.9780275" lon="11.0036736"><ele>798.5999999999999</ele><time>2026-04-18T08:19:54.377Z</time></trkpt><trkpt lat="43.9779327" lon="11.0037157"><ele>796.4000000000001</ele><time>2026-04-18T08:19:56.389Z</time></trkpt><trkpt lat="43.9778434" lon="11.0037563"><ele>794.2</ele><time>2026-04-18T08:19:58.388Z</time></trkpt><trkpt lat="43.9777548" lon="11.0037709"><ele>792.0</ele><time>2026-04-18T08:20:00.396Z</time></trkpt><trkpt lat="43.9776577" lon="11.0037822"><ele>792.0</ele><time>2026-04-18T08:20:02.377Z</time></trkpt><trkpt lat="43.9775542" lon="11.0038289"><ele>792.0</ele><time>2026-04-18T08:20:04.371Z</time></trkpt><trkpt lat="43.9774588" lon="11.003897"><ele>792.0</ele><time>2026-04-18T08:20:06.372Z</time></trkpt><trkpt lat="43.977338" lon="11.0039251"><ele>792.0</ele><time>2026-04-18T08:20:08.374Z</time></trkpt><trkpt lat="43.9772225" lon="11.0039388"><ele>788.4000000000001</ele><time>2026-04-18T08:20:10.397Z</time></trkpt><trkpt lat="43.9771164" lon="11.0039259"><ele>784.8000000000001</ele><time>2026-04-18T08:20:12.385Z</time></trkpt><trkpt lat="43.9770238" lon="11.0039173"><ele>781.2</ele><time>2026-04-18T08:20:14.389Z</time></trkpt><trkpt lat="43.9769296" lon="11.0039031"><ele>777.6</ele><time>2026-04-18T08:20:16.416Z</time></trkpt><trkpt lat="43.9768426" lon="11.0038689"><ele>774.0</ele><time>2026-04-18T08:20:18.393Z</time></trkpt><trkpt lat="43.9767551" lon="11.0038069"><ele>772.2</ele><time>2026-04-18T08:20:20.377Z</time></trkpt><trkpt lat="43.9766625" lon="11.0037223"><ele>770.4000000000001</ele><time>2026-04-18T08:20:22.39Z</time></trkpt><trkpt lat="43.9765674" lon="11.0036645"><ele>768.6</ele><time>2026-04-18T08:20:24.387Z</time></trkpt><trkpt lat="43.9764592" lon="11.0036379"><ele>766.8</ele><time>2026-04-18T08:20:26.381Z</time></trkpt><trkpt lat="43.9763639" lon="11.0036736"><ele>765.0</ele><time>2026-04-18T08:20:28.382Z</time></trkpt><trkpt lat="43.9762816" lon="11.0037163"><ele>765.0</ele><time>2026-04-18T08:20:30.402Z</time></trkpt><trkpt lat="43.9761939" lon="11.0037231"><ele>765.0</ele><time>2026-04-18T08:20:33.405Z</time></trkpt><trkpt lat="43.9761357" lon="11.0036729"><ele>765.0</ele><time>2026-04-18T08:20:54.406Z</time></trkpt><trkpt lat="43.9760872" lon="11.0036057"><ele>765.0</ele><time>2026-04-18T08:21:28.409Z</time></trkpt><trkpt lat="43.9760478" lon="11.0035243"><ele>765.0</ele><time>2026-04-18T08:21:34.4Z</time></trkpt><trkpt lat="43.9759865" lon="11.0034442"><ele>765.0</ele><time>2026-04-18T08:21:38.407Z</time></trkpt><trkpt lat="43.9759215" lon="11.0033586"><ele>761.3333333333334</ele><time>2026-04-18T08:21:41.396Z</time></trkpt><trkpt lat="43.9758562" lon="11.0033177"><ele>757.6666666666666</ele><time>2026-04-18T08:21:43.404Z</time></trkpt><trkpt lat="43.9757829" lon="11.0032649"><ele>754.0</ele><time>2026-04-18T08:21:45.408Z</time></trkpt><trkpt lat="43.9757027" lon="11.0032265"><ele>750.3333333333333</ele><time>2026-04-18T08:21:47.415Z</time></trkpt><trkpt lat="43.975626" lon="11.0032017"><ele>746.6666666666666</ele><time>2026-04-18T08:21:49.407Z</time></trkpt><trkpt lat="43.9755529" lon="11.0032115"><ele>743.0</ele><time>2026-04-18T08:21:51.407Z</time></trkpt><trkpt lat="43.9754832" lon="11.0032694"><ele>745.8</ele><time>2026-04-18T08:34:10.384Z</time></trkpt><trkpt lat="43.9754003" lon="11.0033485"><ele>748.5999999999999</ele><time>2026-04-18T08:34:12.376Z</time></trkpt><trkpt lat="43.9753388" lon="11.0034077"><ele>751.4000000000001</ele><time>2026-04-18T08:34:13.372Z</time></trkpt><trkpt lat="43.9752566" lon="11.0034626"><ele>754.2</ele><time>2026-04-18T08:34:14.36Z</time></trkpt><trkpt lat="43.9751635" lon="11.0035129"><ele>757.0</ele><time>2026-04-18T08:34:15.357Z</time></trkpt><trkpt lat="43.9750682" lon="11.0035643"><ele>756.75</ele><time>2026-04-18T08:34:16.36Z</time></trkpt><trkpt lat="43.9749704" lon="11.003624"><ele>756.5</ele><time>2026-04-18T08:34:17.36Z</time></trkpt><trkpt lat="43.9748623" lon="11.0036878"><ele>756.25</ele><time>2026-04-18T08:34:18.369Z</time></trkpt><trkpt lat="43.9747508" lon="11.0037558"><ele>756.0</ele><time>2026-04-18T08:34:19.368Z</time></trkpt><trkpt lat="43.9746495" lon="11.0038238"><ele>756.0</ele><time>2026-04-18T08:34:20.366Z</time></trkpt><trkpt lat="43.9745586" lon="11.0038837"><ele>756.0</ele><time>2026-04-18T08:34:21.372Z</time></trkpt><trkpt lat="43.9744796" lon="11.0039448"><ele>756.0</ele><time>2026-04-18T08:34:22.367Z</time></trkpt><trkpt lat="43.9744066" lon="11.0040043"><ele>756.0</ele><time>2026-04-18T08:34:23.374Z</time></trkpt><trkpt lat="43.9743344" lon="11.0040517"><ele>756.0</ele><time>2026-04-18T08:34:24.377Z</time></trkpt><trkpt lat="43.9742669" lon="11.0040878"><ele>756.0</ele><time>2026-04-18T08:34:25.375Z</time></trkpt><trkpt lat="43.9741935" lon="11.0041269"><ele>754.8571428571429</ele><time>2026-04-18T08:34:26.371Z</time></trkpt><trkpt lat="43.9741122" lon="11.0041627"><ele>753.7142857142858</ele><time>2026-04-18T08:34:27.377Z</time></trkpt><trkpt lat="43.9740316" lon="11.0041942"><ele>752.5714285714286</ele><time>2026-04-18T08:34:28.38Z</time></trkpt><trkpt lat="43.9739573" lon="11.0042146"><ele>751.4285714285714</ele><time>2026-04-18T08:34:29.377Z</time></trkpt><trkpt lat="43.9738858" lon="11.0042282"><ele>750.2857142857143</ele><time>2026-04-18T08:34:30.386Z</time></trkpt><trkpt lat="43.9738222" lon="11.0042377"><ele>749.1428571428571</ele><time>2026-04-18T08:34:31.379Z</time></trkpt><trkpt lat="43.9737545" lon="11.004236"><ele>748.0</ele><time>2026-04-18T08:34:32.379Z</time></trkpt><trkpt lat="43.9736832" lon="11.004213"><ele>748.0</ele><time>2026-04-18T08:34:33.367Z</time></trkpt><trkpt lat="43.9736107" lon="11.0041761"><ele>748.0</ele><time>2026-04-18T08:34:34.364Z</time></trkpt><trkpt lat="43.9735451" lon="11.0041171"><ele>748.0</ele><time>2026-04-18T08:34:35.375Z</time></trkpt><trkpt lat="43.9734789" lon="11.0040271"><ele>748.0</ele><time>2026-04-18T08:34:36.377Z</time></trkpt><trkpt lat="43.9734076" lon="11.0039309"><ele>748.0</ele><time>2026-04-18T08:34:37.367Z</time></trkpt><trkpt lat="43.9733291" lon="11.0038392"><ele>750.2</ele><time>2026-04-18T08:34:38.397Z</time></trkpt><trkpt lat="43.9732455" lon="11.0037494"><ele>752.4</ele><time>2026-04-18T08:34:39.379Z</time></trkpt><trkpt lat="43.9731572" lon="11.0036729"><ele>754.6</ele><time>2026-04-18T08:34:40.382Z</time></trkpt><trkpt lat="43.9730653" lon="11.0036094"><ele>756.8000000000001</ele><time>2026-04-18T08:34:41.367Z</time></trkpt><trkpt lat="43.9729837" lon="11.0035704"><ele>759.0</ele><time>2026-04-18T08:34:42.393Z</time></trkpt><trkpt lat="43.9729029" lon="11.0035601"><ele>759.0</ele><time>2026-04-18T08:34:43.377Z</time></trkpt><trkpt lat="43.9728258" lon="11.0035665"><ele>759.0</ele><time>2026-04-18T08:34:44.375Z</time></trkpt><trkpt lat="43.972752" lon="11.0036004"><ele>759.0</ele><time>2026-04-18T08:34:45.385Z</time></trkpt><trkpt lat="43.9726821" lon="11.0036396"><ele>759.0</ele><time>2026-04-18T08:34:46.389Z</time></trkpt><trkpt lat="43.9726196" lon="11.0036699"><ele>759.0</ele><time>2026-04-18T08:34:47.385Z</time></trkpt><trkpt lat="43.9725591" lon="11.0037124"><ele>759.0</ele><time>2026-04-18T08:34:48.398Z</time></trkpt><trkpt lat="43.9725009" lon="11.0037615"><ele>759.0</ele><time>2026-04-18T08:34:49.395Z</time></trkpt><trkpt lat="43.9724449" lon="11.0038288"><ele>758.5</ele><time>2026-04-18T08:34:50.39Z</time></trkpt><trkpt lat="43.9723871" lon="11.0039011"><ele>758.0</ele><time>2026-04-18T08:34:51.398Z</time></trkpt><trkpt lat="43.972324" lon="11.0039726"><ele>757.5</ele><time>2026-04-18T08:34:52.397Z</time></trkpt><trkpt lat="43.9722694" lon="11.0040354"><ele>757.0</ele><time>2026-04-18T08:34:53.391Z</time></trkpt><trkpt lat="43.9722194" lon="11.0040906"><ele>756.5</ele><time>2026-04-18T08:34:54.37Z</time></trkpt><trkpt lat="43.9721439" lon="11.0042052"><ele>756.0</ele><time>2026-04-18T08:34:56.379Z</time></trkpt><trkpt lat="43.9720956" lon="11.0042687"><ele>756.0</ele><time>2026-04-18T08:34:57.377Z</time></trkpt><trkpt lat="43.9720497" lon="11.0043315"><ele>756.0</ele><time>2026-04-18T08:34:58.383Z</time></trkpt><trkpt lat="43.9720063" lon="11.0043966"><ele>756.0</ele><time>2026-04-18T08:34:59.386Z</time></trkpt><trkpt lat="43.9719097" lon="11.0045179"><ele>756.0</ele><time>2026-04-18T08:35:01.378Z</time></trkpt><trkpt lat="43.9718531" lon="11.0045787"><ele>756.0</ele><time>2026-04-18T08:35:02.369Z</time></trkpt><trkpt lat="43.9717926" lon="11.0046386"><ele>756.0</ele><time>2026-04-18T08:35:03.378Z</time></trkpt><trkpt lat="43.9717299" lon="11.0047004"><ele>756.5714285714286</ele><time>2026-04-18T08:35:04.376Z</time></trkpt><trkpt lat="43.9716697" lon="11.0047553"><ele>757.1428571428571</ele><time>2026-04-18T08:35:05.37Z</time></trkpt><trkpt lat="43.9716159" lon="11.0048041"><ele>757.7142857142858</ele><time>2026-04-18T08:35:06.378Z</time></trkpt><trkpt lat="43.9715593" lon="11.0048532"><ele>758.2857142857142</ele><time>2026-04-18T08:35:07.381Z</time></trkpt><trkpt lat="43.9715026" lon="11.0049024"><ele>758.8571428571429</ele><time>2026-04-18T08:35:08.384Z</time></trkpt><trkpt lat="43.9714452" lon="11.0049513"><ele>759.4285714285714</ele><time>2026-04-18T08:35:09.382Z</time></trkpt><trkpt lat="43.9713845" lon="11.0049976"><ele>760.0</ele><time>2026-04-18T08:35:10.377Z</time></trkpt><trkpt lat="43.9713214" lon="11.0050398"><ele>760.0</ele><time>2026-04-18T08:35:11.368Z</time></trkpt><trkpt lat="43.9712578" lon="11.0050785"><ele>760.0</ele><time>2026-04-18T08:35:12.369Z</time></trkpt><trkpt lat="43.971195" lon="11.0051191"><ele>760.0</ele><time>2026-04-18T08:35:13.383Z</time></trkpt><trkpt lat="43.9711295" lon="11.0051681"><ele>760.0</ele><time>2026-04-18T08:35:14.385Z</time></trkpt><trkpt lat="43.971063" lon="11.005219"><ele>760.0</ele><time>2026-04-18T08:35:15.387Z</time></trkpt><trkpt lat="43.9709968" lon="11.0052765"><ele>760.0</ele><time>2026-04-18T08:35:16.383Z</time></trkpt><trkpt lat="43.9709309" lon="11.0053258"><ele>760.0</ele><time>2026-04-18T08:35:17.396Z</time></trkpt><trkpt lat="43.9708728" lon="11.0053849"><ele>760.0</ele><time>2026-04-18T08:35:18.378Z</time></trkpt><trkpt lat="43.9708212" lon="11.0054617"><ele>760.0</ele><time>2026-04-18T08:35:19.38Z</time></trkpt><trkpt lat="43.9707755" lon="11.0055559"><ele>760.0</ele><time>2026-04-18T08:35:20.377Z</time></trkpt><trkpt lat="43.9707256" lon="11.0056463"><ele>760.0</ele><time>2026-04-18T08:35:21.374Z</time></trkpt><trkpt lat="43.9706677" lon="11.0057326"><ele>760.0</ele><time>2026-04-18T08:35:22.378Z</time></trkpt><trkpt lat="43.9706129" lon="11.0058253"><ele>760.0</ele><time>2026-04-18T08:35:23.368Z</time></trkpt><trkpt lat="43.9705629" lon="11.0059281"><ele>760.0</ele><time>2026-04-18T08:35:24.377Z</time></trkpt><trkpt lat="43.9705211" lon="11.0060269"><ele>760.0</ele><time>2026-04-18T08:35:25.382Z</time></trkpt><trkpt lat="43.9704869" lon="11.0061134"><ele>760.0</ele><time>2026-04-18T08:35:26.38Z</time></trkpt><trkpt lat="43.9704549" lon="11.0061912"><ele>760.0</ele><time>2026-04-18T08:35:27.372Z</time></trkpt><trkpt lat="43.9703809" lon="11.0063276"><ele>760.0</ele><time>2026-04-18T08:35:29.384Z</time></trkpt><trkpt lat="43.9703153" lon="11.0064679"><ele>760.0</ele><time>2026-04-18T08:35:31.38Z</time></trkpt><trkpt lat="43.9702364" lon="11.0065766"><ele>760.0</ele><time>2026-04-18T08:35:33.384Z</time></trkpt><trkpt lat="43.9701507" lon="11.0066655"><ele>760.0</ele><time>2026-04-18T08:35:35.374Z</time></trkpt><trkpt lat="43.9700686" lon="11.0067582"><ele>760.0</ele><time>2026-04-18T08:35:37.379Z</time></trkpt><trkpt lat="43.9699816" lon="11.0068431"><ele>760.0</ele><time>2026-04-18T08:35:39.387Z</time></trkpt><trkpt lat="43.9698757" lon="11.0068881"><ele>759.5</ele><time>2026-04-18T08:35:41.378Z</time></trkpt><trkpt lat="43.969768" lon="11.0069723"><ele>759.0</ele><time>2026-04-18T08:35:43.373Z</time></trkpt><trkpt lat="43.9697112" lon="11.0070194"><ele>758.5</ele><time>2026-04-18T08:35:44.386Z</time></trkpt><trkpt lat="43.9696401" lon="11.0070508"><ele>758.0</ele><time>2026-04-18T08:35:45.375Z</time></trkpt><trkpt lat="43.9695554" lon="11.007081"><ele>757.5</ele><time>2026-04-18T08:35:46.378Z</time></trkpt><trkpt lat="43.9694698" lon="11.0071296"><ele>757.0</ele><time>2026-04-18T08:35:47.369Z</time></trkpt><trkpt lat="43.9694026" lon="11.007189"><ele>757.0</ele><time>2026-04-18T08:35:48.376Z</time></trkpt><trkpt lat="43.9693385" lon="11.0072791"><ele>757.0</ele><time>2026-04-18T08:35:50.369Z</time></trkpt><trkpt lat="43.96928" lon="11.0073921"><ele>757.0</ele><time>2026-04-18T08:37:43.382Z</time></trkpt><trkpt lat="43.9691675" lon="11.0074453"><ele>757.0</ele><time>2026-04-18T08:37:45.386Z</time></trkpt><trkpt lat="43.9691098" lon="11.0074881"><ele>757.0</ele><time>2026-04-18T08:37:46.37Z</time></trkpt><trkpt lat="43.9690534" lon="11.0075415"><ele>757.0</ele><time>2026-04-18T08:37:47.37Z</time></trkpt><trkpt lat="43.9689954" lon="11.0076021"><ele>754.5</ele><time>2026-04-18T08:37:48.38Z</time></trkpt><trkpt lat="43.9689309" lon="11.0076614"><ele>752.0</ele><time>2026-04-18T08:37:49.365Z</time></trkpt><trkpt lat="43.9688572" lon="11.0077233"><ele>749.5</ele><time>2026-04-18T08:37:50.381Z</time></trkpt><trkpt lat="43.9687805" lon="11.007781"><ele>747.0</ele><time>2026-04-18T08:37:51.363Z</time></trkpt><trkpt lat="43.9687071" lon="11.0078278"><ele>744.5</ele><time>2026-04-18T08:37:52.372Z</time></trkpt><trkpt lat="43.9686357" lon="11.0078768"><ele>742.0</ele><time>2026-04-18T08:37:53.372Z</time></trkpt><trkpt lat="43.9685632" lon="11.0079342"><ele>742.0</ele><time>2026-04-18T08:37:54.363Z</time></trkpt><trkpt lat="43.9684982" lon="11.0079906"><ele>742.0</ele><time>2026-04-18T08:37:55.374Z</time></trkpt><trkpt lat="43.9684331" lon="11.0080464"><ele>742.0</ele><time>2026-04-18T08:37:56.372Z</time></trkpt><trkpt lat="43.9683688" lon="11.0080995"><ele>742.0</ele><time>2026-04-18T08:37:57.382Z</time></trkpt><trkpt lat="43.9683014" lon="11.0081475"><ele>742.0</ele><time>2026-04-18T08:37:58.374Z</time></trkpt><trkpt lat="43.9682362" lon="11.0081871"><ele>742.0</ele><time>2026-04-18T08:37:59.372Z</time></trkpt><trkpt lat="43.9681754" lon="11.0082234"><ele>742.0</ele><time>2026-04-18T08:38:00.374Z</time></trkpt><trkpt lat="43.9680861" lon="11.0082639"><ele>739.3333333333334</ele><time>2026-04-18T08:38:02.36Z</time></trkpt><trkpt lat="43.968022" lon="11.0082704"><ele>736.6666666666667</ele><time>2026-04-18T08:38:04.361Z</time></trkpt><trkpt lat="43.9679413" lon="11.0082668"><ele>734.0</ele><time>2026-04-18T08:38:06.373Z</time></trkpt><trkpt lat="43.967824" lon="11.0082325"><ele>731.3333333333334</ele><time>2026-04-18T08:38:08.37Z</time></trkpt><trkpt lat="43.9677532" lon="11.0082024"><ele>728.6666666666666</ele><time>2026-04-18T08:38:09.373Z</time></trkpt><trkpt lat="43.9676778" lon="11.0081737"><ele>726.0</ele><time>2026-04-18T08:38:10.369Z</time></trkpt><trkpt lat="43.9676089" lon="11.0081521"><ele>726.0</ele><time>2026-04-18T08:38:11.369Z</time></trkpt><trkpt lat="43.967543" lon="11.0081404"><ele>726.0</ele><time>2026-04-18T08:38:12.362Z</time></trkpt><trkpt lat="43.9674217" lon="11.0081537"><ele>726.0</ele><time>2026-04-18T08:38:14.352Z</time></trkpt><trkpt lat="43.9672996" lon="11.0081871"><ele>726.0</ele><time>2026-04-18T08:38:16.351Z</time></trkpt><trkpt lat="43.9671874" lon="11.008212"><ele>726.0</ele><time>2026-04-18T08:38:18.353Z</time></trkpt><trkpt lat="43.9670941" lon="11.0082279"><ele>725.8</ele><time>2026-04-18T08:38:20.354Z</time></trkpt><trkpt lat="43.966991" lon="11.0082393"><ele>725.5999999999999</ele><time>2026-04-18T08:38:22.371Z</time></trkpt><trkpt lat="43.9668867" lon="11.0082587"><ele>725.4</ele><time>2026-04-18T08:38:24.362Z</time></trkpt><trkpt lat="43.9667726" lon="11.0082754"><ele>725.2</ele><time>2026-04-18T08:38:26.356Z</time></trkpt><trkpt lat="43.9666664" lon="11.0083014"><ele>725.0</ele><time>2026-04-18T08:38:28.348Z</time></trkpt><trkpt lat="43.9665647" lon="11.0083316"><ele>725.0</ele><time>2026-04-18T08:38:30.359Z</time></trkpt><trkpt lat="43.9664963" lon="11.0083653"><ele>725.0</ele><time>2026-04-18T08:38:32.367Z</time></trkpt><trkpt lat="43.9664131" lon="11.0084186"><ele>725.0</ele><time>2026-04-18T08:38:39.375Z</time></trkpt><trkpt lat="43.9663378" lon="11.0084469"><ele>725.0</ele><time>2026-04-18T08:38:41.375Z</time></trkpt><trkpt lat="43.9662766" lon="11.0084754"><ele>725.0</ele><time>2026-04-18T08:38:43.366Z</time></trkpt><trkpt lat="43.966196" lon="11.008518"><ele>725.0</ele><time>2026-04-18T08:38:45.377Z</time></trkpt><trkpt lat="43.9660893" lon="11.0085526"><ele>725.0</ele><time>2026-04-18T08:38:47.382Z</time></trkpt><trkpt lat="43.9659826" lon="11.0086"><ele>725.0</ele><time>2026-04-18T08:38:49.379Z</time></trkpt><trkpt lat="43.9658897" lon="11.008668"><ele>725.0</ele><time>2026-04-18T08:38:51.371Z</time></trkpt><trkpt lat="43.9658215" lon="11.0087301"><ele>725.0</ele><time>2026-04-18T08:38:53.376Z</time></trkpt><trkpt lat="43.9657384" lon="11.0088218"><ele>725.0</ele><time>2026-04-18T08:38:55.379Z</time></trkpt><trkpt lat="43.9656878" lon="11.0088749"><ele>724.3333333333333</ele><time>2026-04-18T08:38:56.375Z</time></trkpt><trkpt lat="43.9656349" lon="11.0089242"><ele>723.6666666666666</ele><time>2026-04-18T08:38:57.367Z</time></trkpt><trkpt lat="43.9655782" lon="11.0089681"><ele>723.0</ele><time>2026-04-18T08:38:58.368Z</time></trkpt><trkpt lat="43.9654795" lon="11.0090533"><ele>722.3333333333334</ele><time>2026-04-18T08:39:00.371Z</time></trkpt><trkpt lat="43.9653909" lon="11.0091151"><ele>721.6666666666667</ele><time>2026-04-18T08:39:02.384Z</time></trkpt><trkpt lat="43.9653134" lon="11.0091694"><ele>721.0</ele><time>2026-04-18T08:39:04.39Z</time></trkpt><trkpt lat="43.9652116" lon="11.0092379"><ele>721.0</ele><time>2026-04-18T08:39:06.39Z</time></trkpt><trkpt lat="43.9651535" lon="11.0092791"><ele>721.0</ele><time>2026-04-18T08:39:07.371Z</time></trkpt><trkpt lat="43.9650435" lon="11.009361"><ele>721.0</ele><time>2026-04-18T08:39:09.369Z</time></trkpt><trkpt lat="43.9649562" lon="11.0094867"><ele>721.0</ele><time>2026-04-18T08:39:11.357Z</time></trkpt><trkpt lat="43.9649219" lon="11.0095623"><ele>721.0</ele><time>2026-04-18T08:39:12.353Z</time></trkpt><trkpt lat="43.964885" lon="11.009644"><ele>721.0</ele><time>2026-04-18T08:39:13.356Z</time></trkpt><trkpt lat="43.9648394" lon="11.0098147"><ele>717.4285714285714</ele><time>2026-04-18T08:39:15.359Z</time></trkpt><trkpt lat="43.9648131" lon="11.0099034"><ele>713.8571428571429</ele><time>2026-04-18T08:39:16.359Z</time></trkpt><trkpt lat="43.9647878" lon="11.0099861"><ele>710.2857142857142</ele><time>2026-04-18T08:39:17.359Z</time></trkpt><trkpt lat="43.9647612" lon="11.0100764"><ele>706.7142857142858</ele><time>2026-04-18T08:39:18.364Z</time></trkpt><trkpt lat="43.9647341" lon="11.0101703"><ele>703.1428571428571</ele><time>2026-04-18T08:39:19.36Z</time></trkpt><trkpt lat="43.964706" lon="11.0102585"><ele>699.5714285714286</ele><time>2026-04-18T08:39:20.361Z</time></trkpt><trkpt lat="43.96467" lon="11.0103491"><ele>696.0</ele><time>2026-04-18T08:39:21.375Z</time></trkpt><trkpt lat="43.9646329" lon="11.0104385"><ele>696.0</ele><time>2026-04-18T08:39:22.363Z</time></trkpt><trkpt lat="43.9646029" lon="11.0105281"><ele>696.0</ele><time>2026-04-18T08:39:23.367Z</time></trkpt><trkpt lat="43.9645743" lon="11.0106205"><ele>696.0</ele><time>2026-04-18T08:39:24.354Z</time></trkpt><trkpt lat="43.9645425" lon="11.0107097"><ele>696.0</ele><time>2026-04-18T08:39:25.355Z</time></trkpt><trkpt lat="43.964502" lon="11.0107978"><ele>696.0</ele><time>2026-04-18T08:39:26.354Z</time></trkpt><trkpt lat="43.9644471" lon="11.010877"><ele>696.0</ele><time>2026-04-18T08:39:27.363Z</time></trkpt><trkpt lat="43.9643874" lon="11.0109591"><ele>697.4</ele><time>2026-04-18T08:39:28.363Z</time></trkpt><trkpt lat="43.9643202" lon="11.0110442"><ele>698.8</ele><time>2026-04-18T08:39:29.362Z</time></trkpt><trkpt lat="43.9642428" lon="11.0111303"><ele>700.1999999999999</ele><time>2026-04-18T08:39:30.352Z</time></trkpt><trkpt lat="43.9641642" lon="11.0112227"><ele>701.5999999999999</ele><time>2026-04-18T08:39:31.348Z</time></trkpt><trkpt lat="43.9640826" lon="11.0113294"><ele>703.0</ele><time>2026-04-18T08:39:32.355Z</time></trkpt><trkpt lat="43.9640005" lon="11.0114375"><ele>699.8</ele><time>2026-04-18T08:39:33.356Z</time></trkpt><trkpt lat="43.9639215" lon="11.0115375"><ele>696.5999999999999</ele><time>2026-04-18T08:39:34.357Z</time></trkpt><trkpt lat="43.9638464" lon="11.0116348"><ele>693.4000000000001</ele><time>2026-04-18T08:39:35.353Z</time></trkpt><trkpt lat="43.9637754" lon="11.0117259"><ele>690.2</ele><time>2026-04-18T08:39:36.357Z</time></trkpt><trkpt lat="43.9637069" lon="11.0118115"><ele>687.0</ele><time>2026-04-18T08:39:37.35Z</time></trkpt><trkpt lat="43.963638" lon="11.0118828"><ele>687.0</ele><time>2026-04-18T08:39:38.356Z</time></trkpt><trkpt lat="43.9635687" lon="11.0119452"><ele>687.0</ele><time>2026-04-18T08:39:39.351Z</time></trkpt><trkpt lat="43.963513" lon="11.0119945"><ele>687.0</ele><time>2026-04-18T08:39:40.349Z</time></trkpt><trkpt lat="43.9634565" lon="11.0120502"><ele>687.0</ele><time>2026-04-18T08:39:41.357Z</time></trkpt><trkpt lat="43.9634036" lon="11.0121018"><ele>687.0</ele><time>2026-04-18T08:39:42.345Z</time></trkpt><trkpt lat="43.9633452" lon="11.0121479"><ele>687.0</ele><time>2026-04-18T08:39:43.366Z</time></trkpt><trkpt lat="43.9632227" lon="11.012188"><ele>681.2</ele><time>2026-04-18T08:39:45.35Z</time></trkpt><trkpt lat="43.9631589" lon="11.0121863"><ele>675.4000000000001</ele><time>2026-04-18T08:39:46.371Z</time></trkpt><trkpt lat="43.9630496" lon="11.0122113"><ele>669.5999999999999</ele><time>2026-04-18T08:39:48.377Z</time></trkpt><trkpt lat="43.9629405" lon="11.0122553"><ele>663.8</ele><time>2026-04-18T08:39:50.372Z</time></trkpt><trkpt lat="43.962828" lon="11.0122923"><ele>658.0</ele><time>2026-04-18T08:39:52.396Z</time></trkpt><trkpt lat="43.9627661" lon="11.0123116"><ele>658.0</ele><time>2026-04-18T08:39:53.37Z</time></trkpt><trkpt lat="43.9626481" lon="11.0123496"><ele>658.0</ele><time>2026-04-18T08:39:55.369Z</time></trkpt><trkpt lat="43.9625487" lon="11.0123871"><ele>658.0</ele><time>2026-04-18T08:39:57.369Z</time></trkpt><trkpt lat="43.9624704" lon="11.0123627"><ele>658.0</ele><time>2026-04-18T08:39:59.381Z</time></trkpt><trkpt lat="43.9625167" lon="11.0122497"><ele>658.0</ele><time>2026-04-18T08:40:01.379Z</time></trkpt><trkpt lat="43.9625815" lon="11.0121912"><ele>658.0</ele><time>2026-04-18T08:40:02.368Z</time></trkpt><trkpt lat="43.962651" lon="11.0121316"><ele>658.0</ele><time>2026-04-18T08:40:03.359Z</time></trkpt><trkpt lat="43.9627203" lon="11.0120635"><ele>658.0</ele><time>2026-04-18T08:40:04.349Z</time></trkpt><trkpt lat="43.9627855" lon="11.0119997"><ele>658.0</ele><time>2026-04-18T08:40:05.351Z</time></trkpt><trkpt lat="43.9628515" lon="11.0119412"><ele>658.0</ele><time>2026-04-18T08:40:06.349Z</time></trkpt><trkpt lat="43.9629042" lon="11.0118838"><ele>658.0</ele><time>2026-04-18T08:40:07.36Z</time></trkpt><trkpt lat="43.9629851" lon="11.0117865"><ele>658.0</ele><time>2026-04-18T08:40:09.369Z</time></trkpt><trkpt lat="43.9630623" lon="11.0117001"><ele>658.0</ele><time>2026-04-18T08:40:11.356Z</time></trkpt><trkpt lat="43.9629937" lon="11.0117135"><ele>658.0</ele><time>2026-04-18T08:40:19.364Z</time></trkpt><trkpt lat="43.9629064" lon="11.0117752"><ele>658.0</ele><time>2026-04-18T08:40:21.369Z</time></trkpt><trkpt lat="43.9627901" lon="11.0118518"><ele>658.0</ele><time>2026-04-18T08:40:23.364Z</time></trkpt><trkpt lat="43.9627158" lon="11.0118905"><ele>658.0</ele><time>2026-04-18T08:40:24.36Z</time></trkpt><trkpt lat="43.9626486" lon="11.0119201"><ele>658.0</ele><time>2026-04-18T08:40:25.366Z</time></trkpt><trkpt lat="43.9625888" lon="11.0119495"><ele>658.0</ele><time>2026-04-18T08:40:26.366Z</time></trkpt><trkpt lat="43.9625275" lon="11.0119777"><ele>658.0</ele><time>2026-04-18T08:40:27.369Z</time></trkpt><trkpt lat="43.9624258" lon="11.0120258"><ele>658.0</ele><time>2026-04-18T08:40:29.363Z</time></trkpt><trkpt lat="43.9623415" lon="11.0120665"><ele>658.0</ele><time>2026-04-18T08:40:31.358Z</time></trkpt><trkpt lat="43.9622175" lon="11.0121061"><ele>655.5</ele><time>2026-04-18T08:40:33.364Z</time></trkpt><trkpt lat="43.9621548" lon="11.0121239"><ele>653.0</ele><time>2026-04-18T08:40:34.365Z</time></trkpt><trkpt lat="43.9620894" lon="11.0121465"><ele>650.5</ele><time>2026-04-18T08:40:35.374Z</time></trkpt><trkpt lat="43.9620261" lon="11.0121679"><ele>648.0</ele><time>2026-04-18T08:40:36.367Z</time></trkpt><trkpt lat="43.9619275" lon="11.0121921"><ele>645.5</ele><time>2026-04-18T08:40:38.354Z</time></trkpt><trkpt lat="43.9618427" lon="11.0121488"><ele>643.0</ele><time>2026-04-18T08:40:40.356Z</time></trkpt><trkpt lat="43.9617571" lon="11.0120913"><ele>642.5999999999999</ele><time>2026-04-18T08:40:42.369Z</time></trkpt><trkpt lat="43.9616398" lon="11.0120696"><ele>642.1999999999999</ele><time>2026-04-18T08:40:44.357Z</time></trkpt><trkpt lat="43.9615347" lon="11.0120401"><ele>641.8</ele><time>2026-04-18T08:40:46.356Z</time></trkpt><trkpt lat="43.9614389" lon="11.0120359"><ele>641.4</ele><time>2026-04-18T08:40:48.374Z</time></trkpt><trkpt lat="43.9613629" lon="11.0120513"><ele>641.0</ele><time>2026-04-18T08:40:51.382Z</time></trkpt><trkpt lat="43.9612873" lon="11.0120688"><ele>641.0</ele><time>2026-04-18T08:40:55.386Z</time></trkpt><trkpt lat="43.9612179" lon="11.0120769"><ele>641.0</ele><time>2026-04-18T08:40:58.384Z</time></trkpt><trkpt lat="43.9611328" lon="11.012008"><ele>641.0</ele><time>2026-04-18T08:41:01.382Z</time></trkpt><trkpt lat="43.9610438" lon="11.0119144"><ele>641.0</ele><time>2026-04-18T08:41:03.385Z</time></trkpt><trkpt lat="43.9609577" lon="11.0118501"><ele>641.0</ele><time>2026-04-18T08:41:05.377Z</time></trkpt><trkpt lat="43.960842" lon="11.0118525"><ele>642.0</ele><time>2026-04-18T08:41:07.376Z</time></trkpt><trkpt lat="43.9607732" lon="11.0118466"><ele>643.0</ele><time>2026-04-18T08:41:08.378Z</time></trkpt><trkpt lat="43.9606653" lon="11.0118376"><ele>644.0</ele><time>2026-04-18T08:41:10.372Z</time></trkpt><trkpt lat="43.9605673" lon="11.0118222"><ele>645.0</ele><time>2026-04-18T08:41:12.375Z</time></trkpt><trkpt lat="43.9604443" lon="11.0118071"><ele>646.0</ele><time>2026-04-18T08:41:14.374Z</time></trkpt><trkpt lat="43.9603265" lon="11.0117935"><ele>646.0</ele><time>2026-04-18T08:41:16.375Z</time></trkpt><trkpt lat="43.9601988" lon="11.0118018"><ele>646.0</ele><time>2026-04-18T08:41:18.362Z</time></trkpt><trkpt lat="43.9601351" lon="11.0118007"><ele>646.0</ele><time>2026-04-18T08:41:19.368Z</time></trkpt><trkpt lat="43.9600264" lon="11.0117993"><ele>646.0</ele><time>2026-04-18T08:41:21.359Z</time></trkpt><trkpt lat="43.959955" lon="11.0117968"><ele>646.0</ele><time>2026-04-18T08:41:23.375Z</time></trkpt><trkpt lat="43.959881" lon="11.011813"><ele>646.0</ele><time>2026-04-18T08:41:25.39Z</time></trkpt><trkpt lat="43.959782" lon="11.0118458"><ele>645.4</ele><time>2026-04-18T08:41:27.389Z</time></trkpt><trkpt lat="43.9596725" lon="11.011883"><ele>644.8</ele><time>2026-04-18T08:41:29.369Z</time></trkpt><trkpt lat="43.9595682" lon="11.0119338"><ele>644.1999999999999</ele><time>2026-04-18T08:41:31.378Z</time></trkpt><trkpt lat="43.959472" lon="11.0120032"><ele>643.5999999999999</ele><time>2026-04-18T08:41:33.364Z</time></trkpt><trkpt lat="43.9593872" lon="11.0120595"><ele>643.0</ele><time>2026-04-18T08:41:35.376Z</time></trkpt><trkpt lat="43.9593124" lon="11.0121173"><ele>643.0</ele><time>2026-04-18T08:41:37.388Z</time></trkpt><trkpt lat="43.9592327" lon="11.0121875"><ele>643.0</ele><time>2026-04-18T08:41:39.402Z</time></trkpt><trkpt lat="43.9591245" lon="11.0122788"><ele>643.0</ele><time>2026-04-18T08:41:41.377Z</time></trkpt><trkpt lat="43.9590687" lon="11.01233"><ele>643.0</ele><time>2026-04-18T08:41:42.375Z</time></trkpt><trkpt lat="43.9590182" lon="11.0123826"><ele>643.0</ele><time>2026-04-18T08:41:43.376Z</time></trkpt><trkpt lat="43.9589663" lon="11.0124328"><ele>643.0</ele><time>2026-04-18T08:41:44.377Z</time></trkpt><trkpt lat="43.9588606" lon="11.0125261"><ele>644.0</ele><time>2026-04-18T08:41:46.366Z</time></trkpt><trkpt lat="43.9587594" lon="11.0126135"><ele>645.0</ele><time>2026-04-18T08:41:48.36Z</time></trkpt><trkpt lat="43.9586565" lon="11.0126974"><ele>646.0</ele><time>2026-04-18T08:41:50.363Z</time></trkpt><trkpt lat="43.9585479" lon="11.0127858"><ele>647.0</ele><time>2026-04-18T08:41:52.374Z</time></trkpt><trkpt lat="43.9584793" lon="11.0128178"><ele>648.0</ele><time>2026-04-18T08:41:53.37Z</time></trkpt><trkpt lat="43.9584097" lon="11.0128479"><ele>643.5</ele><time>2026-04-18T08:41:54.364Z</time></trkpt><trkpt lat="43.9583001" lon="11.0128774"><ele>639.0</ele><time>2026-04-18T08:41:56.363Z</time></trkpt><trkpt lat="43.9581958" lon="11.0129023"><ele>634.5</ele><time>2026-04-18T08:41:58.374Z</time></trkpt><trkpt lat="43.9580755" lon="11.0129359"><ele>630.0</ele><time>2026-04-18T08:42:00.371Z</time></trkpt><trkpt lat="43.9579521" lon="11.0129706"><ele>630.0</ele><time>2026-04-18T08:42:02.368Z</time></trkpt><trkpt lat="43.9578896" lon="11.0129865"><ele>630.0</ele><time>2026-04-18T08:42:03.361Z</time></trkpt><trkpt lat="43.957827" lon="11.0130007"><ele>630.0</ele><time>2026-04-18T08:42:04.37Z</time></trkpt><trkpt lat="43.9577535" lon="11.013015"><ele>630.0</ele><time>2026-04-18T08:42:05.369Z</time></trkpt><trkpt lat="43.9576849" lon="11.0130269"><ele>630.0</ele><time>2026-04-18T08:42:06.369Z</time></trkpt><trkpt lat="43.9575734" lon="11.0130536"><ele>630.0</ele><time>2026-04-18T08:42:08.368Z</time></trkpt><trkpt lat="43.9574894" lon="11.0130711"><ele>630.4285714285714</ele><time>2026-04-18T08:42:10.368Z</time></trkpt><trkpt lat="43.957415" lon="11.0131014"><ele>630.8571428571429</ele><time>2026-04-18T08:42:12.38Z</time></trkpt><trkpt lat="43.957349" lon="11.0131379"><ele>631.2857142857142</ele><time>2026-04-18T08:42:19.379Z</time></trkpt><trkpt lat="43.9572869" lon="11.0131925"><ele>631.7142857142858</ele><time>2026-04-18T08:42:42.386Z</time></trkpt><trkpt lat="43.9572165" lon="11.0132471"><ele>632.1428571428571</ele><time>2026-04-18T08:42:47.381Z</time></trkpt><trkpt lat="43.9571602" lon="11.0132992"><ele>632.5714285714286</ele><time>2026-04-18T08:42:50.381Z</time></trkpt><trkpt lat="43.9571086" lon="11.0133603"><ele>633.0</ele><time>2026-04-18T08:42:53.381Z</time></trkpt><trkpt lat="43.9570406" lon="11.0134373"><ele>633.0</ele><time>2026-04-18T08:42:56.381Z</time></trkpt><trkpt lat="43.956993" lon="11.0135025"><ele>633.0</ele><time>2026-04-18T08:42:58.382Z</time></trkpt><trkpt lat="43.9569314" lon="11.0135656"><ele>633.0</ele><time>2026-04-18T08:43:00.386Z</time></trkpt><trkpt lat="43.956867" lon="11.0136446"><ele>633.0</ele><time>2026-04-18T08:43:02.37Z</time></trkpt><trkpt lat="43.9568016" lon="11.013755"><ele>633.0</ele><time>2026-04-18T08:43:04.379Z</time></trkpt><trkpt lat="43.9567381" lon="11.0138601"><ele>633.0</ele><time>2026-04-18T08:43:06.364Z</time></trkpt><trkpt lat="43.9567086" lon="11.0139563"><ele>633.8333333333334</ele><time>2026-04-18T08:43:23.378Z</time></trkpt><trkpt lat="43.9566917" lon="11.014056"><ele>634.6666666666666</ele><time>2026-04-18T08:43:26.374Z</time></trkpt><trkpt lat="43.9566783" lon="11.0141779"><ele>635.5</ele><time>2026-04-18T08:43:29.371Z</time></trkpt><trkpt lat="43.9566962" lon="11.0142918"><ele>636.3333333333333</ele><time>2026-04-18T08:43:31.377Z</time></trkpt><trkpt lat="43.9567499" lon="11.0144104"><ele>637.1666666666666</ele><time>2026-04-18T08:43:33.375Z</time></trkpt><trkpt lat="43.9567999" lon="11.014512"><ele>638.0</ele><time>2026-04-18T08:43:35.383Z</time></trkpt><trkpt lat="43.9568368" lon="11.0146126"><ele>638.0</ele><time>2026-04-18T08:43:38.374Z</time></trkpt><trkpt lat="43.9568843" lon="11.0147247"><ele>638.0</ele><time>2026-04-18T08:43:41.377Z</time></trkpt><trkpt lat="43.9569193" lon="11.0148061"><ele>638.0</ele><time>2026-04-18T08:43:43.376Z</time></trkpt><trkpt lat="43.956966" lon="11.0149001"><ele>638.0</ele><time>2026-04-18T08:43:45.372Z</time></trkpt><trkpt lat="43.9570171" lon="11.0150241"><ele>638.0</ele><time>2026-04-18T08:43:47.363Z</time></trkpt><trkpt lat="43.9570212" lon="11.0151207"><ele>638.0</ele><time>2026-04-18T08:43:49.367Z</time></trkpt><trkpt lat="43.9569505" lon="11.0151524"><ele>638.0</ele><time>2026-04-18T08:43:52.373Z</time></trkpt><trkpt lat="43.9568886" lon="11.0150919"><ele>638.0</ele><time>2026-04-18T08:43:54.376Z</time></trkpt><trkpt lat="43.956836" lon="11.0150167"><ele>638.0</ele><time>2026-04-18T08:43:56.373Z</time></trkpt><trkpt lat="43.9567904" lon="11.0149546"><ele>638.0</ele><time>2026-04-18T08:43:58.382Z</time></trkpt><trkpt lat="43.9567484" lon="11.0148865"><ele>638.0</ele><time>2026-04-18T08:44:00.378Z</time></trkpt><trkpt lat="43.9566983" lon="11.0148304"><ele>638.0</ele><time>2026-04-18T08:44:02.377Z</time></trkpt><trkpt lat="43.9566374" lon="11.0147847"><ele>638.0</ele><time>2026-04-18T08:44:04.385Z</time></trkpt><trkpt lat="43.9565558" lon="11.0147345"><ele>634.8333333333333</ele><time>2026-04-18T08:44:06.383Z</time></trkpt><trkpt lat="43.9564803" lon="11.0146707"><ele>631.6666666666666</ele><time>2026-04-18T08:44:08.372Z</time></trkpt><trkpt lat="43.9564013" lon="11.0145996"><ele>628.5</ele><time>2026-04-18T08:44:10.38Z</time></trkpt><trkpt lat="43.9563416" lon="11.014536"><ele>625.3333333333334</ele><time>2026-04-18T08:44:12.404Z</time></trkpt><trkpt lat="43.956295" lon="11.0144754"><ele>622.1666666666667</ele><time>2026-04-18T08:44:14.391Z</time></trkpt><trkpt lat="43.956255" lon="11.014392"><ele>619.0</ele><time>2026-04-18T08:44:16.391Z</time></trkpt><trkpt lat="43.956227" lon="11.014279"><ele>619.0</ele><time>2026-04-18T08:44:18.387Z</time></trkpt><trkpt lat="43.9562061" lon="11.0141563"><ele>619.0</ele><time>2026-04-18T08:44:20.382Z</time></trkpt><trkpt lat="43.9561867" lon="11.0140541"><ele>619.0</ele><time>2026-04-18T08:44:22.385Z</time></trkpt><trkpt lat="43.9561836" lon="11.0139495"><ele>619.0</ele><time>2026-04-18T08:44:25.383Z</time></trkpt><trkpt lat="43.9561903" lon="11.0138516"><ele>619.0</ele><time>2026-04-18T08:44:28.387Z</time></trkpt><trkpt lat="43.9561944" lon="11.0137441"><ele>619.0</ele><time>2026-04-18T08:44:31.384Z</time></trkpt><trkpt lat="43.9561788" lon="11.0136384"><ele>618.5714285714286</ele><time>2026-04-18T08:44:33.385Z</time></trkpt><trkpt lat="43.9561489" lon="11.0135534"><ele>618.1428571428571</ele><time>2026-04-18T08:44:35.391Z</time></trkpt><trkpt lat="43.9561209" lon="11.0134659"><ele>617.7142857142858</ele><time>2026-04-18T08:44:39.399Z</time></trkpt><trkpt lat="43.9561071" lon="11.0133591"><ele>617.2857142857142</ele><time>2026-04-18T08:44:45.399Z</time></trkpt><trkpt lat="43.9560929" lon="11.0132714"><ele>616.8571428571429</ele><time>2026-04-18T08:44:47.412Z</time></trkpt><trkpt lat="43.9560709" lon="11.0131641"><ele>616.4285714285714</ele><time>2026-04-18T08:44:49.396Z</time></trkpt><trkpt lat="43.9560684" lon="11.0130716"><ele>616.0</ele><time>2026-04-18T08:44:51.402Z</time></trkpt><trkpt lat="43.9560551" lon="11.0129468"><ele>614.5</ele><time>2026-04-18T08:44:54.389Z</time></trkpt><trkpt lat="43.9560278" lon="11.0128656"><ele>613.0</ele><time>2026-04-18T08:44:57.414Z</time></trkpt><trkpt lat="43.9560161" lon="11.012751"><ele>611.5</ele><time>2026-04-18T08:45:00.409Z</time></trkpt><trkpt lat="43.9559889" lon="11.0126635"><ele>610.0</ele><time>2026-04-18T08:45:02.39Z</time></trkpt><trkpt lat="43.955951" lon="11.0125606"><ele>608.5</ele><time>2026-04-18T08:45:04.384Z</time></trkpt><trkpt lat="43.9559024" lon="11.0124604"><ele>607.0</ele><time>2026-04-18T08:45:06.391Z</time></trkpt><trkpt lat="43.9558656" lon="11.0123696"><ele>603.0</ele><time>2026-04-18T08:45:08.386Z</time></trkpt><trkpt lat="43.9558405" lon="11.0122852"><ele>599.0</ele><time>2026-04-18T08:45:10.384Z</time></trkpt><trkpt lat="43.9558178" lon="11.0121801"><ele>595.0</ele><time>2026-04-18T08:45:12.38Z</time></trkpt><trkpt lat="43.9558032" lon="11.0120774"><ele>591.0</ele><time>2026-04-18T08:45:14.381Z</time></trkpt><trkpt lat="43.9558041" lon="11.0119747"><ele>587.0</ele><time>2026-04-18T08:45:16.386Z</time></trkpt><trkpt lat="43.9558128" lon="11.0118632"><ele>583.0</ele><time>2026-04-18T08:45:18.386Z</time></trkpt><trkpt lat="43.9558206" lon="11.0117571"><ele>583.0000000000001</ele><time>2026-04-18T08:45:20.395Z</time></trkpt><trkpt lat="43.9558225" lon="11.0116453"><ele>583.0</ele><time>2026-04-18T08:45:23.388Z</time></trkpt><trkpt lat="43.9558001" lon="11.011558"><ele>583.0</ele><time>2026-04-18T08:45:28.392Z</time></trkpt><trkpt lat="43.95573" lon="11.0116083"><ele>583.0</ele><time>2026-04-18T08:45:35.377Z</time></trkpt><trkpt lat="43.9556956" lon="11.0117021"><ele>583.0</ele><time>2026-04-18T08:45:37.382Z</time></trkpt><trkpt lat="43.9556712" lon="11.0117844"><ele>583.0000000000001</ele><time>2026-04-18T08:45:38.379Z</time></trkpt><trkpt lat="43.9556396" lon="11.0118631"><ele>583.0</ele><time>2026-04-18T08:45:39.362Z</time></trkpt><trkpt lat="43.9556089" lon="11.0119476"><ele>583.0</ele><time>2026-04-18T08:45:40.359Z</time></trkpt><trkpt lat="43.9555766" lon="11.0120388"><ele>583.0</ele><time>2026-04-18T08:45:41.361Z</time></trkpt><trkpt lat="43.9555453" lon="11.0121251"><ele>583.0</ele><time>2026-04-18T08:45:42.358Z</time></trkpt><trkpt lat="43.9555189" lon="11.0122115"><ele>583.0</ele><time>2026-04-18T08:45:43.37Z</time></trkpt><trkpt lat="43.9554969" lon="11.0123113"><ele>583.0</ele><time>2026-04-18T08:45:44.364Z</time></trkpt><trkpt lat="43.955481" lon="11.0124332"><ele>583.0</ele><time>2026-04-18T08:45:45.358Z</time></trkpt><trkpt lat="43.9554744" lon="11.0125634"><ele>584.3333333333334</ele><time>2026-04-18T08:45:46.36Z</time></trkpt><trkpt lat="43.955464" lon="11.0126634"><ele>585.6666666666667</ele><time>2026-04-18T08:45:47.371Z</time></trkpt><trkpt lat="43.9554137" lon="11.0127673"><ele>587.0</ele><time>2026-04-18T08:45:49.365Z</time></trkpt><trkpt lat="43.9553537" lon="11.0128099"><ele>588.3333333333334</ele><time>2026-04-18T08:45:50.359Z</time></trkpt><trkpt lat="43.9552816" lon="11.0128607"><ele>589.6666666666666</ele><time>2026-04-18T08:45:51.361Z</time></trkpt><trkpt lat="43.9552122" lon="11.0128981"><ele>591.0</ele><time>2026-04-18T08:45:52.363Z</time></trkpt><trkpt lat="43.9551459" lon="11.0129264"><ele>587.1666666666666</ele><time>2026-04-18T08:45:53.367Z</time></trkpt><trkpt lat="43.9550355" lon="11.0129623"><ele>583.3333333333334</ele><time>2026-04-18T08:45:55.373Z</time></trkpt><trkpt lat="43.9549534" lon="11.0130028"><ele>579.5</ele><time>2026-04-18T08:45:57.376Z</time></trkpt><trkpt lat="43.9548795" lon="11.0130374"><ele>575.6666666666667</ele><time>2026-04-18T08:45:59.379Z</time></trkpt><trkpt lat="43.9548119" lon="11.0130943"><ele>571.8333333333334</ele><time>2026-04-18T08:46:01.378Z</time></trkpt><trkpt lat="43.954749" lon="11.0131663"><ele>568.0</ele><time>2026-04-18T08:46:03.386Z</time></trkpt><trkpt lat="43.9546924" lon="11.0132817"><ele>569.1999999999999</ele><time>2026-04-18T08:46:05.364Z</time></trkpt><trkpt lat="43.954664" lon="11.01345"><ele>570.4</ele><time>2026-04-18T08:46:07.356Z</time></trkpt><trkpt lat="43.9546582" lon="11.0135465"><ele>571.5999999999999</ele><time>2026-04-18T08:46:08.356Z</time></trkpt><trkpt lat="43.9546593" lon="11.0136765"><ele>572.8</ele><time>2026-04-18T08:46:10.358Z</time></trkpt><trkpt lat="43.9546786" lon="11.0138281"><ele>574.0</ele><time>2026-04-18T08:58:58.401Z</time></trkpt><trkpt lat="43.9547197" lon="11.013982"><ele>574.0</ele><time>2026-04-18T08:59:00.392Z</time></trkpt><trkpt lat="43.9547506" lon="11.014071"><ele>574.0</ele><time>2026-04-18T08:59:01.391Z</time></trkpt><trkpt lat="43.9547868" lon="11.014163"><ele>574.0</ele><time>2026-04-18T08:59:02.389Z</time></trkpt><trkpt lat="43.9548253" lon="11.0142524"><ele>574.0</ele><time>2026-04-18T08:59:03.394Z</time></trkpt><trkpt lat="43.9548581" lon="11.0143287"><ele>574.0</ele><time>2026-04-18T08:59:04.386Z</time></trkpt><trkpt lat="43.9549288" lon="11.0144672"><ele>574.0</ele><time>2026-04-18T08:59:06.391Z</time></trkpt><trkpt lat="43.954964" lon="11.0145495"><ele>574.1666666666667</ele><time>2026-04-18T08:59:07.387Z</time></trkpt><trkpt lat="43.9549944" lon="11.0146542"><ele>574.3333333333334</ele><time>2026-04-18T08:59:08.388Z</time></trkpt><trkpt lat="43.9550297" lon="11.0147515"><ele>574.5</ele><time>2026-04-18T08:59:09.386Z</time></trkpt><trkpt lat="43.9550735" lon="11.0148412"><ele>574.6666666666666</ele><time>2026-04-18T08:59:10.388Z</time></trkpt><trkpt lat="43.9551208" lon="11.0149329"><ele>574.8333333333333</ele><time>2026-04-18T08:59:11.386Z</time></trkpt><trkpt lat="43.9551687" lon="11.0150231"><ele>575.0</ele><time>2026-04-18T08:59:12.387Z</time></trkpt><trkpt lat="43.955213" lon="11.0151063"><ele>577.8333333333333</ele><time>2026-04-18T08:59:13.384Z</time></trkpt><trkpt lat="43.9552555" lon="11.0151848"><ele>580.6666666666666</ele><time>2026-04-18T08:59:14.392Z</time></trkpt><trkpt lat="43.9552926" lon="11.0152634"><ele>583.5</ele><time>2026-04-18T08:59:15.392Z</time></trkpt><trkpt lat="43.9553347" lon="11.0153304"><ele>586.3333333333334</ele><time>2026-04-18T08:59:16.384Z</time></trkpt><trkpt lat="43.955433" lon="11.0153979"><ele>589.1666666666667</ele><time>2026-04-18T08:59:18.39Z</time></trkpt><trkpt lat="43.9555311" lon="11.0154876"><ele>592.0</ele><time>2026-04-18T08:59:20.387Z</time></trkpt><trkpt lat="43.9556215" lon="11.0155931"><ele>592.0</ele><time>2026-04-18T08:59:22.399Z</time></trkpt><trkpt lat="43.9557153" lon="11.0156733"><ele>592.0</ele><time>2026-04-18T08:59:24.4Z</time></trkpt><trkpt lat="43.955808" lon="11.0157797"><ele>592.0</ele><time>2026-04-18T08:59:26.389Z</time></trkpt><trkpt lat="43.9558997" lon="11.0158876"><ele>592.0</ele><time>2026-04-18T08:59:28.394Z</time></trkpt><trkpt lat="43.9559977" lon="11.016001"><ele>592.2</ele><time>2026-04-18T08:59:30.392Z</time></trkpt><trkpt lat="43.9560479" lon="11.0160641"><ele>592.4000000000001</ele><time>2026-04-18T08:59:31.396Z</time></trkpt><trkpt lat="43.9561491" lon="11.0161589"><ele>592.5999999999999</ele><time>2026-04-18T08:59:33.398Z</time></trkpt><trkpt lat="43.9562459" lon="11.0162068"><ele>592.8</ele><time>2026-04-18T08:59:35.405Z</time></trkpt><trkpt lat="43.956334" lon="11.0162211"><ele>593.0</ele><time>2026-04-18T08:59:37.4Z</time></trkpt><trkpt lat="43.9564194" lon="11.016211"><ele>593.0</ele><time>2026-04-18T08:59:39.412Z</time></trkpt><trkpt lat="43.9564964" lon="11.0162009"><ele>593.0</ele><time>2026-04-18T08:59:41.408Z</time></trkpt><trkpt lat="43.9565742" lon="11.016223"><ele>593.0</ele><time>2026-04-18T08:59:43.409Z</time></trkpt><trkpt lat="43.9566697" lon="11.0162586"><ele>593.0</ele><time>2026-04-18T08:59:45.402Z</time></trkpt><trkpt lat="43.956776" lon="11.0162996"><ele>593.0</ele><time>2026-04-18T08:59:47.384Z</time></trkpt><trkpt lat="43.9568912" lon="11.0163395"><ele>594.4</ele><time>2026-04-18T08:59:49.388Z</time></trkpt><trkpt lat="43.9569538" lon="11.0163631"><ele>595.8</ele><time>2026-04-18T08:59:50.383Z</time></trkpt><trkpt lat="43.9570736" lon="11.0163799"><ele>597.2</ele><time>2026-04-18T08:59:52.391Z</time></trkpt><trkpt lat="43.9571358" lon="11.0163952"><ele>598.6</ele><time>2026-04-18T08:59:53.388Z</time></trkpt><trkpt lat="43.9572559" lon="11.0164177"><ele>600.0</ele><time>2026-04-18T08:59:55.389Z</time></trkpt><trkpt lat="43.9573737" lon="11.0164153"><ele>600.0</ele><time>2026-04-18T08:59:57.379Z</time></trkpt><trkpt lat="43.9574759" lon="11.0164147"><ele>600.0</ele><time>2026-04-18T08:59:59.4Z</time></trkpt><trkpt lat="43.9575688" lon="11.0164119"><ele>600.0</ele><time>2026-04-18T09:00:01.399Z</time></trkpt><trkpt lat="43.9576558" lon="11.0164074"><ele>600.0</ele><time>2026-04-18T09:00:03.383Z</time></trkpt><trkpt lat="43.957768" lon="11.0163882"><ele>600.0</ele><time>2026-04-18T09:00:05.395Z</time></trkpt><trkpt lat="43.9578912" lon="11.0163861"><ele>601.6</ele><time>2026-04-18T09:00:07.375Z</time></trkpt><trkpt lat="43.9579545" lon="11.0164093"><ele>603.2</ele><time>2026-04-18T09:00:08.379Z</time></trkpt><trkpt lat="43.9580643" lon="11.0164702"><ele>604.8</ele><time>2026-04-18T09:00:10.386Z</time></trkpt><trkpt lat="43.958177" lon="11.0165199"><ele>606.4</ele><time>2026-04-18T09:00:12.391Z</time></trkpt><trkpt lat="43.9582854" lon="11.0165776"><ele>608.0</ele><time>2026-04-18T09:00:14.394Z</time></trkpt><trkpt lat="43.9583584" lon="11.0166737"><ele>608.6</ele><time>2026-04-18T09:00:16.385Z</time></trkpt><trkpt lat="43.9583891" lon="11.0168006"><ele>609.1999999999999</ele><time>2026-04-18T09:00:18.397Z</time></trkpt><trkpt lat="43.9584216" lon="11.0169273"><ele>609.8</ele><time>2026-04-18T09:00:20.41Z</time></trkpt><trkpt lat="43.9584523" lon="11.0170502"><ele>610.4</ele><time>2026-04-18T09:00:22.403Z</time></trkpt><trkpt lat="43.9584984" lon="11.0171714"><ele>611.0</ele><time>2026-04-18T09:00:24.404Z</time></trkpt><trkpt lat="43.9585387" lon="11.0172801"><ele>611.0000000000001</ele><time>2026-04-18T09:00:26.387Z</time></trkpt><trkpt lat="43.9585743" lon="11.0173652"><ele>611.0</ele><time>2026-04-18T09:00:28.393Z</time></trkpt><trkpt lat="43.9586223" lon="11.0174303"><ele>611.0</ele><time>2026-04-18T09:00:31.395Z</time></trkpt><trkpt lat="43.9586722" lon="11.0175081"><ele>611.0</ele><time>2026-04-18T09:00:34.399Z</time></trkpt><trkpt lat="43.9587212" lon="11.0175936"><ele>611.0</ele><time>2026-04-18T09:00:36.405Z</time></trkpt><trkpt lat="43.9587742" lon="11.0176671"><ele>611.0000000000001</ele><time>2026-04-18T09:00:38.396Z</time></trkpt><trkpt lat="43.9588257" lon="11.0177276"><ele>611.0</ele><time>2026-04-18T09:00:56.402Z</time></trkpt><trkpt lat="43.9588713" lon="11.0178108"><ele>611.1428571428572</ele><time>2026-04-18T09:01:00.41Z</time></trkpt><trkpt lat="43.9589334" lon="11.0178742"><ele>611.2857142857143</ele><time>2026-04-18T09:01:03.397Z</time></trkpt><trkpt lat="43.9589815" lon="11.0179368"><ele>611.4285714285714</ele><time>2026-04-18T09:01:12.412Z</time></trkpt><trkpt lat="43.9590275" lon="11.0180004"><ele>611.5714285714287</ele><time>2026-04-18T09:01:15.396Z</time></trkpt><trkpt lat="43.9590766" lon="11.0180741"><ele>611.7142857142858</ele><time>2026-04-18T09:01:19.402Z</time></trkpt><trkpt lat="43.9591341" lon="11.0181111"><ele>611.8571428571429</ele><time>2026-04-18T09:01:23.395Z</time></trkpt><trkpt lat="43.9591961" lon="11.0181481"><ele>612.0</ele><time>2026-04-18T09:01:26.401Z</time></trkpt><trkpt lat="43.9592645" lon="11.0181695"><ele>612.0</ele><time>2026-04-18T09:01:29.4Z</time></trkpt><trkpt lat="43.9593259" lon="11.018215"><ele>612.0</ele><time>2026-04-18T09:01:32.401Z</time></trkpt><trkpt lat="43.9593899" lon="11.0182598"><ele>612.0</ele><time>2026-04-18T09:01:39.401Z</time></trkpt><trkpt lat="43.9594545" lon="11.0183101"><ele>612.0</ele><time>2026-04-18T09:01:43.392Z</time></trkpt><trkpt lat="43.9595122" lon="11.0183507"><ele>612.0</ele><time>2026-04-18T09:01:47.4Z</time></trkpt><trkpt lat="43.9595738" lon="11.0184117"><ele>612.0</ele><time>2026-04-18T09:01:51.394Z</time></trkpt><trkpt lat="43.9596198" lon="11.0184806"><ele>612.0</ele><time>2026-04-18T09:01:55.392Z</time></trkpt><trkpt lat="43.9596483" lon="11.0185711"><ele>606.8333333333334</ele><time>2026-04-18T09:01:59.407Z</time></trkpt><trkpt lat="43.9597023" lon="11.018682"><ele>601.6666666666666</ele><time>2026-04-18T09:02:02.403Z</time></trkpt><trkpt lat="43.9597534" lon="11.018775"><ele>596.5</ele><time>2026-04-18T09:02:04.39Z</time></trkpt><trkpt lat="43.959803" lon="11.0188595"><ele>591.3333333333333</ele><time>2026-04-18T09:02:06.386Z</time></trkpt><trkpt lat="43.9598469" lon="11.0189485"><ele>586.1666666666666</ele><time>2026-04-18T09:02:09.389Z</time></trkpt><trkpt lat="43.9598672" lon="11.0190439"><ele>581.0</ele><time>2026-04-18T09:02:13.401Z</time></trkpt><trkpt lat="43.9598559" lon="11.0191589"><ele>577.7142857142857</ele><time>2026-04-18T09:02:16.4Z</time></trkpt><trkpt lat="43.9598188" lon="11.0192388"><ele>574.4285714285714</ele><time>2026-04-18T09:02:56.41Z</time></trkpt><trkpt lat="43.9597949" lon="11.0193541"><ele>571.1428571428571</ele><time>2026-04-18T09:02:59.401Z</time></trkpt><trkpt lat="43.9597949" lon="11.0194583"><ele>567.8571428571429</ele><time>2026-04-18T09:04:24.403Z</time></trkpt><trkpt lat="43.9598014" lon="11.0195584"><ele>564.5714285714286</ele><time>2026-04-18T09:04:27.396Z</time></trkpt><trkpt lat="43.9598363" lon="11.0196558"><ele>561.2857142857142</ele><time>2026-04-18T09:04:30.404Z</time></trkpt><trkpt lat="43.9598511" lon="11.0197427"><ele>558.0</ele><time>2026-04-18T09:04:32.409Z</time></trkpt><trkpt lat="43.9598667" lon="11.0198403"><ele>557.9999999999999</ele><time>2026-04-18T09:04:42.422Z</time></trkpt><trkpt lat="43.959921" lon="11.0198989"><ele>558.0</ele><time>2026-04-18T09:04:57.388Z</time></trkpt><trkpt lat="43.9599216" lon="11.020019"><ele>558.0</ele><time>2026-04-18T09:05:24.393Z</time></trkpt><trkpt lat="43.9599404" lon="11.0201153"><ele>558.0</ele><time>2026-04-18T09:05:34.397Z</time></trkpt><trkpt lat="43.9599703" lon="11.0201943"><ele>558.0</ele><time>2026-04-18T09:06:09.401Z</time></trkpt><trkpt lat="43.9599715" lon="11.0202967"><ele>557.9999999999999</ele><time>2026-04-18T09:06:49.4Z</time></trkpt><trkpt lat="43.9599694" lon="11.0203904"><ele>558.0</ele><time>2026-04-18T09:06:54.392Z</time></trkpt><trkpt lat="43.9599745" lon="11.0204843"><ele>555.2857142857142</ele><time>2026-04-18T09:06:58.39Z</time></trkpt><trkpt lat="43.9599943" lon="11.0205855"><ele>552.5714285714286</ele><time>2026-04-18T09:07:02.394Z</time></trkpt><trkpt lat="43.9599907" lon="11.0206796"><ele>549.8571428571429</ele><time>2026-04-18T09:07:20.403Z</time></trkpt><trkpt lat="43.9600007" lon="11.0207698"><ele>547.1428571428571</ele><time>2026-04-18T09:07:24.392Z</time></trkpt><trkpt lat="43.9600012" lon="11.020868"><ele>544.4285714285714</ele><time>2026-04-18T09:07:31.397Z</time></trkpt><trkpt lat="43.9599973" lon="11.0209624"><ele>541.7142857142857</ele><time>2026-04-18T09:07:36.395Z</time></trkpt><trkpt lat="43.9599937" lon="11.0210571"><ele>539.0</ele><time>2026-04-18T09:07:42.395Z</time></trkpt><trkpt lat="43.9599799" lon="11.0211583"><ele>538.8571428571429</ele><time>2026-04-18T09:07:56.4Z</time></trkpt><trkpt lat="43.9600186" lon="11.0212364"><ele>538.7142857142858</ele><time>2026-04-18T09:08:00.405Z</time></trkpt><trkpt lat="43.9600371" lon="11.0213323"><ele>538.5714285714286</ele><time>2026-04-18T09:08:06.403Z</time></trkpt><trkpt lat="43.9600541" lon="11.0214225"><ele>538.4285714285714</ele><time>2026-04-18T09:08:15.408Z</time></trkpt><trkpt lat="43.9600931" lon="11.0214986"><ele>538.2857142857143</ele><time>2026-04-18T09:08:18.398Z</time></trkpt><trkpt lat="43.9600982" lon="11.0215939"><ele>538.1428571428571</ele><time>2026-04-18T09:08:30.398Z</time></trkpt><trkpt lat="43.9601492" lon="11.0216685"><ele>538.0</ele><time>2026-04-18T09:08:40.409Z</time></trkpt><trkpt lat="43.9602029" lon="11.0217585"><ele>534.4285714285714</ele><time>2026-04-18T09:08:46.401Z</time></trkpt><trkpt lat="43.9602334" lon="11.0218454"><ele>530.8571428571429</ele><time>2026-04-18T09:08:51.388Z</time></trkpt><trkpt lat="43.9602154" lon="11.0219352"><ele>527.2857142857143</ele><time>2026-04-18T09:09:02.403Z</time></trkpt><trkpt lat="43.9602001" lon="11.0220332"><ele>523.7142857142858</ele><time>2026-04-18T09:09:06.387Z</time></trkpt><trkpt lat="43.9601872" lon="11.022132"><ele>520.1428571428571</ele><time>2026-04-18T09:09:11.39Z</time></trkpt><trkpt lat="43.9601543" lon="11.0222257"><ele>516.5714285714287</ele><time>2026-04-18T09:09:16.382Z</time></trkpt><trkpt lat="43.9601108" lon="11.0223153"><ele>513.0</ele><time>2026-04-18T09:09:20.392Z</time></trkpt><trkpt lat="43.9600726" lon="11.0224029"><ele>510.0</ele><time>2026-04-18T09:09:45.387Z</time></trkpt><trkpt lat="43.9600877" lon="11.0224896"><ele>507.0</ele><time>2026-04-18T09:09:47.386Z</time></trkpt><trkpt lat="43.9601003" lon="11.0225812"><ele>504.0</ele><time>2026-04-18T09:09:58.394Z</time></trkpt><trkpt lat="43.9600665" lon="11.0226796"><ele>501.0</ele><time>2026-04-18T09:10:01.386Z</time></trkpt><trkpt lat="43.9600144" lon="11.0227716"><ele>498.0</ele><time>2026-04-18T09:10:03.383Z</time></trkpt><trkpt lat="43.9599608" lon="11.0228571"><ele>495.0</ele><time>2026-04-18T09:10:05.376Z</time></trkpt><trkpt lat="43.9599062" lon="11.0229296"><ele>495.0</ele><time>2026-04-18T09:10:07.382Z</time></trkpt><trkpt lat="43.9598618" lon="11.0230125"><ele>495.0</ele><time>2026-04-18T09:10:09.397Z</time></trkpt><trkpt lat="43.9598191" lon="11.0230965"><ele>495.0</ele><time>2026-04-18T09:10:11.393Z</time></trkpt><trkpt lat="43.9597658" lon="11.0231917"><ele>495.0</ele><time>2026-04-18T09:10:14.39Z</time></trkpt><trkpt lat="43.959706" lon="11.0232897"><ele>495.0</ele><time>2026-04-18T09:10:17.392Z</time></trkpt><trkpt lat="43.9596505" lon="11.0233634"><ele>495.0</ele><time>2026-04-18T09:10:19.4Z</time></trkpt><trkpt lat="43.959599" lon="11.0234147"><ele>493.1666666666667</ele><time>2026-04-18T09:10:21.4Z</time></trkpt><trkpt lat="43.9595465" lon="11.0235164"><ele>491.33333333333337</ele><time>2026-04-18T09:10:24.398Z</time></trkpt><trkpt lat="43.9595067" lon="11.0236076"><ele>489.5</ele><time>2026-04-18T09:10:26.397Z</time></trkpt><trkpt lat="43.9594655" lon="11.0237204"><ele>487.6666666666667</ele><time>2026-04-18T09:10:28.403Z</time></trkpt><trkpt lat="43.959437" lon="11.0238297"><ele>485.83333333333337</ele><time>2026-04-18T09:10:30.401Z</time></trkpt><trkpt lat="43.9594148" lon="11.0239422"><ele>484.0</ele><time>2026-04-18T09:10:32.398Z</time></trkpt><trkpt lat="43.9593694" lon="11.0240627"><ele>479.33333333333337</ele><time>2026-04-18T09:10:34.384Z</time></trkpt><trkpt lat="43.9593366" lon="11.0241751"><ele>474.6666666666667</ele><time>2026-04-18T09:10:36.396Z</time></trkpt><trkpt lat="43.9592997" lon="11.0242606"><ele>470.0</ele><time>2026-04-18T09:10:38.399Z</time></trkpt><trkpt lat="43.9592452" lon="11.0243515"><ele>465.33333333333337</ele><time>2026-04-18T09:10:41.397Z</time></trkpt><trkpt lat="43.9592625" lon="11.0244875"><ele>460.6666666666667</ele><time>2026-04-18T09:10:44.394Z</time></trkpt><trkpt lat="43.9592882" lon="11.0246064"><ele>456.0</ele><time>2026-04-18T09:10:46.399Z</time></trkpt><trkpt lat="43.9592864" lon="11.0247284"><ele>456.0</ele><time>2026-04-18T09:10:48.422Z</time></trkpt><trkpt lat="43.9593032" lon="11.0248434"><ele>456.0</ele><time>2026-04-18T09:10:50.401Z</time></trkpt><trkpt lat="43.9593283" lon="11.0249256"><ele>456.0</ele><time>2026-04-18T09:10:52.392Z</time></trkpt><trkpt lat="43.959354" lon="11.025023"><ele>456.0</ele><time>2026-04-18T09:10:55.384Z</time></trkpt><trkpt lat="43.9593514" lon="11.02514"><ele>456.0</ele><time>2026-04-18T09:10:58.398Z</time></trkpt><trkpt lat="43.9593395" lon="11.0252734"><ele>456.0</ele><time>2026-04-18T09:11:01.398Z</time></trkpt><trkpt lat="43.9593405" lon="11.0253805"><ele>452.1428571428571</ele><time>2026-04-18T09:11:03.396Z</time></trkpt><trkpt lat="43.9593455" lon="11.0254865"><ele>448.2857142857142</ele><time>2026-04-18T09:11:05.395Z</time></trkpt><trkpt lat="43.9593576" lon="11.0255822"><ele>444.42857142857144</ele><time>2026-04-18T09:11:07.391Z</time></trkpt><trkpt lat="43.9593828" lon="11.0256892"><ele>440.57142857142856</ele><time>2026-04-18T09:11:09.394Z</time></trkpt><trkpt lat="43.9594129" lon="11.0257891"><ele>436.7142857142857</ele><time>2026-04-18T09:11:11.396Z</time></trkpt><trkpt lat="43.9594493" lon="11.0258667"><ele>432.8571428571429</ele><time>2026-04-18T09:11:13.39Z</time></trkpt><trkpt lat="43.9594797" lon="11.0259644"><ele>429.0</ele><time>2026-04-18T09:11:16.389Z</time></trkpt><trkpt lat="43.9595005" lon="11.0260788"><ele>430.3333333333333</ele><time>2026-04-18T09:11:19.395Z</time></trkpt><trkpt lat="43.9594554" lon="11.0261661"><ele>431.66666666666663</ele><time>2026-04-18T09:11:24.397Z</time></trkpt><trkpt lat="43.9593765" lon="11.0261877"><ele>433.0</ele><time>2026-04-18T09:11:27.39Z</time></trkpt><trkpt lat="43.959292" lon="11.0262364"><ele>434.3333333333333</ele><time>2026-04-18T09:11:30.391Z</time></trkpt><trkpt lat="43.9592439" lon="11.0262994"><ele>435.66666666666663</ele><time>2026-04-18T09:11:37.394Z</time></trkpt><trkpt lat="43.9591814" lon="11.0263364"><ele>437.0</ele><time>2026-04-18T09:11:41.398Z</time></trkpt><trkpt lat="43.9591155" lon="11.0263701"><ele>437.0</ele><time>2026-04-18T09:11:49.398Z</time></trkpt><trkpt lat="43.9590509" lon="11.0264518"><ele>437.0</ele><time>2026-04-18T09:11:53.405Z</time></trkpt><trkpt lat="43.9590163" lon="11.026525"><ele>437.0</ele><time>2026-04-18T09:12:00.396Z</time></trkpt><trkpt lat="43.9589603" lon="11.0265652"><ele>437.0</ele><time>2026-04-18T09:12:04.393Z</time></trkpt><trkpt lat="43.9589009" lon="11.0266339"><ele>437.0</ele><time>2026-04-18T09:12:09.399Z</time></trkpt><trkpt lat="43.9588635" lon="11.026721"><ele>437.0</ele><time>2026-04-18T09:12:12.409Z</time></trkpt><trkpt lat="43.9587971" lon="11.0267508"><ele>437.0</ele><time>2026-04-18T09:12:15.386Z</time></trkpt><trkpt lat="43.9587129" lon="11.0267587"><ele>434.7142857142857</ele><time>2026-04-18T09:12:18.384Z</time></trkpt><trkpt lat="43.9586431" lon="11.0267675"><ele>432.42857142857144</ele><time>2026-04-18T09:12:20.38Z</time></trkpt><trkpt lat="43.9585796" lon="11.026781"><ele>430.14285714285717</ele><time>2026-04-18T09:12:22.385Z</time></trkpt><trkpt lat="43.9584939" lon="11.0267695"><ele>427.8571428571429</ele><time>2026-04-18T09:12:25.381Z</time></trkpt><trkpt lat="43.958426" lon="11.0267249"><ele>425.57142857142856</ele><time>2026-04-18T09:12:29.393Z</time></trkpt><trkpt lat="43.9583593" lon="11.0267256"><ele>423.28571428571433</ele><time>2026-04-18T09:12:32.382Z</time></trkpt><trkpt lat="43.9582752" lon="11.0267195"><ele>421.0</ele><time>2026-04-18T09:12:35.383Z</time></trkpt><trkpt lat="43.9581938" lon="11.0267392"><ele>417.83333333333337</ele><time>2026-04-18T09:12:38.386Z</time></trkpt><trkpt lat="43.9581281" lon="11.0267853"><ele>414.6666666666667</ele><time>2026-04-18T09:12:40.392Z</time></trkpt><trkpt lat="43.9580433" lon="11.0268304"><ele>411.5</ele><time>2026-04-18T09:12:42.383Z</time></trkpt><trkpt lat="43.9579503" lon="11.0268626"><ele>408.33333333333337</ele><time>2026-04-18T09:12:44.382Z</time></trkpt><trkpt lat="43.957847" lon="11.0269011"><ele>405.1666666666667</ele><time>2026-04-18T09:12:46.374Z</time></trkpt><trkpt lat="43.9577835" lon="11.0269225"><ele>402.0</ele><time>2026-04-18T09:12:47.378Z</time></trkpt><trkpt lat="43.9577123" lon="11.0269409"><ele>402.0</ele><time>2026-04-18T09:12:48.375Z</time></trkpt><trkpt lat="43.9576442" lon="11.0269524"><ele>402.0</ele><time>2026-04-18T09:12:49.375Z</time></trkpt><trkpt lat="43.957576" lon="11.0269572"><ele>402.0</ele><time>2026-04-18T09:12:50.376Z</time></trkpt><trkpt lat="43.957506" lon="11.0269533"><ele>402.0</ele><time>2026-04-18T09:12:51.375Z</time></trkpt><trkpt lat="43.9574383" lon="11.026927"><ele>402.0</ele><time>2026-04-18T09:12:52.381Z</time></trkpt><trkpt lat="43.9573771" lon="11.0268889"><ele>402.0</ele><time>2026-04-18T09:12:53.375Z</time></trkpt><trkpt lat="43.9572829" lon="11.0267849"><ele>400.85714285714283</ele><time>2026-04-18T09:12:55.375Z</time></trkpt><trkpt lat="43.9572198" lon="11.0267145"><ele>399.7142857142857</ele><time>2026-04-18T09:12:57.372Z</time></trkpt><trkpt lat="43.957154" lon="11.0267001"><ele>398.57142857142856</ele><time>2026-04-18T09:13:00.396Z</time></trkpt><trkpt lat="43.957084" lon="11.0267013"><ele>397.42857142857144</ele><time>2026-04-18T09:13:04.382Z</time></trkpt><trkpt lat="43.9570247" lon="11.0266536"><ele>396.28571428571433</ele><time>2026-04-18T09:13:07.38Z</time></trkpt><trkpt lat="43.9569669" lon="11.0265811"><ele>395.14285714285717</ele><time>2026-04-18T09:13:10.376Z</time></trkpt><trkpt lat="43.9569349" lon="11.026489"><ele>394.0</ele><time>2026-04-18T09:13:12.392Z</time></trkpt><trkpt lat="43.9568989" lon="11.0263802"><ele>394.0</ele><time>2026-04-18T09:13:14.391Z</time></trkpt><trkpt lat="43.956834" lon="11.0263026"><ele>394.0</ele><time>2026-04-18T09:13:16.404Z</time></trkpt><trkpt lat="43.9567498" lon="11.0262247"><ele>394.0</ele><time>2026-04-18T09:13:18.394Z</time></trkpt><trkpt lat="43.9566878" lon="11.0261523"><ele>394.0</ele><time>2026-04-18T09:13:20.378Z</time></trkpt><trkpt lat="43.9566631" lon="11.026035"><ele>394.0</ele><time>2026-04-18T09:13:22.381Z</time></trkpt><trkpt lat="43.9566405" lon="11.0258596"><ele>389.33333333333337</ele><time>2026-04-18T09:13:24.368Z</time></trkpt><trkpt lat="43.9566242" lon="11.0257671"><ele>384.6666666666667</ele><time>2026-04-18T09:13:25.368Z</time></trkpt><trkpt lat="43.9565812" lon="11.0256208"><ele>380.0</ele><time>2026-04-18T09:13:27.379Z</time></trkpt><trkpt lat="43.956559" lon="11.0255188"><ele>375.33333333333337</ele><time>2026-04-18T09:13:30.378Z</time></trkpt><trkpt lat="43.9565295" lon="11.0254044"><ele>370.6666666666667</ele><time>2026-04-18T09:13:33.374Z</time></trkpt><trkpt lat="43.9564621" lon="11.0253356"><ele>366.0</ele><time>2026-04-18T09:13:36.395Z</time></trkpt><trkpt lat="43.9563943" lon="11.0253084"><ele>366.0</ele><time>2026-04-18T09:13:38.393Z</time></trkpt><trkpt lat="43.9563121" lon="11.0252712"><ele>366.0</ele><time>2026-04-18T09:13:40.392Z</time></trkpt><trkpt lat="43.9562305" lon="11.0252324"><ele>366.0</ele><time>2026-04-18T09:13:42.392Z</time></trkpt><trkpt lat="43.9561714" lon="11.0252955"><ele>366.0</ele><time>2026-04-18T09:13:44.386Z</time></trkpt><trkpt lat="43.9561624" lon="11.0254621"><ele>366.0</ele><time>2026-04-18T09:13:46.372Z</time></trkpt><trkpt lat="43.9561808" lon="11.02555"><ele>366.0</ele><time>2026-04-18T09:13:47.373Z</time></trkpt><trkpt lat="43.9561872" lon="11.0256701"><ele>366.0</ele><time>2026-04-18T09:13:49.378Z</time></trkpt><trkpt lat="43.9561066" lon="11.0256065"><ele>366.0</ele><time>2026-04-18T09:13:53.395Z</time></trkpt><trkpt lat="43.9560594" lon="11.0254815"><ele>366.0</ele><time>2026-04-18T09:13:55.392Z</time></trkpt><trkpt lat="43.9560052" lon="11.0253801"><ele>366.0</ele><time>2026-04-18T09:13:57.382Z</time></trkpt><trkpt lat="43.9559434" lon="11.0254848"><ele>366.0</ele><time>2026-04-18T09:14:00.391Z</time></trkpt><trkpt lat="43.9559454" lon="11.0255875"><ele>366.0</ele><time>2026-04-18T09:14:01.396Z</time></trkpt><trkpt lat="43.9559642" lon="11.0257024"><ele>366.0</ele><time>2026-04-18T09:14:02.378Z</time></trkpt><trkpt lat="43.9559929" lon="11.0258292"><ele>366.0</ele><time>2026-04-18T09:14:03.383Z</time></trkpt><trkpt lat="43.9560162" lon="11.025947"><ele>366.0</ele><time>2026-04-18T09:14:04.377Z</time></trkpt><trkpt lat="43.9560207" lon="11.0260621"><ele>366.0</ele><time>2026-04-18T09:14:05.378Z</time></trkpt><trkpt lat="43.9560172" lon="11.0261748"><ele>366.0</ele><time>2026-04-18T09:14:06.378Z</time></trkpt><trkpt lat="43.9560112" lon="11.0262741"><ele>365.3333333333333</ele><time>2026-04-18T09:14:07.372Z</time></trkpt><trkpt lat="43.9560089" lon="11.0263662"><ele>364.6666666666667</ele><time>2026-04-18T09:14:08.367Z</time></trkpt><trkpt lat="43.9560203" lon="11.0264679"><ele>364.0</ele><time>2026-04-18T09:14:09.371Z</time></trkpt><trkpt lat="43.9560383" lon="11.0265765"><ele>363.33333333333337</ele><time>2026-04-18T09:14:10.373Z</time></trkpt><trkpt lat="43.9560617" lon="11.026695"><ele>362.6666666666667</ele><time>2026-04-18T09:14:11.369Z</time></trkpt><trkpt lat="43.9560838" lon="11.0267931"><ele>362.0</ele><time>2026-04-18T09:14:12.373Z</time></trkpt><trkpt lat="43.9561038" lon="11.0269435"><ele>362.0</ele><time>2026-04-18T09:14:14.367Z</time></trkpt><trkpt lat="43.9560271" lon="11.026973"><ele>362.0</ele><time>2026-04-18T09:14:17.384Z</time></trkpt><trkpt lat="43.9559784" lon="11.0268787"><ele>362.0</ele><time>2026-04-18T09:14:19.39Z</time></trkpt><trkpt lat="43.955974" lon="11.0267471"><ele>362.0</ele><time>2026-04-18T09:14:21.395Z</time></trkpt><trkpt lat="43.9559579" lon="11.0265788"><ele>362.0</ele><time>2026-04-18T09:14:23.374Z</time></trkpt><trkpt lat="43.9559418" lon="11.0264771"><ele>362.0</ele><time>2026-04-18T09:14:24.372Z</time></trkpt><trkpt lat="43.9559108" lon="11.0263563"><ele>362.0</ele><time>2026-04-18T09:14:25.377Z</time></trkpt><trkpt lat="43.9558869" lon="11.026249"><ele>362.0</ele><time>2026-04-18T09:14:26.371Z</time></trkpt><trkpt lat="43.9558674" lon="11.0261391"><ele>362.0</ele><time>2026-04-18T09:14:27.378Z</time></trkpt><trkpt lat="43.9558527" lon="11.0260408"><ele>362.0</ele><time>2026-04-18T09:14:28.376Z</time></trkpt><trkpt lat="43.9558258" lon="11.0259587"><ele>362.0</ele><time>2026-04-18T09:14:29.376Z</time></trkpt><trkpt lat="43.9557901" lon="11.0258734"><ele>356.40000000000003</ele><time>2026-04-18T09:14:30.378Z</time></trkpt><trkpt lat="43.955745" lon="11.0258034"><ele>350.8</ele><time>2026-04-18T09:14:31.376Z</time></trkpt><trkpt lat="43.9556669" lon="11.0256905"><ele>345.2</ele><time>2026-04-18T09:14:33.383Z</time></trkpt><trkpt lat="43.9556134" lon="11.0255371"><ele>339.6</ele><time>2026-04-18T09:14:35.376Z</time></trkpt><trkpt lat="43.9555819" lon="11.0254259"><ele>334.0</ele><time>2026-04-18T09:14:36.376Z</time></trkpt><trkpt lat="43.9555348" lon="11.0253186"><ele>334.0</ele><time>2026-04-18T09:14:37.382Z</time></trkpt><trkpt lat="43.9554817" lon="11.0252217"><ele>334.0</ele><time>2026-04-18T09:14:38.379Z</time></trkpt><trkpt lat="43.9554343" lon="11.0251453"><ele>334.0</ele><time>2026-04-18T09:14:39.385Z</time></trkpt><trkpt lat="43.9553528" lon="11.0250185"><ele>334.0</ele><time>2026-04-18T09:14:41.378Z</time></trkpt><trkpt lat="43.9552725" lon="11.0249446"><ele>334.0</ele><time>2026-04-18T09:14:43.38Z</time></trkpt><trkpt lat="43.9552052" lon="11.0249212"><ele>334.0</ele><time>2026-04-18T09:14:45.4Z</time></trkpt><trkpt lat="43.9551536" lon="11.0250128"><ele>334.0</ele><time>2026-04-18T09:14:47.398Z</time></trkpt><trkpt lat="43.955138" lon="11.0251642"><ele>334.0</ele><time>2026-04-18T09:14:49.402Z</time></trkpt><trkpt lat="43.9551201" lon="11.0253307"><ele>334.0</ele><time>2026-04-18T09:14:51.398Z</time></trkpt><trkpt lat="43.9550833" lon="11.0254828"><ele>334.0</ele><time>2026-04-18T09:14:53.386Z</time></trkpt><trkpt lat="43.9550828" lon="11.0256472"><ele>334.0</ele><time>2026-04-18T09:14:55.387Z</time></trkpt><trkpt lat="43.9550587" lon="11.0257937"><ele>334.0</ele><time>2026-04-18T09:14:57.374Z</time></trkpt><trkpt lat="43.9550158" lon="11.0259475"><ele>334.0</ele><time>2026-04-18T09:14:59.374Z</time></trkpt><trkpt lat="43.9550034" lon="11.0260354"><ele>334.0</ele><time>2026-04-18T09:15:00.372Z</time></trkpt><trkpt lat="43.955004" lon="11.0261251"><ele>334.0</ele><time>2026-04-18T09:15:01.386Z</time></trkpt><trkpt lat="43.9549692" lon="11.0262848"><ele>328.16666666666663</ele><time>2026-04-18T09:15:03.379Z</time></trkpt><trkpt lat="43.9548893" lon="11.0264096"><ele>322.3333333333333</ele><time>2026-04-18T09:15:05.371Z</time></trkpt><trkpt lat="43.9548351" lon="11.0264719"><ele>316.5</ele><time>2026-04-18T09:15:06.373Z</time></trkpt><trkpt lat="43.9547754" lon="11.0265398"><ele>310.6666666666667</ele><time>2026-04-18T09:15:07.376Z</time></trkpt><trkpt lat="43.9547234" lon="11.0266059"><ele>304.83333333333337</ele><time>2026-04-18T09:15:08.372Z</time></trkpt><trkpt lat="43.9546744" lon="11.0266835"><ele>299.0</ele><time>2026-04-18T09:15:09.382Z</time></trkpt><trkpt lat="43.954628" lon="11.026759"><ele>297.83333333333337</ele><time>2026-04-18T09:15:10.375Z</time></trkpt><trkpt lat="43.9545766" lon="11.0268313"><ele>296.6666666666667</ele><time>2026-04-18T09:15:11.372Z</time></trkpt><trkpt lat="43.9545228" lon="11.0268984"><ele>295.5</ele><time>2026-04-18T09:15:12.376Z</time></trkpt><trkpt lat="43.9544741" lon="11.0269577"><ele>294.3333333333333</ele><time>2026-04-18T09:15:13.383Z</time></trkpt><trkpt lat="43.9543749" lon="11.0270616"><ele>293.16666666666663</ele><time>2026-04-18T09:15:15.386Z</time></trkpt><trkpt lat="43.9542726" lon="11.0271295"><ele>292.0</ele><time>2026-04-18T09:15:17.38Z</time></trkpt><trkpt lat="43.9541686" lon="11.0271436"><ele>289.8333333333333</ele><time>2026-04-18T09:15:19.38Z</time></trkpt><trkpt lat="43.9540743" lon="11.0270581"><ele>287.66666666666663</ele><time>2026-04-18T09:15:21.377Z</time></trkpt><trkpt lat="43.9540329" lon="11.0269859"><ele>285.5</ele><time>2026-04-18T09:15:22.389Z</time></trkpt><trkpt lat="43.953995" lon="11.0269045"><ele>283.3333333333333</ele><time>2026-04-18T09:15:23.381Z</time></trkpt><trkpt lat="43.9539563" lon="11.0268126"><ele>281.1666666666667</ele><time>2026-04-18T09:15:24.375Z</time></trkpt><trkpt lat="43.9539249" lon="11.0267245"><ele>279.0</ele><time>2026-04-18T09:15:25.372Z</time></trkpt><trkpt lat="43.9538719" lon="11.0266101"><ele>278.6666666666667</ele><time>2026-04-18T09:15:27.384Z</time></trkpt><trkpt lat="43.9538271" lon="11.0266798"><ele>278.3333333333333</ele><time>2026-04-18T09:15:30.387Z</time></trkpt><trkpt lat="43.9538427" lon="11.0268278"><ele>278.0</ele><time>2026-04-18T09:15:32.382Z</time></trkpt><trkpt lat="43.9538681" lon="11.0269103"><ele>277.66666666666663</ele><time>2026-04-18T09:15:33.388Z</time></trkpt><trkpt lat="43.953902" lon="11.0269968"><ele>277.3333333333333</ele><time>2026-04-18T09:15:34.389Z</time></trkpt><trkpt lat="43.9539224" lon="11.0270824"><ele>277.0</ele><time>2026-04-18T09:15:35.374Z</time></trkpt><trkpt lat="43.9539037" lon="11.0272501"><ele>277.0</ele><time>2026-04-18T09:15:37.377Z</time></trkpt><trkpt lat="43.9539125" lon="11.0274063"><ele>277.0</ele><time>2026-04-18T09:15:39.379Z</time></trkpt><trkpt lat="43.9539682" lon="11.0275248"><ele>277.0</ele><time>2026-04-18T09:15:41.391Z</time></trkpt><trkpt lat="43.9540193" lon="11.027576"><ele>277.0</ele><time>2026-04-18T09:15:42.377Z</time></trkpt><trkpt lat="43.9540764" lon="11.027637"><ele>277.0</ele><time>2026-04-18T09:15:43.374Z</time></trkpt><trkpt lat="43.9541413" lon="11.0277073"><ele>277.0</ele><time>2026-04-18T09:15:44.371Z</time></trkpt><trkpt lat="43.9542058" lon="11.0277756"><ele>276.3333333333333</ele><time>2026-04-18T09:15:45.374Z</time></trkpt><trkpt lat="43.9542671" lon="11.0278441"><ele>275.66666666666663</ele><time>2026-04-18T09:15:46.374Z</time></trkpt><trkpt lat="43.9543435" lon="11.0279393"><ele>275.0</ele><time>2026-04-18T09:15:48.375Z</time></trkpt><trkpt lat="43.9543974" lon="11.0280715"><ele>274.3333333333333</ele><time>2026-04-18T09:15:50.369Z</time></trkpt><trkpt lat="43.9544167" lon="11.0281569"><ele>273.6666666666667</ele><time>2026-04-18T09:15:51.372Z</time></trkpt><trkpt lat="43.9544257" lon="11.0282558"><ele>273.0</ele><time>2026-04-18T09:15:52.371Z</time></trkpt><trkpt lat="43.9544354" lon="11.0283579"><ele>273.0</ele><time>2026-04-18T09:15:53.374Z</time></trkpt><trkpt lat="43.9544434" lon="11.0284644"><ele>273.0</ele><time>2026-04-18T09:15:54.379Z</time></trkpt><trkpt lat="43.9544455" lon="11.0285693"><ele>273.0</ele><time>2026-04-18T09:15:55.378Z</time></trkpt><trkpt lat="43.9544328" lon="11.0286702"><ele>273.0</ele><time>2026-04-18T09:15:56.378Z</time></trkpt><trkpt lat="43.9544072" lon="11.0287618"><ele>273.0</ele><time>2026-04-18T09:15:57.378Z</time></trkpt><trkpt lat="43.9543723" lon="11.0288504"><ele>273.0</ele><time>2026-04-18T09:15:58.385Z</time></trkpt><trkpt lat="43.9543291" lon="11.0289352"><ele>273.0</ele><time>2026-04-18T09:15:59.382Z</time></trkpt><trkpt lat="43.9542817" lon="11.0290146"><ele>273.0</ele><time>2026-04-18T09:16:00.39Z</time></trkpt><trkpt lat="43.9542317" lon="11.0290842"><ele>273.0</ele><time>2026-04-18T09:16:01.38Z</time></trkpt><trkpt lat="43.9541753" lon="11.029153"><ele>273.0</ele><time>2026-04-18T09:16:02.37Z</time></trkpt><trkpt lat="43.9541022" lon="11.0292091"><ele>273.0</ele><time>2026-04-18T09:16:03.383Z</time></trkpt><trkpt lat="43.9540232" lon="11.0292422"><ele>273.0</ele><time>2026-04-18T09:16:04.366Z</time></trkpt><trkpt lat="43.9539372" lon="11.0292558"><ele>273.0</ele><time>2026-04-18T09:16:05.372Z</time></trkpt><trkpt lat="43.9538531" lon="11.0292447"><ele>266.8</ele><time>2026-04-18T09:16:06.368Z</time></trkpt><trkpt lat="43.9537642" lon="11.0292167"><ele>260.6</ele><time>2026-04-18T09:16:07.37Z</time></trkpt><trkpt lat="43.9536704" lon="11.029191"><ele>254.39999999999998</ele><time>2026-04-18T09:16:08.375Z</time></trkpt><trkpt lat="43.9535762" lon="11.0291799"><ele>248.2</ele><time>2026-04-18T09:16:09.378Z</time></trkpt><trkpt lat="43.9534869" lon="11.0291783"><ele>242.0</ele><time>2026-04-18T09:16:10.376Z</time></trkpt><trkpt lat="43.9534046" lon="11.0291695"><ele>241.16666666666669</ele><time>2026-04-18T09:16:11.373Z</time></trkpt><trkpt lat="43.9533369" lon="11.0291454"><ele>240.33333333333334</ele><time>2026-04-18T09:16:12.376Z</time></trkpt><trkpt lat="43.9532371" lon="11.0290997"><ele>239.5</ele><time>2026-04-18T09:16:14.369Z</time></trkpt><trkpt lat="43.9532129" lon="11.0292223"><ele>238.66666666666669</ele><time>2026-04-18T09:16:18.387Z</time></trkpt><trkpt lat="43.9532465" lon="11.0293037"><ele>237.83333333333334</ele><time>2026-04-18T09:16:19.394Z</time></trkpt><trkpt lat="43.953288" lon="11.0293882"><ele>237.0</ele><time>2026-04-18T09:16:20.382Z</time></trkpt><trkpt lat="43.95332" lon="11.0294677"><ele>235.33333333333334</ele><time>2026-04-18T09:16:21.383Z</time></trkpt><trkpt lat="43.9532728" lon="11.0295358"><ele>233.66666666666669</ele><time>2026-04-18T09:16:24.382Z</time></trkpt><trkpt lat="43.9531822" lon="11.0294558"><ele>232.0</ele><time>2026-04-18T09:16:26.393Z</time></trkpt><trkpt lat="43.9531247" lon="11.0294036"><ele>230.33333333333334</ele><time>2026-04-18T09:16:27.397Z</time></trkpt><trkpt lat="43.9530555" lon="11.0293459"><ele>228.66666666666669</ele><time>2026-04-18T09:16:29.403Z</time></trkpt><trkpt lat="43.9530666" lon="11.0294637"><ele>227.0</ele><time>2026-04-18T09:16:32.384Z</time></trkpt><trkpt lat="43.9531438" lon="11.0296017"><ele>227.0</ele><time>2026-04-18T09:16:34.397Z</time></trkpt><trkpt lat="43.9531856" lon="11.0297165"><ele>227.0</ele><time>2026-04-18T09:16:36.414Z</time></trkpt><trkpt lat="43.9530859" lon="11.0297631"><ele>227.0</ele><time>2026-04-18T09:16:39.393Z</time></trkpt><trkpt lat="43.9530033" lon="11.029811"><ele>227.0</ele><time>2026-04-18T09:16:41.384Z</time></trkpt><trkpt lat="43.9530679" lon="11.029934"><ele>227.0</ele><time>2026-04-18T09:16:43.37Z</time></trkpt><trkpt lat="43.9531241" lon="11.0299964"><ele>224.83333333333334</ele><time>2026-04-18T09:16:44.364Z</time></trkpt><trkpt lat="43.9531599" lon="11.0300687"><ele>222.66666666666669</ele><time>2026-04-18T09:16:45.363Z</time></trkpt><trkpt lat="43.9531275" lon="11.0301836"><ele>220.5</ele><time>2026-04-18T09:16:47.384Z</time></trkpt><trkpt lat="43.9530545" lon="11.0302184"><ele>218.33333333333331</ele><time>2026-04-18T09:16:49.389Z</time></trkpt><trkpt lat="43.9529513" lon="11.030278"><ele>216.16666666666666</ele><time>2026-04-18T09:16:51.39Z</time></trkpt><trkpt lat="43.9528683" lon="11.0303339"><ele>214.0</ele><time>2026-04-18T09:16:52.373Z</time></trkpt><trkpt lat="43.9527754" lon="11.0304012"><ele>214.0</ele><time>2026-04-18T09:16:53.376Z</time></trkpt><trkpt lat="43.9526845" lon="11.0304717"><ele>213.99999999999997</ele><time>2026-04-18T09:16:54.386Z</time></trkpt><trkpt lat="43.9525933" lon="11.0305443"><ele>213.99999999999997</ele><time>2026-04-18T09:16:55.384Z</time></trkpt><trkpt lat="43.9525007" lon="11.0306162"><ele>214.0</ele><time>2026-04-18T09:16:56.405Z</time></trkpt><trkpt lat="43.9524075" lon="11.0306858"><ele>214.0</ele><time>2026-04-18T09:16:57.394Z</time></trkpt><trkpt lat="43.9523133" lon="11.0307596"><ele>208.5</ele><time>2026-04-18T09:16:58.387Z</time></trkpt><trkpt lat="43.9522108" lon="11.0308352"><ele>203.0</ele><time>2026-04-18T09:16:59.391Z</time></trkpt><trkpt lat="43.9521108" lon="11.030918"><ele>197.5</ele><time>2026-04-18T09:17:00.403Z</time></trkpt><trkpt lat="43.9520105" lon="11.0310016"><ele>192.0</ele><time>2026-04-18T09:17:01.389Z</time></trkpt><trkpt lat="43.9519031" lon="11.0310837"><ele>192.0</ele><time>2026-04-18T09:17:02.386Z</time></trkpt><trkpt lat="43.951793" lon="11.031154"><ele>192.0</ele><time>2026-04-18T09:17:03.386Z</time></trkpt><trkpt lat="43.9516882" lon="11.03121"><ele>192.0</ele><time>2026-04-18T09:17:04.382Z</time></trkpt><trkpt lat="43.9515912" lon="11.0312547"><ele>192.0</ele><time>2026-04-18T09:17:05.385Z</time></trkpt><trkpt lat="43.9515283" lon="11.0312791"><ele>192.0</ele><time>2026-04-18T09:17:06.381Z</time></trkpt><trkpt lat="43.9514621" lon="11.0313012"><ele>190.33333333333334</ele><time>2026-04-18T09:17:09.376Z</time></trkpt><trkpt lat="43.9513876" lon="11.0312654"><ele>188.66666666666666</ele><time>2026-04-18T09:17:23.397Z</time></trkpt><trkpt lat="43.9512683" lon="11.0312926"><ele>187.0</ele><time>2026-04-18T09:17:25.38Z</time></trkpt><trkpt lat="43.9512048" lon="11.0313141"><ele>185.33333333333331</ele><time>2026-04-18T09:17:26.379Z</time></trkpt><trkpt lat="43.9511384" lon="11.0313457"><ele>183.66666666666666</ele><time>2026-04-18T09:17:27.384Z</time></trkpt><trkpt lat="43.951067" lon="11.0313851"><ele>182.0</ele><time>2026-04-18T09:17:28.383Z</time></trkpt><trkpt lat="43.950988" lon="11.031432"><ele>182.0</ele><time>2026-04-18T09:17:29.383Z</time></trkpt><trkpt lat="43.9509057" lon="11.0314857"><ele>182.0</ele><time>2026-04-18T09:17:30.404Z</time></trkpt><trkpt lat="43.9508166" lon="11.0315514"><ele>182.0</ele><time>2026-04-18T09:17:31.392Z</time></trkpt><trkpt lat="43.9507293" lon="11.0316274"><ele>182.0</ele><time>2026-04-18T09:17:32.385Z</time></trkpt><trkpt lat="43.950637" lon="11.0317127"><ele>182.0</ele><time>2026-04-18T09:17:33.377Z</time></trkpt><trkpt lat="43.9505474" lon="11.0317923"><ele>177.8</ele><time>2026-04-18T09:17:34.382Z</time></trkpt><trkpt lat="43.9504566" lon="11.0318512"><ele>173.6</ele><time>2026-04-18T09:17:35.376Z</time></trkpt><trkpt lat="43.9503606" lon="11.0318928"><ele>169.4</ele><time>2026-04-18T09:17:36.384Z</time></trkpt><trkpt lat="43.9502602" lon="11.0319243"><ele>165.20000000000002</ele><time>2026-04-18T09:17:37.377Z</time></trkpt><trkpt lat="43.9501532" lon="11.0319663"><ele>161.0</ele><time>2026-04-18T09:17:38.381Z</time></trkpt><trkpt lat="43.9500411" lon="11.0320161"><ele>160.0</ele><time>2026-04-18T09:17:39.387Z</time></trkpt><trkpt lat="43.9499247" lon="11.0320682"><ele>159.0</ele><time>2026-04-18T09:17:40.382Z</time></trkpt><trkpt lat="43.9498122" lon="11.032122"><ele>158.0</ele><time>2026-04-18T09:17:41.391Z</time></trkpt><trkpt lat="43.9497085" lon="11.0321629"><ele>157.0</ele><time>2026-04-18T09:17:42.373Z</time></trkpt><trkpt lat="43.9496109" lon="11.0321808"><ele>156.0</ele><time>2026-04-18T09:17:43.377Z</time></trkpt><trkpt lat="43.949522" lon="11.0321927"><ele>156.0</ele><time>2026-04-18T09:17:44.37Z</time></trkpt><trkpt lat="43.9494396" lon="11.0322216"><ele>156.0</ele><time>2026-04-18T09:17:45.396Z</time></trkpt><trkpt lat="43.9493625" lon="11.0322808"><ele>156.0</ele><time>2026-04-18T09:17:46.398Z</time></trkpt><trkpt lat="43.949297" lon="11.0323623"><ele>156.0</ele><time>2026-04-18T09:17:47.385Z</time></trkpt><trkpt lat="43.9492389" lon="11.0324794"><ele>156.0</ele><time>2026-04-18T09:17:48.386Z</time></trkpt><trkpt lat="43.9491841" lon="11.0326065"><ele>153.83333333333334</ele><time>2026-04-18T09:17:49.394Z</time></trkpt><trkpt lat="43.94913" lon="11.0327191"><ele>151.66666666666666</ele><time>2026-04-18T09:17:50.382Z</time></trkpt><trkpt lat="43.9490749" lon="11.0328141"><ele>149.5</ele><time>2026-04-18T09:17:51.397Z</time></trkpt><trkpt lat="43.9490202" lon="11.0328873"><ele>147.33333333333331</ele><time>2026-04-18T09:17:52.379Z</time></trkpt><trkpt lat="43.9489726" lon="11.0329447"><ele>145.16666666666666</ele><time>2026-04-18T09:17:53.4Z</time></trkpt><trkpt lat="43.9489774" lon="11.0330473"><ele>143.0</ele><time>2026-04-18T09:18:00.394Z</time></trkpt><trkpt lat="43.9490283" lon="11.0331227"><ele>143.0</ele><time>2026-04-18T09:18:02.392Z</time></trkpt><trkpt lat="43.949102" lon="11.0332561"><ele>143.0</ele><time>2026-04-18T09:18:04.384Z</time></trkpt><trkpt lat="43.9491454" lon="11.0333307"><ele>143.0</ele><time>2026-04-18T09:18:05.372Z</time></trkpt><trkpt lat="43.9491775" lon="11.0334094"><ele>143.0</ele><time>2026-04-18T09:18:06.376Z</time></trkpt><trkpt lat="43.9492084" lon="11.0334902"><ele>143.0</ele><time>2026-04-18T09:18:07.372Z</time></trkpt><trkpt lat="43.9492399" lon="11.0335671"><ele>143.0</ele><time>2026-04-18T09:18:08.367Z</time></trkpt><trkpt lat="43.9492921" lon="11.0337013"><ele>142.66666666666666</ele><time>2026-04-18T09:18:10.372Z</time></trkpt><trkpt lat="43.9493314" lon="11.0338084"><ele>142.33333333333331</ele><time>2026-04-18T09:18:12.37Z</time></trkpt><trkpt lat="43.9493643" lon="11.0338858"><ele>142.0</ele><time>2026-04-18T09:18:14.379Z</time></trkpt><trkpt lat="43.9494259" lon="11.0339298"><ele>141.66666666666666</ele><time>2026-04-18T09:18:17.385Z</time></trkpt><trkpt lat="43.949476" lon="11.0340733"><ele>141.33333333333334</ele><time>2026-04-18T09:18:54.385Z</time></trkpt><trkpt lat="43.9495009" lon="11.0341632"><ele>141.0</ele><time>2026-04-18T09:18:55.367Z</time></trkpt><trkpt lat="43.9495255" lon="11.0342612"><ele>140.66666666666666</ele><time>2026-04-18T09:18:56.381Z</time></trkpt><trkpt lat="43.9495484" lon="11.034356"><ele>140.33333333333334</ele><time>2026-04-18T09:18:57.374Z</time></trkpt><trkpt lat="43.9495725" lon="11.0344449"><ele>140.0</ele><time>2026-04-18T09:18:58.37Z</time></trkpt><trkpt lat="43.9496231" lon="11.0345693"><ele>139.66666666666669</ele><time>2026-04-18T09:19:00.37Z</time></trkpt><trkpt lat="43.9495411" lon="11.0345956"><ele>139.33333333333334</ele><time>2026-04-18T09:19:04.382Z</time></trkpt><trkpt lat="43.9494643" lon="11.034565"><ele>139.0</ele><time>2026-04-18T09:19:05.371Z</time></trkpt><trkpt lat="43.9493782" lon="11.0345301"><ele>139.0</ele><time>2026-04-18T09:19:06.369Z</time></trkpt><trkpt lat="43.9492824" lon="11.0344933"><ele>139.0</ele><time>2026-04-18T09:19:07.371Z</time></trkpt><trkpt lat="43.9491843" lon="11.0344615"><ele>139.0</ele><time>2026-04-18T09:19:08.368Z</time></trkpt><trkpt lat="43.9490825" lon="11.0344292"><ele>139.0</ele><time>2026-04-18T09:19:09.374Z</time></trkpt><trkpt lat="43.9489864" lon="11.0343964"><ele>139.0</ele><time>2026-04-18T09:19:10.371Z</time></trkpt><trkpt lat="43.9488943" lon="11.0343569"><ele>138.2</ele><time>2026-04-18T09:19:11.368Z</time></trkpt><trkpt lat="43.9487999" lon="11.0343145"><ele>137.4</ele><time>2026-04-18T09:19:12.377Z</time></trkpt><trkpt lat="43.9487031" lon="11.0342795"><ele>136.6</ele><time>2026-04-18T09:19:13.377Z</time></trkpt><trkpt lat="43.9486082" lon="11.0342458"><ele>135.8</ele><time>2026-04-18T09:19:14.368Z</time></trkpt><trkpt lat="43.9485175" lon="11.0342081"><ele>135.0</ele><time>2026-04-18T09:19:15.382Z</time></trkpt><trkpt lat="43.948423" lon="11.0341752"><ele>134.4</ele><time>2026-04-18T09:19:16.38Z</time></trkpt><trkpt lat="43.9483331" lon="11.0341506"><ele>133.8</ele><time>2026-04-18T09:19:17.378Z</time></trkpt><trkpt lat="43.9482429" lon="11.0341189"><ele>133.2</ele><time>2026-04-18T09:19:18.379Z</time></trkpt><trkpt lat="43.9481478" lon="11.0340866"><ele>132.6</ele><time>2026-04-18T09:19:19.375Z</time></trkpt><trkpt lat="43.9480547" lon="11.0340556"><ele>132.0</ele><time>2026-04-18T09:19:20.383Z</time></trkpt><trkpt lat="43.947958" lon="11.0340236"><ele>132.0</ele><time>2026-04-18T09:19:21.374Z</time></trkpt><trkpt lat="43.9478592" lon="11.0339888"><ele>132.0</ele><time>2026-04-18T09:19:22.378Z</time></trkpt><trkpt lat="43.9477489" lon="11.0339542"><ele>132.0</ele><time>2026-04-18T09:19:23.383Z</time></trkpt><trkpt lat="43.9476435" lon="11.0339166"><ele>132.0</ele><time>2026-04-18T09:19:24.373Z</time></trkpt><trkpt lat="43.9475419" lon="11.0338799"><ele>132.0</ele><time>2026-04-18T09:19:25.381Z</time></trkpt><trkpt lat="43.9474451" lon="11.0338453"><ele>130.79999999999998</ele><time>2026-04-18T09:19:26.37Z</time></trkpt><trkpt lat="43.9473436" lon="11.0338085"><ele>129.6</ele><time>2026-04-18T09:19:27.373Z</time></trkpt><trkpt lat="43.9472361" lon="11.0337751"><ele>128.39999999999998</ele><time>2026-04-18T09:19:28.37Z</time></trkpt><trkpt lat="43.947127" lon="11.0337494"><ele>127.19999999999999</ele><time>2026-04-18T09:19:29.374Z</time></trkpt><trkpt lat="43.9470217" lon="11.033712"><ele>126.0</ele><time>2026-04-18T09:19:30.37Z</time></trkpt><trkpt lat="43.9469184" lon="11.033663"><ele>126.0</ele><time>2026-04-18T09:19:31.371Z</time></trkpt><trkpt lat="43.9468227" lon="11.0335933"><ele>126.0</ele><time>2026-04-18T09:19:32.371Z</time></trkpt><trkpt lat="43.9467358" lon="11.0335171"><ele>126.0</ele><time>2026-04-18T09:19:33.372Z</time></trkpt><trkpt lat="43.9466545" lon="11.0334389"><ele>126.0</ele><time>2026-04-18T09:19:34.378Z</time></trkpt><trkpt lat="43.9465819" lon="11.0333651"><ele>126.0</ele><time>2026-04-18T09:19:35.367Z</time></trkpt><trkpt lat="43.9465174" lon="11.0332972"><ele>125.66666666666667</ele><time>2026-04-18T09:19:36.368Z</time></trkpt><trkpt lat="43.946462" lon="11.0332399"><ele>125.33333333333334</ele><time>2026-04-18T09:19:37.37Z</time></trkpt><trkpt lat="43.9464023" lon="11.0331919"><ele>125.0</ele><time>2026-04-18T09:19:38.372Z</time></trkpt><trkpt lat="43.9462947" lon="11.0331471"><ele>124.66666666666667</ele><time>2026-04-18T09:19:40.372Z</time></trkpt><trkpt lat="43.9462435" lon="11.0332146"><ele>124.33333333333334</ele><time>2026-04-18T09:19:42.383Z</time></trkpt><trkpt lat="43.9461951" lon="11.0333496"><ele>124.0</ele><time>2026-04-18T09:19:44.368Z</time></trkpt><trkpt lat="43.9461292" lon="11.0334853"><ele>123.80000000000001</ele><time>2026-04-18T09:19:46.366Z</time></trkpt><trkpt lat="43.9460571" lon="11.0335289"><ele>123.60000000000001</ele><time>2026-04-18T09:19:48.371Z</time></trkpt><trkpt lat="43.9459765" lon="11.0334589"><ele>123.4</ele><time>2026-04-18T09:19:50.372Z</time></trkpt><trkpt lat="43.9459" lon="11.0333651"><ele>123.2</ele><time>2026-04-18T09:19:52.374Z</time></trkpt><trkpt lat="43.9457959" lon="11.0332635"><ele>123.0</ele><time>2026-04-18T09:19:54.369Z</time></trkpt><trkpt lat="43.94574" lon="11.0332084"><ele>122.42857142857144</ele><time>2026-04-18T09:19:55.365Z</time></trkpt><trkpt lat="43.9456818" lon="11.0331584"><ele>121.85714285714286</ele><time>2026-04-18T09:19:56.362Z</time></trkpt><trkpt lat="43.9456204" lon="11.0331141"><ele>121.28571428571429</ele><time>2026-04-18T09:19:57.363Z</time></trkpt><trkpt lat="43.9455432" lon="11.0330834"><ele>120.71428571428572</ele><time>2026-04-18T09:19:58.363Z</time></trkpt><trkpt lat="43.9454651" lon="11.0330694"><ele>120.14285714285714</ele><time>2026-04-18T09:19:59.368Z</time></trkpt><trkpt lat="43.9453925" lon="11.0330694"><ele>119.57142857142857</ele><time>2026-04-18T09:20:00.364Z</time></trkpt><trkpt lat="43.9453274" lon="11.0330647"><ele>119.0</ele><time>2026-04-18T09:20:01.364Z</time></trkpt><trkpt lat="43.9452313" lon="11.0330372"><ele>118.99999999999999</ele><time>2026-04-18T09:20:03.365Z</time></trkpt><trkpt lat="43.9451404" lon="11.0330617"><ele>119.0</ele><time>2026-04-18T09:20:05.37Z</time></trkpt><trkpt lat="43.9450711" lon="11.0331966"><ele>119.0</ele><time>2026-04-18T09:20:07.369Z</time></trkpt><trkpt lat="43.9450376" lon="11.0332926"><ele>119.0</ele><time>2026-04-18T09:20:08.361Z</time></trkpt><trkpt lat="43.9450076" lon="11.0333922"><ele>118.99999999999999</ele><time>2026-04-18T09:20:09.371Z</time></trkpt><trkpt lat="43.9449783" lon="11.0334929"><ele>119.0</ele><time>2026-04-18T09:20:10.359Z</time></trkpt><trkpt lat="43.9449516" lon="11.0335914"><ele>119.14285714285714</ele><time>2026-04-18T09:20:11.364Z</time></trkpt><trkpt lat="43.9449353" lon="11.0336834"><ele>119.28571428571428</ele><time>2026-04-18T09:20:12.363Z</time></trkpt><trkpt lat="43.9449353" lon="11.0337731"><ele>119.42857142857143</ele><time>2026-04-18T09:20:13.357Z</time></trkpt><trkpt lat="43.9449567" lon="11.0338575"><ele>119.57142857142857</ele><time>2026-04-18T09:20:14.368Z</time></trkpt><trkpt lat="43.9450017" lon="11.0339354"><ele>119.71428571428571</ele><time>2026-04-18T09:20:15.359Z</time></trkpt><trkpt lat="43.9450606" lon="11.0340201"><ele>119.85714285714286</ele><time>2026-04-18T09:20:16.359Z</time></trkpt><trkpt lat="43.9451278" lon="11.0341007"><ele>120.0</ele><time>2026-04-18T09:20:17.361Z</time></trkpt><trkpt lat="43.9451983" lon="11.034167"><ele>121.0</ele><time>2026-04-18T09:20:18.356Z</time></trkpt><trkpt lat="43.9452634" lon="11.0342216"><ele>122.0</ele><time>2026-04-18T09:20:19.36Z</time></trkpt><trkpt lat="43.9453204" lon="11.034269"><ele>123.0</ele><time>2026-04-18T09:20:20.359Z</time></trkpt><trkpt lat="43.9453744" lon="11.0343202"><ele>124.0</ele><time>2026-04-18T09:20:21.364Z</time></trkpt><trkpt lat="43.9454518" lon="11.0344312"><ele>125.0</ele><time>2026-04-18T09:20:23.362Z</time></trkpt><trkpt lat="43.9455116" lon="11.0345853"><ele>126.0</ele><time>2026-04-18T09:20:25.365Z</time></trkpt><trkpt lat="43.9455461" lon="11.0346612"><ele>126.0</ele><time>2026-04-18T09:20:26.358Z</time></trkpt><trkpt lat="43.9456195" lon="11.0347646"><ele>126.0</ele><time>2026-04-18T09:20:28.362Z</time></trkpt><trkpt lat="43.9456913" lon="11.0347853"><ele>126.0</ele><time>2026-04-18T09:20:30.371Z</time></trkpt><trkpt lat="43.9456097" lon="11.0348222"><ele>126.0</ele><time>2026-04-18T09:20:38.37Z</time></trkpt><trkpt lat="43.9456447" lon="11.0349145"><ele>126.0</ele><time>2026-04-18T09:20:42.379Z</time></trkpt><trkpt lat="43.9457555" lon="11.0349486"><ele>127.0</ele><time>2026-04-18T09:20:44.365Z</time></trkpt><trkpt lat="43.9458463" lon="11.0350009"><ele>128.0</ele><time>2026-04-18T09:20:46.37Z</time></trkpt><trkpt lat="43.945906" lon="11.0350772"><ele>129.0</ele><time>2026-04-18T09:20:48.366Z</time></trkpt><trkpt lat="43.9459718" lon="11.0351958"><ele>130.0</ele><time>2026-04-18T09:20:50.381Z</time></trkpt><trkpt lat="43.9460073" lon="11.0352688"><ele>131.0</ele><time>2026-04-18T09:20:51.369Z</time></trkpt><trkpt lat="43.946049" lon="11.0353515"><ele>132.0</ele><time>2026-04-18T09:20:52.372Z</time></trkpt><trkpt lat="43.9460992" lon="11.0354478"><ele>132.0</ele><time>2026-04-18T09:20:53.37Z</time></trkpt><trkpt lat="43.9461574" lon="11.0355568"><ele>132.0</ele><time>2026-04-18T09:20:54.37Z</time></trkpt><trkpt lat="43.9462205" lon="11.0356561"><ele>132.0</ele><time>2026-04-18T09:20:55.372Z</time></trkpt><trkpt lat="43.946282" lon="11.0357511"><ele>132.0</ele><time>2026-04-18T09:20:56.363Z</time></trkpt><trkpt lat="43.9463401" lon="11.0358508"><ele>132.0</ele><time>2026-04-18T09:20:57.373Z</time></trkpt><trkpt lat="43.9463904" lon="11.0359587"><ele>135.0</ele><time>2026-04-18T09:20:58.365Z</time></trkpt><trkpt lat="43.9464371" lon="11.0360709"><ele>138.0</ele><time>2026-04-18T09:20:59.373Z</time></trkpt><trkpt lat="43.946486" lon="11.036187"><ele>141.0</ele><time>2026-04-18T09:21:00.368Z</time></trkpt><trkpt lat="43.946539" lon="11.0363019"><ele>144.0</ele><time>2026-04-18T09:21:01.368Z</time></trkpt><trkpt lat="43.9465991" lon="11.0364102"><ele>147.0</ele><time>2026-04-18T09:21:02.37Z</time></trkpt><trkpt lat="43.9466628" lon="11.0365153"><ele>148.79999999999998</ele><time>2026-04-18T09:21:03.368Z</time></trkpt><trkpt lat="43.9467269" lon="11.036617"><ele>150.6</ele><time>2026-04-18T09:21:04.373Z</time></trkpt><trkpt lat="43.9467979" lon="11.0367173"><ele>152.39999999999998</ele><time>2026-04-18T09:21:05.37Z</time></trkpt><trkpt lat="43.9468744" lon="11.0368124"><ele>154.2</ele><time>2026-04-18T09:21:06.368Z</time></trkpt><trkpt lat="43.946952" lon="11.0368985"><ele>156.0</ele><time>2026-04-18T09:21:07.361Z</time></trkpt><trkpt lat="43.9470301" lon="11.0369781"><ele>156.0</ele><time>2026-04-18T09:21:08.367Z</time></trkpt><trkpt lat="43.9471176" lon="11.0370552"><ele>156.0</ele><time>2026-04-18T09:21:09.367Z</time></trkpt><trkpt lat="43.9472102" lon="11.0371252"><ele>156.0</ele><time>2026-04-18T09:21:10.365Z</time></trkpt><trkpt lat="43.9472942" lon="11.0371912"><ele>156.0</ele><time>2026-04-18T09:21:11.37Z</time></trkpt><trkpt lat="43.9473734" lon="11.037259"><ele>156.0</ele><time>2026-04-18T09:21:12.362Z</time></trkpt><trkpt lat="43.9474488" lon="11.0373232"><ele>156.0</ele><time>2026-04-18T09:21:13.359Z</time></trkpt><trkpt lat="43.9474993" lon="11.0373854"><ele>156.0</ele><time>2026-04-18T09:21:14.353Z</time></trkpt><trkpt lat="43.947538" lon="11.0375425"><ele>156.0</ele><time>2026-04-18T09:21:16.371Z</time></trkpt><trkpt lat="43.9475418" lon="11.0376474"><ele>156.0</ele><time>2026-04-18T09:21:17.364Z</time></trkpt><trkpt lat="43.9475541" lon="11.0377661"><ele>156.0</ele><time>2026-04-18T09:21:18.363Z</time></trkpt><trkpt lat="43.9475619" lon="11.0378912"><ele>156.0</ele><time>2026-04-18T09:21:19.365Z</time></trkpt><trkpt lat="43.9475659" lon="11.0380088"><ele>156.66666666666666</ele><time>2026-04-18T09:21:20.366Z</time></trkpt><trkpt lat="43.9475728" lon="11.038101"><ele>157.33333333333334</ele><time>2026-04-18T09:21:21.372Z</time></trkpt><trkpt lat="43.9476224" lon="11.0381836"><ele>158.0</ele><time>2026-04-18T09:21:23.367Z</time></trkpt><trkpt lat="43.9477406" lon="11.0381721"><ele>158.66666666666669</ele><time>2026-04-18T09:21:25.37Z</time></trkpt><trkpt lat="43.9478137" lon="11.038135"><ele>159.33333333333334</ele><time>2026-04-18T09:21:26.366Z</time></trkpt><trkpt lat="43.9478948" lon="11.0380938"><ele>160.0</ele><time>2026-04-18T09:21:27.366Z</time></trkpt><trkpt lat="43.9479867" lon="11.0380557"><ele>160.0</ele><time>2026-04-18T09:21:28.374Z</time></trkpt><trkpt lat="43.9480941" lon="11.0380402"><ele>160.0</ele><time>2026-04-18T09:21:29.377Z</time></trkpt><trkpt lat="43.9482053" lon="11.0380361"><ele>160.0</ele><time>2026-04-18T09:21:30.374Z</time></trkpt><trkpt lat="43.9483058" lon="11.0380412"><ele>160.0</ele><time>2026-04-18T09:21:31.373Z</time></trkpt><trkpt lat="43.9483914" lon="11.0380594"><ele>160.0</ele><time>2026-04-18T09:21:32.367Z</time></trkpt><trkpt lat="43.9484669" lon="11.0380919"><ele>157.8</ele><time>2026-04-18T09:21:33.366Z</time></trkpt><trkpt lat="43.9485291" lon="11.0381503"><ele>155.6</ele><time>2026-04-18T09:21:34.359Z</time></trkpt><trkpt lat="43.9485705" lon="11.0382472"><ele>153.4</ele><time>2026-04-18T09:21:35.368Z</time></trkpt><trkpt lat="43.9486004" lon="11.038383"><ele>151.2</ele><time>2026-04-18T09:21:36.357Z</time></trkpt><trkpt lat="43.9486325" lon="11.0385273"><ele>149.0</ele><time>2026-04-18T09:21:37.361Z</time></trkpt><trkpt lat="43.9486707" lon="11.0386786"><ele>152.66666666666666</ele><time>2026-04-18T09:21:38.372Z</time></trkpt><trkpt lat="43.9487039" lon="11.0388133"><ele>156.33333333333331</ele><time>2026-04-18T09:21:39.359Z</time></trkpt><trkpt lat="43.9487498" lon="11.038908"><ele>160.0</ele><time>2026-04-18T09:21:40.363Z</time></trkpt><trkpt lat="43.9487974" lon="11.038973"><ele>163.66666666666666</ele><time>2026-04-18T09:21:41.364Z</time></trkpt><trkpt lat="43.9489122" lon="11.0390174"><ele>167.33333333333334</ele><time>2026-04-18T09:21:43.356Z</time></trkpt><trkpt lat="43.9489849" lon="11.0390048"><ele>171.0</ele><time>2026-04-18T09:21:44.355Z</time></trkpt><trkpt lat="43.9490741" lon="11.0389771"><ele>171.0</ele><time>2026-04-18T09:21:45.351Z</time></trkpt><trkpt lat="43.9491744" lon="11.0389378"><ele>171.0</ele><time>2026-04-18T09:21:46.36Z</time></trkpt><trkpt lat="43.9492772" lon="11.0389185"><ele>171.0</ele><time>2026-04-18T09:21:47.36Z</time></trkpt><trkpt lat="43.9493961" lon="11.0389376"><ele>171.0</ele><time>2026-04-18T09:21:48.367Z</time></trkpt><trkpt lat="43.9495158" lon="11.0389775"><ele>169.5</ele><time>2026-04-18T09:21:49.368Z</time></trkpt><trkpt lat="43.9496375" lon="11.0390218"><ele>168.0</ele><time>2026-04-18T09:21:50.372Z</time></trkpt><trkpt lat="43.9497525" lon="11.0390769"><ele>166.5</ele><time>2026-04-18T09:21:51.371Z</time></trkpt><trkpt lat="43.9498584" lon="11.0391397"><ele>165.0</ele><time>2026-04-18T09:21:52.378Z</time></trkpt><trkpt lat="43.9499649" lon="11.0391981"><ele>168.0</ele><time>2026-04-18T09:21:53.378Z</time></trkpt><trkpt lat="43.9500699" lon="11.0392591"><ele>171.0</ele><time>2026-04-18T09:21:54.371Z</time></trkpt><trkpt lat="43.950172" lon="11.0393248"><ele>174.0</ele><time>2026-04-18T09:21:55.37Z</time></trkpt><trkpt lat="43.9502742" lon="11.0393996"><ele>177.0</ele><time>2026-04-18T09:21:56.362Z</time></trkpt><trkpt lat="43.9503776" lon="11.0394757"><ele>177.0</ele><time>2026-04-18T09:21:57.359Z</time></trkpt><trkpt lat="43.9504781" lon="11.039549"><ele>177.0</ele><time>2026-04-18T09:21:58.356Z</time></trkpt><trkpt lat="43.9505784" lon="11.0396169"><ele>177.0</ele><time>2026-04-18T09:21:59.354Z</time></trkpt><trkpt lat="43.9506803" lon="11.0396882"><ele>177.0</ele><time>2026-04-18T09:22:00.353Z</time></trkpt><trkpt lat="43.9507876" lon="11.0397663"><ele>177.5</ele><time>2026-04-18T09:22:01.354Z</time></trkpt><trkpt lat="43.9508947" lon="11.0398434"><ele>178.0</ele><time>2026-04-18T09:22:02.354Z</time></trkpt><trkpt lat="43.9510136" lon="11.0399089"><ele>178.5</ele><time>2026-04-18T09:22:03.351Z</time></trkpt><trkpt lat="43.9511285" lon="11.0399759"><ele>179.0</ele><time>2026-04-18T09:22:04.357Z</time></trkpt><trkpt lat="43.951228" lon="11.0400432"><ele>179.0</ele><time>2026-04-18T09:22:05.353Z</time></trkpt><trkpt lat="43.9513149" lon="11.0401126"><ele>179.0</ele><time>2026-04-18T09:22:06.351Z</time></trkpt><trkpt lat="43.951415" lon="11.0402205"><ele>179.0</ele><time>2026-04-18T09:22:07.352Z</time></trkpt><trkpt lat="43.9515069" lon="11.0403332"><ele>179.0</ele><time>2026-04-18T09:22:08.356Z</time></trkpt><trkpt lat="43.9515857" lon="11.0404451"><ele>179.0</ele><time>2026-04-18T09:22:09.377Z</time></trkpt><trkpt lat="43.951661" lon="11.0405598"><ele>179.0</ele><time>2026-04-18T09:22:10.367Z</time></trkpt><trkpt lat="43.9517319" lon="11.0406805"><ele>179.0</ele><time>2026-04-18T09:22:11.367Z</time></trkpt><trkpt lat="43.9517807" lon="11.0408069"><ele>179.0</ele><time>2026-04-18T09:22:12.377Z</time></trkpt><trkpt lat="43.9518287" lon="11.0409417"><ele>179.0</ele><time>2026-04-18T09:22:13.368Z</time></trkpt><trkpt lat="43.9518804" lon="11.041066"><ele>177.39999999999998</ele><time>2026-04-18T09:22:14.369Z</time></trkpt><trkpt lat="43.9519396" lon="11.0411838"><ele>175.8</ele><time>2026-04-18T09:22:15.364Z</time></trkpt><trkpt lat="43.9519994" lon="11.041294"><ele>174.2</ele><time>2026-04-18T09:22:16.37Z</time></trkpt><trkpt lat="43.9520527" lon="11.0414045"><ele>172.60000000000002</ele><time>2026-04-18T09:22:17.371Z</time></trkpt><trkpt lat="43.9521032" lon="11.0415071"><ele>171.0</ele><time>2026-04-18T09:22:18.373Z</time></trkpt><trkpt lat="43.9521372" lon="11.0416117"><ele>174.8</ele><time>2026-04-18T09:22:19.353Z</time></trkpt><trkpt lat="43.9521589" lon="11.0417237"><ele>178.60000000000002</ele><time>2026-04-18T09:22:20.37Z</time></trkpt><trkpt lat="43.9521637" lon="11.0418602"><ele>182.4</ele><time>2026-04-18T09:22:21.378Z</time></trkpt><trkpt lat="43.9521463" lon="11.0420187"><ele>186.2</ele><time>2026-04-18T09:22:22.388Z</time></trkpt><trkpt lat="43.9521132" lon="11.0421863"><ele>190.0</ele><time>2026-04-18T09:22:23.364Z</time></trkpt><trkpt lat="43.952066" lon="11.0423374"><ele>194.6</ele><time>2026-04-18T09:22:24.358Z</time></trkpt><trkpt lat="43.9520121" lon="11.0424726"><ele>199.2</ele><time>2026-04-18T09:22:25.352Z</time></trkpt><trkpt lat="43.9519677" lon="11.0425839"><ele>203.8</ele><time>2026-04-18T09:22:26.357Z</time></trkpt><trkpt lat="43.9519338" lon="11.0426827"><ele>208.4</ele><time>2026-04-18T09:22:27.352Z</time></trkpt><trkpt lat="43.9519535" lon="11.042771"><ele>213.0</ele><time>2026-04-18T09:22:29.365Z</time></trkpt><trkpt lat="43.9520799" lon="11.0427206"><ele>213.0</ele><time>2026-04-18T09:22:31.368Z</time></trkpt><trkpt lat="43.952169" lon="11.042668"><ele>213.0</ele><time>2026-04-18T09:22:32.35Z</time></trkpt><trkpt lat="43.9522716" lon="11.0425983"><ele>213.0</ele><time>2026-04-18T09:22:33.359Z</time></trkpt><trkpt lat="43.9523803" lon="11.0425358"><ele>213.0</ele><time>2026-04-18T09:22:34.356Z</time></trkpt><trkpt lat="43.9524995" lon="11.0424978"><ele>209.25</ele><time>2026-04-18T09:22:35.351Z</time></trkpt><trkpt lat="43.9526237" lon="11.0424857"><ele>205.5</ele><time>2026-04-18T09:22:36.362Z</time></trkpt><trkpt lat="43.9527647" lon="11.0424777"><ele>201.75</ele><time>2026-04-18T09:22:37.36Z</time></trkpt><trkpt lat="43.9528982" lon="11.0424955"><ele>198.0</ele><time>2026-04-18T09:22:38.359Z</time></trkpt><trkpt lat="43.9530283" lon="11.0425181"><ele>198.0</ele><time>2026-04-18T09:22:39.362Z</time></trkpt><trkpt lat="43.9531434" lon="11.0425723"><ele>198.0</ele><time>2026-04-18T09:22:40.362Z</time></trkpt><trkpt lat="43.9532533" lon="11.0426466"><ele>198.0</ele><time>2026-04-18T09:22:41.363Z</time></trkpt><trkpt lat="43.9533475" lon="11.0427488"><ele>198.0</ele><time>2026-04-18T09:22:42.375Z</time></trkpt><trkpt lat="43.9534332" lon="11.0428512"><ele>196.4</ele><time>2026-04-18T09:22:43.37Z</time></trkpt><trkpt lat="43.9534975" lon="11.0429479"><ele>194.8</ele><time>2026-04-18T09:22:44.363Z</time></trkpt><trkpt lat="43.9535485" lon="11.0430389"><ele>193.2</ele><time>2026-04-18T09:22:45.367Z</time></trkpt><trkpt lat="43.9535669" lon="11.0432036"><ele>191.6</ele><time>2026-04-18T09:22:47.38Z</time></trkpt><trkpt lat="43.953551" lon="11.0433129"><ele>190.0</ele><time>2026-04-18T09:22:48.371Z</time></trkpt><trkpt lat="43.9535403" lon="11.0434404"><ele>190.0</ele><time>2026-04-18T09:22:49.366Z</time></trkpt><trkpt lat="43.9535109" lon="11.0436034"><ele>190.0</ele><time>2026-04-18T09:22:50.363Z</time></trkpt><trkpt lat="43.9534683" lon="11.0437664"><ele>190.0</ele><time>2026-04-18T09:22:51.369Z</time></trkpt><trkpt lat="43.9534224" lon="11.0439273"><ele>190.0</ele><time>2026-04-18T09:22:52.366Z</time></trkpt><trkpt lat="43.9533806" lon="11.0440661"><ele>190.0</ele><time>2026-04-18T09:22:53.364Z</time></trkpt><trkpt lat="43.9533565" lon="11.0441629"><ele>190.0</ele><time>2026-04-18T09:22:54.362Z</time></trkpt><trkpt lat="43.9533305" lon="11.0442599"><ele>190.0</ele><time>2026-04-18T09:22:56.358Z</time></trkpt><trkpt lat="43.9534237" lon="11.0442007"><ele>190.0</ele><time>2026-04-18T09:22:58.372Z</time></trkpt><trkpt lat="43.9535129" lon="11.0440985"><ele>190.0</ele><time>2026-04-18T09:22:59.36Z</time></trkpt><trkpt lat="43.9536099" lon="11.0439972"><ele>190.0</ele><time>2026-04-18T09:23:00.356Z</time></trkpt><trkpt lat="43.9536961" lon="11.0439464"><ele>190.0</ele><time>2026-04-18T09:23:01.352Z</time></trkpt><trkpt lat="43.9537943" lon="11.0439249"><ele>190.0</ele><time>2026-04-18T09:23:02.356Z</time></trkpt><trkpt lat="43.9538868" lon="11.0439224"><ele>190.0</ele><time>2026-04-18T09:23:03.367Z</time></trkpt><trkpt lat="43.9539857" lon="11.0439738"><ele>190.0</ele><time>2026-04-18T09:23:04.366Z</time></trkpt><trkpt lat="43.9540763" lon="11.0440282"><ele>190.0</ele><time>2026-04-18T09:23:05.377Z</time></trkpt><trkpt lat="43.9541581" lon="11.0440945"><ele>190.0</ele><time>2026-04-18T09:23:06.365Z</time></trkpt><trkpt lat="43.9542605" lon="11.044157"><ele>190.0</ele><time>2026-04-18T09:23:07.385Z</time></trkpt><trkpt lat="43.9543637" lon="11.0442267"><ele>190.0</ele><time>2026-04-18T09:23:08.378Z</time></trkpt><trkpt lat="43.954484" lon="11.044307"><ele>191.5</ele><time>2026-04-18T09:23:09.369Z</time></trkpt><trkpt lat="43.9546024" lon="11.0443836"><ele>193.0</ele><time>2026-04-18T09:23:10.371Z</time></trkpt><trkpt lat="43.9547116" lon="11.0444442"><ele>194.5</ele><time>2026-04-18T09:23:11.372Z</time></trkpt><trkpt lat="43.9548156" lon="11.044501"><ele>196.0</ele><time>2026-04-18T09:23:12.366Z</time></trkpt><trkpt lat="43.9549033" lon="11.0445561"><ele>195.99999999999997</ele><time>2026-04-18T09:23:13.356Z</time></trkpt><trkpt lat="43.9549845" lon="11.0446179"><ele>196.0</ele><time>2026-04-18T09:23:14.362Z</time></trkpt><trkpt lat="43.9550463" lon="11.0446826"><ele>196.0</ele><time>2026-04-18T09:23:15.371Z</time></trkpt><trkpt lat="43.9550909" lon="11.0447589"><ele>196.0</ele><time>2026-04-18T09:23:16.364Z</time></trkpt><trkpt lat="43.9551374" lon="11.0448501"><ele>195.99999999999997</ele><time>2026-04-18T09:23:17.383Z</time></trkpt><trkpt lat="43.9551735" lon="11.0449383"><ele>196.0</ele><time>2026-04-18T09:23:18.386Z</time></trkpt><trkpt lat="43.955221" lon="11.0450199"><ele>196.49999999999997</ele><time>2026-04-18T09:23:19.371Z</time></trkpt><trkpt lat="43.9552881" lon="11.0451019"><ele>197.0</ele><time>2026-04-18T09:23:20.367Z</time></trkpt><trkpt lat="43.9553607" lon="11.0451829"><ele>197.5</ele><time>2026-04-18T09:23:21.367Z</time></trkpt><trkpt lat="43.9554222" lon="11.045271"><ele>198.0</ele><time>2026-04-18T09:23:22.366Z</time></trkpt><trkpt lat="43.9554715" lon="11.0453536"><ele>198.49999999999997</ele><time>2026-04-18T09:23:23.366Z</time></trkpt><trkpt lat="43.9555157" lon="11.0454494"><ele>199.0</ele><time>2026-04-18T09:23:24.364Z</time></trkpt><trkpt lat="43.9555441" lon="11.0455678"><ele>199.0</ele><time>2026-04-18T09:23:25.37Z</time></trkpt><trkpt lat="43.9555925" lon="11.045696"><ele>199.0</ele><time>2026-04-18T09:23:26.376Z</time></trkpt><trkpt lat="43.9556374" lon="11.0458349"><ele>199.0</ele><time>2026-04-18T09:23:27.381Z</time></trkpt><trkpt lat="43.9556735" lon="11.0459873"><ele>199.0</ele><time>2026-04-18T09:23:28.378Z</time></trkpt><trkpt lat="43.9557013" lon="11.0461282"><ele>199.0</ele><time>2026-04-18T09:23:29.388Z</time></trkpt><trkpt lat="43.9557544" lon="11.0462457"><ele>200.2</ele><time>2026-04-18T09:23:30.377Z</time></trkpt><trkpt lat="43.9558044" lon="11.0463508"><ele>201.39999999999998</ele><time>2026-04-18T09:23:31.364Z</time></trkpt><trkpt lat="43.9558755" lon="11.0464426"><ele>202.6</ele><time>2026-04-18T09:23:32.366Z</time></trkpt><trkpt lat="43.9559563" lon="11.0465361"><ele>203.8</ele><time>2026-04-18T09:23:33.364Z</time></trkpt><trkpt lat="43.9560425" lon="11.0466321"><ele>205.0</ele><time>2026-04-18T09:23:34.358Z</time></trkpt><trkpt lat="43.9561357" lon="11.0467167"><ele>212.0</ele><time>2026-04-18T09:23:35.351Z</time></trkpt><trkpt lat="43.9562312" lon="11.0467853"><ele>219.0</ele><time>2026-04-18T09:23:36.36Z</time></trkpt><trkpt lat="43.9563457" lon="11.0468238"><ele>226.0</ele><time>2026-04-18T09:23:37.359Z</time></trkpt><trkpt lat="43.9564682" lon="11.0468569"><ele>233.0</ele><time>2026-04-18T09:23:38.362Z</time></trkpt><trkpt lat="43.9565894" lon="11.0468814"><ele>233.0</ele><time>2026-04-18T09:23:39.352Z</time></trkpt><trkpt lat="43.956695" lon="11.0469114"><ele>233.0</ele><time>2026-04-18T09:23:40.351Z</time></trkpt><trkpt lat="43.9567798" lon="11.0469833"><ele>233.0</ele><time>2026-04-18T09:23:41.366Z</time></trkpt><trkpt lat="43.9568755" lon="11.0470521"><ele>233.0</ele><time>2026-04-18T09:23:42.378Z</time></trkpt><trkpt lat="43.9569739" lon="11.0471145"><ele>233.0</ele><time>2026-04-18T09:23:43.374Z</time></trkpt><trkpt lat="43.9570637" lon="11.0471774"><ele>231.2</ele><time>2026-04-18T09:23:44.381Z</time></trkpt><trkpt lat="43.9571466" lon="11.0472375"><ele>229.4</ele><time>2026-04-18T09:23:45.369Z</time></trkpt><trkpt lat="43.957219" lon="11.0473061"><ele>227.59999999999997</ele><time>2026-04-18T09:23:46.362Z</time></trkpt><trkpt lat="43.9572776" lon="11.047385"><ele>225.79999999999998</ele><time>2026-04-18T09:23:47.369Z</time></trkpt><trkpt lat="43.9573344" lon="11.0474823"><ele>224.0</ele><time>2026-04-18T09:23:48.368Z</time></trkpt><trkpt lat="43.9573849" lon="11.0476198"><ele>227.6</ele><time>2026-04-18T09:23:49.373Z</time></trkpt><trkpt lat="43.9574203" lon="11.0477844"><ele>231.2</ele><time>2026-04-18T09:23:50.383Z</time></trkpt><trkpt lat="43.9574449" lon="11.0479516"><ele>234.79999999999998</ele><time>2026-04-18T09:23:51.375Z</time></trkpt><trkpt lat="43.9574598" lon="11.0481019"><ele>238.39999999999998</ele><time>2026-04-18T09:23:52.372Z</time></trkpt><trkpt lat="43.9574778" lon="11.0482192"><ele>242.0</ele><time>2026-04-18T09:23:53.381Z</time></trkpt><trkpt lat="43.9575166" lon="11.0483141"><ele>245.6</ele><time>2026-04-18T09:23:54.362Z</time></trkpt><trkpt lat="43.9575675" lon="11.0483932"><ele>249.2</ele><time>2026-04-18T09:23:55.371Z</time></trkpt><trkpt lat="43.9576348" lon="11.0484606"><ele>252.8</ele><time>2026-04-18T09:23:56.367Z</time></trkpt><trkpt lat="43.9577101" lon="11.0485221"><ele>256.4</ele><time>2026-04-18T09:23:57.374Z</time></trkpt><trkpt lat="43.9578115" lon="11.0485561"><ele>260.0</ele><time>2026-04-18T09:23:58.373Z</time></trkpt><trkpt lat="43.9579229" lon="11.0485856"><ele>260.0</ele><time>2026-04-18T09:23:59.367Z</time></trkpt><trkpt lat="43.9580364" lon="11.048609"><ele>260.0</ele><time>2026-04-18T09:24:00.366Z</time></trkpt><trkpt lat="43.9581527" lon="11.048625"><ele>260.0</ele><time>2026-04-18T09:24:01.373Z</time></trkpt><trkpt lat="43.958265" lon="11.0486496"><ele>260.0</ele><time>2026-04-18T09:24:02.361Z</time></trkpt><trkpt lat="43.9583778" lon="11.0486785"><ele>258.83333333333337</ele><time>2026-04-18T09:24:03.366Z</time></trkpt><trkpt lat="43.958479" lon="11.0487162"><ele>257.6666666666667</ele><time>2026-04-18T09:24:04.375Z</time></trkpt><trkpt lat="43.958555" lon="11.0487652"><ele>256.5</ele><time>2026-04-18T09:24:05.374Z</time></trkpt><trkpt lat="43.958616" lon="11.048831"><ele>255.33333333333331</ele><time>2026-04-18T09:24:06.382Z</time></trkpt><trkpt lat="43.9586641" lon="11.0489117"><ele>254.16666666666666</ele><time>2026-04-18T09:24:07.391Z</time></trkpt><trkpt lat="43.9587062" lon="11.049013"><ele>253.0</ele><time>2026-04-18T09:24:08.383Z</time></trkpt><trkpt lat="43.9587182" lon="11.049142"><ele>253.0</ele><time>2026-04-18T09:24:09.384Z</time></trkpt><trkpt lat="43.9587098" lon="11.049283"><ele>253.0</ele><time>2026-04-18T09:24:10.38Z</time></trkpt><trkpt lat="43.9586753" lon="11.0494146"><ele>253.0</ele><time>2026-04-18T09:24:11.368Z</time></trkpt><trkpt lat="43.9586312" lon="11.0495186"><ele>253.0</ele><time>2026-04-18T09:24:12.361Z</time></trkpt><trkpt lat="43.9585708" lon="11.0495822"><ele>253.0</ele><time>2026-04-18T09:24:13.359Z</time></trkpt><trkpt lat="43.9584631" lon="11.0495188"><ele>253.0</ele><time>2026-04-18T09:24:15.371Z</time></trkpt><trkpt lat="43.9584198" lon="11.0494378"><ele>253.0</ele><time>2026-04-18T09:24:16.372Z</time></trkpt><trkpt lat="43.9583583" lon="11.0493501"><ele>253.0</ele><time>2026-04-18T09:24:17.363Z</time></trkpt><trkpt lat="43.9582753" lon="11.0492544"><ele>253.0</ele><time>2026-04-18T09:24:18.359Z</time></trkpt><trkpt lat="43.9581745" lon="11.0491678"><ele>253.0</ele><time>2026-04-18T09:24:19.362Z</time></trkpt><trkpt lat="43.9580674" lon="11.0490917"><ele>254.75</ele><time>2026-04-18T09:24:20.354Z</time></trkpt><trkpt lat="43.9579586" lon="11.0490391"><ele>256.5</ele><time>2026-04-18T09:24:21.361Z</time></trkpt><trkpt lat="43.9578425" lon="11.0489959"><ele>258.25</ele><time>2026-04-18T09:24:22.364Z</time></trkpt><trkpt lat="43.9577182" lon="11.0489773"><ele>260.0</ele><time>2026-04-18T09:24:23.354Z</time></trkpt><trkpt lat="43.9575917" lon="11.048979"><ele>260.0</ele><time>2026-04-18T09:24:24.355Z</time></trkpt><trkpt lat="43.9574545" lon="11.0489914"><ele>260.0</ele><time>2026-04-18T09:24:25.353Z</time></trkpt><trkpt lat="43.9573279" lon="11.0489835"><ele>260.0</ele><time>2026-04-18T09:24:26.349Z</time></trkpt><trkpt lat="43.9572136" lon="11.0489481"><ele>260.0</ele><time>2026-04-18T09:24:27.35Z</time></trkpt><trkpt lat="43.9571177" lon="11.0489"><ele>260.0</ele><time>2026-04-18T09:24:28.349Z</time></trkpt><trkpt lat="43.9570344" lon="11.0488292"><ele>260.0</ele><time>2026-04-18T09:24:29.352Z</time></trkpt><trkpt lat="43.9569473" lon="11.0487384"><ele>260.0</ele><time>2026-04-18T09:24:30.356Z</time></trkpt><trkpt lat="43.9568555" lon="11.0486333"><ele>260.0</ele><time>2026-04-18T09:24:31.35Z</time></trkpt><trkpt lat="43.9567575" lon="11.0485173"><ele>259.75</ele><time>2026-04-18T09:24:32.357Z</time></trkpt><trkpt lat="43.9566533" lon="11.0484029"><ele>259.5</ele><time>2026-04-18T09:24:33.365Z</time></trkpt><trkpt lat="43.9565516" lon="11.0482884"><ele>259.25</ele><time>2026-04-18T09:24:34.363Z</time></trkpt><trkpt lat="43.9564702" lon="11.0481779"><ele>259.0</ele><time>2026-04-18T09:24:35.362Z</time></trkpt><trkpt lat="43.9563842" lon="11.0480952"><ele>259.0</ele><time>2026-04-18T09:24:36.37Z</time></trkpt><trkpt lat="43.9562991" lon="11.0480242"><ele>259.0</ele><time>2026-04-18T09:24:37.36Z</time></trkpt><trkpt lat="43.9562034" lon="11.0479579"><ele>259.0</ele><time>2026-04-18T09:24:38.353Z</time></trkpt><trkpt lat="43.9561044" lon="11.0479053"><ele>259.0</ele><time>2026-04-18T09:24:39.363Z</time></trkpt><trkpt lat="43.9560179" lon="11.0478667"><ele>259.0</ele><time>2026-04-18T09:24:40.376Z</time></trkpt><trkpt lat="43.9559261" lon="11.0478556"><ele>262.0</ele><time>2026-04-18T09:24:41.378Z</time></trkpt><trkpt lat="43.9558292" lon="11.0478779"><ele>265.0</ele><time>2026-04-18T09:24:42.356Z</time></trkpt><trkpt lat="43.955716" lon="11.047892"><ele>268.0</ele><time>2026-04-18T09:24:43.355Z</time></trkpt><trkpt lat="43.955611" lon="11.0478756"><ele>271.0</ele><time>2026-04-18T09:24:44.356Z</time></trkpt><trkpt lat="43.955505" lon="11.047843"><ele>274.0</ele><time>2026-04-18T09:24:45.346Z</time></trkpt><trkpt lat="43.9553949" lon="11.0477999"><ele>274.0</ele><time>2026-04-18T09:24:46.348Z</time></trkpt><trkpt lat="43.9552736" lon="11.047736"><ele>274.0</ele><time>2026-04-18T09:24:47.343Z</time></trkpt><trkpt lat="43.9551522" lon="11.0476706"><ele>274.0</ele><time>2026-04-18T09:24:48.342Z</time></trkpt><trkpt lat="43.955035" lon="11.0476003"><ele>274.0</ele><time>2026-04-18T09:24:49.347Z</time></trkpt><trkpt lat="43.9549326" lon="11.047545"><ele>276.16666666666663</ele><time>2026-04-18T09:24:50.347Z</time></trkpt><trkpt lat="43.9548465" lon="11.0474983"><ele>278.3333333333333</ele><time>2026-04-18T09:24:51.349Z</time></trkpt><trkpt lat="43.9547741" lon="11.0474651"><ele>280.5</ele><time>2026-04-18T09:24:52.356Z</time></trkpt><trkpt lat="43.9546975" lon="11.0474752"><ele>282.6666666666667</ele><time>2026-04-18T09:24:54.359Z</time></trkpt><trkpt lat="43.9547589" lon="11.0475207"><ele>284.83333333333337</ele><time>2026-04-18T09:25:03.386Z</time></trkpt><trkpt lat="43.9548341" lon="11.0475849"><ele>287.0</ele><time>2026-04-18T09:25:05.389Z</time></trkpt><trkpt lat="43.9548967" lon="11.0476221"><ele>287.0</ele><time>2026-04-18T09:25:06.384Z</time></trkpt><trkpt lat="43.9549691" lon="11.0476599"><ele>287.0</ele><time>2026-04-18T09:25:07.383Z</time></trkpt><trkpt lat="43.955044" lon="11.0477143"><ele>287.0</ele><time>2026-04-18T09:25:08.359Z</time></trkpt><trkpt lat="43.9551303" lon="11.0477851"><ele>287.0</ele><time>2026-04-18T09:25:09.36Z</time></trkpt><trkpt lat="43.9552274" lon="11.0478648"><ele>287.0</ele><time>2026-04-18T09:25:10.359Z</time></trkpt><trkpt lat="43.9553282" lon="11.0479438"><ele>283.75</ele><time>2026-04-18T09:25:11.365Z</time></trkpt><trkpt lat="43.9554218" lon="11.0480213"><ele>280.5</ele><time>2026-04-18T09:25:12.365Z</time></trkpt><trkpt lat="43.9555229" lon="11.0481174"><ele>277.25</ele><time>2026-04-18T09:25:13.365Z</time></trkpt><trkpt lat="43.9556237" lon="11.0482111"><ele>274.0</ele><time>2026-04-18T09:25:14.363Z</time></trkpt><trkpt lat="43.9557196" lon="11.0483075"><ele>275.2</ele><time>2026-04-18T09:25:15.369Z</time></trkpt><trkpt lat="43.9558242" lon="11.0483914"><ele>276.4</ele><time>2026-04-18T09:25:16.361Z</time></trkpt><trkpt lat="43.9559317" lon="11.0484777"><ele>277.6</ele><time>2026-04-18T09:25:17.378Z</time></trkpt><trkpt lat="43.9560199" lon="11.048552"><ele>278.8</ele><time>2026-04-18T09:25:18.384Z</time></trkpt><trkpt lat="43.9560964" lon="11.0486316"><ele>280.0</ele><time>2026-04-18T09:25:19.369Z</time></trkpt><trkpt lat="43.9561733" lon="11.0487248"><ele>280.0</ele><time>2026-04-18T09:25:20.38Z</time></trkpt><trkpt lat="43.9562512" lon="11.0488267"><ele>280.0</ele><time>2026-04-18T09:25:21.382Z</time></trkpt><trkpt lat="43.9563172" lon="11.0489441"><ele>280.0</ele><time>2026-04-18T09:25:22.388Z</time></trkpt><trkpt lat="43.9563887" lon="11.0490653"><ele>280.0</ele><time>2026-04-18T09:25:23.389Z</time></trkpt><trkpt lat="43.9564538" lon="11.049173"><ele>280.0</ele><time>2026-04-18T09:25:24.39Z</time></trkpt><trkpt lat="43.9565192" lon="11.0492734"><ele>281.0</ele><time>2026-04-18T09:25:25.376Z</time></trkpt><trkpt lat="43.9565931" lon="11.0493733"><ele>282.0</ele><time>2026-04-18T09:25:26.37Z</time></trkpt><trkpt lat="43.956659" lon="11.049464"><ele>283.0</ele><time>2026-04-18T09:25:27.37Z</time></trkpt><trkpt lat="43.9567225" lon="11.0495433"><ele>284.0</ele><time>2026-04-18T09:25:28.361Z</time></trkpt><trkpt lat="43.9567718" lon="11.0496098"><ele>285.0</ele><time>2026-04-18T09:25:29.386Z</time></trkpt><trkpt lat="43.9568373" lon="11.0497343"><ele>285.0</ele><time>2026-04-18T09:25:31.373Z</time></trkpt><trkpt lat="43.956863" lon="11.0498284"><ele>285.0</ele><time>2026-04-18T09:26:09.369Z</time></trkpt><trkpt lat="43.9569228" lon="11.0498876"><ele>285.0</ele><time>2026-04-18T09:26:10.365Z</time></trkpt><trkpt lat="43.9569906" lon="11.04995"><ele>285.0</ele><time>2026-04-18T09:26:11.35Z</time></trkpt><trkpt lat="43.9570728" lon="11.0500046"><ele>285.0</ele><time>2026-04-18T09:26:12.347Z</time></trkpt><trkpt lat="43.9571561" lon="11.0500502"><ele>285.0</ele><time>2026-04-18T09:26:13.342Z</time></trkpt><trkpt lat="43.9572285" lon="11.0501326"><ele>284.2</ele><time>2026-04-18T09:26:14.346Z</time></trkpt><trkpt lat="43.9573134" lon="11.0502428"><ele>283.4</ele><time>2026-04-18T09:26:15.345Z</time></trkpt><trkpt lat="43.9573849" lon="11.0503418"><ele>282.6</ele><time>2026-04-18T09:26:16.352Z</time></trkpt><trkpt lat="43.9574446" lon="11.0504301"><ele>281.8</ele><time>2026-04-18T09:26:17.37Z</time></trkpt><trkpt lat="43.9574909" lon="11.0505208"><ele>281.0</ele><time>2026-04-18T09:26:18.361Z</time></trkpt><trkpt lat="43.9575376" lon="11.0506259"><ele>281.0</ele><time>2026-04-18T09:26:19.366Z</time></trkpt><trkpt lat="43.9575684" lon="11.0507492"><ele>281.0</ele><time>2026-04-18T09:26:20.36Z</time></trkpt><trkpt lat="43.9575912" lon="11.0508661"><ele>281.0</ele><time>2026-04-18T09:26:21.365Z</time></trkpt><trkpt lat="43.9575931" lon="11.0509612"><ele>281.0</ele><time>2026-04-18T09:26:22.367Z</time></trkpt><trkpt lat="43.9575215" lon="11.0511091"><ele>281.0</ele><time>2026-04-18T09:26:24.36Z</time></trkpt><trkpt lat="43.9574653" lon="11.0511793"><ele>287.8</ele><time>2026-04-18T09:26:25.353Z</time></trkpt><trkpt lat="43.9574175" lon="11.0512553"><ele>294.6</ele><time>2026-04-18T09:26:26.368Z</time></trkpt><trkpt lat="43.9573733" lon="11.0513515"><ele>301.4</ele><time>2026-04-18T09:26:27.356Z</time></trkpt><trkpt lat="43.957333" lon="11.0514616"><ele>308.2</ele><time>2026-04-18T09:26:28.356Z</time></trkpt><trkpt lat="43.9572967" lon="11.0515998"><ele>315.0</ele><time>2026-04-18T09:26:29.371Z</time></trkpt><trkpt lat="43.9572736" lon="11.0517629"><ele>315.0</ele><time>2026-04-18T09:26:30.362Z</time></trkpt><trkpt lat="43.9572544" lon="11.0519364"><ele>315.0</ele><time>2026-04-18T09:26:31.355Z</time></trkpt><trkpt lat="43.957231" lon="11.0521124"><ele>315.0</ele><time>2026-04-18T09:26:32.361Z</time></trkpt><trkpt lat="43.9572052" lon="11.0522756"><ele>315.0</ele><time>2026-04-18T09:26:33.361Z</time></trkpt><trkpt lat="43.9571898" lon="11.052427"><ele>315.5</ele><time>2026-04-18T09:26:34.363Z</time></trkpt><trkpt lat="43.9571788" lon="11.0525713"><ele>316.0</ele><time>2026-04-18T09:26:35.359Z</time></trkpt><trkpt lat="43.957167" lon="11.0526998"><ele>316.5</ele><time>2026-04-18T09:26:36.361Z</time></trkpt><trkpt lat="43.9571595" lon="11.0528167"><ele>317.0</ele><time>2026-04-18T09:26:37.382Z</time></trkpt><trkpt lat="43.9571456" lon="11.0529125"><ele>317.5</ele><time>2026-04-18T09:26:38.377Z</time></trkpt><trkpt lat="43.9571122" lon="11.0530312"><ele>318.0</ele><time>2026-04-18T09:26:40.373Z</time></trkpt><trkpt lat="43.9570929" lon="11.0529126"><ele>318.0</ele><time>2026-04-18T09:27:01.369Z</time></trkpt><trkpt lat="43.9570836" lon="11.0527936"><ele>318.0</ele><time>2026-04-18T09:27:03.361Z</time></trkpt><trkpt lat="43.9570729" lon="11.0526713"><ele>318.0</ele><time>2026-04-18T09:27:05.371Z</time></trkpt><trkpt lat="43.9570554" lon="11.0525619"><ele>318.0</ele><time>2026-04-18T09:27:07.372Z</time></trkpt><trkpt lat="43.9570231" lon="11.0524409"><ele>318.0</ele><time>2026-04-18T09:27:09.38Z</time></trkpt><trkpt lat="43.95698" lon="11.0523282"><ele>318.0</ele><time>2026-04-18T09:27:11.382Z</time></trkpt><trkpt lat="43.9569046" lon="11.0522208"><ele>317.5</ele><time>2026-04-18T09:27:13.392Z</time></trkpt><trkpt lat="43.9568586" lon="11.0521096"><ele>317.0</ele><time>2026-04-18T09:27:15.384Z</time></trkpt><trkpt lat="43.9568278" lon="11.0519766"><ele>316.5</ele><time>2026-04-18T09:27:17.379Z</time></trkpt><trkpt lat="43.9567913" lon="11.0518611"><ele>316.0</ele><time>2026-04-18T09:27:19.389Z</time></trkpt><trkpt lat="43.9567487" lon="11.0517709"><ele>315.5</ele><time>2026-04-18T09:27:21.384Z</time></trkpt><trkpt lat="43.956708" lon="11.0517001"><ele>315.0</ele><time>2026-04-18T09:27:23.391Z</time></trkpt><trkpt lat="43.9566455" lon="11.0516265"><ele>319.3333333333333</ele><time>2026-04-18T09:27:26.376Z</time></trkpt><trkpt lat="43.956609" lon="11.0515392"><ele>323.6666666666667</ele><time>2026-04-18T09:27:28.381Z</time></trkpt><trkpt lat="43.9565845" lon="11.051424"><ele>328.0</ele><time>2026-04-18T09:27:30.367Z</time></trkpt><trkpt lat="43.9565818" lon="11.0512351"><ele>332.33333333333337</ele><time>2026-04-18T09:27:32.377Z</time></trkpt><trkpt lat="43.9565623" lon="11.0511325"><ele>336.6666666666667</ele><time>2026-04-18T09:27:33.373Z</time></trkpt><trkpt lat="43.9565343" lon="11.0510506"><ele>341.0</ele><time>2026-04-18T09:27:34.371Z</time></trkpt><trkpt lat="43.9564942" lon="11.0509776"><ele>341.0</ele><time>2026-04-18T09:27:35.373Z</time></trkpt><trkpt lat="43.9564402" lon="11.0509076"><ele>341.0</ele><time>2026-04-18T09:27:36.367Z</time></trkpt><trkpt lat="43.9563702" lon="11.0508343"><ele>341.0</ele><time>2026-04-18T09:27:37.359Z</time></trkpt><trkpt lat="43.9562872" lon="11.0507651"><ele>341.0</ele><time>2026-04-18T09:27:38.364Z</time></trkpt><trkpt lat="43.9561982" lon="11.0506934"><ele>341.0</ele><time>2026-04-18T09:27:39.367Z</time></trkpt><trkpt lat="43.9561181" lon="11.0506221"><ele>341.0</ele><time>2026-04-18T09:27:40.355Z</time></trkpt><trkpt lat="43.9560475" lon="11.0505601"><ele>341.0</ele><time>2026-04-18T09:27:41.356Z</time></trkpt><trkpt lat="43.9559817" lon="11.0504982"><ele>341.0</ele><time>2026-04-18T09:27:42.355Z</time></trkpt><trkpt lat="43.955911" lon="11.0504293"><ele>341.0</ele><time>2026-04-18T09:27:43.357Z</time></trkpt><trkpt lat="43.9558469" lon="11.0503792"><ele>341.0</ele><time>2026-04-18T09:27:44.371Z</time></trkpt><trkpt lat="43.9557553" lon="11.0503316"><ele>341.0</ele><time>2026-04-18T09:27:46.389Z</time></trkpt><trkpt lat="43.9556773" lon="11.0503161"><ele>341.0</ele><time>2026-04-18T09:27:49.397Z</time></trkpt><trkpt lat="43.9556351" lon="11.0502452"><ele>341.0</ele><time>2026-04-18T09:27:52.398Z</time></trkpt><trkpt lat="43.9556217" lon="11.0501566"><ele>341.0</ele><time>2026-04-18T09:27:55.392Z</time></trkpt><trkpt lat="43.9556085" lon="11.0500667"><ele>341.0</ele><time>2026-04-18T09:27:57.391Z</time></trkpt><trkpt lat="43.9555829" lon="11.0499732"><ele>341.0</ele><time>2026-04-18T09:27:59.372Z</time></trkpt><trkpt lat="43.9555317" lon="11.0498816"><ele>341.0</ele><time>2026-04-18T09:28:01.377Z</time></trkpt><trkpt lat="43.9554599" lon="11.0497936"><ele>341.0</ele><time>2026-04-18T09:28:03.373Z</time></trkpt><trkpt lat="43.9553893" lon="11.0496859"><ele>337.83333333333337</ele><time>2026-04-18T09:28:05.365Z</time></trkpt><trkpt lat="43.9553137" lon="11.0495839"><ele>334.6666666666667</ele><time>2026-04-18T09:28:07.373Z</time></trkpt><trkpt lat="43.9552761" lon="11.049512"><ele>331.5</ele><time>2026-04-18T09:28:08.37Z</time></trkpt><trkpt lat="43.9552385" lon="11.0494249"><ele>328.3333333333333</ele><time>2026-04-18T09:28:09.364Z</time></trkpt><trkpt lat="43.9551943" lon="11.0493264"><ele>325.16666666666663</ele><time>2026-04-18T09:28:10.367Z</time></trkpt><trkpt lat="43.9551424" lon="11.0492392"><ele>322.0</ele><time>2026-04-18T09:28:11.356Z</time></trkpt><trkpt lat="43.955072" lon="11.0491694"><ele>323.8</ele><time>2026-04-18T09:28:12.356Z</time></trkpt><trkpt lat="43.9550077" lon="11.0491329"><ele>325.6</ele><time>2026-04-18T09:28:13.364Z</time></trkpt><trkpt lat="43.9548831" lon="11.049126"><ele>327.40000000000003</ele><time>2026-04-18T09:28:15.374Z</time></trkpt><trkpt lat="43.9547804" lon="11.0491499"><ele>329.20000000000005</ele><time>2026-04-18T09:28:17.37Z</time></trkpt><trkpt lat="43.954671" lon="11.0491842"><ele>331.0</ele><time>2026-04-18T09:28:19.376Z</time></trkpt><trkpt lat="43.9545704" lon="11.0492316"><ele>331.0</ele><time>2026-04-18T09:28:21.361Z</time></trkpt><trkpt lat="43.9544685" lon="11.0492982"><ele>331.0</ele><time>2026-04-18T09:28:23.352Z</time></trkpt><trkpt lat="43.9543673" lon="11.049356"><ele>331.0</ele><time>2026-04-18T09:28:25.355Z</time></trkpt><trkpt lat="43.9542499" lon="11.0493924"><ele>331.0</ele><time>2026-04-18T09:28:27.354Z</time></trkpt><trkpt lat="43.9541394" lon="11.0494227"><ele>329.8333333333333</ele><time>2026-04-18T09:28:29.345Z</time></trkpt><trkpt lat="43.9540354" lon="11.0494519"><ele>328.66666666666663</ele><time>2026-04-18T09:28:31.357Z</time></trkpt><trkpt lat="43.9539349" lon="11.049469"><ele>327.5</ele><time>2026-04-18T09:28:33.344Z</time></trkpt><trkpt lat="43.9538484" lon="11.0494583"><ele>326.3333333333333</ele><time>2026-04-18T09:28:35.354Z</time></trkpt><trkpt lat="43.9537839" lon="11.0494122"><ele>325.1666666666667</ele><time>2026-04-18T09:28:37.352Z</time></trkpt><trkpt lat="43.9537248" lon="11.0493588"><ele>324.0</ele><time>2026-04-18T09:28:39.354Z</time></trkpt><trkpt lat="43.9536583" lon="11.0492727"><ele>324.0</ele><time>2026-04-18T09:28:41.357Z</time></trkpt><trkpt lat="43.9535719" lon="11.0491667"><ele>324.0</ele><time>2026-04-18T09:28:43.343Z</time></trkpt><trkpt lat="43.9534796" lon="11.0490562"><ele>324.0</ele><time>2026-04-18T09:28:45.345Z</time></trkpt><trkpt lat="43.9534043" lon="11.0489488"><ele>324.0</ele><time>2026-04-18T09:28:47.355Z</time></trkpt><trkpt lat="43.9533396" lon="11.0488641"><ele>324.0</ele><time>2026-04-18T09:28:49.361Z</time></trkpt><trkpt lat="43.9532717" lon="11.048782"><ele>320.0</ele><time>2026-04-18T09:28:51.367Z</time></trkpt><trkpt lat="43.9531844" lon="11.0487476"><ele>316.0</ele><time>2026-04-18T09:28:53.374Z</time></trkpt><trkpt lat="43.953087" lon="11.0488072"><ele>312.0</ele><time>2026-04-18T09:28:55.368Z</time></trkpt><trkpt lat="43.952976" lon="11.0488991"><ele>308.0</ele><time>2026-04-18T09:28:57.363Z</time></trkpt><trkpt lat="43.9529191" lon="11.0489533"><ele>304.0</ele><time>2026-04-18T09:28:58.354Z</time></trkpt><trkpt lat="43.9528595" lon="11.0490207"><ele>304.0</ele><time>2026-04-18T09:28:59.36Z</time></trkpt><trkpt lat="43.9528046" lon="11.0490933"><ele>304.0</ele><time>2026-04-18T09:29:00.354Z</time></trkpt><trkpt lat="43.9527604" lon="11.0491575"><ele>304.0</ele><time>2026-04-18T09:29:01.359Z</time></trkpt><trkpt lat="43.9526803" lon="11.0492248"><ele>304.0</ele><time>2026-04-18T09:29:03.359Z</time></trkpt><trkpt lat="43.9525805" lon="11.04923"><ele>304.0</ele><time>2026-04-18T09:29:05.357Z</time></trkpt><trkpt lat="43.952511" lon="11.0491136"><ele>304.0</ele><time>2026-04-18T09:29:07.362Z</time></trkpt><trkpt lat="43.9524476" lon="11.0489848"><ele>306.4</ele><time>2026-04-18T09:29:09.362Z</time></trkpt><trkpt lat="43.952398" lon="11.0488202"><ele>308.79999999999995</ele><time>2026-04-18T09:29:11.353Z</time></trkpt><trkpt lat="43.952377" lon="11.0487349"><ele>311.20000000000005</ele><time>2026-04-18T09:29:12.362Z</time></trkpt><trkpt lat="43.952363" lon="11.0486496"><ele>313.6</ele><time>2026-04-18T09:29:13.36Z</time></trkpt><trkpt lat="43.9523117" lon="11.0485145"><ele>316.0</ele><time>2026-04-18T09:29:15.369Z</time></trkpt><trkpt lat="43.9522573" lon="11.0483812"><ele>313.66666666666663</ele><time>2026-04-18T09:29:17.368Z</time></trkpt><trkpt lat="43.9522171" lon="11.0482108"><ele>311.3333333333333</ele><time>2026-04-18T09:29:19.367Z</time></trkpt><trkpt lat="43.9521959" lon="11.0481094"><ele>309.0</ele><time>2026-04-18T09:29:20.369Z</time></trkpt><trkpt lat="43.9521672" lon="11.0480132"><ele>306.6666666666667</ele><time>2026-04-18T09:29:21.375Z</time></trkpt><trkpt lat="43.9521363" lon="11.0479156"><ele>304.33333333333337</ele><time>2026-04-18T09:29:22.364Z</time></trkpt><trkpt lat="43.9520938" lon="11.0478065"><ele>302.0</ele><time>2026-04-18T09:29:23.37Z</time></trkpt><trkpt lat="43.9520417" lon="11.0476958"><ele>302.0</ele><time>2026-04-18T09:29:24.38Z</time></trkpt><trkpt lat="43.9519954" lon="11.0475771"><ele>302.0</ele><time>2026-04-18T09:29:25.382Z</time></trkpt><trkpt lat="43.9519606" lon="11.0474611"><ele>302.0</ele><time>2026-04-18T09:29:26.378Z</time></trkpt><trkpt lat="43.9519318" lon="11.0473475"><ele>302.0</ele><time>2026-04-18T09:29:27.376Z</time></trkpt><trkpt lat="43.9518953" lon="11.0472563"><ele>302.0</ele><time>2026-04-18T09:29:28.372Z</time></trkpt><trkpt lat="43.9518514" lon="11.0471693"><ele>302.0</ele><time>2026-04-18T09:29:29.385Z</time></trkpt><trkpt lat="43.9518074" lon="11.0471015"><ele>303.8</ele><time>2026-04-18T09:29:30.367Z</time></trkpt><trkpt lat="43.9517513" lon="11.0469539"><ele>305.6</ele><time>2026-04-18T09:29:32.373Z</time></trkpt><trkpt lat="43.9517044" lon="11.046823"><ele>307.40000000000003</ele><time>2026-04-18T09:29:34.37Z</time></trkpt><trkpt lat="43.951642" lon="11.0466948"><ele>309.2</ele><time>2026-04-18T09:29:36.368Z</time></trkpt><trkpt lat="43.9515944" lon="11.0466274"><ele>311.0</ele><time>2026-04-18T09:29:37.373Z</time></trkpt><trkpt lat="43.9515311" lon="11.0465619"><ele>311.0</ele><time>2026-04-18T09:29:38.368Z</time></trkpt><trkpt lat="43.951452" lon="11.0464997"><ele>311.0</ele><time>2026-04-18T09:29:39.365Z</time></trkpt><trkpt lat="43.9513597" lon="11.0464396"><ele>311.0</ele><time>2026-04-18T09:29:40.368Z</time></trkpt><trkpt lat="43.9512603" lon="11.0463815"><ele>311.0</ele><time>2026-04-18T09:29:41.37Z</time></trkpt><trkpt lat="43.9511708" lon="11.0463254"><ele>311.0</ele><time>2026-04-18T09:29:42.353Z</time></trkpt><trkpt lat="43.9510948" lon="11.0462727"><ele>311.0</ele><time>2026-04-18T09:29:43.356Z</time></trkpt><trkpt lat="43.951029" lon="11.0462239"><ele>311.0</ele><time>2026-04-18T09:29:44.352Z</time></trkpt><trkpt lat="43.9509734" lon="11.0461712"><ele>311.0</ele><time>2026-04-18T09:29:45.362Z</time></trkpt><trkpt lat="43.9509145" lon="11.046134"><ele>311.0</ele><time>2026-04-18T09:29:46.359Z</time></trkpt><trkpt lat="43.9508513" lon="11.0461045"><ele>311.0</ele><time>2026-04-18T09:29:47.362Z</time></trkpt><trkpt lat="43.950793" lon="11.0460635"><ele>311.0</ele><time>2026-04-18T09:29:48.359Z</time></trkpt><trkpt lat="43.9507082" lon="11.0459351"><ele>312.33333333333337</ele><time>2026-04-18T09:29:50.357Z</time></trkpt><trkpt lat="43.950658" lon="11.0457996"><ele>313.6666666666667</ele><time>2026-04-18T09:29:52.357Z</time></trkpt><trkpt lat="43.9506326" lon="11.04569"><ele>315.0</ele><time>2026-04-18T09:29:55.374Z</time></trkpt><trkpt lat="43.9505926" lon="11.0456216"><ele>316.3333333333333</ele><time>2026-04-18T09:42:14.363Z</time></trkpt><trkpt lat="43.9505123" lon="11.0455323"><ele>317.66666666666663</ele><time>2026-04-18T09:42:17.352Z</time></trkpt><trkpt lat="43.950453" lon="11.0454877"><ele>319.0</ele><time>2026-04-18T09:42:18.347Z</time></trkpt><trkpt lat="43.9503869" lon="11.0454409"><ele>318.66666666666663</ele><time>2026-04-18T09:42:19.341Z</time></trkpt><trkpt lat="43.9503106" lon="11.0453912"><ele>318.3333333333333</ele><time>2026-04-18T09:42:20.342Z</time></trkpt><trkpt lat="43.9502506" lon="11.045334"><ele>318.0</ele><time>2026-04-18T09:42:21.335Z</time></trkpt><trkpt lat="43.9502057" lon="11.0452615"><ele>317.6666666666667</ele><time>2026-04-18T09:42:22.337Z</time></trkpt><trkpt lat="43.9501594" lon="11.0451822"><ele>317.33333333333337</ele><time>2026-04-18T09:42:23.337Z</time></trkpt><trkpt lat="43.9500868" lon="11.0450706"><ele>317.0</ele><time>2026-04-18T09:42:25.343Z</time></trkpt><trkpt lat="43.9499723" lon="11.0449639"><ele>313.0</ele><time>2026-04-18T09:42:27.341Z</time></trkpt><trkpt lat="43.9498855" lon="11.0449055"><ele>309.0</ele><time>2026-04-18T09:42:28.341Z</time></trkpt><trkpt lat="43.9498026" lon="11.044854"><ele>305.0</ele><time>2026-04-18T09:42:29.34Z</time></trkpt><trkpt lat="43.949723" lon="11.0447823"><ele>301.0</ele><time>2026-04-18T09:42:30.337Z</time></trkpt><trkpt lat="43.9496523" lon="11.0447096"><ele>297.0</ele><time>2026-04-18T09:42:31.345Z</time></trkpt><trkpt lat="43.9495882" lon="11.0446163"><ele>297.0</ele><time>2026-04-18T09:42:32.344Z</time></trkpt><trkpt lat="43.9495176" lon="11.0445237"><ele>297.0</ele><time>2026-04-18T09:42:33.34Z</time></trkpt><trkpt lat="43.9494519" lon="11.0444466"><ele>297.0</ele><time>2026-04-18T09:42:34.338Z</time></trkpt><trkpt lat="43.9493943" lon="11.0443756"><ele>297.0</ele><time>2026-04-18T09:42:35.337Z</time></trkpt><trkpt lat="43.9493531" lon="11.0442873"><ele>297.0</ele><time>2026-04-18T09:42:36.348Z</time></trkpt><trkpt lat="43.9493182" lon="11.0442055"><ele>297.0</ele><time>2026-04-18T09:42:37.346Z</time></trkpt><trkpt lat="43.9492628" lon="11.0440957"><ele>298.5</ele><time>2026-04-18T09:42:39.344Z</time></trkpt><trkpt lat="43.9491621" lon="11.0440145"><ele>300.0</ele><time>2026-04-18T09:42:41.341Z</time></trkpt><trkpt lat="43.9491014" lon="11.0439843"><ele>301.5</ele><time>2026-04-18T09:42:42.34Z</time></trkpt><trkpt lat="43.9490107" lon="11.0438967"><ele>303.0</ele><time>2026-04-18T09:42:44.338Z</time></trkpt><trkpt lat="43.9489628" lon="11.0438335"><ele>304.5</ele><time>2026-04-18T09:42:45.338Z</time></trkpt><trkpt lat="43.9489053" lon="11.0437776"><ele>306.0</ele><time>2026-04-18T09:42:46.336Z</time></trkpt><trkpt lat="43.9488367" lon="11.0437054"><ele>306.0</ele><time>2026-04-18T09:42:47.336Z</time></trkpt><trkpt lat="43.948775" lon="11.043635"><ele>306.0</ele><time>2026-04-18T09:42:48.337Z</time></trkpt><trkpt lat="43.9487257" lon="11.0435392"><ele>306.0</ele><time>2026-04-18T09:42:49.341Z</time></trkpt><trkpt lat="43.9486832" lon="11.0434509"><ele>306.0</ele><time>2026-04-18T09:42:50.34Z</time></trkpt><trkpt lat="43.9485868" lon="11.0433302"><ele>306.0</ele><time>2026-04-18T09:42:52.344Z</time></trkpt><trkpt lat="43.9485299" lon="11.0432619"><ele>306.0</ele><time>2026-04-18T09:42:53.351Z</time></trkpt><trkpt lat="43.9484774" lon="11.0431978"><ele>305.8333333333333</ele><time>2026-04-18T09:42:54.355Z</time></trkpt><trkpt lat="43.9484151" lon="11.0431442"><ele>305.6666666666667</ele><time>2026-04-18T09:42:55.347Z</time></trkpt><trkpt lat="43.9483561" lon="11.0430904"><ele>305.5</ele><time>2026-04-18T09:42:56.352Z</time></trkpt><trkpt lat="43.9482926" lon="11.0430483"><ele>305.33333333333337</ele><time>2026-04-18T09:42:57.341Z</time></trkpt><trkpt lat="43.9482156" lon="11.0430214"><ele>305.1666666666667</ele><time>2026-04-18T09:42:58.342Z</time></trkpt><trkpt lat="43.9481284" lon="11.0430052"><ele>305.0</ele><time>2026-04-18T09:42:59.346Z</time></trkpt><trkpt lat="43.948037" lon="11.0429834"><ele>305.0</ele><time>2026-04-18T09:43:00.346Z</time></trkpt><trkpt lat="43.947944" lon="11.0429562"><ele>305.0</ele><time>2026-04-18T09:43:01.34Z</time></trkpt><trkpt lat="43.9478645" lon="11.0429197"><ele>305.0</ele><time>2026-04-18T09:43:02.343Z</time></trkpt><trkpt lat="43.9477918" lon="11.0428888"><ele>305.0</ele><time>2026-04-18T09:43:03.34Z</time></trkpt><trkpt lat="43.9477281" lon="11.0428571"><ele>305.0</ele><time>2026-04-18T09:43:04.341Z</time></trkpt><trkpt lat="43.947667" lon="11.0428325"><ele>305.0</ele><time>2026-04-18T09:43:05.345Z</time></trkpt><trkpt lat="43.9476024" lon="11.0427999"><ele>306.33333333333337</ele><time>2026-04-18T09:43:06.342Z</time></trkpt><trkpt lat="43.9475338" lon="11.0427706"><ele>307.6666666666667</ele><time>2026-04-18T09:43:07.342Z</time></trkpt><trkpt lat="43.9474621" lon="11.0427655"><ele>309.0</ele><time>2026-04-18T09:43:08.35Z</time></trkpt><trkpt lat="43.9473758" lon="11.0427681"><ele>310.3333333333333</ele><time>2026-04-18T09:43:09.34Z</time></trkpt><trkpt lat="43.9472737" lon="11.0427646"><ele>311.66666666666663</ele><time>2026-04-18T09:43:10.343Z</time></trkpt><trkpt lat="43.9471648" lon="11.0427315"><ele>313.0</ele><time>2026-04-18T09:43:11.338Z</time></trkpt><trkpt lat="43.9470725" lon="11.0427038"><ele>313.0</ele><time>2026-04-18T09:43:12.344Z</time></trkpt><trkpt lat="43.9469952" lon="11.0426853"><ele>313.0</ele><time>2026-04-18T09:43:13.338Z</time></trkpt><trkpt lat="43.9469196" lon="11.042671"><ele>313.0</ele><time>2026-04-18T09:43:14.343Z</time></trkpt><trkpt lat="43.9468337" lon="11.0426643"><ele>313.0</ele><time>2026-04-18T09:43:15.341Z</time></trkpt><trkpt lat="43.9467469" lon="11.0426532"><ele>313.0</ele><time>2026-04-18T09:43:16.347Z</time></trkpt><trkpt lat="43.946665" lon="11.0426291"><ele>313.0</ele><time>2026-04-18T09:43:17.346Z</time></trkpt><trkpt lat="43.9466018" lon="11.0425996"><ele>313.4</ele><time>2026-04-18T09:43:18.345Z</time></trkpt><trkpt lat="43.9465363" lon="11.0424854"><ele>313.8</ele><time>2026-04-18T09:43:20.339Z</time></trkpt><trkpt lat="43.9465245" lon="11.0423349"><ele>314.2</ele><time>2026-04-18T09:43:22.341Z</time></trkpt><trkpt lat="43.9464997" lon="11.0422058"><ele>314.6</ele><time>2026-04-18T09:43:24.339Z</time></trkpt><trkpt lat="43.9464004" lon="11.0421073"><ele>315.0</ele><time>2026-04-18T09:43:26.345Z</time></trkpt><trkpt lat="43.9463228" lon="11.0420706"><ele>311.8</ele><time>2026-04-18T09:43:27.345Z</time></trkpt><trkpt lat="43.9462521" lon="11.0420495"><ele>308.6</ele><time>2026-04-18T09:43:28.344Z</time></trkpt><trkpt lat="43.9461464" lon="11.0420817"><ele>305.4</ele><time>2026-04-18T09:43:30.35Z</time></trkpt><trkpt lat="43.9460738" lon="11.042183"><ele>302.2</ele><time>2026-04-18T09:43:32.34Z</time></trkpt><trkpt lat="43.9459733" lon="11.0421339"><ele>299.0</ele><time>2026-04-18T09:43:34.341Z</time></trkpt><trkpt lat="43.9458973" lon="11.0420785"><ele>300.0</ele><time>2026-04-18T09:43:35.341Z</time></trkpt><trkpt lat="43.9458425" lon="11.0420267"><ele>301.0</ele><time>2026-04-18T09:43:36.342Z</time></trkpt><trkpt lat="43.9457695" lon="11.0418928"><ele>302.0</ele><time>2026-04-18T09:43:38.35Z</time></trkpt><trkpt lat="43.9457329" lon="11.0418173"><ele>303.0</ele><time>2026-04-18T09:43:39.356Z</time></trkpt><trkpt lat="43.9456836" lon="11.0417358"><ele>304.0</ele><time>2026-04-18T09:43:40.354Z</time></trkpt><trkpt lat="43.9456203" lon="11.0416532"><ele>305.0</ele><time>2026-04-18T09:43:41.36Z</time></trkpt><trkpt lat="43.9455634" lon="11.0415801"><ele>305.0</ele><time>2026-04-18T09:43:42.358Z</time></trkpt><trkpt lat="43.9455095" lon="11.0415226"><ele>305.0</ele><time>2026-04-18T09:43:43.359Z</time></trkpt><trkpt lat="43.9453984" lon="11.0414815"><ele>305.0</ele><time>2026-04-18T09:43:45.36Z</time></trkpt><trkpt lat="43.9453361" lon="11.0415114"><ele>305.0</ele><time>2026-04-18T09:43:46.355Z</time></trkpt><trkpt lat="43.9452331" lon="11.0415916"><ele>305.0</ele><time>2026-04-18T09:43:48.359Z</time></trkpt><trkpt lat="43.9451506" lon="11.0417148"><ele>304.6</ele><time>2026-04-18T09:43:50.358Z</time></trkpt><trkpt lat="43.9451039" lon="11.0417876"><ele>304.2</ele><time>2026-04-18T09:43:51.352Z</time></trkpt><trkpt lat="43.9450462" lon="11.041861"><ele>303.8</ele><time>2026-04-18T09:43:52.36Z</time></trkpt><trkpt lat="43.9449589" lon="11.0419253"><ele>303.4</ele><time>2026-04-18T09:43:53.357Z</time></trkpt><trkpt lat="43.9448501" lon="11.0419824"><ele>303.0</ele><time>2026-04-18T09:43:54.366Z</time></trkpt><trkpt lat="43.9447467" lon="11.0420413"><ele>303.0</ele><time>2026-04-18T09:43:55.362Z</time></trkpt><trkpt lat="43.9446515" lon="11.0420955"><ele>303.0</ele><time>2026-04-18T09:43:56.352Z</time></trkpt><trkpt lat="43.9445922" lon="11.0421559"><ele>303.0</ele><time>2026-04-18T09:43:57.355Z</time></trkpt><trkpt lat="43.9445519" lon="11.0422272"><ele>303.0</ele><time>2026-04-18T09:43:58.356Z</time></trkpt><trkpt lat="43.9445228" lon="11.0423114"><ele>303.0</ele><time>2026-04-18T09:43:59.353Z</time></trkpt><trkpt lat="43.9445012" lon="11.0424227"><ele>303.0</ele><time>2026-04-18T09:44:00.355Z</time></trkpt><trkpt lat="43.9444803" lon="11.0425565"><ele>304.75</ele><time>2026-04-18T09:44:01.344Z</time></trkpt><trkpt lat="43.9444562" lon="11.042713"><ele>306.5</ele><time>2026-04-18T09:44:02.347Z</time></trkpt><trkpt lat="43.9444324" lon="11.0428733"><ele>308.25</ele><time>2026-04-18T09:44:03.345Z</time></trkpt><trkpt lat="43.9444133" lon="11.0430498"><ele>310.0</ele><time>2026-04-18T09:44:04.349Z</time></trkpt><trkpt lat="43.9443845" lon="11.0432476"><ele>312.5</ele><time>2026-04-18T09:44:05.348Z</time></trkpt><trkpt lat="43.9443523" lon="11.0434344"><ele>315.0</ele><time>2026-04-18T09:44:06.355Z</time></trkpt><trkpt lat="43.9443278" lon="11.0436018"><ele>317.5</ele><time>2026-04-18T09:44:07.358Z</time></trkpt><trkpt lat="43.9443041" lon="11.0437562"><ele>320.0</ele><time>2026-04-18T09:44:08.359Z</time></trkpt><trkpt lat="43.9442897" lon="11.0439051"><ele>320.0</ele><time>2026-04-18T09:44:09.357Z</time></trkpt><trkpt lat="43.9442679" lon="11.0440449"><ele>320.0</ele><time>2026-04-18T09:44:10.36Z</time></trkpt><trkpt lat="43.9442479" lon="11.0441848"><ele>320.0</ele><time>2026-04-18T09:44:11.361Z</time></trkpt><trkpt lat="43.9442272" lon="11.0443175"><ele>320.0</ele><time>2026-04-18T09:44:12.357Z</time></trkpt><trkpt lat="43.9442071" lon="11.0444354"><ele>320.0</ele><time>2026-04-18T09:44:13.362Z</time></trkpt><trkpt lat="43.9441917" lon="11.0445227"><ele>319.33333333333337</ele><time>2026-04-18T09:44:14.352Z</time></trkpt><trkpt lat="43.9441692" lon="11.0446194"><ele>318.6666666666667</ele><time>2026-04-18T09:44:16.352Z</time></trkpt><trkpt lat="43.9441533" lon="11.0447253"><ele>318.0</ele><time>2026-04-18T09:44:18.356Z</time></trkpt><trkpt lat="43.9441637" lon="11.0448978"><ele>317.3333333333333</ele><time>2026-04-18T09:44:20.356Z</time></trkpt><trkpt lat="43.9441727" lon="11.044993"><ele>316.66666666666663</ele><time>2026-04-18T09:44:21.362Z</time></trkpt><trkpt lat="43.9441835" lon="11.0450889"><ele>316.0</ele><time>2026-04-18T09:44:22.358Z</time></trkpt><trkpt lat="43.9441981" lon="11.0451919"><ele>316.00000000000006</ele><time>2026-04-18T09:44:23.366Z</time></trkpt><trkpt lat="43.944215" lon="11.0452966"><ele>316.0</ele><time>2026-04-18T09:44:24.358Z</time></trkpt><trkpt lat="43.9442234" lon="11.0454049"><ele>316.0</ele><time>2026-04-18T09:44:25.359Z</time></trkpt><trkpt lat="43.9442194" lon="11.0455072"><ele>316.0</ele><time>2026-04-18T09:44:26.359Z</time></trkpt><trkpt lat="43.9442042" lon="11.0456035"><ele>316.0</ele><time>2026-04-18T09:44:27.362Z</time></trkpt><trkpt lat="43.9441838" lon="11.0456976"><ele>316.00000000000006</ele><time>2026-04-18T09:44:28.343Z</time></trkpt><trkpt lat="43.9441599" lon="11.0457825"><ele>316.0</ele><time>2026-04-18T09:44:29.356Z</time></trkpt><trkpt lat="43.944139" lon="11.0458689"><ele>316.42857142857144</ele><time>2026-04-18T09:44:30.359Z</time></trkpt><trkpt lat="43.9441136" lon="11.0459545"><ele>316.8571428571429</ele><time>2026-04-18T09:44:31.365Z</time></trkpt><trkpt lat="43.944085" lon="11.0460404"><ele>317.28571428571433</ele><time>2026-04-18T09:44:32.352Z</time></trkpt><trkpt lat="43.9440555" lon="11.0461349"><ele>317.7142857142857</ele><time>2026-04-18T09:44:33.359Z</time></trkpt><trkpt lat="43.9440339" lon="11.0462343"><ele>318.1428571428571</ele><time>2026-04-18T09:44:34.343Z</time></trkpt><trkpt lat="43.9440261" lon="11.0463407"><ele>318.5714285714286</ele><time>2026-04-18T09:44:35.348Z</time></trkpt><trkpt lat="43.9440245" lon="11.0464533"><ele>319.0</ele><time>2026-04-18T09:44:36.352Z</time></trkpt><trkpt lat="43.9440295" lon="11.0465602"><ele>319.8333333333333</ele><time>2026-04-18T09:44:37.342Z</time></trkpt><trkpt lat="43.9440319" lon="11.0466602"><ele>320.66666666666663</ele><time>2026-04-18T09:44:38.354Z</time></trkpt><trkpt lat="43.9440398" lon="11.0468066"><ele>321.5</ele><time>2026-04-18T09:44:40.357Z</time></trkpt><trkpt lat="43.9440244" lon="11.046932"><ele>322.3333333333333</ele><time>2026-04-18T09:44:42.358Z</time></trkpt><trkpt lat="43.9439816" lon="11.0470437"><ele>323.1666666666667</ele><time>2026-04-18T09:44:44.349Z</time></trkpt><trkpt lat="43.9439255" lon="11.0471365"><ele>324.0</ele><time>2026-04-18T09:44:46.354Z</time></trkpt><trkpt lat="43.9438636" lon="11.0472198"><ele>324.0</ele><time>2026-04-18T09:44:48.37Z</time></trkpt><trkpt lat="43.9438034" lon="11.0473155"><ele>324.0</ele><time>2026-04-18T09:44:50.348Z</time></trkpt><trkpt lat="43.9437385" lon="11.0474321"><ele>324.0</ele><time>2026-04-18T09:44:52.356Z</time></trkpt><trkpt lat="43.9436803" lon="11.04757"><ele>324.0</ele><time>2026-04-18T09:44:54.346Z</time></trkpt><trkpt lat="43.9436514" lon="11.047664"><ele>324.0</ele><time>2026-04-18T09:44:55.337Z</time></trkpt><trkpt lat="43.9436167" lon="11.0477653"><ele>322.5</ele><time>2026-04-18T09:44:56.345Z</time></trkpt><trkpt lat="43.9435755" lon="11.047869"><ele>321.0</ele><time>2026-04-18T09:44:57.346Z</time></trkpt><trkpt lat="43.9435225" lon="11.0479579"><ele>319.5</ele><time>2026-04-18T09:44:58.335Z</time></trkpt><trkpt lat="43.9434777" lon="11.0480342"><ele>318.0</ele><time>2026-04-18T09:44:59.344Z</time></trkpt><trkpt lat="43.9434314" lon="11.0481"><ele>316.5</ele><time>2026-04-18T09:45:00.336Z</time></trkpt><trkpt lat="43.943352" lon="11.0482209"><ele>315.0</ele><time>2026-04-18T09:45:02.344Z</time></trkpt><trkpt lat="43.9433033" lon="11.0483599"><ele>315.0</ele><time>2026-04-18T09:45:04.34Z</time></trkpt><trkpt lat="43.9432642" lon="11.0485359"><ele>315.0</ele><time>2026-04-18T09:45:06.349Z</time></trkpt><trkpt lat="43.9432444" lon="11.0486301"><ele>315.0</ele><time>2026-04-18T09:45:07.346Z</time></trkpt><trkpt lat="43.9432155" lon="11.0487189"><ele>315.0</ele><time>2026-04-18T09:45:08.348Z</time></trkpt><trkpt lat="43.9431787" lon="11.0488106"><ele>315.0</ele><time>2026-04-18T09:45:09.348Z</time></trkpt><trkpt lat="43.9431429" lon="11.0489497"><ele>316.0</ele><time>2026-04-18T09:45:11.355Z</time></trkpt><trkpt lat="43.9431597" lon="11.0491296"><ele>317.0</ele><time>2026-04-18T09:45:13.352Z</time></trkpt><trkpt lat="43.9431907" lon="11.0492313"><ele>318.0</ele><time>2026-04-18T09:45:14.35Z</time></trkpt><trkpt lat="43.9432316" lon="11.0493251"><ele>319.0</ele><time>2026-04-18T09:45:15.342Z</time></trkpt><trkpt lat="43.9432821" lon="11.0493985"><ele>320.0</ele><time>2026-04-18T09:45:16.348Z</time></trkpt><trkpt lat="43.9433518" lon="11.0494346"><ele>321.0</ele><time>2026-04-18T09:45:17.355Z</time></trkpt><trkpt lat="43.9434179" lon="11.0494512"><ele>324.6666666666667</ele><time>2026-04-18T09:45:18.34Z</time></trkpt><trkpt lat="43.9435192" lon="11.0494809"><ele>328.3333333333333</ele><time>2026-04-18T09:45:20.361Z</time></trkpt><trkpt lat="43.9435442" lon="11.0495754"><ele>332.0</ele><time>2026-04-18T09:45:23.365Z</time></trkpt><trkpt lat="43.9435357" lon="11.0496871"><ele>335.66666666666663</ele><time>2026-04-18T09:45:25.378Z</time></trkpt><trkpt lat="43.9435428" lon="11.0498095"><ele>339.3333333333333</ele><time>2026-04-18T09:45:27.387Z</time></trkpt><trkpt lat="43.9435736" lon="11.0499299"><ele>343.0</ele><time>2026-04-18T09:45:29.374Z</time></trkpt><trkpt lat="43.9436176" lon="11.050046"><ele>343.66666666666663</ele><time>2026-04-18T09:45:31.37Z</time></trkpt><trkpt lat="43.9436629" lon="11.0501546"><ele>344.3333333333333</ele><time>2026-04-18T09:45:33.357Z</time></trkpt><trkpt lat="43.9437139" lon="11.0502368"><ele>345.0</ele><time>2026-04-18T09:45:35.363Z</time></trkpt><trkpt lat="43.9437712" lon="11.050305"><ele>345.6666666666667</ele><time>2026-04-18T09:45:37.369Z</time></trkpt><trkpt lat="43.9438416" lon="11.0503754"><ele>346.33333333333337</ele><time>2026-04-18T09:45:39.36Z</time></trkpt><trkpt lat="43.9438886" lon="11.0504589"><ele>347.0</ele><time>2026-04-18T09:45:41.356Z</time></trkpt><trkpt lat="43.9439842" lon="11.0504463"><ele>347.0</ele><time>2026-04-18T09:45:43.264Z</time></trkpt><trkpt lat="43.9440543" lon="11.0504297"><ele>347.0</ele><time>2026-04-18T09:45:45.225Z</time></trkpt><trkpt lat="43.9441305" lon="11.0503485"><ele>347.0</ele><time>2026-04-18T09:45:48.209Z</time></trkpt><trkpt lat="43.9441503" lon="11.0502653"><ele>347.0</ele><time>2026-04-18T09:45:49.356Z</time></trkpt><trkpt lat="43.9441555" lon="11.0501141"><ele>347.0</ele><time>2026-04-18T09:45:51.353Z</time></trkpt><trkpt lat="43.9441276" lon="11.0499458"><ele>346.33333333333337</ele><time>2026-04-18T09:45:53.356Z</time></trkpt><trkpt lat="43.9441436" lon="11.0498033"><ele>345.6666666666667</ele><time>2026-04-18T09:45:55.346Z</time></trkpt><trkpt lat="43.9442051" lon="11.0499003"><ele>345.0</ele><time>2026-04-18T09:46:00.352Z</time></trkpt><trkpt lat="43.9442307" lon="11.0499856"><ele>344.3333333333333</ele><time>2026-04-18T09:46:01.347Z</time></trkpt><trkpt lat="43.9442752" lon="11.0500618"><ele>343.66666666666663</ele><time>2026-04-18T09:46:02.354Z</time></trkpt><trkpt lat="43.9443136" lon="11.0501477"><ele>343.0</ele><time>2026-04-18T09:46:03.348Z</time></trkpt><trkpt lat="43.9443469" lon="11.0502312"><ele>347.16666666666663</ele><time>2026-04-18T09:46:04.343Z</time></trkpt><trkpt lat="43.9443919" lon="11.0502978"><ele>351.3333333333333</ele><time>2026-04-18T09:46:05.341Z</time></trkpt><trkpt lat="43.9444374" lon="11.0503586"><ele>355.5</ele><time>2026-04-18T09:46:06.351Z</time></trkpt><trkpt lat="43.9445061" lon="11.0504862"><ele>359.6666666666667</ele><time>2026-04-18T09:46:08.346Z</time></trkpt><trkpt lat="43.9445467" lon="11.0505785"><ele>363.83333333333337</ele><time>2026-04-18T09:46:10.36Z</time></trkpt><trkpt lat="43.9445997" lon="11.0506335"><ele>368.0</ele><time>2026-04-18T09:46:13.362Z</time></trkpt><trkpt lat="43.9446773" lon="11.0505911"><ele>368.0</ele><time>2026-04-18T09:46:16.358Z</time></trkpt><trkpt lat="43.9447377" lon="11.0504764"><ele>368.0</ele><time>2026-04-18T09:46:18.354Z</time></trkpt><trkpt lat="43.9447723" lon="11.0504021"><ele>368.0</ele><time>2026-04-18T09:46:19.35Z</time></trkpt><trkpt lat="43.9448125" lon="11.0502398"><ele>368.0</ele><time>2026-04-18T09:46:21.361Z</time></trkpt><trkpt lat="43.9448295" lon="11.0501495"><ele>368.0</ele><time>2026-04-18T09:46:22.354Z</time></trkpt><trkpt lat="43.9448459" lon="11.0500572"><ele>368.0</ele><time>2026-04-18T09:46:23.349Z</time></trkpt><trkpt lat="43.9448991" lon="11.0499313"><ele>367.5</ele><time>2026-04-18T09:46:25.342Z</time></trkpt><trkpt lat="43.9449566" lon="11.0498546"><ele>367.0</ele><time>2026-04-18T09:46:27.363Z</time></trkpt><trkpt lat="43.9449689" lon="11.0497489"><ele>366.5</ele><time>2026-04-18T09:46:30.367Z</time></trkpt><trkpt lat="43.9449445" lon="11.0496443"><ele>366.0</ele><time>2026-04-18T09:46:33.353Z</time></trkpt><trkpt lat="43.9449611" lon="11.049538"><ele>365.5</ele><time>2026-04-18T09:46:35.347Z</time></trkpt><trkpt lat="43.9450083" lon="11.0494359"><ele>365.0</ele><time>2026-04-18T09:46:37.363Z</time></trkpt><trkpt lat="43.945064" lon="11.0493334"><ele>368.83333333333337</ele><time>2026-04-18T09:46:39.378Z</time></trkpt><trkpt lat="43.9451177" lon="11.0492364"><ele>372.6666666666667</ele><time>2026-04-18T09:46:41.366Z</time></trkpt><trkpt lat="43.9451931" lon="11.0492292"><ele>376.5</ele><time>2026-04-18T09:46:43.358Z</time></trkpt><trkpt lat="43.9452653" lon="11.0492786"><ele>380.33333333333337</ele><time>2026-04-18T09:46:45.368Z</time></trkpt><trkpt lat="43.9453285" lon="11.0492667"><ele>384.1666666666667</ele><time>2026-04-18T09:46:47.367Z</time></trkpt><trkpt lat="43.9453704" lon="11.0491704"><ele>388.0</ele><time>2026-04-18T09:46:49.356Z</time></trkpt><trkpt lat="43.9453966" lon="11.0490532"><ele>388.00000000000006</ele><time>2026-04-18T09:46:51.366Z</time></trkpt><trkpt lat="43.9454202" lon="11.0489316"><ele>388.0</ele><time>2026-04-18T09:46:53.369Z</time></trkpt><trkpt lat="43.9454587" lon="11.0488337"><ele>388.0</ele><time>2026-04-18T09:46:55.374Z</time></trkpt><trkpt lat="43.9455091" lon="11.0487471"><ele>388.0</ele><time>2026-04-18T09:46:57.373Z</time></trkpt><trkpt lat="43.9455588" lon="11.0486624"><ele>388.00000000000006</ele><time>2026-04-18T09:46:59.381Z</time></trkpt><trkpt lat="43.9456206" lon="11.0485802"><ele>388.0</ele><time>2026-04-18T09:47:01.382Z</time></trkpt><trkpt lat="43.9456915" lon="11.0484446"><ele>388.00000000000006</ele><time>2026-04-18T09:47:03.342Z</time></trkpt><trkpt lat="43.9457411" lon="11.0483591"><ele>388.0</ele><time>2026-04-18T09:47:04.348Z</time></trkpt><trkpt lat="43.9457938" lon="11.0482698"><ele>388.0</ele><time>2026-04-18T09:47:05.339Z</time></trkpt><trkpt lat="43.9458454" lon="11.0481902"><ele>388.0</ele><time>2026-04-18T09:47:06.361Z</time></trkpt><trkpt lat="43.9458931" lon="11.048124"><ele>388.00000000000006</ele><time>2026-04-18T09:47:07.357Z</time></trkpt><trkpt lat="43.9459943" lon="11.0480527"><ele>388.0</ele><time>2026-04-18T09:47:09.343Z</time></trkpt><trkpt lat="43.9460906" lon="11.0480389"><ele>390.50000000000006</ele><time>2026-04-18T09:47:11.353Z</time></trkpt><trkpt lat="43.9461619" lon="11.0480582"><ele>393.0</ele><time>2026-04-18T09:47:13.366Z</time></trkpt><trkpt lat="43.9462034" lon="11.0481666"><ele>395.5</ele><time>2026-04-18T09:47:16.379Z</time></trkpt><trkpt lat="43.9461812" lon="11.048301"><ele>398.0</ele><time>2026-04-18T09:47:18.374Z</time></trkpt><trkpt lat="43.9461281" lon="11.0484565"><ele>400.50000000000006</ele><time>2026-04-18T09:47:20.373Z</time></trkpt><trkpt lat="43.9461059" lon="11.0485407"><ele>403.0</ele><time>2026-04-18T09:47:21.385Z</time></trkpt><trkpt lat="43.9460945" lon="11.0486377"><ele>404.2857142857143</ele><time>2026-04-18T09:47:22.381Z</time></trkpt><trkpt lat="43.9460884" lon="11.0487355"><ele>405.57142857142856</ele><time>2026-04-18T09:47:23.364Z</time></trkpt><trkpt lat="43.9460813" lon="11.0488267"><ele>406.85714285714283</ele><time>2026-04-18T09:47:24.375Z</time></trkpt><trkpt lat="43.9460734" lon="11.048914"><ele>408.1428571428571</ele><time>2026-04-18T09:47:25.361Z</time></trkpt><trkpt lat="43.9460583" lon="11.0490689"><ele>409.42857142857144</ele><time>2026-04-18T09:47:27.37Z</time></trkpt><trkpt lat="43.9460526" lon="11.0491587"><ele>410.71428571428567</ele><time>2026-04-18T09:47:38.36Z</time></trkpt><trkpt lat="43.9460593" lon="11.0492578"><ele>412.0</ele><time>2026-04-18T09:47:40.365Z</time></trkpt><trkpt lat="43.9460839" lon="11.0493576"><ele>413.00000000000006</ele><time>2026-04-18T09:47:42.366Z</time></trkpt><trkpt lat="43.9461306" lon="11.0494334"><ele>414.0</ele><time>2026-04-18T09:47:44.362Z</time></trkpt><trkpt lat="43.9461976" lon="11.0494729"><ele>415.0</ele><time>2026-04-18T09:47:58.363Z</time></trkpt><trkpt lat="43.9462649" lon="11.0494932"><ele>416.0</ele><time>2026-04-18T09:48:00.359Z</time></trkpt><trkpt lat="43.9463428" lon="11.0495499"><ele>417.00000000000006</ele><time>2026-04-18T09:48:03.355Z</time></trkpt><trkpt lat="43.9463678" lon="11.0496681"><ele>418.0</ele><time>2026-04-18T09:48:06.352Z</time></trkpt><trkpt lat="43.9463279" lon="11.0497734"><ele>418.00000000000006</ele><time>2026-04-18T09:48:08.348Z</time></trkpt><trkpt lat="43.9463105" lon="11.0498634"><ele>418.0</ele><time>2026-04-18T09:48:10.363Z</time></trkpt><trkpt lat="43.9463298" lon="11.0499598"><ele>418.0</ele><time>2026-04-18T09:48:12.366Z</time></trkpt><trkpt lat="43.9463756" lon="11.0500837"><ele>418.0</ele><time>2026-04-18T09:48:14.367Z</time></trkpt><trkpt lat="43.946423" lon="11.0502088"><ele>418.00000000000006</ele><time>2026-04-18T09:48:16.362Z</time></trkpt><trkpt lat="43.9464795" lon="11.0503106"><ele>418.0</ele><time>2026-04-18T09:48:18.37Z</time></trkpt><trkpt lat="43.9465495" lon="11.0503908"><ele>418.50000000000006</ele><time>2026-04-18T09:48:20.361Z</time></trkpt><trkpt lat="43.9466358" lon="11.0504358"><ele>419.0</ele><time>2026-04-18T09:48:22.359Z</time></trkpt><trkpt lat="43.9467117" lon="11.0504861"><ele>419.5</ele><time>2026-04-18T09:48:24.389Z</time></trkpt><trkpt lat="43.9467659" lon="11.0505529"><ele>420.0</ele><time>2026-04-18T09:48:26.369Z</time></trkpt><trkpt lat="43.9468139" lon="11.0506526"><ele>420.50000000000006</ele><time>2026-04-18T09:48:28.366Z</time></trkpt><trkpt lat="43.9468574" lon="11.0507538"><ele>421.0</ele><time>2026-04-18T09:48:30.366Z</time></trkpt><trkpt lat="43.9469074" lon="11.0508413"><ele>425.33333333333337</ele><time>2026-04-18T09:48:32.37Z</time></trkpt><trkpt lat="43.9469724" lon="11.0508947"><ele>429.6666666666667</ele><time>2026-04-18T09:49:53.355Z</time></trkpt><trkpt lat="43.9470338" lon="11.0508599"><ele>434.0</ele><time>2026-04-18T09:49:57.345Z</time></trkpt><trkpt lat="43.9470883" lon="11.0507739"><ele>438.33333333333337</ele><time>2026-04-18T09:50:14.358Z</time></trkpt><trkpt lat="43.9471279" lon="11.0506947"><ele>442.6666666666667</ele><time>2026-04-18T09:50:17.354Z</time></trkpt><trkpt lat="43.9471712" lon="11.0505979"><ele>447.0</ele><time>2026-04-18T09:50:21.355Z</time></trkpt><trkpt lat="43.9472141" lon="11.0504886"><ele>447.0</ele><time>2026-04-18T09:50:23.355Z</time></trkpt><trkpt lat="43.9472832" lon="11.0503743"><ele>447.0</ele><time>2026-04-18T09:50:25.346Z</time></trkpt><trkpt lat="43.9473463" lon="11.0502869"><ele>447.0</ele><time>2026-04-18T09:50:27.372Z</time></trkpt><trkpt lat="43.9473942" lon="11.0502223"><ele>447.0</ele><time>2026-04-18T09:50:29.393Z</time></trkpt><trkpt lat="43.9474512" lon="11.0501547"><ele>447.0</ele><time>2026-04-18T09:51:00.359Z</time></trkpt><trkpt lat="43.94753" lon="11.0502269"><ele>447.0</ele><time>2026-04-18T09:51:41.358Z</time></trkpt><trkpt lat="43.9475933" lon="11.0502985"><ele>450.5</ele><time>2026-04-18T09:51:44.356Z</time></trkpt><trkpt lat="43.9476502" lon="11.0504075"><ele>454.0</ele><time>2026-04-18T09:51:47.381Z</time></trkpt><trkpt lat="43.9476944" lon="11.0505106"><ele>457.5</ele><time>2026-04-18T09:51:49.372Z</time></trkpt><trkpt lat="43.9477671" lon="11.0505525"><ele>461.0</ele><time>2026-04-18T09:51:51.371Z</time></trkpt><trkpt lat="43.9478539" lon="11.0505507"><ele>464.5</ele><time>2026-04-18T09:51:53.364Z</time></trkpt><trkpt lat="43.9479313" lon="11.0505288"><ele>468.0</ele><time>2026-04-18T09:51:55.372Z</time></trkpt><trkpt lat="43.9480185" lon="11.0505477"><ele>468.0</ele><time>2026-04-18T09:51:57.368Z</time></trkpt><trkpt lat="43.948093" lon="11.0506541"><ele>467.99999999999994</ele><time>2026-04-18T09:51:59.358Z</time></trkpt><trkpt lat="43.948181" lon="11.0507402"><ele>467.99999999999994</ele><time>2026-04-18T09:52:01.366Z</time></trkpt><trkpt lat="43.9482826" lon="11.0507291"><ele>468.0</ele><time>2026-04-18T09:52:03.354Z</time></trkpt><trkpt lat="43.9483389" lon="11.0506781"><ele>468.0</ele><time>2026-04-18T09:52:04.364Z</time></trkpt><trkpt lat="43.9484095" lon="11.0506033"><ele>473.0</ele><time>2026-04-18T09:52:05.345Z</time></trkpt><trkpt lat="43.9484961" lon="11.0505094"><ele>478.0</ele><time>2026-04-18T09:52:06.369Z</time></trkpt><trkpt lat="43.948599" lon="11.0503968"><ele>483.0</ele><time>2026-04-18T09:52:07.358Z</time></trkpt><trkpt lat="43.9486971" lon="11.0502926"><ele>488.0</ele><time>2026-04-18T09:52:08.342Z</time></trkpt><trkpt lat="43.9487849" lon="11.0501982"><ele>487.99999999999994</ele><time>2026-04-18T09:52:09.353Z</time></trkpt><trkpt lat="43.9488619" lon="11.0501169"><ele>488.0</ele><time>2026-04-18T09:52:10.343Z</time></trkpt><trkpt lat="43.9489389" lon="11.050035"><ele>488.0</ele><time>2026-04-18T09:52:11.349Z</time></trkpt><trkpt lat="43.9490184" lon="11.0499552"><ele>488.0</ele><time>2026-04-18T09:52:12.347Z</time></trkpt><trkpt lat="43.9490808" lon="11.0498919"><ele>487.99999999999994</ele><time>2026-04-18T09:52:13.36Z</time></trkpt><trkpt lat="43.9491362" lon="11.0498429"><ele>488.0</ele><time>2026-04-18T09:52:14.349Z</time></trkpt><trkpt lat="43.9492387" lon="11.0498092"><ele>487.99999999999994</ele><time>2026-04-18T09:52:16.344Z</time></trkpt><trkpt lat="43.9493012" lon="11.0498426"><ele>488.0</ele><time>2026-04-18T09:52:18.358Z</time></trkpt><trkpt lat="43.9492878" lon="11.0499329"><ele>487.99999999999994</ele><time>2026-04-18T09:52:39.372Z</time></trkpt><trkpt lat="43.9492233" lon="11.0498978"><ele>487.99999999999994</ele><time>2026-04-18T09:52:46.37Z</time></trkpt><trkpt lat="43.9491371" lon="11.0498819"><ele>488.0</ele><time>2026-04-18T09:52:49.359Z</time></trkpt><trkpt lat="43.9490416" lon="11.0499005"><ele>487.99999999999994</ele><time>2026-04-18T09:52:52.354Z</time></trkpt><trkpt lat="43.9489865" lon="11.0499431"><ele>487.99999999999994</ele><time>2026-04-18T09:52:54.355Z</time></trkpt><trkpt lat="43.9489308" lon="11.0500419"><ele>487.99999999999994</ele><time>2026-04-18T09:52:57.351Z</time></trkpt><trkpt lat="43.948875" lon="11.0501381"><ele>488.0</ele><time>2026-04-18T09:53:00.356Z</time></trkpt><trkpt lat="43.9487979" lon="11.0502072"><ele>488.0</ele><time>2026-04-18T09:53:03.354Z</time></trkpt><trkpt lat="43.9487212" lon="11.0502648"><ele>488.0</ele><time>2026-04-18T09:53:06.353Z</time></trkpt><trkpt lat="43.9486485" lon="11.0503235"><ele>487.99999999999994</ele><time>2026-04-18T09:53:08.351Z</time></trkpt><trkpt lat="43.948577" lon="11.0503845"><ele>488.0</ele><time>2026-04-18T09:53:10.351Z</time></trkpt><trkpt lat="43.9485011" lon="11.0504555"><ele>487.99999999999994</ele><time>2026-04-18T09:53:12.352Z</time></trkpt><trkpt lat="43.9484251" lon="11.0505374"><ele>488.0</ele><time>2026-04-18T09:53:14.353Z</time></trkpt><trkpt lat="43.9483599" lon="11.0506153"><ele>488.0</ele><time>2026-04-18T09:53:16.365Z</time></trkpt><trkpt lat="43.9483044" lon="11.050669"><ele>488.0</ele><time>2026-04-18T09:53:18.364Z</time></trkpt><trkpt lat="43.9482284" lon="11.0507305"><ele>487.99999999999994</ele><time>2026-04-18T09:53:20.358Z</time></trkpt><trkpt lat="43.9481368" lon="11.0507968"><ele>488.0</ele><time>2026-04-18T09:53:22.351Z</time></trkpt><trkpt lat="43.9480677" lon="11.0508707"><ele>484.49999999999994</ele><time>2026-04-18T09:53:24.36Z</time></trkpt><trkpt lat="43.948015" lon="11.0509365"><ele>481.0</ele><time>2026-04-18T09:53:26.356Z</time></trkpt><trkpt lat="43.9480631" lon="11.0510487"><ele>477.5</ele><time>2026-04-18T09:53:32.351Z</time></trkpt><trkpt lat="43.9480934" lon="11.0511655"><ele>474.0</ele><time>2026-04-18T09:53:34.348Z</time></trkpt><trkpt lat="43.9480915" lon="11.0512852"><ele>470.49999999999994</ele><time>2026-04-18T09:53:36.353Z</time></trkpt><trkpt lat="43.9480758" lon="11.0513895"><ele>467.0</ele><time>2026-04-18T09:53:38.358Z</time></trkpt><trkpt lat="43.9480828" lon="11.0514818"><ele>466.99999999999994</ele><time>2026-04-18T09:53:47.37Z</time></trkpt><trkpt lat="43.9481412" lon="11.0516222"><ele>467.0</ele><time>2026-04-18T09:53:49.355Z</time></trkpt><trkpt lat="43.9481823" lon="11.0516955"><ele>467.0</ele><time>2026-04-18T09:53:50.347Z</time></trkpt><trkpt lat="43.9482281" lon="11.051761"><ele>467.0</ele><time>2026-04-18T09:53:51.352Z</time></trkpt><trkpt lat="43.948281" lon="11.051814"><ele>466.99999999999994</ele><time>2026-04-18T09:53:52.344Z</time></trkpt><trkpt lat="43.9483321" lon="11.0518768"><ele>467.0</ele><time>2026-04-18T09:53:53.338Z</time></trkpt><trkpt lat="43.948399" lon="11.0519291"><ele>470.3333333333333</ele><time>2026-04-18T09:53:54.346Z</time></trkpt><trkpt lat="43.9484653" lon="11.0519747"><ele>473.66666666666663</ele><time>2026-04-18T09:53:55.343Z</time></trkpt><trkpt lat="43.948528" lon="11.0519984"><ele>477.0</ele><time>2026-04-18T09:53:56.345Z</time></trkpt><trkpt lat="43.9486331" lon="11.0520546"><ele>480.33333333333337</ele><time>2026-04-18T09:53:58.35Z</time></trkpt><trkpt lat="43.9487154" lon="11.052145"><ele>483.6666666666667</ele><time>2026-04-18T09:54:00.345Z</time></trkpt><trkpt lat="43.9487541" lon="11.0522419"><ele>487.0</ele><time>2026-04-18T09:54:02.35Z</time></trkpt><trkpt lat="43.9487835" lon="11.0523866"><ele>486.20000000000005</ele><time>2026-04-18T09:54:04.336Z</time></trkpt><trkpt lat="43.9488033" lon="11.0525501"><ele>485.40000000000003</ele><time>2026-04-18T09:54:06.362Z</time></trkpt><trkpt lat="43.9487883" lon="11.0527059"><ele>484.59999999999997</ele><time>2026-04-18T09:54:08.361Z</time></trkpt><trkpt lat="43.9488193" lon="11.0528378"><ele>483.79999999999995</ele><time>2026-04-18T09:54:10.371Z</time></trkpt><trkpt lat="43.9488675" lon="11.0529582"><ele>483.0</ele><time>2026-04-18T09:54:12.379Z</time></trkpt><trkpt lat="43.9489015" lon="11.0530414"><ele>483.0</ele><time>2026-04-18T09:54:14.366Z</time></trkpt><trkpt lat="43.9489182" lon="11.0531434"><ele>483.0</ele><time>2026-04-18T09:54:17.366Z</time></trkpt><trkpt lat="43.9488867" lon="11.0532419"><ele>483.0</ele><time>2026-04-18T09:54:19.365Z</time></trkpt><trkpt lat="43.9488357" lon="11.0533488"><ele>483.0</ele><time>2026-04-18T09:54:21.367Z</time></trkpt><trkpt lat="43.9487663" lon="11.0534487"><ele>483.0</ele><time>2026-04-18T09:54:23.379Z</time></trkpt><trkpt lat="43.9486886" lon="11.053485"><ele>483.0</ele><time>2026-04-18T09:54:25.387Z</time></trkpt><trkpt lat="43.9485985" lon="11.0535002"><ele>483.2</ele><time>2026-04-18T09:54:27.366Z</time></trkpt><trkpt lat="43.948502" lon="11.0535297"><ele>483.4</ele><time>2026-04-18T09:54:29.363Z</time></trkpt><trkpt lat="43.9484036" lon="11.053573"><ele>483.59999999999997</ele><time>2026-04-18T09:54:31.363Z</time></trkpt><trkpt lat="43.9483033" lon="11.0535898"><ele>483.79999999999995</ele><time>2026-04-18T09:54:33.379Z</time></trkpt><trkpt lat="43.9482022" lon="11.0536369"><ele>484.0</ele><time>2026-04-18T09:54:35.363Z</time></trkpt><trkpt lat="43.9480983" lon="11.0537095"><ele>482.00000000000006</ele><time>2026-04-18T09:54:37.364Z</time></trkpt><trkpt lat="43.9480425" lon="11.0537601"><ele>480.0</ele><time>2026-04-18T09:54:38.364Z</time></trkpt><trkpt lat="43.9479875" lon="11.053814"><ele>478.0</ele><time>2026-04-18T09:54:39.359Z</time></trkpt><trkpt lat="43.9479345" lon="11.0538729"><ele>476.0</ele><time>2026-04-18T09:54:40.359Z</time></trkpt><trkpt lat="43.9478395" lon="11.053962"><ele>474.00000000000006</ele><time>2026-04-18T09:54:42.364Z</time></trkpt><trkpt lat="43.9477556" lon="11.0540281"><ele>472.0</ele><time>2026-04-18T09:54:44.35Z</time></trkpt><trkpt lat="43.9476933" lon="11.0541007"><ele>471.50000000000006</ele><time>2026-04-18T09:54:47.364Z</time></trkpt><trkpt lat="43.9477474" lon="11.0542097"><ele>471.0</ele><time>2026-04-18T09:54:52.376Z</time></trkpt><trkpt lat="43.947794" lon="11.0543272"><ele>470.5</ele><time>2026-04-18T09:54:54.376Z</time></trkpt><trkpt lat="43.9477896" lon="11.0544366"><ele>470.0</ele><time>2026-04-18T09:54:56.371Z</time></trkpt><trkpt lat="43.9477671" lon="11.0545546"><ele>469.50000000000006</ele><time>2026-04-18T09:54:58.366Z</time></trkpt><trkpt lat="43.947742" lon="11.0546683"><ele>469.0</ele><time>2026-04-18T09:55:00.362Z</time></trkpt><trkpt lat="43.9477272" lon="11.0547831"><ele>469.00000000000006</ele><time>2026-04-18T09:55:02.365Z</time></trkpt><trkpt lat="43.9476991" lon="11.0548926"><ele>469.0</ele><time>2026-04-18T09:55:04.376Z</time></trkpt><trkpt lat="43.9476368" lon="11.0549541"><ele>469.0</ele><time>2026-04-18T09:55:06.357Z</time></trkpt><trkpt lat="43.9475273" lon="11.0549991"><ele>469.0</ele><time>2026-04-18T09:55:08.349Z</time></trkpt><trkpt lat="43.9474628" lon="11.055042"><ele>469.00000000000006</ele><time>2026-04-18T09:55:09.35Z</time></trkpt><trkpt lat="43.9474075" lon="11.0550896"><ele>469.0</ele><time>2026-04-18T09:55:10.359Z</time></trkpt><trkpt lat="43.947346" lon="11.0551371"><ele>467.57142857142856</ele><time>2026-04-18T09:55:11.349Z</time></trkpt><trkpt lat="43.9472785" lon="11.05519"><ele>466.1428571428571</ele><time>2026-04-18T09:55:12.362Z</time></trkpt><trkpt lat="43.9472153" lon="11.0552509"><ele>464.7142857142857</ele><time>2026-04-18T09:55:13.342Z</time></trkpt><trkpt lat="43.9471635" lon="11.0553186"><ele>463.2857142857143</ele><time>2026-04-18T09:55:14.356Z</time></trkpt><trkpt lat="43.9471395" lon="11.0554074"><ele>461.85714285714283</ele><time>2026-04-18T09:55:15.359Z</time></trkpt><trkpt lat="43.9471366" lon="11.0555014"><ele>460.42857142857144</ele><time>2026-04-18T09:55:16.362Z</time></trkpt><trkpt lat="43.9471262" lon="11.0555881"><ele>459.0</ele><time>2026-04-18T09:55:17.362Z</time></trkpt><trkpt lat="43.9471067" lon="11.0557457"><ele>460.0</ele><time>2026-04-18T09:55:19.36Z</time></trkpt><trkpt lat="43.9471393" lon="11.0558704"><ele>461.0</ele><time>2026-04-18T09:55:21.37Z</time></trkpt><trkpt lat="43.9472089" lon="11.0559156"><ele>462.0</ele><time>2026-04-18T09:55:23.39Z</time></trkpt><trkpt lat="43.9473062" lon="11.0559217"><ele>463.0</ele><time>2026-04-18T09:55:25.379Z</time></trkpt><trkpt lat="43.9474137" lon="11.0559447"><ele>464.0</ele><time>2026-04-18T09:55:27.369Z</time></trkpt><trkpt lat="43.9474776" lon="11.0559678"><ele>465.0</ele><time>2026-04-18T09:55:28.369Z</time></trkpt><trkpt lat="43.9475448" lon="11.0559987"><ele>466.8333333333333</ele><time>2026-04-18T09:55:29.357Z</time></trkpt><trkpt lat="43.94761" lon="11.0560353"><ele>468.66666666666663</ele><time>2026-04-18T09:55:30.37Z</time></trkpt><trkpt lat="43.9476716" lon="11.0560703"><ele>470.5</ele><time>2026-04-18T09:55:31.361Z</time></trkpt><trkpt lat="43.9477313" lon="11.0560982"><ele>472.3333333333333</ele><time>2026-04-18T09:55:32.359Z</time></trkpt><trkpt lat="43.947791" lon="11.0561268"><ele>474.16666666666663</ele><time>2026-04-18T09:55:33.376Z</time></trkpt><trkpt lat="43.9479013" lon="11.0561818"><ele>476.0</ele><time>2026-04-18T09:55:35.378Z</time></trkpt><trkpt lat="43.9480006" lon="11.0562173"><ele>476.0</ele><time>2026-04-18T09:55:37.384Z</time></trkpt><trkpt lat="43.9480869" lon="11.0562492"><ele>476.0</ele><time>2026-04-18T09:55:39.376Z</time></trkpt><trkpt lat="43.9481815" lon="11.0562539"><ele>476.0</ele><time>2026-04-18T09:55:41.386Z</time></trkpt><trkpt lat="43.9482894" lon="11.0562495"><ele>476.0</ele><time>2026-04-18T09:55:43.376Z</time></trkpt><trkpt lat="43.9484036" lon="11.0562419"><ele>476.0</ele><time>2026-04-18T09:55:45.368Z</time></trkpt><trkpt lat="43.9485079" lon="11.0562225"><ele>477.99999999999994</ele><time>2026-04-18T09:55:47.379Z</time></trkpt><trkpt lat="43.9485941" lon="11.0561557"><ele>480.0</ele><time>2026-04-18T09:55:49.38Z</time></trkpt><trkpt lat="43.948641" lon="11.0560834"><ele>482.0</ele><time>2026-04-18T09:55:50.362Z</time></trkpt><trkpt lat="43.9486908" lon="11.0560155"><ele>484.0</ele><time>2026-04-18T09:55:51.356Z</time></trkpt><trkpt lat="43.9487436" lon="11.0559601"><ele>485.99999999999994</ele><time>2026-04-18T09:55:52.356Z</time></trkpt><trkpt lat="43.9488274" lon="11.0558564"><ele>488.0</ele><time>2026-04-18T09:55:54.376Z</time></trkpt><trkpt lat="43.9489216" lon="11.0557989"><ele>487.99999999999994</ele><time>2026-04-18T09:55:56.367Z</time></trkpt><trkpt lat="43.9490406" lon="11.0558134"><ele>488.0</ele><time>2026-04-18T09:55:58.356Z</time></trkpt><trkpt lat="43.9491043" lon="11.0558387"><ele>488.0</ele><time>2026-04-18T09:55:59.351Z</time></trkpt><trkpt lat="43.9491702" lon="11.0558848"><ele>488.0</ele><time>2026-04-18T09:56:00.354Z</time></trkpt><trkpt lat="43.9492244" lon="11.0559311"><ele>487.99999999999994</ele><time>2026-04-18T09:56:01.352Z</time></trkpt><trkpt lat="43.9493324" lon="11.0559551"><ele>488.0</ele><time>2026-04-18T09:56:03.356Z</time></trkpt><trkpt lat="43.9494449" lon="11.0559194"><ele>489.99999999999994</ele><time>2026-04-18T09:56:05.358Z</time></trkpt><trkpt lat="43.9495088" lon="11.0559081"><ele>492.0</ele><time>2026-04-18T09:56:06.357Z</time></trkpt><trkpt lat="43.9495845" lon="11.0559074"><ele>494.0</ele><time>2026-04-18T09:56:07.356Z</time></trkpt><trkpt lat="43.9496629" lon="11.0559267"><ele>496.0</ele><time>2026-04-18T09:56:08.359Z</time></trkpt><trkpt lat="43.9497508" lon="11.0559362"><ele>497.99999999999994</ele><time>2026-04-18T09:56:09.366Z</time></trkpt><trkpt lat="43.9498379" lon="11.0559467"><ele>500.0</ele><time>2026-04-18T09:56:10.354Z</time></trkpt><trkpt lat="43.9499133" lon="11.055964"><ele>499.99999999999994</ele><time>2026-04-18T09:56:11.362Z</time></trkpt><trkpt lat="43.9499885" lon="11.0559881"><ele>500.0</ele><time>2026-04-18T09:56:12.36Z</time></trkpt><trkpt lat="43.9500518" lon="11.0560203"><ele>500.0</ele><time>2026-04-18T09:56:13.369Z</time></trkpt><trkpt lat="43.9501141" lon="11.0560511"><ele>500.0</ele><time>2026-04-18T09:56:14.363Z</time></trkpt><trkpt lat="43.9501745" lon="11.0560783"><ele>499.99999999999994</ele><time>2026-04-18T09:56:15.368Z</time></trkpt><trkpt lat="43.9502768" lon="11.0561381"><ele>500.0</ele><time>2026-04-18T09:56:17.372Z</time></trkpt><trkpt lat="43.9503467" lon="11.0562222"><ele>501.3333333333333</ele><time>2026-04-18T09:56:19.363Z</time></trkpt><trkpt lat="43.9504222" lon="11.0562563"><ele>502.66666666666663</ele><time>2026-04-18T09:56:21.381Z</time></trkpt><trkpt lat="43.9505055" lon="11.0562322"><ele>504.0</ele><time>2026-04-18T09:56:23.39Z</time></trkpt><trkpt lat="43.9505732" lon="11.0561952"><ele>505.33333333333337</ele><time>2026-04-18T09:56:25.374Z</time></trkpt><trkpt lat="43.9506319" lon="11.0562421"><ele>506.6666666666667</ele><time>2026-04-18T09:56:31.369Z</time></trkpt><trkpt lat="43.9507047" lon="11.0563043"><ele>508.0</ele><time>2026-04-18T09:56:33.356Z</time></trkpt><trkpt lat="43.9508063" lon="11.056304"><ele>506.0</ele><time>2026-04-18T09:56:35.371Z</time></trkpt><trkpt lat="43.9509414" lon="11.0562804"><ele>504.0</ele><time>2026-04-18T09:56:37.35Z</time></trkpt><trkpt lat="43.9510333" lon="11.0562618"><ele>502.0</ele><time>2026-04-18T09:56:38.362Z</time></trkpt><trkpt lat="43.9511492" lon="11.0562445"><ele>500.0</ele><time>2026-04-18T09:56:39.373Z</time></trkpt><trkpt lat="43.9512767" lon="11.0562267"><ele>500.0</ele><time>2026-04-18T09:56:40.372Z</time></trkpt><trkpt lat="43.9513972" lon="11.0562042"><ele>500.0</ele><time>2026-04-18T09:56:41.369Z</time></trkpt><trkpt lat="43.9515162" lon="11.0561838"><ele>500.0</ele><time>2026-04-18T09:56:42.371Z</time></trkpt><trkpt lat="43.9516313" lon="11.056167"><ele>500.0</ele><time>2026-04-18T09:56:43.362Z</time></trkpt><trkpt lat="43.9517254" lon="11.0561578"><ele>496.8</ele><time>2026-04-18T09:56:44.353Z</time></trkpt><trkpt lat="43.951812" lon="11.0561669"><ele>493.6</ele><time>2026-04-18T09:56:45.355Z</time></trkpt><trkpt lat="43.9518993" lon="11.0561997"><ele>490.4</ele><time>2026-04-18T09:56:46.361Z</time></trkpt><trkpt lat="43.9519898" lon="11.0562439"><ele>487.2</ele><time>2026-04-18T09:56:47.357Z</time></trkpt><trkpt lat="43.9520761" lon="11.0563056"><ele>484.0</ele><time>2026-04-18T09:56:48.354Z</time></trkpt><trkpt lat="43.9521579" lon="11.0563766"><ele>484.0</ele><time>2026-04-18T09:56:49.36Z</time></trkpt><trkpt lat="43.9522369" lon="11.0564523"><ele>484.0</ele><time>2026-04-18T09:56:50.361Z</time></trkpt><trkpt lat="43.9523145" lon="11.0565391"><ele>484.0</ele><time>2026-04-18T09:56:51.359Z</time></trkpt><trkpt lat="43.9523819" lon="11.056631"><ele>484.0</ele><time>2026-04-18T09:56:52.362Z</time></trkpt><trkpt lat="43.9524393" lon="11.0567213"><ele>484.0</ele><time>2026-04-18T09:56:53.362Z</time></trkpt><trkpt lat="43.9525036" lon="11.0568004"><ele>484.79999999999995</ele><time>2026-04-18T09:56:54.35Z</time></trkpt><trkpt lat="43.9525658" lon="11.0568754"><ele>485.59999999999997</ele><time>2026-04-18T09:56:55.363Z</time></trkpt><trkpt lat="43.9526302" lon="11.0569522"><ele>486.4</ele><time>2026-04-18T09:56:56.368Z</time></trkpt><trkpt lat="43.9527042" lon="11.0570339"><ele>487.2</ele><time>2026-04-18T09:56:57.372Z</time></trkpt><trkpt lat="43.9527767" lon="11.0571244"><ele>488.0</ele><time>2026-04-18T09:56:58.374Z</time></trkpt><trkpt lat="43.9528457" lon="11.0572216"><ele>488.0</ele><time>2026-04-18T09:56:59.371Z</time></trkpt><trkpt lat="43.9529151" lon="11.0573283"><ele>487.99999999999994</ele><time>2026-04-18T09:57:00.374Z</time></trkpt><trkpt lat="43.9529932" lon="11.0574421"><ele>487.99999999999994</ele><time>2026-04-18T09:57:01.366Z</time></trkpt><trkpt lat="43.9530676" lon="11.0575613"><ele>488.0</ele><time>2026-04-18T09:57:02.366Z</time></trkpt><trkpt lat="43.9531409" lon="11.0576814"><ele>488.0</ele><time>2026-04-18T09:57:03.365Z</time></trkpt><trkpt lat="43.953223" lon="11.0578071"><ele>487.5</ele><time>2026-04-18T09:57:04.349Z</time></trkpt><trkpt lat="43.9533086" lon="11.0579231"><ele>487.0</ele><time>2026-04-18T09:57:05.363Z</time></trkpt><trkpt lat="43.9533986" lon="11.0580291"><ele>486.5</ele><time>2026-04-18T09:57:06.349Z</time></trkpt><trkpt lat="43.9534912" lon="11.0581229"><ele>486.0</ele><time>2026-04-18T09:57:07.364Z</time></trkpt><trkpt lat="43.9535778" lon="11.0582067"><ele>487.4</ele><time>2026-04-18T09:57:08.369Z</time></trkpt><trkpt lat="43.9536554" lon="11.0582857"><ele>488.8</ele><time>2026-04-18T09:57:09.37Z</time></trkpt><trkpt lat="43.9537385" lon="11.0583623"><ele>490.19999999999993</ele><time>2026-04-18T09:57:10.375Z</time></trkpt><trkpt lat="43.9538137" lon="11.0584498"><ele>491.59999999999997</ele><time>2026-04-18T09:57:11.378Z</time></trkpt><trkpt lat="43.9538926" lon="11.0585495"><ele>493.0</ele><time>2026-04-18T09:57:12.364Z</time></trkpt><trkpt lat="43.9539627" lon="11.0586568"><ele>493.0</ele><time>2026-04-18T09:57:13.363Z</time></trkpt><trkpt lat="43.9540254" lon="11.0587692"><ele>492.99999999999994</ele><time>2026-04-18T09:57:14.363Z</time></trkpt><trkpt lat="43.9540777" lon="11.0588853"><ele>492.99999999999994</ele><time>2026-04-18T09:57:15.37Z</time></trkpt><trkpt lat="43.9541229" lon="11.0589993"><ele>493.0</ele><time>2026-04-18T09:57:16.365Z</time></trkpt><trkpt lat="43.9541594" lon="11.0591291"><ele>493.0</ele><time>2026-04-18T09:57:17.37Z</time></trkpt><trkpt lat="43.9541999" lon="11.0592596"><ele>495.0</ele><time>2026-04-18T09:57:18.367Z</time></trkpt><trkpt lat="43.9542514" lon="11.0593814"><ele>496.99999999999994</ele><time>2026-04-18T09:57:19.363Z</time></trkpt><trkpt lat="43.9543042" lon="11.0595027"><ele>498.99999999999994</ele><time>2026-04-18T09:57:20.368Z</time></trkpt><trkpt lat="43.9543547" lon="11.0596172"><ele>501.0</ele><time>2026-04-18T09:57:21.362Z</time></trkpt><trkpt lat="43.9543963" lon="11.0597334"><ele>503.0</ele><time>2026-04-18T09:57:22.387Z</time></trkpt><trkpt lat="43.9544317" lon="11.0598526"><ele>503.99999999999994</ele><time>2026-04-18T09:57:23.378Z</time></trkpt><trkpt lat="43.9544691" lon="11.0599806"><ele>505.0</ele><time>2026-04-18T09:57:24.363Z</time></trkpt><trkpt lat="43.9545014" lon="11.0601086"><ele>506.0</ele><time>2026-04-18T09:57:25.362Z</time></trkpt><trkpt lat="43.9545213" lon="11.0602259"><ele>507.0</ele><time>2026-04-18T09:57:26.371Z</time></trkpt><trkpt lat="43.9545371" lon="11.0603415"><ele>507.99999999999994</ele><time>2026-04-18T09:57:27.373Z</time></trkpt><trkpt lat="43.9545467" lon="11.0604491"><ele>509.0</ele><time>2026-04-18T09:57:28.355Z</time></trkpt><trkpt lat="43.9545417" lon="11.0605859"><ele>508.99999999999994</ele><time>2026-04-18T09:57:30.367Z</time></trkpt><trkpt lat="43.954472" lon="11.0605705"><ele>509.0</ele><time>2026-04-18T09:57:50.373Z</time></trkpt><trkpt lat="43.9544097" lon="11.0605193"><ele>509.0</ele><time>2026-04-18T09:57:52.37Z</time></trkpt><trkpt lat="43.9542857" lon="11.0604522"><ele>509.0</ele><time>2026-04-18T09:57:54.368Z</time></trkpt><trkpt lat="43.9542142" lon="11.0604205"><ele>508.99999999999994</ele><time>2026-04-18T09:57:55.352Z</time></trkpt><trkpt lat="43.9541467" lon="11.0603881"><ele>509.0</ele><time>2026-04-18T09:57:56.341Z</time></trkpt><trkpt lat="43.954074" lon="11.0603584"><ele>506.71428571428567</ele><time>2026-04-18T09:57:57.35Z</time></trkpt><trkpt lat="43.9540044" lon="11.0603358"><ele>504.42857142857144</ele><time>2026-04-18T09:57:58.349Z</time></trkpt><trkpt lat="43.9539341" lon="11.0603047"><ele>502.1428571428571</ele><time>2026-04-18T09:57:59.369Z</time></trkpt><trkpt lat="43.9538692" lon="11.0602776"><ele>499.85714285714283</ele><time>2026-04-18T09:58:00.369Z</time></trkpt><trkpt lat="43.9538042" lon="11.0602397"><ele>497.57142857142856</ele><time>2026-04-18T09:58:01.368Z</time></trkpt><trkpt lat="43.9537396" lon="11.0602007"><ele>495.2857142857143</ele><time>2026-04-18T09:58:02.361Z</time></trkpt><trkpt lat="43.9536729" lon="11.0601574"><ele>493.0</ele><time>2026-04-18T09:58:03.355Z</time></trkpt><trkpt lat="43.9536035" lon="11.0600955"><ele>493.00000000000006</ele><time>2026-04-18T09:58:04.353Z</time></trkpt><trkpt lat="43.9535346" lon="11.0600365"><ele>493.0</ele><time>2026-04-18T09:58:05.356Z</time></trkpt><trkpt lat="43.9534614" lon="11.0599851"><ele>493.0</ele><time>2026-04-18T09:58:06.361Z</time></trkpt><trkpt lat="43.9533866" lon="11.0599326"><ele>493.0</ele><time>2026-04-18T09:58:07.355Z</time></trkpt><trkpt lat="43.9533099" lon="11.0598871"><ele>493.00000000000006</ele><time>2026-04-18T09:58:08.364Z</time></trkpt><trkpt lat="43.9532343" lon="11.059852"><ele>493.0</ele><time>2026-04-18T09:58:09.366Z</time></trkpt><trkpt lat="43.9531574" lon="11.0598224"><ele>492.42857142857144</ele><time>2026-04-18T09:58:10.354Z</time></trkpt><trkpt lat="43.9530886" lon="11.0598052"><ele>491.8571428571429</ele><time>2026-04-18T09:58:11.347Z</time></trkpt><trkpt lat="43.9530248" lon="11.0597931"><ele>491.28571428571433</ele><time>2026-04-18T09:58:12.351Z</time></trkpt><trkpt lat="43.9529449" lon="11.059789"><ele>490.7142857142857</ele><time>2026-04-18T09:58:14.355Z</time></trkpt><trkpt lat="43.9528722" lon="11.0598085"><ele>490.1428571428572</ele><time>2026-04-18T09:58:17.366Z</time></trkpt><trkpt lat="43.9528019" lon="11.0598277"><ele>489.5714285714286</ele><time>2026-04-18T09:58:20.369Z</time></trkpt><trkpt lat="43.9527169" lon="11.0597889"><ele>489.0</ele><time>2026-04-18T09:59:29.364Z</time></trkpt><trkpt lat="43.9526353" lon="11.0597723"><ele>487.0</ele><time>2026-04-18T09:59:30.343Z</time></trkpt><trkpt lat="43.9525369" lon="11.0597512"><ele>485.0</ele><time>2026-04-18T09:59:31.349Z</time></trkpt><trkpt lat="43.9524391" lon="11.0597278"><ele>483.0</ele><time>2026-04-18T09:59:32.349Z</time></trkpt><trkpt lat="43.9523416" lon="11.0596963"><ele>481.0</ele><time>2026-04-18T09:59:33.356Z</time></trkpt><trkpt lat="43.9522459" lon="11.0596677"><ele>479.0</ele><time>2026-04-18T09:59:34.355Z</time></trkpt><trkpt lat="43.9521558" lon="11.0596519"><ele>479.0</ele><time>2026-04-18T09:59:35.344Z</time></trkpt><trkpt lat="43.9520647" lon="11.0596508"><ele>479.0</ele><time>2026-04-18T09:59:36.35Z</time></trkpt><trkpt lat="43.9519739" lon="11.0596806"><ele>479.0</ele><time>2026-04-18T09:59:37.348Z</time></trkpt><trkpt lat="43.9518836" lon="11.0597171"><ele>479.0</ele><time>2026-04-18T09:59:38.351Z</time></trkpt><trkpt lat="43.9517872" lon="11.059739"><ele>479.0</ele><time>2026-04-18T09:59:39.353Z</time></trkpt><trkpt lat="43.9516939" lon="11.0597466"><ele>476.49999999999994</ele><time>2026-04-18T09:59:40.375Z</time></trkpt><trkpt lat="43.9515996" lon="11.0597475"><ele>474.0</ele><time>2026-04-18T09:59:41.366Z</time></trkpt><trkpt lat="43.9515086" lon="11.0597504"><ele>471.5</ele><time>2026-04-18T09:59:42.356Z</time></trkpt><trkpt lat="43.9514202" lon="11.0597461"><ele>469.0</ele><time>2026-04-18T09:59:43.352Z</time></trkpt><trkpt lat="43.9513383" lon="11.0597304"><ele>466.49999999999994</ele><time>2026-04-18T09:59:44.356Z</time></trkpt><trkpt lat="43.9512617" lon="11.0596875"><ele>464.0</ele><time>2026-04-18T09:59:45.356Z</time></trkpt><trkpt lat="43.9511927" lon="11.0596047"><ele>463.99999999999994</ele><time>2026-04-18T09:59:46.346Z</time></trkpt><trkpt lat="43.9511257" lon="11.0595175"><ele>464.0</ele><time>2026-04-18T09:59:47.357Z</time></trkpt><trkpt lat="43.9510541" lon="11.0594549"><ele>464.0</ele><time>2026-04-18T09:59:48.36Z</time></trkpt><trkpt lat="43.9509802" lon="11.0594371"><ele>464.0</ele><time>2026-04-18T09:59:49.357Z</time></trkpt><trkpt lat="43.9509053" lon="11.0594534"><ele>463.99999999999994</ele><time>2026-04-18T09:59:50.349Z</time></trkpt><trkpt lat="43.9508298" lon="11.0594956"><ele>464.0</ele><time>2026-04-18T09:59:51.349Z</time></trkpt><trkpt lat="43.9507587" lon="11.0595547"><ele>461.2</ele><time>2026-04-18T09:59:52.361Z</time></trkpt><trkpt lat="43.9506907" lon="11.059647"><ele>458.4</ele><time>2026-04-18T09:59:53.35Z</time></trkpt><trkpt lat="43.9506283" lon="11.0597549"><ele>455.6</ele><time>2026-04-18T09:59:54.349Z</time></trkpt><trkpt lat="43.9505655" lon="11.0598714"><ele>452.8</ele><time>2026-04-18T09:59:55.349Z</time></trkpt><trkpt lat="43.9504989" lon="11.0599888"><ele>450.0</ele><time>2026-04-18T09:59:56.353Z</time></trkpt><trkpt lat="43.9504259" lon="11.0600891"><ele>448.2</ele><time>2026-04-18T09:59:57.348Z</time></trkpt><trkpt lat="43.9503441" lon="11.0601679"><ele>446.4</ele><time>2026-04-18T09:59:58.348Z</time></trkpt><trkpt lat="43.9502514" lon="11.0602168"><ele>444.6</ele><time>2026-04-18T09:59:59.358Z</time></trkpt><trkpt lat="43.9501561" lon="11.060238"><ele>442.8</ele><time>2026-04-18T10:00:00.351Z</time></trkpt><trkpt lat="43.9500643" lon="11.0602399"><ele>441.0</ele><time>2026-04-18T10:00:01.35Z</time></trkpt><trkpt lat="43.9499708" lon="11.06025"><ele>441.0</ele><time>2026-04-18T10:00:02.358Z</time></trkpt><trkpt lat="43.9498828" lon="11.0602801"><ele>441.0</ele><time>2026-04-18T10:00:03.357Z</time></trkpt><trkpt lat="43.9498164" lon="11.0603353"><ele>441.0</ele><time>2026-04-18T10:00:04.361Z</time></trkpt><trkpt lat="43.9497809" lon="11.0604191"><ele>441.0</ele><time>2026-04-18T10:00:05.345Z</time></trkpt><trkpt lat="43.9497614" lon="11.0605325"><ele>441.0</ele><time>2026-04-18T10:00:06.338Z</time></trkpt><trkpt lat="43.9497351" lon="11.0606592"><ele>441.0</ele><time>2026-04-18T10:00:07.345Z</time></trkpt><trkpt lat="43.9497105" lon="11.0608014"><ele>437.5</ele><time>2026-04-18T10:00:08.352Z</time></trkpt><trkpt lat="43.9496768" lon="11.0609443"><ele>434.0</ele><time>2026-04-18T10:00:09.34Z</time></trkpt><trkpt lat="43.9496337" lon="11.0610877"><ele>430.5</ele><time>2026-04-18T10:00:10.348Z</time></trkpt><trkpt lat="43.9495797" lon="11.0612237"><ele>427.0</ele><time>2026-04-18T10:00:11.342Z</time></trkpt><trkpt lat="43.9495089" lon="11.0613623"><ele>427.0</ele><time>2026-04-18T10:00:12.349Z</time></trkpt><trkpt lat="43.9494359" lon="11.0614885"><ele>427.00000000000006</ele><time>2026-04-18T10:00:13.358Z</time></trkpt><trkpt lat="43.9493515" lon="11.06161"><ele>427.00000000000006</ele><time>2026-04-18T10:00:14.347Z</time></trkpt><trkpt lat="43.9492733" lon="11.0617196"><ele>427.0</ele><time>2026-04-18T10:00:15.355Z</time></trkpt><trkpt lat="43.9492058" lon="11.0618028"><ele>427.0</ele><time>2026-04-18T10:00:16.348Z</time></trkpt><trkpt lat="43.94913" lon="11.0618428"><ele>425.33333333333337</ele><time>2026-04-18T10:00:17.346Z</time></trkpt><trkpt lat="43.9490501" lon="11.0618637"><ele>423.6666666666667</ele><time>2026-04-18T10:00:18.349Z</time></trkpt><trkpt lat="43.9489656" lon="11.061883"><ele>422.0</ele><time>2026-04-18T10:00:19.344Z</time></trkpt><trkpt lat="43.9488762" lon="11.0618944"><ele>420.33333333333337</ele><time>2026-04-18T10:00:20.344Z</time></trkpt><trkpt lat="43.9487888" lon="11.0619155"><ele>418.6666666666667</ele><time>2026-04-18T10:00:21.351Z</time></trkpt><trkpt lat="43.9487044" lon="11.0619263"><ele>417.0</ele><time>2026-04-18T10:00:22.356Z</time></trkpt><trkpt lat="43.9486292" lon="11.0619218"><ele>417.0</ele><time>2026-04-18T10:00:23.358Z</time></trkpt><trkpt lat="43.9485585" lon="11.0619252"><ele>417.0</ele><time>2026-04-18T10:00:24.352Z</time></trkpt><trkpt lat="43.9484333" lon="11.0619593"><ele>417.0</ele><time>2026-04-18T10:00:26.362Z</time></trkpt><trkpt lat="43.9483755" lon="11.0620028"><ele>417.0</ele><time>2026-04-18T10:00:27.355Z</time></trkpt><trkpt lat="43.9483235" lon="11.0620596"><ele>417.0</ele><time>2026-04-18T10:00:28.363Z</time></trkpt><trkpt lat="43.9482781" lon="11.0621316"><ele>417.0</ele><time>2026-04-18T10:00:29.358Z</time></trkpt><trkpt lat="43.9482282" lon="11.0621997"><ele>417.40000000000003</ele><time>2026-04-18T10:00:30.35Z</time></trkpt><trkpt lat="43.9481634" lon="11.0622466"><ele>417.8</ele><time>2026-04-18T10:00:31.36Z</time></trkpt><trkpt lat="43.948085" lon="11.0622868"><ele>418.2</ele><time>2026-04-18T10:00:32.356Z</time></trkpt><trkpt lat="43.9479959" lon="11.0623103"><ele>418.6</ele><time>2026-04-18T10:00:33.367Z</time></trkpt><trkpt lat="43.9478836" lon="11.0623075"><ele>419.0</ele><time>2026-04-18T10:00:34.352Z</time></trkpt><trkpt lat="43.9477669" lon="11.0622973"><ele>419.0</ele><time>2026-04-18T10:00:35.344Z</time></trkpt><trkpt lat="43.9476545" lon="11.0623013"><ele>419.0</ele><time>2026-04-18T10:00:36.346Z</time></trkpt><trkpt lat="43.9475448" lon="11.0623234"><ele>419.0</ele><time>2026-04-18T10:00:37.344Z</time></trkpt><trkpt lat="43.9474366" lon="11.0623633"><ele>419.0</ele><time>2026-04-18T10:00:38.355Z</time></trkpt><trkpt lat="43.9473364" lon="11.0624219"><ele>419.0</ele><time>2026-04-18T10:00:39.342Z</time></trkpt><trkpt lat="43.9472472" lon="11.0625012"><ele>415.4</ele><time>2026-04-18T10:00:40.342Z</time></trkpt><trkpt lat="43.9471664" lon="11.0625822"><ele>411.79999999999995</ele><time>2026-04-18T10:00:41.358Z</time></trkpt><trkpt lat="43.9470855" lon="11.0626643"><ele>408.20000000000005</ele><time>2026-04-18T10:00:42.359Z</time></trkpt><trkpt lat="43.9470053" lon="11.0627329"><ele>404.6</ele><time>2026-04-18T10:00:43.359Z</time></trkpt><trkpt lat="43.9469164" lon="11.0627808"><ele>401.0</ele><time>2026-04-18T10:00:44.354Z</time></trkpt><trkpt lat="43.9468037" lon="11.0628054"><ele>400.5</ele><time>2026-04-18T10:00:45.354Z</time></trkpt><trkpt lat="43.9466747" lon="11.0628083"><ele>400.0</ele><time>2026-04-18T10:00:46.352Z</time></trkpt><trkpt lat="43.9465359" lon="11.0628011"><ele>399.5</ele><time>2026-04-18T10:00:47.355Z</time></trkpt><trkpt lat="43.9463941" lon="11.0627989"><ele>399.0</ele><time>2026-04-18T10:00:48.362Z</time></trkpt><trkpt lat="43.9462485" lon="11.0628079"><ele>399.0</ele><time>2026-04-18T10:00:49.358Z</time></trkpt><trkpt lat="43.9461006" lon="11.0628158"><ele>399.0</ele><time>2026-04-18T10:00:50.362Z</time></trkpt><trkpt lat="43.9459453" lon="11.0628154"><ele>399.0</ele><time>2026-04-18T10:00:51.358Z</time></trkpt><trkpt lat="43.9458" lon="11.0628438"><ele>400.75</ele><time>2026-04-18T10:00:52.373Z</time></trkpt><trkpt lat="43.9456764" lon="11.0629018"><ele>402.5</ele><time>2026-04-18T10:00:53.368Z</time></trkpt><trkpt lat="43.9455645" lon="11.0629591"><ele>404.25</ele><time>2026-04-18T10:00:54.352Z</time></trkpt><trkpt lat="43.9454463" lon="11.062997"><ele>406.0</ele><time>2026-04-18T10:00:55.357Z</time></trkpt><trkpt lat="43.9453289" lon="11.0630448"><ele>406.0</ele><time>2026-04-18T10:00:56.347Z</time></trkpt><trkpt lat="43.945221" lon="11.063111"><ele>406.0</ele><time>2026-04-18T10:00:57.359Z</time></trkpt><trkpt lat="43.945113" lon="11.0631789"><ele>406.0</ele><time>2026-04-18T10:00:58.354Z</time></trkpt><trkpt lat="43.9449987" lon="11.0632374"><ele>406.0</ele><time>2026-04-18T10:00:59.347Z</time></trkpt><trkpt lat="43.9448833" lon="11.0632827"><ele>399.5</ele><time>2026-04-18T10:01:00.361Z</time></trkpt><trkpt lat="43.9447578" lon="11.0633163"><ele>393.0</ele><time>2026-04-18T10:01:01.363Z</time></trkpt><trkpt lat="43.9446338" lon="11.0633449"><ele>386.5</ele><time>2026-04-18T10:01:02.358Z</time></trkpt><trkpt lat="43.9445134" lon="11.0633616"><ele>380.0</ele><time>2026-04-18T10:01:03.359Z</time></trkpt><trkpt lat="43.9443879" lon="11.063384"><ele>380.0</ele><time>2026-04-18T10:01:04.361Z</time></trkpt><trkpt lat="43.9442666" lon="11.0634011"><ele>380.0</ele><time>2026-04-18T10:01:05.358Z</time></trkpt><trkpt lat="43.9441443" lon="11.0634176"><ele>380.0</ele><time>2026-04-18T10:01:06.367Z</time></trkpt><trkpt lat="43.9440213" lon="11.063435"><ele>380.0</ele><time>2026-04-18T10:01:07.366Z</time></trkpt><trkpt lat="43.9439068" lon="11.0634528"><ele>378.6</ele><time>2026-04-18T10:01:08.365Z</time></trkpt><trkpt lat="43.9437967" lon="11.0634623"><ele>377.2</ele><time>2026-04-18T10:01:09.364Z</time></trkpt><trkpt lat="43.9436961" lon="11.0634786"><ele>375.79999999999995</ele><time>2026-04-18T10:01:10.352Z</time></trkpt><trkpt lat="43.9436068" lon="11.0635017"><ele>374.4</ele><time>2026-04-18T10:01:11.368Z</time></trkpt><trkpt lat="43.9435448" lon="11.0635417"><ele>373.0</ele><time>2026-04-18T10:01:12.359Z</time></trkpt><trkpt lat="43.9435277" lon="11.0636601"><ele>373.0</ele><time>2026-04-18T10:01:14.367Z</time></trkpt><trkpt lat="43.943569" lon="11.0637364"><ele>373.0</ele><time>2026-04-18T10:01:15.383Z</time></trkpt><trkpt lat="43.9436397" lon="11.0638253"><ele>373.0</ele><time>2026-04-18T10:01:16.367Z</time></trkpt><trkpt lat="43.9437147" lon="11.0638991"><ele>373.0</ele><time>2026-04-18T10:01:17.365Z</time></trkpt><trkpt lat="43.9437832" lon="11.063964"><ele>373.0</ele><time>2026-04-18T10:01:18.37Z</time></trkpt><trkpt lat="43.9438465" lon="11.0640287"><ele>373.0</ele><time>2026-04-18T10:01:19.368Z</time></trkpt><trkpt lat="43.9438883" lon="11.0640999"><ele>369.75</ele><time>2026-04-18T10:01:20.37Z</time></trkpt><trkpt lat="43.9439126" lon="11.0642962"><ele>366.5</ele><time>2026-04-18T10:01:22.369Z</time></trkpt><trkpt lat="43.9439041" lon="11.0644427"><ele>363.25</ele><time>2026-04-18T10:01:23.374Z</time></trkpt><trkpt lat="43.9438934" lon="11.0646006"><ele>360.0</ele><time>2026-04-18T10:01:24.365Z</time></trkpt><trkpt lat="43.9438741" lon="11.0647648"><ele>360.0</ele><time>2026-04-18T10:01:25.355Z</time></trkpt><trkpt lat="43.9438468" lon="11.0649348"><ele>360.0</ele><time>2026-04-18T10:01:26.364Z</time></trkpt><trkpt lat="43.943814" lon="11.0651063"><ele>360.0</ele><time>2026-04-18T10:01:27.371Z</time></trkpt><trkpt lat="43.9437838" lon="11.0652995"><ele>360.0</ele><time>2026-04-18T10:01:28.369Z</time></trkpt><trkpt lat="43.9437527" lon="11.0655092"><ele>357.0</ele><time>2026-04-18T10:01:29.37Z</time></trkpt><trkpt lat="43.9437242" lon="11.0657267"><ele>354.0</ele><time>2026-04-18T10:01:30.36Z</time></trkpt><trkpt lat="43.9436925" lon="11.0659311"><ele>351.0</ele><time>2026-04-18T10:01:31.36Z</time></trkpt><trkpt lat="43.9436701" lon="11.0660854"><ele>348.0</ele><time>2026-04-18T10:01:32.357Z</time></trkpt><trkpt lat="43.9436536" lon="11.0662114"><ele>346.4</ele><time>2026-04-18T10:01:33.358Z</time></trkpt><trkpt lat="43.9436408" lon="11.0663063"><ele>344.79999999999995</ele><time>2026-04-18T10:01:34.353Z</time></trkpt><trkpt lat="43.9435759" lon="11.0663989"><ele>343.2</ele><time>2026-04-18T10:01:36.36Z</time></trkpt><trkpt lat="43.9434398" lon="11.0664196"><ele>341.6</ele><time>2026-04-18T10:01:38.343Z</time></trkpt><trkpt lat="43.9433608" lon="11.0664198"><ele>340.0</ele><time>2026-04-18T10:01:39.342Z</time></trkpt><trkpt lat="43.9432781" lon="11.0664405"><ele>338.8</ele><time>2026-04-18T10:01:40.351Z</time></trkpt><trkpt lat="43.9431953" lon="11.0664698"><ele>337.6</ele><time>2026-04-18T10:01:41.349Z</time></trkpt><trkpt lat="43.9431076" lon="11.066505"><ele>336.4</ele><time>2026-04-18T10:01:42.352Z</time></trkpt><trkpt lat="43.9430185" lon="11.0665574"><ele>335.2</ele><time>2026-04-18T10:01:43.352Z</time></trkpt><trkpt lat="43.942925" lon="11.0666341"><ele>334.0</ele><time>2026-04-18T10:01:44.348Z</time></trkpt><trkpt lat="43.9428301" lon="11.066714"><ele>333.3333333333333</ele><time>2026-04-18T10:01:45.351Z</time></trkpt><trkpt lat="43.9427387" lon="11.0667924"><ele>332.66666666666663</ele><time>2026-04-18T10:01:46.354Z</time></trkpt><trkpt lat="43.9426578" lon="11.0668577"><ele>332.0</ele><time>2026-04-18T10:01:47.35Z</time></trkpt><trkpt lat="43.9425806" lon="11.0669212"><ele>331.3333333333333</ele><time>2026-04-18T10:01:48.357Z</time></trkpt><trkpt lat="43.9425084" lon="11.0669641"><ele>330.6666666666667</ele><time>2026-04-18T10:01:49.353Z</time></trkpt><trkpt lat="43.9424394" lon="11.0669938"><ele>330.0</ele><time>2026-04-18T10:01:50.358Z</time></trkpt><trkpt lat="43.9423296" lon="11.066942"><ele>328.6</ele><time>2026-04-18T10:01:52.371Z</time></trkpt><trkpt lat="43.942275" lon="11.0668484"><ele>327.2</ele><time>2026-04-18T10:01:53.36Z</time></trkpt><trkpt lat="43.9422127" lon="11.066731"><ele>325.79999999999995</ele><time>2026-04-18T10:01:54.362Z</time></trkpt><trkpt lat="43.9421431" lon="11.0666101"><ele>324.4</ele><time>2026-04-18T10:01:55.355Z</time></trkpt><trkpt lat="43.9420661" lon="11.0665134"><ele>323.0</ele><time>2026-04-18T10:01:56.337Z</time></trkpt><trkpt lat="43.9419945" lon="11.0664359"><ele>323.0</ele><time>2026-04-18T10:01:57.343Z</time></trkpt><trkpt lat="43.9419263" lon="11.0663812"><ele>323.0</ele><time>2026-04-18T10:01:58.343Z</time></trkpt><trkpt lat="43.9418431" lon="11.0663577"><ele>323.0</ele><time>2026-04-18T10:01:59.35Z</time></trkpt><trkpt lat="43.9417356" lon="11.0663643"><ele>323.0</ele><time>2026-04-18T10:02:00.345Z</time></trkpt><trkpt lat="43.9416145" lon="11.0663875"><ele>323.0</ele><time>2026-04-18T10:02:01.342Z</time></trkpt><trkpt lat="43.9414822" lon="11.0664154"><ele>320.25</ele><time>2026-04-18T10:02:02.361Z</time></trkpt><trkpt lat="43.9413499" lon="11.0664389"><ele>317.5</ele><time>2026-04-18T10:02:03.354Z</time></trkpt><trkpt lat="43.9412153" lon="11.066454"><ele>314.75</ele><time>2026-04-18T10:02:04.365Z</time></trkpt><trkpt lat="43.9410832" lon="11.0664736"><ele>312.0</ele><time>2026-04-18T10:02:05.361Z</time></trkpt><trkpt lat="43.9409588" lon="11.0664859"><ele>309.8</ele><time>2026-04-18T10:02:06.364Z</time></trkpt><trkpt lat="43.9408458" lon="11.0665"><ele>307.6</ele><time>2026-04-18T10:02:07.354Z</time></trkpt><trkpt lat="43.9407421" lon="11.0665086"><ele>305.40000000000003</ele><time>2026-04-18T10:02:08.355Z</time></trkpt><trkpt lat="43.9406401" lon="11.0665211"><ele>303.2</ele><time>2026-04-18T10:02:09.347Z</time></trkpt><trkpt lat="43.9405371" lon="11.0665516"><ele>301.0</ele><time>2026-04-18T10:02:10.356Z</time></trkpt><trkpt lat="43.9404281" lon="11.0665935"><ele>299.75</ele><time>2026-04-18T10:02:11.356Z</time></trkpt><trkpt lat="43.9403221" lon="11.0666544"><ele>298.5</ele><time>2026-04-18T10:02:12.361Z</time></trkpt><trkpt lat="43.9402117" lon="11.0667266"><ele>297.25</ele><time>2026-04-18T10:02:13.363Z</time></trkpt><trkpt lat="43.9400935" lon="11.0668078"><ele>296.0</ele><time>2026-04-18T10:02:14.356Z</time></trkpt><trkpt lat="43.939974" lon="11.06689"><ele>295.25</ele><time>2026-04-18T10:02:15.349Z</time></trkpt><trkpt lat="43.9398554" lon="11.0669677"><ele>294.5</ele><time>2026-04-18T10:02:16.351Z</time></trkpt><trkpt lat="43.9397394" lon="11.0670429"><ele>293.75</ele><time>2026-04-18T10:02:17.353Z</time></trkpt><trkpt lat="43.9396231" lon="11.067114"><ele>293.0</ele><time>2026-04-18T10:02:18.355Z</time></trkpt><trkpt lat="43.9395126" lon="11.0671824"><ele>293.0</ele><time>2026-04-18T10:02:19.355Z</time></trkpt><trkpt lat="43.9394066" lon="11.067247"><ele>293.0</ele><time>2026-04-18T10:02:20.348Z</time></trkpt><trkpt lat="43.9393069" lon="11.0673072"><ele>293.0</ele><time>2026-04-18T10:02:21.357Z</time></trkpt><trkpt lat="43.9392128" lon="11.0673688"><ele>293.0</ele><time>2026-04-18T10:02:22.35Z</time></trkpt><trkpt lat="43.9391244" lon="11.0674416"><ele>293.0</ele><time>2026-04-18T10:02:23.35Z</time></trkpt><trkpt lat="43.9390527" lon="11.0675323"><ele>290.8</ele><time>2026-04-18T10:02:24.357Z</time></trkpt><trkpt lat="43.9389982" lon="11.0676441"><ele>288.6</ele><time>2026-04-18T10:02:25.348Z</time></trkpt><trkpt lat="43.938954" lon="11.0677665"><ele>286.4</ele><time>2026-04-18T10:02:26.361Z</time></trkpt><trkpt lat="43.9389007" lon="11.0678642"><ele>284.2</ele><time>2026-04-18T10:02:27.343Z</time></trkpt><trkpt lat="43.9388266" lon="11.0679311"><ele>282.0</ele><time>2026-04-18T10:02:28.351Z</time></trkpt><trkpt lat="43.9387365" lon="11.0679974"><ele>282.0</ele><time>2026-04-18T10:02:29.37Z</time></trkpt><trkpt lat="43.9386379" lon="11.0680726"><ele>282.0</ele><time>2026-04-18T10:02:30.361Z</time></trkpt><trkpt lat="43.9385464" lon="11.0681586"><ele>282.0</ele><time>2026-04-18T10:02:31.364Z</time></trkpt><trkpt lat="43.9384629" lon="11.068262"><ele>282.0</ele><time>2026-04-18T10:02:32.345Z</time></trkpt><trkpt lat="43.9383858" lon="11.0683793"><ele>282.0</ele><time>2026-04-18T10:02:33.365Z</time></trkpt><trkpt lat="43.9383259" lon="11.0685163"><ele>279.8</ele><time>2026-04-18T10:02:34.349Z</time></trkpt><trkpt lat="43.9382803" lon="11.0686595"><ele>277.6</ele><time>2026-04-18T10:02:35.357Z</time></trkpt><trkpt lat="43.9382414" lon="11.0687942"><ele>275.40000000000003</ele><time>2026-04-18T10:02:36.356Z</time></trkpt><trkpt lat="43.9382034" lon="11.0689119"><ele>273.2</ele><time>2026-04-18T10:02:37.343Z</time></trkpt><trkpt lat="43.9381608" lon="11.0690141"><ele>271.0</ele><time>2026-04-18T10:02:38.355Z</time></trkpt><trkpt lat="43.9381142" lon="11.0690926"><ele>271.5</ele><time>2026-04-18T10:02:39.361Z</time></trkpt><trkpt lat="43.9380626" lon="11.0691551"><ele>272.0</ele><time>2026-04-18T10:02:40.356Z</time></trkpt><trkpt lat="43.9380047" lon="11.0692058"><ele>272.5</ele><time>2026-04-18T10:02:41.345Z</time></trkpt><trkpt lat="43.9379433" lon="11.0692477"><ele>273.0</ele><time>2026-04-18T10:02:42.348Z</time></trkpt><trkpt lat="43.9378819" lon="11.0692892"><ele>273.5</ele><time>2026-04-18T10:02:43.348Z</time></trkpt><trkpt lat="43.9378308" lon="11.069343"><ele>274.0</ele><time>2026-04-18T10:02:44.362Z</time></trkpt><trkpt lat="43.9378225" lon="11.0695131"><ele>274.0</ele><time>2026-04-18T10:02:46.369Z</time></trkpt><trkpt lat="43.9378568" lon="11.0696453"><ele>274.0</ele><time>2026-04-18T10:02:47.364Z</time></trkpt><trkpt lat="43.9378987" lon="11.0697799"><ele>274.0</ele><time>2026-04-18T10:02:48.355Z</time></trkpt><trkpt lat="43.9379413" lon="11.0699181"><ele>274.0</ele><time>2026-04-18T10:02:49.36Z</time></trkpt><trkpt lat="43.9379796" lon="11.0700486"><ele>274.0</ele><time>2026-04-18T10:02:50.335Z</time></trkpt><trkpt lat="43.9380107" lon="11.0701742"><ele>273.16666666666663</ele><time>2026-04-18T10:02:51.357Z</time></trkpt><trkpt lat="43.9380287" lon="11.0702814"><ele>272.3333333333333</ele><time>2026-04-18T10:02:52.359Z</time></trkpt><trkpt lat="43.938022" lon="11.0703729"><ele>271.5</ele><time>2026-04-18T10:02:53.357Z</time></trkpt><trkpt lat="43.937984" lon="11.070456"><ele>270.6666666666667</ele><time>2026-04-18T10:02:54.361Z</time></trkpt><trkpt lat="43.9379189" lon="11.0705398"><ele>269.83333333333337</ele><time>2026-04-18T10:02:55.348Z</time></trkpt><trkpt lat="43.9378484" lon="11.0706434"><ele>269.0</ele><time>2026-04-18T10:02:56.357Z</time></trkpt><trkpt lat="43.9377868" lon="11.0707626"><ele>268.59999999999997</ele><time>2026-04-18T10:02:57.346Z</time></trkpt><trkpt lat="43.937732" lon="11.0708794"><ele>268.2</ele><time>2026-04-18T10:02:58.349Z</time></trkpt><trkpt lat="43.9376836" lon="11.0709839"><ele>267.79999999999995</ele><time>2026-04-18T10:02:59.358Z</time></trkpt><trkpt lat="43.9376387" lon="11.0710662"><ele>267.4</ele><time>2026-04-18T10:03:00.348Z</time></trkpt><trkpt lat="43.9375295" lon="11.0711006"><ele>267.0</ele><time>2026-04-18T10:03:02.36Z</time></trkpt><trkpt lat="43.9374118" lon="11.07106"><ele>264.3333333333333</ele><time>2026-04-18T10:03:04.35Z</time></trkpt><trkpt lat="43.9373169" lon="11.071174"><ele>261.6666666666667</ele><time>2026-04-18T10:03:06.34Z</time></trkpt><trkpt lat="43.9372782" lon="11.0712616"><ele>259.0</ele><time>2026-04-18T10:03:07.352Z</time></trkpt><trkpt lat="43.9372317" lon="11.0713539"><ele>256.33333333333337</ele><time>2026-04-18T10:03:08.36Z</time></trkpt><trkpt lat="43.9371821" lon="11.0714241"><ele>253.66666666666669</ele><time>2026-04-18T10:03:09.365Z</time></trkpt><trkpt lat="43.9371244" lon="11.0714634"><ele>251.0</ele><time>2026-04-18T10:03:10.356Z</time></trkpt><trkpt lat="43.9370006" lon="11.0714786"><ele>251.00000000000003</ele><time>2026-04-18T10:03:12.344Z</time></trkpt><trkpt lat="43.9369094" lon="11.0714436"><ele>251.0</ele><time>2026-04-18T10:03:14.348Z</time></trkpt><trkpt lat="43.9368379" lon="11.07146"><ele>251.0</ele><time>2026-04-18T10:03:18.366Z</time></trkpt><trkpt lat="43.9367383" lon="11.0714591"><ele>251.0</ele><time>2026-04-18T10:03:27.348Z</time></trkpt><trkpt lat="43.9366647" lon="11.0714281"><ele>251.00000000000003</ele><time>2026-04-18T10:03:28.351Z</time></trkpt><trkpt lat="43.9365985" lon="11.0713606"><ele>251.0</ele><time>2026-04-18T10:03:29.344Z</time></trkpt><trkpt lat="43.9365345" lon="11.071271"><ele>248.60000000000002</ele><time>2026-04-18T10:03:30.341Z</time></trkpt><trkpt lat="43.9364729" lon="11.0711719"><ele>246.20000000000002</ele><time>2026-04-18T10:03:31.342Z</time></trkpt><trkpt lat="43.9364119" lon="11.071063"><ele>243.79999999999998</ele><time>2026-04-18T10:03:32.352Z</time></trkpt><trkpt lat="43.9363508" lon="11.0709488"><ele>241.39999999999998</ele><time>2026-04-18T10:03:33.351Z</time></trkpt><trkpt lat="43.9362858" lon="11.0708397"><ele>239.0</ele><time>2026-04-18T10:03:34.346Z</time></trkpt><trkpt lat="43.9362194" lon="11.0707387"><ele>239.0</ele><time>2026-04-18T10:03:35.342Z</time></trkpt><trkpt lat="43.9361468" lon="11.0706496"><ele>238.99999999999997</ele><time>2026-04-18T10:03:36.35Z</time></trkpt><trkpt lat="43.9360623" lon="11.0705701"><ele>238.99999999999997</ele><time>2026-04-18T10:03:37.345Z</time></trkpt><trkpt lat="43.9359706" lon="11.0705032"><ele>239.0</ele><time>2026-04-18T10:03:38.343Z</time></trkpt><trkpt lat="43.9358777" lon="11.0704403"><ele>239.0</ele><time>2026-04-18T10:03:39.344Z</time></trkpt><trkpt lat="43.9357895" lon="11.070386"><ele>236.2</ele><time>2026-04-18T10:03:40.345Z</time></trkpt><trkpt lat="43.9357063" lon="11.0703302"><ele>233.39999999999998</ele><time>2026-04-18T10:03:41.344Z</time></trkpt><trkpt lat="43.9356227" lon="11.070281"><ele>230.6</ele><time>2026-04-18T10:03:42.342Z</time></trkpt><trkpt lat="43.9355333" lon="11.0702341"><ele>227.8</ele><time>2026-04-18T10:03:43.342Z</time></trkpt><trkpt lat="43.9354369" lon="11.0701947"><ele>225.0</ele><time>2026-04-18T10:03:44.351Z</time></trkpt><trkpt lat="43.9353339" lon="11.070169"><ele>225.0</ele><time>2026-04-18T10:03:45.341Z</time></trkpt><trkpt lat="43.9352332" lon="11.0701698"><ele>225.0</ele><time>2026-04-18T10:03:46.346Z</time></trkpt><trkpt lat="43.9351329" lon="11.0702058"><ele>225.0</ele><time>2026-04-18T10:03:47.352Z</time></trkpt><trkpt lat="43.9350379" lon="11.0702776"><ele>225.0</ele><time>2026-04-18T10:03:48.351Z</time></trkpt><trkpt lat="43.9349493" lon="11.0703813"><ele>225.0</ele><time>2026-04-18T10:03:49.344Z</time></trkpt><trkpt lat="43.9348623" lon="11.0704901"><ele>222.16666666666666</ele><time>2026-04-18T10:03:50.352Z</time></trkpt><trkpt lat="43.9347826" lon="11.0705935"><ele>219.33333333333331</ele><time>2026-04-18T10:03:51.359Z</time></trkpt><trkpt lat="43.9347075" lon="11.0706893"><ele>216.5</ele><time>2026-04-18T10:03:52.36Z</time></trkpt><trkpt lat="43.9346419" lon="11.0707756"><ele>213.66666666666666</ele><time>2026-04-18T10:03:53.356Z</time></trkpt><trkpt lat="43.9345807" lon="11.0708381"><ele>210.83333333333331</ele><time>2026-04-18T10:03:54.345Z</time></trkpt><trkpt lat="43.9345209" lon="11.0708691"><ele>208.0</ele><time>2026-04-18T10:03:55.342Z</time></trkpt><trkpt lat="43.934458" lon="11.0708607"><ele>208.0</ele><time>2026-04-18T10:03:56.346Z</time></trkpt><trkpt lat="43.9343932" lon="11.0708111"><ele>208.0</ele><time>2026-04-18T10:03:57.346Z</time></trkpt><trkpt lat="43.934326" lon="11.0707258"><ele>208.0</ele><time>2026-04-18T10:03:58.338Z</time></trkpt><trkpt lat="43.9342553" lon="11.070627"><ele>208.0</ele><time>2026-04-18T10:03:59.351Z</time></trkpt><trkpt lat="43.9341895" lon="11.0705241"><ele>208.0</ele><time>2026-04-18T10:04:00.341Z</time></trkpt><trkpt lat="43.9341226" lon="11.0704289"><ele>206.33333333333331</ele><time>2026-04-18T10:04:01.347Z</time></trkpt><trkpt lat="43.9340634" lon="11.0703385"><ele>204.66666666666666</ele><time>2026-04-18T10:04:02.341Z</time></trkpt><trkpt lat="43.9340098" lon="11.0702488"><ele>203.0</ele><time>2026-04-18T10:04:03.345Z</time></trkpt><trkpt lat="43.9339546" lon="11.0701715"><ele>201.33333333333331</ele><time>2026-04-18T10:04:04.348Z</time></trkpt><trkpt lat="43.9338995" lon="11.0700952"><ele>199.66666666666666</ele><time>2026-04-18T10:04:05.351Z</time></trkpt><trkpt lat="43.9338454" lon="11.0700201"><ele>198.0</ele><time>2026-04-18T10:04:06.347Z</time></trkpt><trkpt lat="43.9337899" lon="11.0699362"><ele>197.4</ele><time>2026-04-18T10:04:07.346Z</time></trkpt><trkpt lat="43.9337339" lon="11.0698405"><ele>196.8</ele><time>2026-04-18T10:04:08.354Z</time></trkpt><trkpt lat="43.9336783" lon="11.0697383"><ele>196.2</ele><time>2026-04-18T10:04:09.346Z</time></trkpt><trkpt lat="43.9336245" lon="11.0696357"><ele>195.6</ele><time>2026-04-18T10:04:10.346Z</time></trkpt><trkpt lat="43.9335648" lon="11.0695395"><ele>195.0</ele><time>2026-04-18T10:04:11.342Z</time></trkpt><trkpt lat="43.9334998" lon="11.0694409"><ele>195.0</ele><time>2026-04-18T10:04:12.346Z</time></trkpt><trkpt lat="43.9334383" lon="11.0693358"><ele>195.0</ele><time>2026-04-18T10:04:13.355Z</time></trkpt><trkpt lat="43.9333751" lon="11.0692287"><ele>195.0</ele><time>2026-04-18T10:04:14.353Z</time></trkpt><trkpt lat="43.9333218" lon="11.0691285"><ele>195.0</ele><time>2026-04-18T10:04:15.358Z</time></trkpt><trkpt lat="43.9332777" lon="11.0690446"><ele>195.0</ele><time>2026-04-18T10:04:16.348Z</time></trkpt><trkpt lat="43.9332418" lon="11.0689643"><ele>195.0</ele><time>2026-04-18T10:04:17.349Z</time></trkpt><trkpt lat="43.9332634" lon="11.0688268"><ele>194.8</ele><time>2026-04-18T10:04:19.348Z</time></trkpt><trkpt lat="43.9333982" lon="11.0687921"><ele>194.6</ele><time>2026-04-18T10:04:21.343Z</time></trkpt><trkpt lat="43.933479" lon="11.0687997"><ele>194.39999999999998</ele><time>2026-04-18T10:04:22.345Z</time></trkpt><trkpt lat="43.9335644" lon="11.0688185"><ele>194.2</ele><time>2026-04-18T10:04:23.339Z</time></trkpt><trkpt lat="43.9336455" lon="11.0688295"><ele>194.0</ele><time>2026-04-18T10:04:24.345Z</time></trkpt><trkpt lat="43.933715" lon="11.0688274"><ele>194.00000000000003</ele><time>2026-04-18T10:04:25.347Z</time></trkpt><trkpt lat="43.9338052" lon="11.0687543"><ele>194.0</ele><time>2026-04-18T10:04:27.348Z</time></trkpt><trkpt lat="43.933789" lon="11.0686313"><ele>194.0</ele><time>2026-04-18T10:04:29.362Z</time></trkpt><trkpt lat="43.9337277" lon="11.0685927"><ele>194.0</ele><time>2026-04-18T10:04:30.364Z</time></trkpt><trkpt lat="43.9336416" lon="11.0685598"><ele>194.00000000000003</ele><time>2026-04-18T10:04:31.352Z</time></trkpt><trkpt lat="43.9335499" lon="11.0685226"><ele>194.0</ele><time>2026-04-18T10:04:32.346Z</time></trkpt><trkpt lat="43.933449" lon="11.0684836"><ele>191.2</ele><time>2026-04-18T10:04:33.347Z</time></trkpt><trkpt lat="43.9333539" lon="11.0684412"><ele>188.39999999999998</ele><time>2026-04-18T10:04:34.343Z</time></trkpt><trkpt lat="43.9332641" lon="11.0683879"><ele>185.6</ele><time>2026-04-18T10:04:35.361Z</time></trkpt><trkpt lat="43.9331791" lon="11.0683373"><ele>182.8</ele><time>2026-04-18T10:04:36.354Z</time></trkpt><trkpt lat="43.9330917" lon="11.0682839"><ele>180.0</ele><time>2026-04-18T10:04:37.353Z</time></trkpt><trkpt lat="43.933009" lon="11.0682334"><ele>178.83333333333334</ele><time>2026-04-18T10:04:38.352Z</time></trkpt><trkpt lat="43.9329293" lon="11.0681902"><ele>177.66666666666666</ele><time>2026-04-18T10:04:39.358Z</time></trkpt><trkpt lat="43.9328528" lon="11.0681518"><ele>176.5</ele><time>2026-04-18T10:04:40.352Z</time></trkpt><trkpt lat="43.932778" lon="11.0681181"><ele>175.33333333333331</ele><time>2026-04-18T10:04:41.352Z</time></trkpt><trkpt lat="43.9327039" lon="11.0681067"><ele>174.16666666666666</ele><time>2026-04-18T10:04:42.349Z</time></trkpt><trkpt lat="43.9326397" lon="11.068141"><ele>173.0</ele><time>2026-04-18T10:04:43.338Z</time></trkpt><trkpt lat="43.9325805" lon="11.0682166"><ele>171.60000000000002</ele><time>2026-04-18T10:04:44.347Z</time></trkpt><trkpt lat="43.9325172" lon="11.0683148"><ele>170.20000000000002</ele><time>2026-04-18T10:04:45.338Z</time></trkpt><trkpt lat="43.9324448" lon="11.0684204"><ele>168.8</ele><time>2026-04-18T10:04:46.343Z</time></trkpt><trkpt lat="43.9323692" lon="11.0685116"><ele>167.4</ele><time>2026-04-18T10:04:47.333Z</time></trkpt><trkpt lat="43.9322852" lon="11.068579"><ele>166.0</ele><time>2026-04-18T10:04:48.336Z</time></trkpt><trkpt lat="43.9321993" lon="11.0686217"><ele>166.0</ele><time>2026-04-18T10:04:49.341Z</time></trkpt><trkpt lat="43.9321098" lon="11.0686325"><ele>166.0</ele><time>2026-04-18T10:04:50.341Z</time></trkpt><trkpt lat="43.9320246" lon="11.0686159"><ele>166.0</ele><time>2026-04-18T10:04:51.343Z</time></trkpt><trkpt lat="43.931948" lon="11.0685627"><ele>166.0</ele><time>2026-04-18T10:04:52.341Z</time></trkpt><trkpt lat="43.9318866" lon="11.0684745"><ele>166.0</ele><time>2026-04-18T10:04:53.338Z</time></trkpt><trkpt lat="43.9318398" lon="11.0683728"><ele>166.0</ele><time>2026-04-18T10:04:54.334Z</time></trkpt><trkpt lat="43.9318005" lon="11.06826"><ele>165.8</ele><time>2026-04-18T10:04:55.338Z</time></trkpt><trkpt lat="43.931758" lon="11.0681403"><ele>165.60000000000002</ele><time>2026-04-18T10:04:56.337Z</time></trkpt><trkpt lat="43.931713" lon="11.0680221"><ele>165.4</ele><time>2026-04-18T10:04:57.337Z</time></trkpt><trkpt lat="43.9316689" lon="11.0679024"><ele>165.2</ele><time>2026-04-18T10:04:58.338Z</time></trkpt><trkpt lat="43.9316222" lon="11.0677859"><ele>165.0</ele><time>2026-04-18T10:04:59.339Z</time></trkpt><trkpt lat="43.9315789" lon="11.0676701"><ele>162.8</ele><time>2026-04-18T10:05:00.335Z</time></trkpt><trkpt lat="43.9315318" lon="11.0675581"><ele>160.6</ele><time>2026-04-18T10:05:01.337Z</time></trkpt><trkpt lat="43.9314783" lon="11.0674417"><ele>158.4</ele><time>2026-04-18T10:05:02.333Z</time></trkpt><trkpt lat="43.9314224" lon="11.0673226"><ele>156.2</ele><time>2026-04-18T10:05:03.336Z</time></trkpt><trkpt lat="43.9313655" lon="11.0672036"><ele>154.0</ele><time>2026-04-18T10:05:04.337Z</time></trkpt><trkpt lat="43.9313054" lon="11.0670819"><ele>153.0</ele><time>2026-04-18T10:05:05.34Z</time></trkpt><trkpt lat="43.9312489" lon="11.0669588"><ele>152.0</ele><time>2026-04-18T10:05:06.337Z</time></trkpt><trkpt lat="43.9312046" lon="11.0668336"><ele>151.0</ele><time>2026-04-18T10:05:07.335Z</time></trkpt><trkpt lat="43.9311764" lon="11.0667054"><ele>150.0</ele><time>2026-04-18T10:05:08.336Z</time></trkpt><trkpt lat="43.9311776" lon="11.0665786"><ele>149.0</ele><time>2026-04-18T10:05:09.336Z</time></trkpt><trkpt lat="43.9312063" lon="11.0664556"><ele>147.4</ele><time>2026-04-18T10:05:10.341Z</time></trkpt><trkpt lat="43.9312676" lon="11.0663579"><ele>145.8</ele><time>2026-04-18T10:05:11.335Z</time></trkpt><trkpt lat="43.9313211" lon="11.0662539"><ele>144.2</ele><time>2026-04-18T10:05:12.333Z</time></trkpt><trkpt lat="43.9313508" lon="11.066154"><ele>142.6</ele><time>2026-04-18T10:05:13.335Z</time></trkpt><trkpt lat="43.9313049" lon="11.0660166"><ele>141.0</ele><time>2026-04-18T10:05:15.336Z</time></trkpt><trkpt lat="43.9312276" lon="11.0660024"><ele>141.0</ele><time>2026-04-18T10:05:16.341Z</time></trkpt><trkpt lat="43.931137" lon="11.0660035"><ele>141.0</ele><time>2026-04-18T10:05:17.333Z</time></trkpt><trkpt lat="43.9310348" lon="11.0660127"><ele>141.0</ele><time>2026-04-18T10:05:18.336Z</time></trkpt><trkpt lat="43.930935" lon="11.0660363"><ele>141.0</ele><time>2026-04-18T10:05:19.34Z</time></trkpt><trkpt lat="43.9308409" lon="11.0660501"><ele>141.0</ele><time>2026-04-18T10:05:20.338Z</time></trkpt><trkpt lat="43.9307582" lon="11.0660346"><ele>140.0</ele><time>2026-04-18T10:05:21.345Z</time></trkpt><trkpt lat="43.9307021" lon="11.0659885"><ele>139.0</ele><time>2026-04-18T10:05:22.338Z</time></trkpt><trkpt lat="43.9306758" lon="11.0658131"><ele>138.0</ele><time>2026-04-18T10:05:24.343Z</time></trkpt><trkpt lat="43.9306953" lon="11.065673"><ele>137.0</ele><time>2026-04-18T10:05:25.347Z</time></trkpt><trkpt lat="43.930716" lon="11.0655159"><ele>136.0</ele><time>2026-04-18T10:05:26.343Z</time></trkpt><trkpt lat="43.9307384" lon="11.0653541"><ele>133.75</ele><time>2026-04-18T10:05:27.345Z</time></trkpt><trkpt lat="43.930758" lon="11.065197"><ele>131.5</ele><time>2026-04-18T10:05:28.341Z</time></trkpt><trkpt lat="43.9307765" lon="11.0650346"><ele>129.25</ele><time>2026-04-18T10:05:29.343Z</time></trkpt><trkpt lat="43.9308117" lon="11.0648807"><ele>127.0</ele><time>2026-04-18T10:05:30.349Z</time></trkpt><trkpt lat="43.9308705" lon="11.0647486"><ele>127.0</ele><time>2026-04-18T10:05:31.341Z</time></trkpt><trkpt lat="43.9309363" lon="11.0646321"><ele>126.99999999999999</ele><time>2026-04-18T10:05:32.34Z</time></trkpt><trkpt lat="43.9310175" lon="11.0645514"><ele>126.99999999999999</ele><time>2026-04-18T10:05:33.337Z</time></trkpt><trkpt lat="43.9311137" lon="11.0645076"><ele>127.0</ele><time>2026-04-18T10:05:34.335Z</time></trkpt><trkpt lat="43.9312152" lon="11.0644511"><ele>127.0</ele><time>2026-04-18T10:05:35.344Z</time></trkpt><trkpt lat="43.9313022" lon="11.0643626"><ele>127.00000000000001</ele><time>2026-04-18T10:05:36.333Z</time></trkpt><trkpt lat="43.9313714" lon="11.064255"><ele>127.0</ele><time>2026-04-18T10:05:37.34Z</time></trkpt><trkpt lat="43.9314339" lon="11.0641432"><ele>127.0</ele><time>2026-04-18T10:05:38.334Z</time></trkpt><trkpt lat="43.9314805" lon="11.0640406"><ele>127.0</ele><time>2026-04-18T10:05:39.341Z</time></trkpt><trkpt lat="43.9315106" lon="11.0639417"><ele>127.00000000000001</ele><time>2026-04-18T10:05:40.344Z</time></trkpt><trkpt lat="43.9315074" lon="11.0638518"><ele>127.0</ele><time>2026-04-18T10:05:41.339Z</time></trkpt><trkpt lat="43.931467" lon="11.0637836"><ele>126.6</ele><time>2026-04-18T10:05:42.345Z</time></trkpt><trkpt lat="43.9313769" lon="11.0637352"><ele>126.19999999999999</ele><time>2026-04-18T10:05:43.341Z</time></trkpt><trkpt lat="43.9312687" lon="11.0637108"><ele>125.8</ele><time>2026-04-18T10:05:44.352Z</time></trkpt><trkpt lat="43.9311516" lon="11.063699"><ele>125.4</ele><time>2026-04-18T10:05:45.36Z</time></trkpt><trkpt lat="43.9310291" lon="11.0636983"><ele>125.0</ele><time>2026-04-18T10:05:46.354Z</time></trkpt><trkpt lat="43.9309031" lon="11.0636995"><ele>122.75</ele><time>2026-04-18T10:05:47.359Z</time></trkpt><trkpt lat="43.930775" lon="11.0636946"><ele>120.5</ele><time>2026-04-18T10:05:48.347Z</time></trkpt><trkpt lat="43.9306475" lon="11.0636848"><ele>118.25</ele><time>2026-04-18T10:05:49.356Z</time></trkpt><trkpt lat="43.9305276" lon="11.0636704"><ele>116.0</ele><time>2026-04-18T10:05:50.356Z</time></trkpt><trkpt lat="43.930415" lon="11.063648"><ele>116.0</ele><time>2026-04-18T10:05:51.357Z</time></trkpt><trkpt lat="43.9303086" lon="11.0636087"><ele>116.0</ele><time>2026-04-18T10:05:52.35Z</time></trkpt><trkpt lat="43.9302032" lon="11.0635589"><ele>116.0</ele><time>2026-04-18T10:05:53.354Z</time></trkpt><trkpt lat="43.9300934" lon="11.0635047"><ele>116.0</ele><time>2026-04-18T10:05:54.35Z</time></trkpt><trkpt lat="43.9299791" lon="11.0634481"><ele>114.0</ele><time>2026-04-18T10:05:55.351Z</time></trkpt><trkpt lat="43.9298655" lon="11.0633964"><ele>112.0</ele><time>2026-04-18T10:05:56.341Z</time></trkpt><trkpt lat="43.9297543" lon="11.0633534"><ele>110.0</ele><time>2026-04-18T10:05:57.336Z</time></trkpt><trkpt lat="43.9296418" lon="11.0633377"><ele>108.0</ele><time>2026-04-18T10:05:58.343Z</time></trkpt><trkpt lat="43.9295338" lon="11.0633425"><ele>108.0</ele><time>2026-04-18T10:05:59.349Z</time></trkpt><trkpt lat="43.9294284" lon="11.0633507"><ele>108.00000000000001</ele><time>2026-04-18T10:06:00.347Z</time></trkpt><trkpt lat="43.9293294" lon="11.0633596"><ele>108.00000000000001</ele><time>2026-04-18T10:06:01.351Z</time></trkpt><trkpt lat="43.9292326" lon="11.0633636"><ele>108.0</ele><time>2026-04-18T10:06:02.346Z</time></trkpt><trkpt lat="43.9291431" lon="11.063361"><ele>108.0</ele><time>2026-04-18T10:06:03.339Z</time></trkpt><trkpt lat="43.9290543" lon="11.0633467"><ele>106.60000000000001</ele><time>2026-04-18T10:06:04.339Z</time></trkpt><trkpt lat="43.9289651" lon="11.0633077"><ele>105.20000000000002</ele><time>2026-04-18T10:06:05.336Z</time></trkpt><trkpt lat="43.9288721" lon="11.0632436"><ele>103.8</ele><time>2026-04-18T10:06:06.336Z</time></trkpt><trkpt lat="43.9287784" lon="11.0631581"><ele>102.4</ele><time>2026-04-18T10:06:07.335Z</time></trkpt><trkpt lat="43.9286865" lon="11.0630534"><ele>101.0</ele><time>2026-04-18T10:06:08.343Z</time></trkpt><trkpt lat="43.9286076" lon="11.0629386"><ele>100.75</ele><time>2026-04-18T10:06:09.346Z</time></trkpt><trkpt lat="43.9285247" lon="11.0628162"><ele>100.5</ele><time>2026-04-18T10:06:10.34Z</time></trkpt><trkpt lat="43.9284305" lon="11.0626913"><ele>100.25</ele><time>2026-04-18T10:06:11.345Z</time></trkpt><trkpt lat="43.92834" lon="11.0625653"><ele>100.0</ele><time>2026-04-18T10:06:12.342Z</time></trkpt><trkpt lat="43.9282515" lon="11.0624419"><ele>99.0</ele><time>2026-04-18T10:06:13.338Z</time></trkpt><trkpt lat="43.9281643" lon="11.0623183"><ele>98.0</ele><time>2026-04-18T10:06:14.336Z</time></trkpt><trkpt lat="43.9280765" lon="11.0621988"><ele>97.0</ele><time>2026-04-18T10:06:15.342Z</time></trkpt><trkpt lat="43.9279869" lon="11.0620853"><ele>96.0</ele><time>2026-04-18T10:06:16.342Z</time></trkpt><trkpt lat="43.9279014" lon="11.0619742"><ele>96.0</ele><time>2026-04-18T10:06:17.344Z</time></trkpt><trkpt lat="43.9278176" lon="11.0618583"><ele>96.0</ele><time>2026-04-18T10:06:18.342Z</time></trkpt><trkpt lat="43.9277279" lon="11.0617371"><ele>96.0</ele><time>2026-04-18T10:06:19.346Z</time></trkpt><trkpt lat="43.9276404" lon="11.0616031"><ele>96.0</ele><time>2026-04-18T10:06:20.345Z</time></trkpt><trkpt lat="43.9275496" lon="11.061466"><ele>94.75</ele><time>2026-04-18T10:06:21.342Z</time></trkpt><trkpt lat="43.9274567" lon="11.0613216"><ele>93.5</ele><time>2026-04-18T10:06:22.348Z</time></trkpt><trkpt lat="43.9273642" lon="11.0611791"><ele>92.25</ele><time>2026-04-18T10:06:23.349Z</time></trkpt><trkpt lat="43.9272791" lon="11.0610506"><ele>91.0</ele><time>2026-04-18T10:06:24.347Z</time></trkpt><trkpt lat="43.9271882" lon="11.0609369"><ele>91.0</ele><time>2026-04-18T10:06:25.344Z</time></trkpt><trkpt lat="43.9270911" lon="11.0608442"><ele>91.0</ele><time>2026-04-18T10:06:26.347Z</time></trkpt><trkpt lat="43.9269893" lon="11.0607639"><ele>91.0</ele><time>2026-04-18T10:06:27.339Z</time></trkpt><trkpt lat="43.9268809" lon="11.0607013"><ele>91.0</ele><time>2026-04-18T10:06:28.346Z</time></trkpt><trkpt lat="43.9267591" lon="11.0606481"><ele>90.33333333333333</ele><time>2026-04-18T10:06:29.342Z</time></trkpt><trkpt lat="43.92663" lon="11.0605936"><ele>89.66666666666667</ele><time>2026-04-18T10:06:30.339Z</time></trkpt><trkpt lat="43.9264929" lon="11.0605248"><ele>89.0</ele><time>2026-04-18T10:06:31.342Z</time></trkpt><trkpt lat="43.926328" lon="11.0604324"><ele>89.0</ele><time>2026-04-18T10:06:32.34Z</time></trkpt><trkpt lat="43.9261706" lon="11.0603171"><ele>89.0</ele><time>2026-04-18T10:06:33.347Z</time></trkpt><trkpt lat="43.9260354" lon="11.0602011"><ele>89.0</ele><time>2026-04-18T10:06:34.341Z</time></trkpt><trkpt lat="43.9259092" lon="11.0600881"><ele>87.75</ele><time>2026-04-18T10:06:35.341Z</time></trkpt><trkpt lat="43.9257789" lon="11.0599918"><ele>86.5</ele><time>2026-04-18T10:06:36.338Z</time></trkpt><trkpt lat="43.9256523" lon="11.0599047"><ele>85.25</ele><time>2026-04-18T10:06:37.341Z</time></trkpt><trkpt lat="43.9255245" lon="11.0598462"><ele>84.0</ele><time>2026-04-18T10:06:38.338Z</time></trkpt><trkpt lat="43.9254073" lon="11.0597904"><ele>84.0</ele><time>2026-04-18T10:06:39.342Z</time></trkpt><trkpt lat="43.9252851" lon="11.0597329"><ele>84.0</ele><time>2026-04-18T10:06:40.339Z</time></trkpt><trkpt lat="43.9251635" lon="11.0596984"><ele>84.0</ele><time>2026-04-18T10:06:41.337Z</time></trkpt><trkpt lat="43.925058" lon="11.0596649"><ele>84.0</ele><time>2026-04-18T10:06:42.339Z</time></trkpt><trkpt lat="43.9249595" lon="11.0596251"><ele>83.4</ele><time>2026-04-18T10:06:43.344Z</time></trkpt><trkpt lat="43.9248625" lon="11.0595785"><ele>82.80000000000001</ele><time>2026-04-18T10:06:44.342Z</time></trkpt><trkpt lat="43.9247705" lon="11.0595304"><ele>82.19999999999999</ele><time>2026-04-18T10:06:45.338Z</time></trkpt><trkpt lat="43.9246817" lon="11.0594792"><ele>81.6</ele><time>2026-04-18T10:06:46.341Z</time></trkpt><trkpt lat="43.9246064" lon="11.0594411"><ele>81.0</ele><time>2026-04-18T10:06:47.34Z</time></trkpt><trkpt lat="43.9245367" lon="11.0594012"><ele>81.0</ele><time>2026-04-18T10:06:48.343Z</time></trkpt><trkpt lat="43.9244781" lon="11.0593508"><ele>81.0</ele><time>2026-04-18T10:06:49.339Z</time></trkpt><trkpt lat="43.924431" lon="11.0591892"><ele>81.0</ele><time>2026-04-18T10:06:51.345Z</time></trkpt><trkpt lat="43.9244549" lon="11.0590854"><ele>81.0</ele><time>2026-04-18T10:06:52.349Z</time></trkpt><trkpt lat="43.9245184" lon="11.0589934"><ele>81.0</ele><time>2026-04-18T10:06:53.34Z</time></trkpt><trkpt lat="43.924596" lon="11.0588959"><ele>80.83333333333333</ele><time>2026-04-18T10:06:54.345Z</time></trkpt><trkpt lat="43.9246693" lon="11.0588028"><ele>80.66666666666667</ele><time>2026-04-18T10:06:55.341Z</time></trkpt><trkpt lat="43.9247395" lon="11.0587101"><ele>80.5</ele><time>2026-04-18T10:06:56.34Z</time></trkpt><trkpt lat="43.9248007" lon="11.0586256"><ele>80.33333333333334</ele><time>2026-04-18T10:06:57.341Z</time></trkpt><trkpt lat="43.9248372" lon="11.058551"><ele>80.16666666666667</ele><time>2026-04-18T10:06:58.339Z</time></trkpt><trkpt lat="43.9248183" lon="11.0584152"><ele>80.0</ele><time>2026-04-18T10:07:00.344Z</time></trkpt><trkpt lat="43.9247683" lon="11.058348"><ele>80.0</ele><time>2026-04-18T10:07:01.341Z</time></trkpt><trkpt lat="43.924691" lon="11.0582876"><ele>80.0</ele><time>2026-04-18T10:07:02.34Z</time></trkpt><trkpt lat="43.9245981" lon="11.0582256"><ele>80.0</ele><time>2026-04-18T10:07:03.341Z</time></trkpt><trkpt lat="43.924504" lon="11.0581602"><ele>80.0</ele><time>2026-04-18T10:07:04.342Z</time></trkpt><trkpt lat="43.9244073" lon="11.0580914"><ele>80.0</ele><time>2026-04-18T10:07:05.34Z</time></trkpt><trkpt lat="43.924318" lon="11.0580145"><ele>79.8</ele><time>2026-04-18T10:07:06.344Z</time></trkpt><trkpt lat="43.9242352" lon="11.0579406"><ele>79.6</ele><time>2026-04-18T10:07:07.343Z</time></trkpt><trkpt lat="43.9241557" lon="11.0578729"><ele>79.4</ele><time>2026-04-18T10:07:08.344Z</time></trkpt><trkpt lat="43.9240726" lon="11.0578081"><ele>79.2</ele><time>2026-04-18T10:07:09.339Z</time></trkpt><trkpt lat="43.9239914" lon="11.0577411"><ele>79.0</ele><time>2026-04-18T10:07:10.345Z</time></trkpt><trkpt lat="43.9239116" lon="11.057666"><ele>78.8</ele><time>2026-04-18T10:07:11.334Z</time></trkpt><trkpt lat="43.9238307" lon="11.0575933"><ele>78.60000000000001</ele><time>2026-04-18T10:07:12.342Z</time></trkpt><trkpt lat="43.9237468" lon="11.0575214"><ele>78.4</ele><time>2026-04-18T10:07:13.34Z</time></trkpt><trkpt lat="43.9236607" lon="11.0574495"><ele>78.2</ele><time>2026-04-18T10:07:14.343Z</time></trkpt><trkpt lat="43.923573" lon="11.0573759"><ele>78.0</ele><time>2026-04-18T10:07:15.342Z</time></trkpt><trkpt lat="43.9234861" lon="11.0573028"><ele>77.4</ele><time>2026-04-18T10:07:16.341Z</time></trkpt><trkpt lat="43.9233974" lon="11.0572221"><ele>76.8</ele><time>2026-04-18T10:07:17.341Z</time></trkpt><trkpt lat="43.9233168" lon="11.0571376"><ele>76.2</ele><time>2026-04-18T10:07:18.34Z</time></trkpt><trkpt lat="43.9232352" lon="11.0570655"><ele>75.6</ele><time>2026-04-18T10:07:19.349Z</time></trkpt><trkpt lat="43.9231566" lon="11.0569931"><ele>75.0</ele><time>2026-04-18T10:07:20.344Z</time></trkpt><trkpt lat="43.9230774" lon="11.0569162"><ele>75.0</ele><time>2026-04-18T10:07:21.344Z</time></trkpt><trkpt lat="43.9229972" lon="11.0568399"><ele>75.0</ele><time>2026-04-18T10:07:22.346Z</time></trkpt><trkpt lat="43.9229189" lon="11.0567682"><ele>75.0</ele><time>2026-04-18T10:07:23.346Z</time></trkpt><trkpt lat="43.9228389" lon="11.056696"><ele>75.0</ele><time>2026-04-18T10:07:24.345Z</time></trkpt><trkpt lat="43.9227627" lon="11.0566265"><ele>75.0</ele><time>2026-04-18T10:07:25.346Z</time></trkpt><trkpt lat="43.9226795" lon="11.0565574"><ele>74.4</ele><time>2026-04-18T10:07:26.348Z</time></trkpt><trkpt lat="43.9226001" lon="11.0564919"><ele>73.8</ele><time>2026-04-18T10:07:27.346Z</time></trkpt><trkpt lat="43.9225245" lon="11.0564248"><ele>73.2</ele><time>2026-04-18T10:07:28.346Z</time></trkpt><trkpt lat="43.9224494" lon="11.0563544"><ele>72.6</ele><time>2026-04-18T10:07:29.354Z</time></trkpt><trkpt lat="43.9223759" lon="11.0562805"><ele>72.0</ele><time>2026-04-18T10:07:30.349Z</time></trkpt><trkpt lat="43.9223031" lon="11.0562074"><ele>72.0</ele><time>2026-04-18T10:07:31.348Z</time></trkpt><trkpt lat="43.922226" lon="11.0561354"><ele>72.0</ele><time>2026-04-18T10:07:32.348Z</time></trkpt><trkpt lat="43.9221524" lon="11.0560615"><ele>72.0</ele><time>2026-04-18T10:07:33.346Z</time></trkpt><trkpt lat="43.9220832" lon="11.0559924"><ele>72.0</ele><time>2026-04-18T10:07:34.351Z</time></trkpt><trkpt lat="43.9220124" lon="11.0559241"><ele>72.0</ele><time>2026-04-18T10:07:35.351Z</time></trkpt><trkpt lat="43.9219415" lon="11.0558518"><ele>72.0</ele><time>2026-04-18T10:07:36.353Z</time></trkpt><trkpt lat="43.921866" lon="11.0557823"><ele>71.5</ele><time>2026-04-18T10:07:37.357Z</time></trkpt><trkpt lat="43.9217895" lon="11.0557159"><ele>71.0</ele><time>2026-04-18T10:07:38.346Z</time></trkpt><trkpt lat="43.9217142" lon="11.0556492"><ele>70.5</ele><time>2026-04-18T10:07:39.345Z</time></trkpt><trkpt lat="43.9216437" lon="11.05558"><ele>70.0</ele><time>2026-04-18T10:07:40.346Z</time></trkpt><trkpt lat="43.9215747" lon="11.0555139"><ele>69.5</ele><time>2026-04-18T10:07:41.349Z</time></trkpt><trkpt lat="43.9215022" lon="11.0554468"><ele>69.0</ele><time>2026-04-18T10:07:42.349Z</time></trkpt><trkpt lat="43.9214328" lon="11.0553863"><ele>69.0</ele><time>2026-04-18T10:07:43.355Z</time></trkpt><trkpt lat="43.921367" lon="11.055326"><ele>69.0</ele><time>2026-04-18T10:07:44.352Z</time></trkpt><trkpt lat="43.9212942" lon="11.0552628"><ele>69.0</ele><time>2026-04-18T10:07:45.353Z</time></trkpt><trkpt lat="43.9212267" lon="11.0551981"><ele>69.0</ele><time>2026-04-18T10:07:46.354Z</time></trkpt><trkpt lat="43.9211675" lon="11.0551403"><ele>69.0</ele><time>2026-04-18T10:07:47.352Z</time></trkpt><trkpt lat="43.9210742" lon="11.0550497"><ele>69.0</ele><time>2026-04-18T10:07:49.354Z</time></trkpt><trkpt lat="43.920979" lon="11.0550564"><ele>69.0</ele><time>2026-04-18T10:07:55.365Z</time></trkpt><trkpt lat="43.9209088" lon="11.0551092"><ele>69.0</ele><time>2026-04-18T10:07:56.36Z</time></trkpt><trkpt lat="43.9208171" lon="11.0551887"><ele>69.0</ele><time>2026-04-18T10:07:57.343Z</time></trkpt><trkpt lat="43.9207086" lon="11.0552586"><ele>69.0</ele><time>2026-04-18T10:07:58.342Z</time></trkpt><trkpt lat="43.9205748" lon="11.0553234"><ele>69.0</ele><time>2026-04-18T10:07:59.341Z</time></trkpt><trkpt lat="43.9204362" lon="11.0553893"><ele>70.66666666666667</ele><time>2026-04-18T10:08:00.337Z</time></trkpt><trkpt lat="43.9202774" lon="11.0554626"><ele>72.33333333333334</ele><time>2026-04-18T10:08:01.339Z</time></trkpt><trkpt lat="43.9201033" lon="11.0555616"><ele>74.0</ele><time>2026-04-18T10:08:02.344Z</time></trkpt><trkpt lat="43.9199458" lon="11.0557037"><ele>73.5</ele><time>2026-04-18T10:08:03.34Z</time></trkpt><trkpt lat="43.91981" lon="11.0558286"><ele>73.0</ele><time>2026-04-18T10:08:04.345Z</time></trkpt><trkpt lat="43.9197036" lon="11.0559445"><ele>72.5</ele><time>2026-04-18T10:08:05.353Z</time></trkpt><trkpt lat="43.919609" lon="11.0560554"><ele>72.0</ele><time>2026-04-18T10:08:06.353Z</time></trkpt><trkpt lat="43.9195239" lon="11.0561586"><ele>72.0</ele><time>2026-04-18T10:08:07.362Z</time></trkpt><trkpt lat="43.9194474" lon="11.0562593"><ele>72.0</ele><time>2026-04-18T10:08:08.339Z</time></trkpt><trkpt lat="43.9193691" lon="11.0563442"><ele>72.0</ele><time>2026-04-18T10:08:09.343Z</time></trkpt><trkpt lat="43.919289" lon="11.0564311"><ele>72.0</ele><time>2026-04-18T10:08:10.343Z</time></trkpt><trkpt lat="43.9192259" lon="11.0565056"><ele>72.0</ele><time>2026-04-18T10:08:11.341Z</time></trkpt><trkpt lat="43.9191798" lon="11.056579"><ele>71.6</ele><time>2026-04-18T10:08:12.346Z</time></trkpt><trkpt lat="43.9191395" lon="11.0566532"><ele>71.2</ele><time>2026-04-18T10:08:13.338Z</time></trkpt><trkpt lat="43.919102" lon="11.0567307"><ele>70.8</ele><time>2026-04-18T10:08:14.339Z</time></trkpt><trkpt lat="43.9190389" lon="11.056866"><ele>70.4</ele><time>2026-04-18T10:08:16.342Z</time></trkpt><trkpt lat="43.9189644" lon="11.0569662"><ele>70.0</ele><time>2026-04-18T10:08:18.334Z</time></trkpt><trkpt lat="43.9188553" lon="11.0569769"><ele>70.0</ele><time>2026-04-18T10:08:20.344Z</time></trkpt><trkpt lat="43.9187815" lon="11.0569416"><ele>70.0</ele><time>2026-04-18T10:08:21.346Z</time></trkpt><trkpt lat="43.9187167" lon="11.056901"><ele>70.0</ele><time>2026-04-18T10:08:22.341Z</time></trkpt><trkpt lat="43.918652" lon="11.0568672"><ele>70.0</ele><time>2026-04-18T10:08:23.341Z</time></trkpt><trkpt lat="43.9185543" lon="11.056823"><ele>70.0</ele><time>2026-04-18T10:08:25.35Z</time></trkpt><trkpt lat="43.9184918" lon="11.0568018"><ele>70.0</ele><time>2026-04-18T10:08:27.35Z</time></trkpt><trkpt lat="43.9184208" lon="11.0567693"><ele>69.8</ele><time>2026-04-18T10:08:30.35Z</time></trkpt><trkpt lat="43.9183518" lon="11.0567693"><ele>69.6</ele><time>2026-04-18T10:08:33.35Z</time></trkpt><trkpt lat="43.9182487" lon="11.0567724"><ele>69.4</ele><time>2026-04-18T10:08:35.353Z</time></trkpt><trkpt lat="43.9181715" lon="11.0567632"><ele>69.2</ele><time>2026-04-18T10:08:36.343Z</time></trkpt><trkpt lat="43.9180743" lon="11.0567469"><ele>69.0</ele><time>2026-04-18T10:08:37.348Z</time></trkpt><trkpt lat="43.9179639" lon="11.0567354"><ele>69.0</ele><time>2026-04-18T10:08:38.345Z</time></trkpt><trkpt lat="43.917852" lon="11.0567232"><ele>69.0</ele><time>2026-04-18T10:08:39.352Z</time></trkpt><trkpt lat="43.9177433" lon="11.0567107"><ele>69.0</ele><time>2026-04-18T10:08:40.349Z</time></trkpt><trkpt lat="43.9176342" lon="11.0567009"><ele>69.0</ele><time>2026-04-18T10:08:41.349Z</time></trkpt><trkpt lat="43.9175226" lon="11.0566851"><ele>69.0</ele><time>2026-04-18T10:08:42.34Z</time></trkpt><trkpt lat="43.9174124" lon="11.0566721"><ele>68.25</ele><time>2026-04-18T10:08:43.343Z</time></trkpt><trkpt lat="43.9172988" lon="11.0566634"><ele>67.5</ele><time>2026-04-18T10:08:44.337Z</time></trkpt><trkpt lat="43.9171802" lon="11.0566545"><ele>66.75</ele><time>2026-04-18T10:08:45.343Z</time></trkpt><trkpt lat="43.9170525" lon="11.056647"><ele>66.0</ele><time>2026-04-18T10:08:46.342Z</time></trkpt><trkpt lat="43.9169249" lon="11.0566349"><ele>66.0</ele><time>2026-04-18T10:08:47.342Z</time></trkpt><trkpt lat="43.9167952" lon="11.0566232"><ele>66.0</ele><time>2026-04-18T10:08:48.343Z</time></trkpt><trkpt lat="43.9166619" lon="11.056613"><ele>66.0</ele><time>2026-04-18T10:08:49.354Z</time></trkpt><trkpt lat="43.9165357" lon="11.0566015"><ele>66.0</ele><time>2026-04-18T10:08:50.351Z</time></trkpt><trkpt lat="43.9164094" lon="11.0565943"><ele>65.5</ele><time>2026-04-18T10:08:51.353Z</time></trkpt><trkpt lat="43.916285" lon="11.0565865"><ele>65.0</ele><time>2026-04-18T10:08:52.345Z</time></trkpt><trkpt lat="43.9161651" lon="11.0565768"><ele>64.5</ele><time>2026-04-18T10:08:53.344Z</time></trkpt><trkpt lat="43.9160484" lon="11.0565665"><ele>64.0</ele><time>2026-04-18T10:08:54.34Z</time></trkpt><trkpt lat="43.9159346" lon="11.0565562"><ele>63.800000000000004</ele><time>2026-04-18T10:08:55.354Z</time></trkpt><trkpt lat="43.91583" lon="11.0565415"><ele>63.60000000000001</ele><time>2026-04-18T10:08:56.352Z</time></trkpt><trkpt lat="43.9157335" lon="11.0565305"><ele>63.4</ele><time>2026-04-18T10:08:57.341Z</time></trkpt><trkpt lat="43.91564" lon="11.0565134"><ele>63.2</ele><time>2026-04-18T10:08:58.341Z</time></trkpt><trkpt lat="43.915544" lon="11.0564898"><ele>63.0</ele><time>2026-04-18T10:08:59.351Z</time></trkpt><trkpt lat="43.9154547" lon="11.0564589"><ele>63.0</ele><time>2026-04-18T10:09:00.352Z</time></trkpt><trkpt lat="43.915366" lon="11.0564293"><ele>63.0</ele><time>2026-04-18T10:09:01.349Z</time></trkpt><trkpt lat="43.9152758" lon="11.0563989"><ele>63.0</ele><time>2026-04-18T10:09:02.339Z</time></trkpt><trkpt lat="43.9151951" lon="11.0563787"><ele>63.0</ele><time>2026-04-18T10:09:03.348Z</time></trkpt><trkpt lat="43.9151249" lon="11.0563655"><ele>63.0</ele><time>2026-04-18T10:09:04.349Z</time></trkpt><trkpt lat="43.9150529" lon="11.0563565"><ele>63.0</ele><time>2026-04-18T10:09:05.34Z</time></trkpt><trkpt lat="43.9149714" lon="11.056349"><ele>62.666666666666664</ele><time>2026-04-18T10:09:06.343Z</time></trkpt><trkpt lat="43.9148904" lon="11.0563339"><ele>62.33333333333333</ele><time>2026-04-18T10:09:07.339Z</time></trkpt><trkpt lat="43.9148173" lon="11.0563047"><ele>62.0</ele><time>2026-04-18T10:09:08.341Z</time></trkpt><trkpt lat="43.9147649" lon="11.0562471"><ele>61.666666666666664</ele><time>2026-04-18T10:09:09.343Z</time></trkpt><trkpt lat="43.9147581" lon="11.0561435"><ele>61.33333333333333</ele><time>2026-04-18T10:09:10.344Z</time></trkpt><trkpt lat="43.9147723" lon="11.0559944"><ele>61.0</ele><time>2026-04-18T10:09:11.351Z</time></trkpt><trkpt lat="43.914809" lon="11.0558165"><ele>61.25</ele><time>2026-04-18T10:09:12.352Z</time></trkpt><trkpt lat="43.9148461" lon="11.0556321"><ele>61.5</ele><time>2026-04-18T10:09:13.348Z</time></trkpt><trkpt lat="43.9148867" lon="11.0554595"><ele>61.75</ele><time>2026-04-18T10:09:14.35Z</time></trkpt><trkpt lat="43.9149391" lon="11.0553223"><ele>62.0</ele><time>2026-04-18T10:09:15.343Z</time></trkpt><trkpt lat="43.9150156" lon="11.0552428"><ele>61.5</ele><time>2026-04-18T10:09:16.34Z</time></trkpt><trkpt lat="43.9151185" lon="11.0552028"><ele>61.0</ele><time>2026-04-18T10:09:17.343Z</time></trkpt><trkpt lat="43.9152293" lon="11.0552157"><ele>60.5</ele><time>2026-04-18T10:09:18.337Z</time></trkpt><trkpt lat="43.9153427" lon="11.0552887"><ele>60.0</ele><time>2026-04-18T10:09:19.339Z</time></trkpt><trkpt lat="43.9154454" lon="11.0554045"><ele>60.0</ele><time>2026-04-18T10:09:20.341Z</time></trkpt><trkpt lat="43.915517" lon="11.0555494"><ele>60.0</ele><time>2026-04-18T10:09:21.34Z</time></trkpt><trkpt lat="43.9155422" lon="11.0557188"><ele>60.0</ele><time>2026-04-18T10:09:22.337Z</time></trkpt><trkpt lat="43.9155238" lon="11.055908"><ele>60.0</ele><time>2026-04-18T10:09:23.343Z</time></trkpt><trkpt lat="43.9155042" lon="11.0561073"><ele>60.75</ele><time>2026-04-18T10:09:24.341Z</time></trkpt><trkpt lat="43.915482" lon="11.0563157"><ele>61.5</ele><time>2026-04-18T10:09:25.341Z</time></trkpt><trkpt lat="43.9154478" lon="11.0565171"><ele>62.25</ele><time>2026-04-18T10:09:26.341Z</time></trkpt><trkpt lat="43.9154131" lon="11.0567167"><ele>63.0</ele><time>2026-04-18T10:09:27.341Z</time></trkpt><trkpt lat="43.9153712" lon="11.0569164"><ele>63.25</ele><time>2026-04-18T10:09:28.342Z</time></trkpt><trkpt lat="43.9153323" lon="11.0571071"><ele>63.5</ele><time>2026-04-18T10:09:29.342Z</time></trkpt><trkpt lat="43.9152948" lon="11.0572826"><ele>63.75</ele><time>2026-04-18T10:09:30.339Z</time></trkpt><trkpt lat="43.9152535" lon="11.0574447"><ele>64.0</ele><time>2026-04-18T10:09:31.347Z</time></trkpt><trkpt lat="43.9152092" lon="11.0575939"><ele>64.0</ele><time>2026-04-18T10:09:32.344Z</time></trkpt><trkpt lat="43.9151696" lon="11.0577342"><ele>64.0</ele><time>2026-04-18T10:09:33.34Z</time></trkpt><trkpt lat="43.9151299" lon="11.0578626"><ele>64.0</ele><time>2026-04-18T10:09:34.339Z</time></trkpt><trkpt lat="43.9150844" lon="11.0579856"><ele>64.0</ele><time>2026-04-18T10:09:35.34Z</time></trkpt><trkpt lat="43.9150439" lon="11.0580946"><ele>64.0</ele><time>2026-04-18T10:09:36.34Z</time></trkpt><trkpt lat="43.9150006" lon="11.0582015"><ele>63.800000000000004</ele><time>2026-04-18T10:09:37.345Z</time></trkpt><trkpt lat="43.9149528" lon="11.0583133"><ele>63.60000000000001</ele><time>2026-04-18T10:09:38.338Z</time></trkpt><trkpt lat="43.9149052" lon="11.058428"><ele>63.4</ele><time>2026-04-18T10:09:39.343Z</time></trkpt><trkpt lat="43.9148491" lon="11.0585466"><ele>63.2</ele><time>2026-04-18T10:09:40.341Z</time></trkpt><trkpt lat="43.9147857" lon="11.0586738"><ele>63.0</ele><time>2026-04-18T10:09:41.345Z</time></trkpt><trkpt lat="43.9147157" lon="11.0588045"><ele>63.0</ele><time>2026-04-18T10:09:42.339Z</time></trkpt><trkpt lat="43.9146503" lon="11.058929"><ele>63.0</ele><time>2026-04-18T10:09:43.341Z</time></trkpt><trkpt lat="43.9145865" lon="11.0590484"><ele>63.0</ele><time>2026-04-18T10:09:44.336Z</time></trkpt><trkpt lat="43.9145212" lon="11.0591654"><ele>63.0</ele><time>2026-04-18T10:09:45.34Z</time></trkpt><trkpt lat="43.9144524" lon="11.0592825"><ele>63.0</ele><time>2026-04-18T10:09:46.339Z</time></trkpt><trkpt lat="43.9143782" lon="11.0594024"><ele>63.25</ele><time>2026-04-18T10:09:47.34Z</time></trkpt><trkpt lat="43.9142968" lon="11.059516"><ele>63.5</ele><time>2026-04-18T10:09:48.342Z</time></trkpt><trkpt lat="43.9142148" lon="11.0596285"><ele>63.75</ele><time>2026-04-18T10:09:49.35Z</time></trkpt><trkpt lat="43.9141338" lon="11.0597422"><ele>64.0</ele><time>2026-04-18T10:09:50.344Z</time></trkpt><trkpt lat="43.9140559" lon="11.0598541"><ele>63.400000000000006</ele><time>2026-04-18T10:09:51.351Z</time></trkpt><trkpt lat="43.9139796" lon="11.0599604"><ele>62.800000000000004</ele><time>2026-04-18T10:09:52.343Z</time></trkpt><trkpt lat="43.9139028" lon="11.0600548"><ele>62.199999999999996</ele><time>2026-04-18T10:09:53.347Z</time></trkpt><trkpt lat="43.9138244" lon="11.0601477"><ele>61.599999999999994</ele><time>2026-04-18T10:09:54.34Z</time></trkpt><trkpt lat="43.9137487" lon="11.0602471"><ele>61.0</ele><time>2026-04-18T10:09:55.342Z</time></trkpt><trkpt lat="43.9136644" lon="11.0603512"><ele>61.0</ele><time>2026-04-18T10:09:56.343Z</time></trkpt><trkpt lat="43.9135797" lon="11.0604577"><ele>61.0</ele><time>2026-04-18T10:09:57.342Z</time></trkpt><trkpt lat="43.9134883" lon="11.0605635"><ele>61.0</ele><time>2026-04-18T10:09:58.347Z</time></trkpt><trkpt lat="43.9133949" lon="11.060664"><ele>61.0</ele><time>2026-04-18T10:09:59.341Z</time></trkpt><trkpt lat="43.9132947" lon="11.0607612"><ele>61.25</ele><time>2026-04-18T10:10:00.336Z</time></trkpt><trkpt lat="43.9131902" lon="11.0608558"><ele>61.5</ele><time>2026-04-18T10:10:01.344Z</time></trkpt><trkpt lat="43.9130878" lon="11.0609473"><ele>61.75</ele><time>2026-04-18T10:10:02.338Z</time></trkpt><trkpt lat="43.9129883" lon="11.061032"><ele>62.0</ele><time>2026-04-18T10:10:03.343Z</time></trkpt><trkpt lat="43.9128925" lon="11.061099"><ele>62.0</ele><time>2026-04-18T10:10:04.34Z</time></trkpt><trkpt lat="43.9128027" lon="11.0611631"><ele>62.0</ele><time>2026-04-18T10:10:05.339Z</time></trkpt><trkpt lat="43.9127149" lon="11.0612228"><ele>62.0</ele><time>2026-04-18T10:10:06.339Z</time></trkpt><trkpt lat="43.9126326" lon="11.0612816"><ele>62.0</ele><time>2026-04-18T10:10:07.34Z</time></trkpt><trkpt lat="43.9125496" lon="11.061343"><ele>62.0</ele><time>2026-04-18T10:10:08.339Z</time></trkpt><trkpt lat="43.9124586" lon="11.0614037"><ele>61.6</ele><time>2026-04-18T10:10:09.338Z</time></trkpt><trkpt lat="43.9123582" lon="11.061467"><ele>61.2</ele><time>2026-04-18T10:10:10.342Z</time></trkpt><trkpt lat="43.9122496" lon="11.0615317"><ele>60.8</ele><time>2026-04-18T10:10:11.34Z</time></trkpt><trkpt lat="43.9121435" lon="11.0615865"><ele>60.4</ele><time>2026-04-18T10:10:12.338Z</time></trkpt><trkpt lat="43.9120463" lon="11.061633"><ele>60.0</ele><time>2026-04-18T10:10:13.339Z</time></trkpt><trkpt lat="43.9119621" lon="11.0616708"><ele>60.0</ele><time>2026-04-18T10:10:14.347Z</time></trkpt><trkpt lat="43.9118807" lon="11.0617013"><ele>60.0</ele><time>2026-04-18T10:10:15.339Z</time></trkpt><trkpt lat="43.9118063" lon="11.0617165"><ele>60.0</ele><time>2026-04-18T10:10:16.344Z</time></trkpt><trkpt lat="43.911735" lon="11.061714"><ele>60.0</ele><time>2026-04-18T10:10:17.339Z</time></trkpt><trkpt lat="43.9116477" lon="11.0616447"><ele>60.0</ele><time>2026-04-18T10:10:19.337Z</time></trkpt><trkpt lat="43.9115697" lon="11.0615392"><ele>60.0</ele><time>2026-04-18T10:10:21.339Z</time></trkpt><trkpt lat="43.9114696" lon="11.0614626"><ele>59.8</ele><time>2026-04-18T10:10:23.342Z</time></trkpt><trkpt lat="43.9113564" lon="11.0614776"><ele>59.6</ele><time>2026-04-18T10:10:25.337Z</time></trkpt><trkpt lat="43.9112977" lon="11.0615242"><ele>59.400000000000006</ele><time>2026-04-18T10:10:26.339Z</time></trkpt><trkpt lat="43.9112244" lon="11.0616607"><ele>59.2</ele><time>2026-04-18T10:10:28.34Z</time></trkpt><trkpt lat="43.9112157" lon="11.0617665"><ele>59.0</ele><time>2026-04-18T10:10:29.334Z</time></trkpt><trkpt lat="43.911203" lon="11.0618799"><ele>58.5</ele><time>2026-04-18T10:10:30.333Z</time></trkpt><trkpt lat="43.9111672" lon="11.0620067"><ele>58.0</ele><time>2026-04-18T10:10:31.339Z</time></trkpt><trkpt lat="43.9111079" lon="11.062153"><ele>57.5</ele><time>2026-04-18T10:10:32.338Z</time></trkpt><trkpt lat="43.9110198" lon="11.0623024"><ele>57.0</ele><time>2026-04-18T10:10:33.341Z</time></trkpt><trkpt lat="43.910916" lon="11.0624344"><ele>57.25</ele><time>2026-04-18T10:10:34.337Z</time></trkpt><trkpt lat="43.9107964" lon="11.0625354"><ele>57.5</ele><time>2026-04-18T10:10:35.332Z</time></trkpt><trkpt lat="43.9106644" lon="11.062631"><ele>57.75</ele><time>2026-04-18T10:10:36.337Z</time></trkpt><trkpt lat="43.9105265" lon="11.0627187"><ele>58.0</ele><time>2026-04-18T10:10:37.337Z</time></trkpt><trkpt lat="43.9103819" lon="11.0628008"><ele>58.0</ele><time>2026-04-18T10:10:38.342Z</time></trkpt><trkpt lat="43.9102538" lon="11.0628852"><ele>58.0</ele><time>2026-04-18T10:10:39.336Z</time></trkpt><trkpt lat="43.910118" lon="11.0629693"><ele>58.0</ele><time>2026-04-18T10:10:40.339Z</time></trkpt><trkpt lat="43.9099724" lon="11.0630537"><ele>58.0</ele><time>2026-04-18T10:10:41.341Z</time></trkpt><trkpt lat="43.9098344" lon="11.0631407"><ele>58.0</ele><time>2026-04-18T10:10:42.342Z</time></trkpt><trkpt lat="43.9096948" lon="11.0632341"><ele>58.0</ele><time>2026-04-18T10:10:43.342Z</time></trkpt><trkpt lat="43.9095514" lon="11.0633196"><ele>58.0</ele><time>2026-04-18T10:10:44.344Z</time></trkpt><trkpt lat="43.9094084" lon="11.0634047"><ele>57.666666666666664</ele><time>2026-04-18T10:10:45.34Z</time></trkpt><trkpt lat="43.9092726" lon="11.0634891"><ele>57.33333333333333</ele><time>2026-04-18T10:10:46.344Z</time></trkpt><trkpt lat="43.9091321" lon="11.0635867"><ele>57.0</ele><time>2026-04-18T10:10:47.343Z</time></trkpt><trkpt lat="43.9089865" lon="11.0636774"><ele>56.33333333333333</ele><time>2026-04-18T10:10:48.347Z</time></trkpt><trkpt lat="43.9088453" lon="11.0637833"><ele>55.666666666666664</ele><time>2026-04-18T10:10:49.346Z</time></trkpt><trkpt lat="43.9087094" lon="11.0638828"><ele>55.0</ele><time>2026-04-18T10:10:50.345Z</time></trkpt><trkpt lat="43.908573" lon="11.0639852"><ele>55.0</ele><time>2026-04-18T10:10:51.343Z</time></trkpt><trkpt lat="43.9084326" lon="11.0640876"><ele>55.0</ele><time>2026-04-18T10:10:52.344Z</time></trkpt><trkpt lat="43.9082891" lon="11.0641911"><ele>55.0</ele><time>2026-04-18T10:10:53.343Z</time></trkpt><trkpt lat="43.9081424" lon="11.0642839"><ele>55.33333333333333</ele><time>2026-04-18T10:10:54.343Z</time></trkpt><trkpt lat="43.9079962" lon="11.0643762"><ele>55.66666666666667</ele><time>2026-04-18T10:10:55.356Z</time></trkpt><trkpt lat="43.9078553" lon="11.0644785"><ele>56.0</ele><time>2026-04-18T10:10:56.346Z</time></trkpt><trkpt lat="43.9077089" lon="11.0645806"><ele>56.333333333333336</ele><time>2026-04-18T10:10:57.343Z</time></trkpt><trkpt lat="43.9075594" lon="11.0646787"><ele>56.66666666666667</ele><time>2026-04-18T10:10:58.344Z</time></trkpt><trkpt lat="43.9074094" lon="11.0647664"><ele>57.0</ele><time>2026-04-18T10:10:59.346Z</time></trkpt><trkpt lat="43.9072725" lon="11.0648612"><ele>56.66666666666667</ele><time>2026-04-18T10:11:00.351Z</time></trkpt><trkpt lat="43.9071346" lon="11.0649702"><ele>56.333333333333336</ele><time>2026-04-18T10:11:01.345Z</time></trkpt><trkpt lat="43.907004" lon="11.0650886"><ele>56.0</ele><time>2026-04-18T10:11:02.345Z</time></trkpt><trkpt lat="43.9068727" lon="11.0652091"><ele>56.0</ele><time>2026-04-18T10:11:03.351Z</time></trkpt><trkpt lat="43.9067459" lon="11.0653346"><ele>56.0</ele><time>2026-04-18T10:11:04.345Z</time></trkpt><trkpt lat="43.9066256" lon="11.0654649"><ele>56.0</ele><time>2026-04-18T10:11:05.349Z</time></trkpt><trkpt lat="43.9065083" lon="11.0655958"><ele>56.0</ele><time>2026-04-18T10:11:06.343Z</time></trkpt><trkpt lat="43.9063952" lon="11.065728"><ele>56.0</ele><time>2026-04-18T10:11:07.346Z</time></trkpt><trkpt lat="43.9062773" lon="11.0658689"><ele>56.0</ele><time>2026-04-18T10:11:08.343Z</time></trkpt><trkpt lat="43.9061615" lon="11.0660047"><ele>55.75</ele><time>2026-04-18T10:11:09.343Z</time></trkpt><trkpt lat="43.9060488" lon="11.066138"><ele>55.5</ele><time>2026-04-18T10:11:10.351Z</time></trkpt><trkpt lat="43.9059394" lon="11.0662744"><ele>55.25</ele><time>2026-04-18T10:11:11.346Z</time></trkpt><trkpt lat="43.9058261" lon="11.0664135"><ele>55.0</ele><time>2026-04-18T10:11:12.346Z</time></trkpt><trkpt lat="43.9057106" lon="11.0665425"><ele>55.5</ele><time>2026-04-18T10:11:13.347Z</time></trkpt><trkpt lat="43.9055923" lon="11.0666715"><ele>56.0</ele><time>2026-04-18T10:11:14.346Z</time></trkpt><trkpt lat="43.9054764" lon="11.0667976"><ele>56.5</ele><time>2026-04-18T10:11:15.349Z</time></trkpt><trkpt lat="43.9053614" lon="11.0669248"><ele>57.0</ele><time>2026-04-18T10:11:16.346Z</time></trkpt><trkpt lat="43.905248" lon="11.0670593"><ele>57.0</ele><time>2026-04-18T10:11:17.353Z</time></trkpt><trkpt lat="43.9051324" lon="11.0671998"><ele>57.0</ele><time>2026-04-18T10:11:18.349Z</time></trkpt><trkpt lat="43.9050133" lon="11.0673435"><ele>57.0</ele><time>2026-04-18T10:11:19.347Z</time></trkpt><trkpt lat="43.9048948" lon="11.0674823"><ele>57.0</ele><time>2026-04-18T10:11:20.347Z</time></trkpt><trkpt lat="43.9047683" lon="11.0676296"><ele>57.0</ele><time>2026-04-18T10:11:21.349Z</time></trkpt><trkpt lat="43.9046517" lon="11.0677667"><ele>57.0</ele><time>2026-04-18T10:11:22.348Z</time></trkpt><trkpt lat="43.9045291" lon="11.0679066"><ele>57.0</ele><time>2026-04-18T10:11:23.351Z</time></trkpt><trkpt lat="43.9044077" lon="11.0680436"><ele>57.0</ele><time>2026-04-18T10:11:24.348Z</time></trkpt><trkpt lat="43.9042867" lon="11.0681743"><ele>57.0</ele><time>2026-04-18T10:11:25.347Z</time></trkpt><trkpt lat="43.9041662" lon="11.0683075"><ele>57.66666666666667</ele><time>2026-04-18T10:11:26.347Z</time></trkpt><trkpt lat="43.9040535" lon="11.0684415"><ele>58.333333333333336</ele><time>2026-04-18T10:11:27.345Z</time></trkpt><trkpt lat="43.9039377" lon="11.0685755"><ele>59.0</ele><time>2026-04-18T10:11:28.351Z</time></trkpt><trkpt lat="43.9038195" lon="11.0687174"><ele>59.0</ele><time>2026-04-18T10:11:29.346Z</time></trkpt><trkpt lat="43.9037047" lon="11.0688441"><ele>59.0</ele><time>2026-04-18T10:11:30.347Z</time></trkpt><trkpt lat="43.9035882" lon="11.0689823"><ele>59.0</ele><time>2026-04-18T10:11:31.345Z</time></trkpt><trkpt lat="43.9034755" lon="11.0691166"><ele>59.0</ele><time>2026-04-18T10:11:32.344Z</time></trkpt><trkpt lat="43.9033673" lon="11.0692431"><ele>58.5</ele><time>2026-04-18T10:11:33.344Z</time></trkpt><trkpt lat="43.9032507" lon="11.0693741"><ele>58.0</ele><time>2026-04-18T10:11:34.343Z</time></trkpt><trkpt lat="43.9031389" lon="11.0695099"><ele>57.5</ele><time>2026-04-18T10:11:35.348Z</time></trkpt><trkpt lat="43.9030242" lon="11.0696432"><ele>57.0</ele><time>2026-04-18T10:11:36.35Z</time></trkpt><trkpt lat="43.9029073" lon="11.0697756"><ele>57.0</ele><time>2026-04-18T10:11:37.349Z</time></trkpt><trkpt lat="43.9027973" lon="11.069912"><ele>57.0</ele><time>2026-04-18T10:11:38.352Z</time></trkpt><trkpt lat="43.9026788" lon="11.0700505"><ele>57.0</ele><time>2026-04-18T10:11:39.35Z</time></trkpt><trkpt lat="43.902561" lon="11.0701892"><ele>57.0</ele><time>2026-04-18T10:11:40.349Z</time></trkpt><trkpt lat="43.9024381" lon="11.0703284"><ele>57.0</ele><time>2026-04-18T10:11:41.347Z</time></trkpt><trkpt lat="43.9023154" lon="11.070471"><ele>57.0</ele><time>2026-04-18T10:11:42.347Z</time></trkpt><trkpt lat="43.9021984" lon="11.0706126"><ele>57.0</ele><time>2026-04-18T10:11:43.347Z</time></trkpt><trkpt lat="43.9020843" lon="11.0707554"><ele>57.0</ele><time>2026-04-18T10:11:44.349Z</time></trkpt><trkpt lat="43.9019662" lon="11.0708915"><ele>57.0</ele><time>2026-04-18T10:11:45.348Z</time></trkpt><trkpt lat="43.9018445" lon="11.0710221"><ele>57.0</ele><time>2026-04-18T10:11:46.35Z</time></trkpt><trkpt lat="43.9017223" lon="11.0711637"><ele>57.0</ele><time>2026-04-18T10:11:47.348Z</time></trkpt><trkpt lat="43.901609" lon="11.0713081"><ele>57.0</ele><time>2026-04-18T10:11:48.351Z</time></trkpt><trkpt lat="43.9014955" lon="11.0714378"><ele>57.0</ele><time>2026-04-18T10:11:49.349Z</time></trkpt><trkpt lat="43.9013857" lon="11.0715705"><ele>57.0</ele><time>2026-04-18T10:11:50.347Z</time></trkpt><trkpt lat="43.9012725" lon="11.0716949"><ele>57.0</ele><time>2026-04-18T10:11:51.346Z</time></trkpt><trkpt lat="43.9011601" lon="11.0718245"><ele>57.0</ele><time>2026-04-18T10:11:52.356Z</time></trkpt><trkpt lat="43.9010458" lon="11.0719487"><ele>57.0</ele><time>2026-04-18T10:11:53.35Z</time></trkpt><trkpt lat="43.9009382" lon="11.0720733"><ele>57.0</ele><time>2026-04-18T10:11:54.35Z</time></trkpt><trkpt lat="43.9008314" lon="11.072193"><ele>57.0</ele><time>2026-04-18T10:11:55.35Z</time></trkpt><trkpt lat="43.9007314" lon="11.0723046"><ele>57.0</ele><time>2026-04-18T10:11:56.347Z</time></trkpt><trkpt lat="43.9006444" lon="11.0724055"><ele>57.0</ele><time>2026-04-18T10:11:57.348Z</time></trkpt><trkpt lat="43.9005643" lon="11.0725042"><ele>57.0</ele><time>2026-04-18T10:11:58.347Z</time></trkpt><trkpt lat="43.9004966" lon="11.0725898"><ele>57.0</ele><time>2026-04-18T10:11:59.348Z</time></trkpt><trkpt lat="43.9004365" lon="11.072661"><ele>57.0</ele><time>2026-04-18T10:12:00.347Z</time></trkpt><trkpt lat="43.9003812" lon="11.072726"><ele>57.0</ele><time>2026-04-18T10:12:01.351Z</time></trkpt><trkpt lat="43.9003261" lon="11.0727822"><ele>57.0</ele><time>2026-04-18T10:12:02.342Z</time></trkpt><trkpt lat="43.9002368" lon="11.0728814"><ele>57.0</ele><time>2026-04-18T10:12:04.346Z</time></trkpt><trkpt lat="43.9001599" lon="11.0729655"><ele>57.0</ele><time>2026-04-18T10:12:06.349Z</time></trkpt><trkpt lat="43.900106" lon="11.0730224"><ele>57.0</ele><time>2026-04-18T10:12:08.342Z</time></trkpt><trkpt lat="43.9000565" lon="11.0730832"><ele>57.0</ele><time>2026-04-18T10:12:10.356Z</time></trkpt><trkpt lat="43.899983" lon="11.0731595"><ele>57.0</ele><time>2026-04-18T10:12:12.348Z</time></trkpt><trkpt lat="43.8998839" lon="11.0732824"><ele>57.333333333333336</ele><time>2026-04-18T10:12:14.345Z</time></trkpt><trkpt lat="43.8998321" lon="11.0733638"><ele>57.66666666666667</ele><time>2026-04-18T10:12:15.345Z</time></trkpt><trkpt lat="43.8997864" lon="11.0734508"><ele>58.0</ele><time>2026-04-18T10:12:16.343Z</time></trkpt><trkpt lat="43.8997393" lon="11.0735305"><ele>58.333333333333336</ele><time>2026-04-18T10:12:17.343Z</time></trkpt><trkpt lat="43.8996713" lon="11.0736325"><ele>58.66666666666667</ele><time>2026-04-18T10:12:19.349Z</time></trkpt><trkpt lat="43.8995741" lon="11.0736251"><ele>59.0</ele><time>2026-04-18T10:12:22.359Z</time></trkpt><trkpt lat="43.8994764" lon="11.0735733"><ele>59.00000000000001</ele><time>2026-04-18T10:12:24.346Z</time></trkpt><trkpt lat="43.8993785" lon="11.073491"><ele>59.0</ele><time>2026-04-18T10:12:26.356Z</time></trkpt><trkpt lat="43.8993302" lon="11.0734215"><ele>59.0</ele><time>2026-04-18T10:12:27.348Z</time></trkpt><trkpt lat="43.8992905" lon="11.0733386"><ele>59.0</ele><time>2026-04-18T10:12:28.358Z</time></trkpt><trkpt lat="43.8992504" lon="11.0732467"><ele>59.00000000000001</ele><time>2026-04-18T10:12:29.353Z</time></trkpt><trkpt lat="43.8992053" lon="11.0731436"><ele>59.0</ele><time>2026-04-18T10:12:30.352Z</time></trkpt><trkpt lat="43.8991621" lon="11.0730365"><ele>59.00000000000001</ele><time>2026-04-18T10:12:31.351Z</time></trkpt><trkpt lat="43.899115" lon="11.0729226"><ele>59.0</ele><time>2026-04-18T10:12:32.346Z</time></trkpt><trkpt lat="43.8990712" lon="11.072823"><ele>59.0</ele><time>2026-04-18T10:12:33.351Z</time></trkpt><trkpt lat="43.899029" lon="11.0727294"><ele>59.0</ele><time>2026-04-18T10:12:34.348Z</time></trkpt><trkpt lat="43.8989826" lon="11.0726348"><ele>59.00000000000001</ele><time>2026-04-18T10:12:35.35Z</time></trkpt><trkpt lat="43.8989278" lon="11.0725468"><ele>59.0</ele><time>2026-04-18T10:12:36.343Z</time></trkpt><trkpt lat="43.8988674" lon="11.0724595"><ele>58.800000000000004</ele><time>2026-04-18T10:12:37.349Z</time></trkpt><trkpt lat="43.8988086" lon="11.0723632"><ele>58.60000000000001</ele><time>2026-04-18T10:12:38.357Z</time></trkpt><trkpt lat="43.8987551" lon="11.0722636"><ele>58.4</ele><time>2026-04-18T10:12:39.355Z</time></trkpt><trkpt lat="43.8987036" lon="11.0721513"><ele>58.2</ele><time>2026-04-18T10:12:40.351Z</time></trkpt><trkpt lat="43.8986532" lon="11.0720437"><ele>58.0</ele><time>2026-04-18T10:12:41.356Z</time></trkpt><trkpt lat="43.8986098" lon="11.0719464"><ele>57.99999999999999</ele><time>2026-04-18T10:12:42.35Z</time></trkpt><trkpt lat="43.8985685" lon="11.0718563"><ele>58.0</ele><time>2026-04-18T10:12:43.356Z</time></trkpt><trkpt lat="43.8985377" lon="11.0717757"><ele>58.0</ele><time>2026-04-18T10:12:44.359Z</time></trkpt><trkpt lat="43.8984839" lon="11.0716156"><ele>58.0</ele><time>2026-04-18T10:12:46.357Z</time></trkpt><trkpt lat="43.8984667" lon="11.0715264"><ele>57.99999999999999</ele><time>2026-04-18T10:12:47.368Z</time></trkpt><trkpt lat="43.8984247" lon="11.0713869"><ele>58.0</ele><time>2026-04-18T10:12:49.356Z</time></trkpt><trkpt lat="43.8983227" lon="11.0713372"><ele>57.666666666666664</ele><time>2026-04-18T10:12:51.357Z</time></trkpt><trkpt lat="43.8982568" lon="11.0713203"><ele>57.33333333333333</ele><time>2026-04-18T10:12:52.368Z</time></trkpt><trkpt lat="43.898197" lon="11.0712875"><ele>57.0</ele><time>2026-04-18T10:12:53.358Z</time></trkpt><trkpt lat="43.8981379" lon="11.0712378"><ele>56.66666666666667</ele><time>2026-04-18T10:12:54.361Z</time></trkpt><trkpt lat="43.8980783" lon="11.0711773"><ele>56.333333333333336</ele><time>2026-04-18T10:12:55.355Z</time></trkpt><trkpt lat="43.8980133" lon="11.0710991"><ele>56.0</ele><time>2026-04-18T10:12:56.356Z</time></trkpt><trkpt lat="43.8979461" lon="11.0710118"><ele>56.0</ele><time>2026-04-18T10:12:57.356Z</time></trkpt><trkpt lat="43.8978728" lon="11.0709172"><ele>55.99999999999999</ele><time>2026-04-18T10:12:58.357Z</time></trkpt><trkpt lat="43.8977967" lon="11.0708191"><ele>55.99999999999999</ele><time>2026-04-18T10:12:59.363Z</time></trkpt><trkpt lat="43.8977139" lon="11.0707202"><ele>56.0</ele><time>2026-04-18T10:13:00.358Z</time></trkpt><trkpt lat="43.8976237" lon="11.070622"><ele>56.0</ele><time>2026-04-18T10:13:01.36Z</time></trkpt><trkpt lat="43.8975272" lon="11.0705281"><ele>56.25</ele><time>2026-04-18T10:13:02.351Z</time></trkpt><trkpt lat="43.8974312" lon="11.0704359"><ele>56.5</ele><time>2026-04-18T10:13:03.351Z</time></trkpt><trkpt lat="43.8973323" lon="11.0703424"><ele>56.75</ele><time>2026-04-18T10:13:04.35Z</time></trkpt><trkpt lat="43.8972289" lon="11.0702438"><ele>57.0</ele><time>2026-04-18T10:13:05.349Z</time></trkpt><trkpt lat="43.8971246" lon="11.0701454"><ele>57.0</ele><time>2026-04-18T10:13:06.351Z</time></trkpt><trkpt lat="43.8970225" lon="11.0700544"><ele>57.0</ele><time>2026-04-18T10:13:07.349Z</time></trkpt><trkpt lat="43.8969231" lon="11.0699652"><ele>57.0</ele><time>2026-04-18T10:13:08.354Z</time></trkpt><trkpt lat="43.8968322" lon="11.0698824"><ele>57.0</ele><time>2026-04-18T10:13:09.347Z</time></trkpt><trkpt lat="43.8967418" lon="11.0698012"><ele>56.833333333333336</ele><time>2026-04-18T10:13:10.35Z</time></trkpt><trkpt lat="43.8966631" lon="11.0697261"><ele>56.66666666666667</ele><time>2026-04-18T10:13:11.344Z</time></trkpt><trkpt lat="43.8965928" lon="11.069652"><ele>56.5</ele><time>2026-04-18T10:13:12.345Z</time></trkpt><trkpt lat="43.8965363" lon="11.0695776"><ele>56.333333333333336</ele><time>2026-04-18T10:13:13.345Z</time></trkpt><trkpt lat="43.8964921" lon="11.0695051"><ele>56.16666666666667</ele><time>2026-04-18T10:13:14.35Z</time></trkpt><trkpt lat="43.8964334" lon="11.069369"><ele>56.0</ele><time>2026-04-18T10:13:16.352Z</time></trkpt><trkpt lat="43.8963651" lon="11.0692672"><ele>56.00000000000001</ele><time>2026-04-18T10:13:18.35Z</time></trkpt><trkpt lat="43.8962702" lon="11.0693085"><ele>56.0</ele><time>2026-04-18T10:13:20.351Z</time></trkpt><trkpt lat="43.8962347" lon="11.0693965"><ele>56.0</ele><time>2026-04-18T10:13:21.349Z</time></trkpt><trkpt lat="43.8962139" lon="11.0695128"><ele>56.0</ele><time>2026-04-18T10:13:22.35Z</time></trkpt><trkpt lat="43.8961898" lon="11.069635"><ele>56.00000000000001</ele><time>2026-04-18T10:13:23.347Z</time></trkpt><trkpt lat="43.8961649" lon="11.0697605"><ele>56.0</ele><time>2026-04-18T10:13:24.344Z</time></trkpt><trkpt lat="43.8961285" lon="11.0698847"><ele>56.0</ele><time>2026-04-18T10:13:25.347Z</time></trkpt><trkpt lat="43.8960896" lon="11.0700073"><ele>55.99999999999999</ele><time>2026-04-18T10:13:26.344Z</time></trkpt><trkpt lat="43.8960479" lon="11.0701281"><ele>55.99999999999999</ele><time>2026-04-18T10:13:27.342Z</time></trkpt><trkpt lat="43.8960097" lon="11.0702479"><ele>56.0</ele><time>2026-04-18T10:13:28.342Z</time></trkpt><trkpt lat="43.8959744" lon="11.070363"><ele>56.0</ele><time>2026-04-18T10:13:29.343Z</time></trkpt><trkpt lat="43.8959393" lon="11.0704772"><ele>55.8</ele><time>2026-04-18T10:13:30.348Z</time></trkpt><trkpt lat="43.895902" lon="11.0705934"><ele>55.599999999999994</ele><time>2026-04-18T10:13:31.351Z</time></trkpt><trkpt lat="43.8958603" lon="11.0707091"><ele>55.4</ele><time>2026-04-18T10:13:32.352Z</time></trkpt><trkpt lat="43.8958187" lon="11.0708258"><ele>55.2</ele><time>2026-04-18T10:13:33.358Z</time></trkpt><trkpt lat="43.8957749" lon="11.0709448"><ele>55.0</ele><time>2026-04-18T10:13:34.355Z</time></trkpt><trkpt lat="43.8957314" lon="11.0710638"><ele>55.0</ele><time>2026-04-18T10:13:35.353Z</time></trkpt><trkpt lat="43.8956916" lon="11.0711811"><ele>55.0</ele><time>2026-04-18T10:13:36.354Z</time></trkpt><trkpt lat="43.8956506" lon="11.0712994"><ele>55.0</ele><time>2026-04-18T10:13:37.351Z</time></trkpt><trkpt lat="43.8956119" lon="11.0714218"><ele>55.0</ele><time>2026-04-18T10:13:38.355Z</time></trkpt><trkpt lat="43.8955673" lon="11.0715488"><ele>55.0</ele><time>2026-04-18T10:13:39.351Z</time></trkpt><trkpt lat="43.895523" lon="11.0716839"><ele>55.0</ele><time>2026-04-18T10:13:40.352Z</time></trkpt><trkpt lat="43.8954792" lon="11.0718189"><ele>55.0</ele><time>2026-04-18T10:13:41.35Z</time></trkpt><trkpt lat="43.8954318" lon="11.0719562"><ele>55.0</ele><time>2026-04-18T10:13:42.349Z</time></trkpt><trkpt lat="43.895381" lon="11.0720975"><ele>55.0</ele><time>2026-04-18T10:13:43.347Z</time></trkpt><trkpt lat="43.8953327" lon="11.0722428"><ele>55.0</ele><time>2026-04-18T10:13:44.342Z</time></trkpt><trkpt lat="43.8952818" lon="11.0723853"><ele>55.2</ele><time>2026-04-18T10:13:45.342Z</time></trkpt><trkpt lat="43.8952302" lon="11.0725259"><ele>55.4</ele><time>2026-04-18T10:13:46.341Z</time></trkpt><trkpt lat="43.8951807" lon="11.0726628"><ele>55.599999999999994</ele><time>2026-04-18T10:13:47.343Z</time></trkpt><trkpt lat="43.8951341" lon="11.0727977"><ele>55.8</ele><time>2026-04-18T10:13:48.352Z</time></trkpt><trkpt lat="43.895085" lon="11.0729384"><ele>56.0</ele><time>2026-04-18T10:13:49.345Z</time></trkpt><trkpt lat="43.8950383" lon="11.0730765"><ele>56.199999999999996</ele><time>2026-04-18T10:13:50.35Z</time></trkpt><trkpt lat="43.8949927" lon="11.0732122"><ele>56.39999999999999</ele><time>2026-04-18T10:13:51.352Z</time></trkpt><trkpt lat="43.8949491" lon="11.0733512"><ele>56.6</ele><time>2026-04-18T10:13:52.354Z</time></trkpt><trkpt lat="43.8949064" lon="11.0734835"><ele>56.8</ele><time>2026-04-18T10:13:53.354Z</time></trkpt><trkpt lat="43.8948571" lon="11.0736191"><ele>57.0</ele><time>2026-04-18T10:13:54.354Z</time></trkpt><trkpt lat="43.8948046" lon="11.0737574"><ele>57.2</ele><time>2026-04-18T10:13:55.352Z</time></trkpt><trkpt lat="43.8947481" lon="11.0738918"><ele>57.400000000000006</ele><time>2026-04-18T10:13:56.342Z</time></trkpt><trkpt lat="43.8946886" lon="11.0740167"><ele>57.599999999999994</ele><time>2026-04-18T10:13:57.345Z</time></trkpt><trkpt lat="43.894631" lon="11.0741313"><ele>57.8</ele><time>2026-04-18T10:13:58.349Z</time></trkpt><trkpt lat="43.8945742" lon="11.0742324"><ele>58.0</ele><time>2026-04-18T10:13:59.356Z</time></trkpt><trkpt lat="43.8945228" lon="11.074314"><ele>58.166666666666664</ele><time>2026-04-18T10:14:00.347Z</time></trkpt><trkpt lat="43.8944772" lon="11.0743828"><ele>58.33333333333333</ele><time>2026-04-18T10:14:01.348Z</time></trkpt><trkpt lat="43.8944002" lon="11.0744755"><ele>58.5</ele><time>2026-04-18T10:14:03.353Z</time></trkpt><trkpt lat="43.894348" lon="11.0745373"><ele>58.66666666666667</ele><time>2026-04-18T10:14:50.357Z</time></trkpt><trkpt lat="43.8942635" lon="11.0746642"><ele>58.833333333333336</ele><time>2026-04-18T10:14:52.345Z</time></trkpt><trkpt lat="43.8942128" lon="11.0747379"><ele>59.0</ele><time>2026-04-18T10:14:53.351Z</time></trkpt><trkpt lat="43.8941614" lon="11.0748071"><ele>58.50000000000001</ele><time>2026-04-18T10:14:54.343Z</time></trkpt><trkpt lat="43.8941091" lon="11.0748595"><ele>58.0</ele><time>2026-04-18T10:14:55.351Z</time></trkpt><trkpt lat="43.8939905" lon="11.0749004"><ele>57.5</ele><time>2026-04-18T10:14:57.346Z</time></trkpt><trkpt lat="43.8939165" lon="11.0749019"><ele>57.0</ele><time>2026-04-18T10:14:58.346Z</time></trkpt><trkpt lat="43.8938401" lon="11.0748857"><ele>56.50000000000001</ele><time>2026-04-18T10:14:59.35Z</time></trkpt><trkpt lat="43.8937575" lon="11.0748559"><ele>56.0</ele><time>2026-04-18T10:15:00.347Z</time></trkpt><trkpt lat="43.8936742" lon="11.0748168"><ele>56.0</ele><time>2026-04-18T10:15:01.345Z</time></trkpt><trkpt lat="43.8935897" lon="11.0747613"><ele>55.99999999999999</ele><time>2026-04-18T10:15:02.344Z</time></trkpt><trkpt lat="43.8935049" lon="11.0746916"><ele>55.99999999999999</ele><time>2026-04-18T10:15:03.346Z</time></trkpt><trkpt lat="43.8934139" lon="11.0745945"><ele>56.0</ele><time>2026-04-18T10:15:04.343Z</time></trkpt><trkpt lat="43.8933153" lon="11.0744815"><ele>56.0</ele><time>2026-04-18T10:15:05.342Z</time></trkpt><trkpt lat="43.8932094" lon="11.0743686"><ele>56.0</ele><time>2026-04-18T10:15:06.349Z</time></trkpt><trkpt lat="43.8930992" lon="11.0742569"><ele>56.0</ele><time>2026-04-18T10:15:07.345Z</time></trkpt><trkpt lat="43.8929838" lon="11.0741335"><ele>56.0</ele><time>2026-04-18T10:15:08.346Z</time></trkpt><trkpt lat="43.8928686" lon="11.0740166"><ele>56.0</ele><time>2026-04-18T10:15:09.347Z</time></trkpt><trkpt lat="43.8927555" lon="11.0739019"><ele>56.5</ele><time>2026-04-18T10:15:10.35Z</time></trkpt><trkpt lat="43.8926435" lon="11.0737871"><ele>57.0</ele><time>2026-04-18T10:15:11.348Z</time></trkpt><trkpt lat="43.8925276" lon="11.0736697"><ele>57.5</ele><time>2026-04-18T10:15:12.35Z</time></trkpt><trkpt lat="43.8924287" lon="11.0735568"><ele>58.0</ele><time>2026-04-18T10:15:13.346Z</time></trkpt><trkpt lat="43.8923307" lon="11.0734489"><ele>58.0</ele><time>2026-04-18T10:15:14.349Z</time></trkpt><trkpt lat="43.8922395" lon="11.0733589"><ele>58.0</ele><time>2026-04-18T10:15:15.347Z</time></trkpt><trkpt lat="43.8921499" lon="11.0732786"><ele>58.0</ele><time>2026-04-18T10:15:16.348Z</time></trkpt><trkpt lat="43.8920708" lon="11.0732007"><ele>58.0</ele><time>2026-04-18T10:15:17.349Z</time></trkpt><trkpt lat="43.8919881" lon="11.0731216"><ele>58.0</ele><time>2026-04-18T10:15:18.347Z</time></trkpt><trkpt lat="43.8919" lon="11.0730314"><ele>58.0</ele><time>2026-04-18T10:15:19.356Z</time></trkpt><trkpt lat="43.8918065" lon="11.0729387"><ele>58.0</ele><time>2026-04-18T10:15:20.349Z</time></trkpt><trkpt lat="43.8917097" lon="11.0728428"><ele>58.0</ele><time>2026-04-18T10:15:21.351Z</time></trkpt><trkpt lat="43.8916123" lon="11.0727376"><ele>58.0</ele><time>2026-04-18T10:15:22.347Z</time></trkpt><trkpt lat="43.8915082" lon="11.0726241"><ele>58.0</ele><time>2026-04-18T10:15:23.349Z</time></trkpt><trkpt lat="43.891399" lon="11.072507"><ele>58.0</ele><time>2026-04-18T10:15:24.351Z</time></trkpt><trkpt lat="43.891284" lon="11.0723841"><ele>58.0</ele><time>2026-04-18T10:15:25.353Z</time></trkpt><trkpt lat="43.8911658" lon="11.0722495"><ele>58.0</ele><time>2026-04-18T10:15:26.353Z</time></trkpt><trkpt lat="43.8910284" lon="11.0721062"><ele>57.33333333333333</ele><time>2026-04-18T10:15:27.358Z</time></trkpt><trkpt lat="43.8908896" lon="11.071962"><ele>56.66666666666667</ele><time>2026-04-18T10:15:28.353Z</time></trkpt><trkpt lat="43.8907478" lon="11.0718105"><ele>56.0</ele><time>2026-04-18T10:15:29.353Z</time></trkpt><trkpt lat="43.8906177" lon="11.0716581"><ele>55.0</ele><time>2026-04-18T10:15:30.356Z</time></trkpt><trkpt lat="43.890483" lon="11.0715216"><ele>54.0</ele><time>2026-04-18T10:15:31.35Z</time></trkpt><trkpt lat="43.890342" lon="11.0713821"><ele>53.0</ele><time>2026-04-18T10:15:32.347Z</time></trkpt><trkpt lat="43.890203" lon="11.0712308"><ele>54.0</ele><time>2026-04-18T10:15:33.342Z</time></trkpt><trkpt lat="43.8900533" lon="11.0710792"><ele>55.0</ele><time>2026-04-18T10:15:34.348Z</time></trkpt><trkpt lat="43.8899147" lon="11.0709362"><ele>56.0</ele><time>2026-04-18T10:15:35.344Z</time></trkpt><trkpt lat="43.8897804" lon="11.0707998"><ele>55.0</ele><time>2026-04-18T10:15:36.343Z</time></trkpt><trkpt lat="43.8896434" lon="11.0706614"><ele>54.0</ele><time>2026-04-18T10:15:37.347Z</time></trkpt><trkpt lat="43.889517" lon="11.0705296"><ele>53.0</ele><time>2026-04-18T10:15:38.347Z</time></trkpt><trkpt lat="43.8893861" lon="11.0703942"><ele>54.0</ele><time>2026-04-18T10:15:39.346Z</time></trkpt><trkpt lat="43.889252" lon="11.0702539"><ele>55.0</ele><time>2026-04-18T10:15:40.352Z</time></trkpt><trkpt lat="43.8891207" lon="11.0701125"><ele>56.0</ele><time>2026-04-18T10:15:41.346Z</time></trkpt><trkpt lat="43.888986" lon="11.0699628"><ele>55.0</ele><time>2026-04-18T10:15:42.343Z</time></trkpt><trkpt lat="43.888851" lon="11.069816"><ele>54.0</ele><time>2026-04-18T10:15:43.344Z</time></trkpt><trkpt lat="43.8887096" lon="11.0696776"><ele>53.0</ele><time>2026-04-18T10:15:44.344Z</time></trkpt><trkpt lat="43.8885767" lon="11.0695424"><ele>53.0</ele><time>2026-04-18T10:15:45.345Z</time></trkpt><trkpt lat="43.8884456" lon="11.069411"><ele>53.0</ele><time>2026-04-18T10:15:46.341Z</time></trkpt><trkpt lat="43.8883135" lon="11.0693074"><ele>53.0</ele><time>2026-04-18T10:15:47.343Z</time></trkpt><trkpt lat="43.8881881" lon="11.0691976"><ele>52.75</ele><time>2026-04-18T10:15:48.341Z</time></trkpt><trkpt lat="43.8880695" lon="11.0690834"><ele>52.5</ele><time>2026-04-18T10:15:49.344Z</time></trkpt><trkpt lat="43.8879486" lon="11.0689668"><ele>52.25</ele><time>2026-04-18T10:15:50.343Z</time></trkpt><trkpt lat="43.8878298" lon="11.0688436"><ele>52.0</ele><time>2026-04-18T10:15:51.343Z</time></trkpt><trkpt lat="43.8876954" lon="11.0687243"><ele>52.33333333333333</ele><time>2026-04-18T10:15:52.35Z</time></trkpt><trkpt lat="43.8875701" lon="11.0686208"><ele>52.66666666666667</ele><time>2026-04-18T10:15:53.352Z</time></trkpt><trkpt lat="43.8874456" lon="11.0685076"><ele>53.0</ele><time>2026-04-18T10:15:54.349Z</time></trkpt><trkpt lat="43.8873038" lon="11.0683964"><ele>53.0</ele><time>2026-04-18T10:15:55.351Z</time></trkpt><trkpt lat="43.8871622" lon="11.068294"><ele>53.0</ele><time>2026-04-18T10:15:56.348Z</time></trkpt><trkpt lat="43.8870164" lon="11.0681962"><ele>53.0</ele><time>2026-04-18T10:15:57.358Z</time></trkpt><trkpt lat="43.8868724" lon="11.0681022"><ele>52.66666666666667</ele><time>2026-04-18T10:15:58.362Z</time></trkpt><trkpt lat="43.8867376" lon="11.0680094"><ele>52.33333333333333</ele><time>2026-04-18T10:15:59.362Z</time></trkpt><trkpt lat="43.8865965" lon="11.0679204"><ele>52.0</ele><time>2026-04-18T10:16:00.361Z</time></trkpt><trkpt lat="43.8864529" lon="11.0678333"><ele>52.0</ele><time>2026-04-18T10:16:01.366Z</time></trkpt><trkpt lat="43.8863062" lon="11.0677356"><ele>52.0</ele><time>2026-04-18T10:16:02.359Z</time></trkpt><trkpt lat="43.8861568" lon="11.0676306"><ele>52.0</ele><time>2026-04-18T10:16:03.358Z</time></trkpt><trkpt lat="43.8860113" lon="11.0675394"><ele>51.666666666666664</ele><time>2026-04-18T10:16:04.358Z</time></trkpt><trkpt lat="43.8858617" lon="11.0674559"><ele>51.33333333333333</ele><time>2026-04-18T10:16:05.364Z</time></trkpt><trkpt lat="43.8857089" lon="11.0673669"><ele>51.0</ele><time>2026-04-18T10:16:06.359Z</time></trkpt><trkpt lat="43.8855507" lon="11.067269"><ele>51.0</ele><time>2026-04-18T10:16:07.358Z</time></trkpt><trkpt lat="43.8853877" lon="11.0671666"><ele>51.0</ele><time>2026-04-18T10:16:08.346Z</time></trkpt><trkpt lat="43.8852228" lon="11.0670628"><ele>51.0</ele><time>2026-04-18T10:16:09.344Z</time></trkpt><trkpt lat="43.8850576" lon="11.0669605"><ele>51.0</ele><time>2026-04-18T10:16:10.342Z</time></trkpt><trkpt lat="43.8849011" lon="11.066863"><ele>51.0</ele><time>2026-04-18T10:16:11.34Z</time></trkpt><trkpt lat="43.8847465" lon="11.0667718"><ele>51.0</ele><time>2026-04-18T10:16:12.338Z</time></trkpt><trkpt lat="43.8845965" lon="11.0666777"><ele>50.66666666666667</ele><time>2026-04-18T10:16:13.335Z</time></trkpt><trkpt lat="43.884449" lon="11.0665693"><ele>50.333333333333336</ele><time>2026-04-18T10:16:14.344Z</time></trkpt><trkpt lat="43.8842953" lon="11.0664703"><ele>50.0</ele><time>2026-04-18T10:16:15.334Z</time></trkpt><trkpt lat="43.8841378" lon="11.0663757"><ele>50.0</ele><time>2026-04-18T10:16:16.333Z</time></trkpt><trkpt lat="43.8839824" lon="11.0662928"><ele>50.0</ele><time>2026-04-18T10:16:17.338Z</time></trkpt><trkpt lat="43.8838409" lon="11.0662014"><ele>50.0</ele><time>2026-04-18T10:16:18.345Z</time></trkpt><trkpt lat="43.8837075" lon="11.0661222"><ele>50.0</ele><time>2026-04-18T10:16:19.349Z</time></trkpt><trkpt lat="43.8835694" lon="11.0660407"><ele>50.0</ele><time>2026-04-18T10:16:20.346Z</time></trkpt><trkpt lat="43.8834327" lon="11.0659701"><ele>50.0</ele><time>2026-04-18T10:16:21.35Z</time></trkpt><trkpt lat="43.8832954" lon="11.0658961"><ele>50.0</ele><time>2026-04-18T10:16:22.349Z</time></trkpt><trkpt lat="43.8831542" lon="11.0658172"><ele>50.333333333333336</ele><time>2026-04-18T10:16:23.351Z</time></trkpt><trkpt lat="43.8830107" lon="11.0657322"><ele>50.66666666666667</ele><time>2026-04-18T10:16:24.348Z</time></trkpt><trkpt lat="43.8828741" lon="11.0656484"><ele>51.0</ele><time>2026-04-18T10:16:25.348Z</time></trkpt><trkpt lat="43.8827401" lon="11.0655612"><ele>51.0</ele><time>2026-04-18T10:16:26.349Z</time></trkpt><trkpt lat="43.8826194" lon="11.0654804"><ele>51.0</ele><time>2026-04-18T10:16:27.346Z</time></trkpt><trkpt lat="43.8824982" lon="11.0654031"><ele>51.0</ele><time>2026-04-18T10:16:28.354Z</time></trkpt><trkpt lat="43.8823833" lon="11.0653296"><ele>51.0</ele><time>2026-04-18T10:16:29.35Z</time></trkpt><trkpt lat="43.8822781" lon="11.0652703"><ele>50.833333333333336</ele><time>2026-04-18T10:16:30.349Z</time></trkpt><trkpt lat="43.8821934" lon="11.0652219"><ele>50.66666666666667</ele><time>2026-04-18T10:16:31.348Z</time></trkpt><trkpt lat="43.8821224" lon="11.0651738"><ele>50.5</ele><time>2026-04-18T10:16:32.347Z</time></trkpt><trkpt lat="43.8820396" lon="11.0651263"><ele>50.333333333333336</ele><time>2026-04-18T10:16:33.343Z</time></trkpt><trkpt lat="43.8819542" lon="11.0650768"><ele>50.16666666666667</ele><time>2026-04-18T10:16:34.347Z</time></trkpt><trkpt lat="43.881868" lon="11.0650208"><ele>50.0</ele><time>2026-04-18T10:16:35.343Z</time></trkpt><trkpt lat="43.881785" lon="11.0649772"><ele>49.833333333333336</ele><time>2026-04-18T10:16:36.35Z</time></trkpt><trkpt lat="43.8817096" lon="11.0649335"><ele>49.66666666666667</ele><time>2026-04-18T10:16:37.345Z</time></trkpt><trkpt lat="43.8816401" lon="11.064897"><ele>49.5</ele><time>2026-04-18T10:16:38.347Z</time></trkpt><trkpt lat="43.8815777" lon="11.0648766"><ele>49.33333333333333</ele><time>2026-04-18T10:16:39.349Z</time></trkpt><trkpt lat="43.8814634" lon="11.0648455"><ele>49.166666666666664</ele><time>2026-04-18T10:16:41.352Z</time></trkpt><trkpt lat="43.881398" lon="11.064814"><ele>49.0</ele><time>2026-04-18T10:16:42.344Z</time></trkpt><trkpt lat="43.8813115" lon="11.0647709"><ele>49.0</ele><time>2026-04-18T10:16:43.351Z</time></trkpt><trkpt lat="43.8811987" lon="11.0647063"><ele>49.0</ele><time>2026-04-18T10:16:44.346Z</time></trkpt><trkpt lat="43.8810899" lon="11.0646415"><ele>49.0</ele><time>2026-04-18T10:16:45.335Z</time></trkpt><trkpt lat="43.8809885" lon="11.0645793"><ele>49.0</ele><time>2026-04-18T10:16:46.34Z</time></trkpt><trkpt lat="43.8809041" lon="11.0645257"><ele>49.0</ele><time>2026-04-18T10:16:47.343Z</time></trkpt><trkpt lat="43.8808222" lon="11.0644818"><ele>48.83333333333333</ele><time>2026-04-18T10:16:48.339Z</time></trkpt><trkpt lat="43.8807415" lon="11.0644378"><ele>48.666666666666664</ele><time>2026-04-18T10:16:49.348Z</time></trkpt><trkpt lat="43.8806644" lon="11.0643918"><ele>48.5</ele><time>2026-04-18T10:16:50.342Z</time></trkpt><trkpt lat="43.8805822" lon="11.0643485"><ele>48.33333333333333</ele><time>2026-04-18T10:16:51.354Z</time></trkpt><trkpt lat="43.8805047" lon="11.064302"><ele>48.166666666666664</ele><time>2026-04-18T10:16:52.353Z</time></trkpt><trkpt lat="43.8804228" lon="11.0642522"><ele>48.0</ele><time>2026-04-18T10:16:53.345Z</time></trkpt><trkpt lat="43.8803346" lon="11.0642039"><ele>48.0</ele><time>2026-04-18T10:16:54.346Z</time></trkpt><trkpt lat="43.880249" lon="11.0641582"><ele>48.0</ele><time>2026-04-18T10:16:55.351Z</time></trkpt><trkpt lat="43.8801795" lon="11.0641167"><ele>48.0</ele><time>2026-04-18T10:16:56.353Z</time></trkpt><trkpt lat="43.8801105" lon="11.0640736"><ele>48.0</ele><time>2026-04-18T10:16:58.35Z</time></trkpt><trkpt lat="43.8800446" lon="11.0640385"><ele>48.0</ele><time>2026-04-18T10:17:01.356Z</time></trkpt><trkpt lat="43.8799189" lon="11.0639798"><ele>48.0</ele><time>2026-04-18T10:17:03.354Z</time></trkpt><trkpt lat="43.8798292" lon="11.0639303"><ele>48.666666666666664</ele><time>2026-04-18T10:17:04.355Z</time></trkpt><trkpt lat="43.8797473" lon="11.0638795"><ele>49.33333333333333</ele><time>2026-04-18T10:17:05.348Z</time></trkpt><trkpt lat="43.8796664" lon="11.0638346"><ele>50.0</ele><time>2026-04-18T10:17:06.362Z</time></trkpt><trkpt lat="43.8795797" lon="11.0637872"><ele>50.666666666666664</ele><time>2026-04-18T10:17:07.356Z</time></trkpt><trkpt lat="43.8794946" lon="11.0637414"><ele>51.33333333333333</ele><time>2026-04-18T10:17:08.353Z</time></trkpt><trkpt lat="43.8794245" lon="11.0637042"><ele>52.0</ele><time>2026-04-18T10:17:09.36Z</time></trkpt><trkpt lat="43.8793615" lon="11.0636679"><ele>52.0</ele><time>2026-04-18T10:17:10.35Z</time></trkpt><trkpt lat="43.879294" lon="11.0636273"><ele>52.0</ele><time>2026-04-18T10:17:11.351Z</time></trkpt><trkpt lat="43.879226" lon="11.0635874"><ele>52.0</ele><time>2026-04-18T10:17:12.348Z</time></trkpt><trkpt lat="43.8791576" lon="11.0635383"><ele>52.0</ele><time>2026-04-18T10:17:13.355Z</time></trkpt><trkpt lat="43.8791059" lon="11.063488"><ele>52.0</ele><time>2026-04-18T10:17:14.359Z</time></trkpt><trkpt lat="43.8790626" lon="11.0634212"><ele>52.0</ele><time>2026-04-18T10:17:15.362Z</time></trkpt><trkpt lat="43.8790132" lon="11.06334"><ele>52.0</ele><time>2026-04-18T10:17:16.353Z</time></trkpt><trkpt lat="43.8789628" lon="11.0632661"><ele>51.6</ele><time>2026-04-18T10:17:17.365Z</time></trkpt><trkpt lat="43.8788555" lon="11.0631984"><ele>51.2</ele><time>2026-04-18T10:17:19.352Z</time></trkpt><trkpt lat="43.8787299" lon="11.0632548"><ele>50.8</ele><time>2026-04-18T10:17:21.353Z</time></trkpt><trkpt lat="43.8786784" lon="11.0633305"><ele>50.4</ele><time>2026-04-18T10:17:22.352Z</time></trkpt><trkpt lat="43.878648" lon="11.0634438"><ele>50.0</ele><time>2026-04-18T10:17:23.353Z</time></trkpt><trkpt lat="43.878636" lon="11.0635933"><ele>50.0</ele><time>2026-04-18T10:17:24.349Z</time></trkpt><trkpt lat="43.878632" lon="11.0637856"><ele>50.0</ele><time>2026-04-18T10:17:25.343Z</time></trkpt><trkpt lat="43.8786246" lon="11.0639872"><ele>50.0</ele><time>2026-04-18T10:17:26.345Z</time></trkpt><trkpt lat="43.8786026" lon="11.0641975"><ele>50.0</ele><time>2026-04-18T10:17:27.341Z</time></trkpt><trkpt lat="43.8785735" lon="11.0644193"><ele>50.0</ele><time>2026-04-18T10:17:28.353Z</time></trkpt><trkpt lat="43.8785385" lon="11.0646527"><ele>50.0</ele><time>2026-04-18T10:17:29.342Z</time></trkpt><trkpt lat="43.8784992" lon="11.0649002"><ele>50.0</ele><time>2026-04-18T10:17:30.341Z</time></trkpt><trkpt lat="43.8784528" lon="11.0651177"><ele>50.333333333333336</ele><time>2026-04-18T10:17:31.349Z</time></trkpt><trkpt lat="43.8784052" lon="11.0653315"><ele>50.66666666666667</ele><time>2026-04-18T10:17:32.349Z</time></trkpt><trkpt lat="43.8783715" lon="11.0655451"><ele>51.0</ele><time>2026-04-18T10:17:33.346Z</time></trkpt><trkpt lat="43.878335" lon="11.0657701"><ele>51.0</ele><time>2026-04-18T10:17:34.342Z</time></trkpt><trkpt lat="43.8782949" lon="11.0659968"><ele>51.0</ele><time>2026-04-18T10:17:35.346Z</time></trkpt><trkpt lat="43.8782472" lon="11.0662184"><ele>51.0</ele><time>2026-04-18T10:17:36.348Z</time></trkpt><trkpt lat="43.8781993" lon="11.0664378"><ele>51.0</ele><time>2026-04-18T10:17:37.344Z</time></trkpt><trkpt lat="43.8781573" lon="11.0666522"><ele>51.0</ele><time>2026-04-18T10:17:38.35Z</time></trkpt><trkpt lat="43.8781107" lon="11.0668749"><ele>51.0</ele><time>2026-04-18T10:17:39.346Z</time></trkpt><trkpt lat="43.8780707" lon="11.0671057"><ele>51.0</ele><time>2026-04-18T10:17:40.342Z</time></trkpt><trkpt lat="43.8780249" lon="11.0673313"><ele>51.0</ele><time>2026-04-18T10:17:41.345Z</time></trkpt><trkpt lat="43.8779798" lon="11.0675573"><ele>51.0</ele><time>2026-04-18T10:17:42.343Z</time></trkpt><trkpt lat="43.8779338" lon="11.0677817"><ele>51.66666666666667</ele><time>2026-04-18T10:17:43.343Z</time></trkpt><trkpt lat="43.8778914" lon="11.0680192"><ele>52.333333333333336</ele><time>2026-04-18T10:17:44.343Z</time></trkpt><trkpt lat="43.8778496" lon="11.0682495"><ele>53.0</ele><time>2026-04-18T10:17:45.348Z</time></trkpt><trkpt lat="43.8778014" lon="11.0684764"><ele>53.0</ele><time>2026-04-18T10:17:46.344Z</time></trkpt><trkpt lat="43.8777549" lon="11.0687076"><ele>53.0</ele><time>2026-04-18T10:17:47.353Z</time></trkpt><trkpt lat="43.8777107" lon="11.0689367"><ele>53.0</ele><time>2026-04-18T10:17:48.343Z</time></trkpt><trkpt lat="43.8776694" lon="11.0691644"><ele>52.66666666666667</ele><time>2026-04-18T10:17:49.349Z</time></trkpt><trkpt lat="43.8776307" lon="11.0693898"><ele>52.33333333333333</ele><time>2026-04-18T10:17:50.341Z</time></trkpt><trkpt lat="43.8775914" lon="11.0695986"><ele>52.0</ele><time>2026-04-18T10:17:51.342Z</time></trkpt><trkpt lat="43.8775488" lon="11.0698154"><ele>50.33333333333333</ele><time>2026-04-18T10:17:52.345Z</time></trkpt><trkpt lat="43.877507" lon="11.0700367"><ele>48.666666666666664</ele><time>2026-04-18T10:17:53.349Z</time></trkpt><trkpt lat="43.8774634" lon="11.0702573"><ele>47.0</ele><time>2026-04-18T10:17:54.343Z</time></trkpt><trkpt lat="43.877416" lon="11.0704801"><ele>47.0</ele><time>2026-04-18T10:17:55.346Z</time></trkpt><trkpt lat="43.8773676" lon="11.0706991"><ele>47.0</ele><time>2026-04-18T10:17:56.346Z</time></trkpt><trkpt lat="43.8773208" lon="11.070932"><ele>47.0</ele><time>2026-04-18T10:17:57.34Z</time></trkpt><trkpt lat="43.8772707" lon="11.0711698"><ele>49.0</ele><time>2026-04-18T10:17:58.345Z</time></trkpt><trkpt lat="43.8772192" lon="11.0714084"><ele>51.0</ele><time>2026-04-18T10:17:59.348Z</time></trkpt><trkpt lat="43.8771716" lon="11.0716276"><ele>53.0</ele><time>2026-04-18T10:18:00.341Z</time></trkpt><trkpt lat="43.8771231" lon="11.0718466"><ele>54.333333333333336</ele><time>2026-04-18T10:18:01.342Z</time></trkpt><trkpt lat="43.8770611" lon="11.0720751"><ele>55.66666666666667</ele><time>2026-04-18T10:18:02.343Z</time></trkpt><trkpt lat="43.8770117" lon="11.0723021"><ele>57.0</ele><time>2026-04-18T10:18:03.348Z</time></trkpt><trkpt lat="43.8769634" lon="11.0725239"><ele>57.66666666666667</ele><time>2026-04-18T10:18:04.346Z</time></trkpt><trkpt lat="43.8769146" lon="11.0727385"><ele>58.333333333333336</ele><time>2026-04-18T10:18:05.352Z</time></trkpt><trkpt lat="43.87686" lon="11.0729616"><ele>59.0</ele><time>2026-04-18T10:18:06.344Z</time></trkpt><trkpt lat="43.8768044" lon="11.073205"><ele>56.333333333333336</ele><time>2026-04-18T10:18:07.337Z</time></trkpt><trkpt lat="43.8767551" lon="11.0734392"><ele>53.66666666666667</ele><time>2026-04-18T10:18:08.337Z</time></trkpt><trkpt lat="43.8767119" lon="11.0736633"><ele>51.0</ele><time>2026-04-18T10:18:09.346Z</time></trkpt><trkpt lat="43.8766604" lon="11.0738897"><ele>50.33333333333333</ele><time>2026-04-18T10:18:10.342Z</time></trkpt><trkpt lat="43.8766136" lon="11.0741178"><ele>49.666666666666664</ele><time>2026-04-18T10:18:11.344Z</time></trkpt><trkpt lat="43.8765627" lon="11.0743423"><ele>49.0</ele><time>2026-04-18T10:18:12.344Z</time></trkpt><trkpt lat="43.8765131" lon="11.0745657"><ele>49.0</ele><time>2026-04-18T10:18:13.342Z</time></trkpt><trkpt lat="43.8764535" lon="11.07479"><ele>49.0</ele><time>2026-04-18T10:18:14.343Z</time></trkpt><trkpt lat="43.8763868" lon="11.0750064"><ele>49.0</ele><time>2026-04-18T10:18:15.345Z</time></trkpt><trkpt lat="43.8763228" lon="11.0752156"><ele>50.0</ele><time>2026-04-18T10:18:16.345Z</time></trkpt><trkpt lat="43.8762551" lon="11.075437"><ele>51.0</ele><time>2026-04-18T10:18:17.347Z</time></trkpt><trkpt lat="43.8761854" lon="11.075643"><ele>52.0</ele><time>2026-04-18T10:18:18.343Z</time></trkpt><trkpt lat="43.8761123" lon="11.0758491"><ele>52.0</ele><time>2026-04-18T10:18:19.346Z</time></trkpt><trkpt lat="43.8760368" lon="11.0760573"><ele>52.0</ele><time>2026-04-18T10:18:20.343Z</time></trkpt><trkpt lat="43.8759598" lon="11.0762595"><ele>52.0</ele><time>2026-04-18T10:18:21.346Z</time></trkpt><trkpt lat="43.875884" lon="11.0764659"><ele>52.33333333333333</ele><time>2026-04-18T10:18:22.342Z</time></trkpt><trkpt lat="43.8757969" lon="11.0766738"><ele>52.66666666666667</ele><time>2026-04-18T10:18:23.345Z</time></trkpt><trkpt lat="43.8757106" lon="11.0768785"><ele>53.0</ele><time>2026-04-18T10:18:24.34Z</time></trkpt><trkpt lat="43.8756208" lon="11.0770854"><ele>53.0</ele><time>2026-04-18T10:18:25.344Z</time></trkpt><trkpt lat="43.8755241" lon="11.0772875"><ele>53.0</ele><time>2026-04-18T10:18:26.344Z</time></trkpt><trkpt lat="43.8754262" lon="11.0774855"><ele>53.0</ele><time>2026-04-18T10:18:27.344Z</time></trkpt><trkpt lat="43.8753242" lon="11.0776914"><ele>52.333333333333336</ele><time>2026-04-18T10:18:28.345Z</time></trkpt><trkpt lat="43.875225" lon="11.077887"><ele>51.66666666666667</ele><time>2026-04-18T10:18:29.343Z</time></trkpt><trkpt lat="43.8751217" lon="11.0780795"><ele>51.0</ele><time>2026-04-18T10:18:30.351Z</time></trkpt><trkpt lat="43.8750223" lon="11.0782788"><ele>52.33333333333333</ele><time>2026-04-18T10:18:31.34Z</time></trkpt><trkpt lat="43.8749231" lon="11.0784831"><ele>53.666666666666664</ele><time>2026-04-18T10:18:32.339Z</time></trkpt><trkpt lat="43.8748308" lon="11.0786853"><ele>55.0</ele><time>2026-04-18T10:18:33.341Z</time></trkpt><trkpt lat="43.8747333" lon="11.0788826"><ele>55.0</ele><time>2026-04-18T10:18:34.34Z</time></trkpt><trkpt lat="43.8746344" lon="11.079073"><ele>55.0</ele><time>2026-04-18T10:18:35.342Z</time></trkpt><trkpt lat="43.874533" lon="11.0792509"><ele>55.0</ele><time>2026-04-18T10:18:36.34Z</time></trkpt><trkpt lat="43.8744358" lon="11.079429"><ele>54.666666666666664</ele><time>2026-04-18T10:18:37.339Z</time></trkpt><trkpt lat="43.8743431" lon="11.0795985"><ele>54.33333333333333</ele><time>2026-04-18T10:18:38.345Z</time></trkpt><trkpt lat="43.8742541" lon="11.0797671"><ele>54.0</ele><time>2026-04-18T10:18:39.346Z</time></trkpt><trkpt lat="43.8741665" lon="11.0799352"><ele>53.75</ele><time>2026-04-18T10:18:40.342Z</time></trkpt><trkpt lat="43.8740811" lon="11.0801033"><ele>53.5</ele><time>2026-04-18T10:18:41.345Z</time></trkpt><trkpt lat="43.8739947" lon="11.0802626"><ele>53.25</ele><time>2026-04-18T10:18:42.344Z</time></trkpt><trkpt lat="43.8739053" lon="11.0804192"><ele>53.0</ele><time>2026-04-18T10:18:43.348Z</time></trkpt><trkpt lat="43.8738096" lon="11.0805653"><ele>53.0</ele><time>2026-04-18T10:18:44.347Z</time></trkpt><trkpt lat="43.8737307" lon="11.0807263"><ele>53.0</ele><time>2026-04-18T10:18:45.34Z</time></trkpt><trkpt lat="43.873648" lon="11.080908"><ele>53.0</ele><time>2026-04-18T10:18:46.35Z</time></trkpt><trkpt lat="43.8735561" lon="11.0811078"><ele>53.333333333333336</ele><time>2026-04-18T10:18:47.349Z</time></trkpt><trkpt lat="43.8734647" lon="11.0812989"><ele>53.66666666666667</ele><time>2026-04-18T10:18:48.342Z</time></trkpt><trkpt lat="43.8733634" lon="11.0814847"><ele>54.0</ele><time>2026-04-18T10:18:49.346Z</time></trkpt><trkpt lat="43.873268" lon="11.0816749"><ele>52.66666666666667</ele><time>2026-04-18T10:18:50.343Z</time></trkpt><trkpt lat="43.8731759" lon="11.0818655"><ele>51.333333333333336</ele><time>2026-04-18T10:18:51.338Z</time></trkpt><trkpt lat="43.8730783" lon="11.0820602"><ele>50.0</ele><time>2026-04-18T10:18:52.336Z</time></trkpt><trkpt lat="43.8729765" lon="11.0822698"><ele>50.0</ele><time>2026-04-18T10:18:53.33Z</time></trkpt><trkpt lat="43.8729052" lon="11.0824251"><ele>50.0</ele><time>2026-04-18T10:18:54.326Z</time></trkpt><trkpt lat="43.8728163" lon="11.0826247"><ele>50.0</ele><time>2026-04-18T10:18:55.33Z</time></trkpt><trkpt lat="43.8726996" lon="11.0828206"><ele>50.25</ele><time>2026-04-18T10:18:56.343Z</time></trkpt><trkpt lat="43.8726113" lon="11.0829959"><ele>50.5</ele><time>2026-04-18T10:18:57.336Z</time></trkpt><trkpt lat="43.8725368" lon="11.0831535"><ele>50.75</ele><time>2026-04-18T10:18:58.346Z</time></trkpt><trkpt lat="43.872473" lon="11.0832835"><ele>51.0</ele><time>2026-04-18T10:18:59.34Z</time></trkpt><trkpt lat="43.8724202" lon="11.0833938"><ele>51.199999999999996</ele><time>2026-04-18T10:19:00.341Z</time></trkpt><trkpt lat="43.8723745" lon="11.0834781"><ele>51.4</ele><time>2026-04-18T10:19:01.348Z</time></trkpt><trkpt lat="43.8723343" lon="11.0835541"><ele>51.6</ele><time>2026-04-18T10:19:02.341Z</time></trkpt><trkpt lat="43.8722996" lon="11.0836956"><ele>51.8</ele><time>2026-04-18T10:19:04.342Z</time></trkpt><trkpt lat="43.8722471" lon="11.083821"><ele>52.0</ele><time>2026-04-18T10:19:06.345Z</time></trkpt><trkpt lat="43.8721778" lon="11.0839707"><ele>52.0</ele><time>2026-04-18T10:19:08.35Z</time></trkpt><trkpt lat="43.8721271" lon="11.0840753"><ele>52.0</ele><time>2026-04-18T10:19:09.34Z</time></trkpt><trkpt lat="43.872065" lon="11.0842005"><ele>52.0</ele><time>2026-04-18T10:19:10.342Z</time></trkpt><trkpt lat="43.8720022" lon="11.0843247"><ele>52.0</ele><time>2026-04-18T10:19:11.341Z</time></trkpt><trkpt lat="43.8719342" lon="11.0844495"><ele>52.0</ele><time>2026-04-18T10:19:12.339Z</time></trkpt><trkpt lat="43.8718698" lon="11.084577"><ele>52.25</ele><time>2026-04-18T10:19:13.344Z</time></trkpt><trkpt lat="43.8717994" lon="11.084707"><ele>52.5</ele><time>2026-04-18T10:19:14.34Z</time></trkpt><trkpt lat="43.8717308" lon="11.0848334"><ele>52.75</ele><time>2026-04-18T10:19:15.352Z</time></trkpt><trkpt lat="43.8716614" lon="11.0849609"><ele>53.0</ele><time>2026-04-18T10:19:16.34Z</time></trkpt><trkpt lat="43.8715898" lon="11.0850966"><ele>53.0</ele><time>2026-04-18T10:19:17.34Z</time></trkpt><trkpt lat="43.8715162" lon="11.0852429"><ele>53.0</ele><time>2026-04-18T10:19:18.347Z</time></trkpt><trkpt lat="43.8714409" lon="11.0854028"><ele>53.0</ele><time>2026-04-18T10:19:19.349Z</time></trkpt><trkpt lat="43.8713655" lon="11.0855582"><ele>53.0</ele><time>2026-04-18T10:19:20.354Z</time></trkpt><trkpt lat="43.8712926" lon="11.0857074"><ele>53.25</ele><time>2026-04-18T10:19:21.355Z</time></trkpt><trkpt lat="43.8712194" lon="11.0858515"><ele>53.5</ele><time>2026-04-18T10:19:22.348Z</time></trkpt><trkpt lat="43.8711478" lon="11.0859891"><ele>53.75</ele><time>2026-04-18T10:19:23.347Z</time></trkpt><trkpt lat="43.8710803" lon="11.0861191"><ele>54.0</ele><time>2026-04-18T10:19:24.346Z</time></trkpt><trkpt lat="43.8710202" lon="11.0862414"><ele>54.0</ele><time>2026-04-18T10:19:25.351Z</time></trkpt><trkpt lat="43.8709647" lon="11.0863559"><ele>54.0</ele><time>2026-04-18T10:19:26.356Z</time></trkpt><trkpt lat="43.8709006" lon="11.0864775"><ele>54.0</ele><time>2026-04-18T10:19:27.347Z</time></trkpt><trkpt lat="43.8708246" lon="11.0866162"><ele>54.0</ele><time>2026-04-18T10:19:28.354Z</time></trkpt><trkpt lat="43.8707425" lon="11.0867718"><ele>53.5</ele><time>2026-04-18T10:19:29.341Z</time></trkpt><trkpt lat="43.8706623" lon="11.0869301"><ele>53.0</ele><time>2026-04-18T10:19:30.34Z</time></trkpt><trkpt lat="43.8705876" lon="11.0870767"><ele>52.5</ele><time>2026-04-18T10:19:31.345Z</time></trkpt><trkpt lat="43.8705144" lon="11.0872188"><ele>52.0</ele><time>2026-04-18T10:19:32.342Z</time></trkpt><trkpt lat="43.8704445" lon="11.0873602"><ele>52.25</ele><time>2026-04-18T10:19:33.346Z</time></trkpt><trkpt lat="43.870369" lon="11.0875088"><ele>52.5</ele><time>2026-04-18T10:19:34.339Z</time></trkpt><trkpt lat="43.8702898" lon="11.0876707"><ele>52.75</ele><time>2026-04-18T10:19:35.338Z</time></trkpt><trkpt lat="43.8702047" lon="11.0878477"><ele>53.0</ele><time>2026-04-18T10:19:36.341Z</time></trkpt><trkpt lat="43.8701131" lon="11.0880298"><ele>53.0</ele><time>2026-04-18T10:19:37.344Z</time></trkpt><trkpt lat="43.8700259" lon="11.0882212"><ele>53.0</ele><time>2026-04-18T10:19:38.347Z</time></trkpt><trkpt lat="43.8699307" lon="11.088408"><ele>53.0</ele><time>2026-04-18T10:19:39.342Z</time></trkpt><trkpt lat="43.869837" lon="11.0886048"><ele>54.0</ele><time>2026-04-18T10:19:40.345Z</time></trkpt><trkpt lat="43.8697402" lon="11.0887903"><ele>55.0</ele><time>2026-04-18T10:19:41.349Z</time></trkpt><trkpt lat="43.8696466" lon="11.0889644"><ele>56.0</ele><time>2026-04-18T10:19:42.351Z</time></trkpt><trkpt lat="43.8695556" lon="11.0891255"><ele>56.0</ele><time>2026-04-18T10:19:43.341Z</time></trkpt><trkpt lat="43.8694697" lon="11.0892946"><ele>56.0</ele><time>2026-04-18T10:19:44.341Z</time></trkpt><trkpt lat="43.869386" lon="11.0894698"><ele>56.0</ele><time>2026-04-18T10:19:45.34Z</time></trkpt><trkpt lat="43.8692975" lon="11.0896505"><ele>55.0</ele><time>2026-04-18T10:19:46.341Z</time></trkpt><trkpt lat="43.8692068" lon="11.0898361"><ele>54.0</ele><time>2026-04-18T10:19:47.34Z</time></trkpt><trkpt lat="43.8690971" lon="11.0900198"><ele>53.0</ele><time>2026-04-18T10:19:48.34Z</time></trkpt><trkpt lat="43.8689813" lon="11.090204"><ele>53.0</ele><time>2026-04-18T10:19:49.35Z</time></trkpt><trkpt lat="43.8688709" lon="11.0903946"><ele>53.0</ele><time>2026-04-18T10:19:50.344Z</time></trkpt><trkpt lat="43.8687682" lon="11.0905859"><ele>53.0</ele><time>2026-04-18T10:19:51.347Z</time></trkpt><trkpt lat="43.8686649" lon="11.090777"><ele>53.333333333333336</ele><time>2026-04-18T10:19:52.343Z</time></trkpt><trkpt lat="43.8685752" lon="11.0909695"><ele>53.66666666666667</ele><time>2026-04-18T10:19:53.342Z</time></trkpt><trkpt lat="43.8684847" lon="11.0911707"><ele>54.0</ele><time>2026-04-18T10:19:54.341Z</time></trkpt><trkpt lat="43.8683804" lon="11.0913653"><ele>54.0</ele><time>2026-04-18T10:19:55.341Z</time></trkpt><trkpt lat="43.8682795" lon="11.0915597"><ele>54.0</ele><time>2026-04-18T10:19:56.349Z</time></trkpt><trkpt lat="43.8681823" lon="11.0917599"><ele>54.0</ele><time>2026-04-18T10:19:57.341Z</time></trkpt><trkpt lat="43.868081" lon="11.0919614"><ele>53.66666666666667</ele><time>2026-04-18T10:19:58.346Z</time></trkpt><trkpt lat="43.8679869" lon="11.0921587"><ele>53.333333333333336</ele><time>2026-04-18T10:19:59.344Z</time></trkpt><trkpt lat="43.86789" lon="11.0923574"><ele>53.0</ele><time>2026-04-18T10:20:00.341Z</time></trkpt><trkpt lat="43.8677931" lon="11.0925488"><ele>52.66666666666667</ele><time>2026-04-18T10:20:01.341Z</time></trkpt><trkpt lat="43.8677021" lon="11.092743"><ele>52.33333333333333</ele><time>2026-04-18T10:20:02.341Z</time></trkpt><trkpt lat="43.867608" lon="11.0929384"><ele>52.0</ele><time>2026-04-18T10:20:03.341Z</time></trkpt><trkpt lat="43.8675191" lon="11.0931217"><ele>51.25</ele><time>2026-04-18T10:20:04.344Z</time></trkpt><trkpt lat="43.8674437" lon="11.093302"><ele>50.5</ele><time>2026-04-18T10:20:05.35Z</time></trkpt><trkpt lat="43.8673684" lon="11.0934815"><ele>49.75</ele><time>2026-04-18T10:20:06.351Z</time></trkpt><trkpt lat="43.8672978" lon="11.0936612"><ele>49.0</ele><time>2026-04-18T10:20:07.36Z</time></trkpt><trkpt lat="43.8672342" lon="11.0938318"><ele>49.0</ele><time>2026-04-18T10:20:08.351Z</time></trkpt><trkpt lat="43.8671587" lon="11.0940111"><ele>49.0</ele><time>2026-04-18T10:20:09.346Z</time></trkpt><trkpt lat="43.8670722" lon="11.094194"><ele>49.0</ele><time>2026-04-18T10:20:10.343Z</time></trkpt><trkpt lat="43.8669791" lon="11.0943804"><ele>49.666666666666664</ele><time>2026-04-18T10:20:11.345Z</time></trkpt><trkpt lat="43.8668876" lon="11.0945729"><ele>50.33333333333333</ele><time>2026-04-18T10:20:12.344Z</time></trkpt><trkpt lat="43.866793" lon="11.0947648"><ele>51.0</ele><time>2026-04-18T10:20:13.342Z</time></trkpt><trkpt lat="43.8666898" lon="11.094958"><ele>51.66666666666667</ele><time>2026-04-18T10:20:14.338Z</time></trkpt><trkpt lat="43.8665815" lon="11.0951489"><ele>52.333333333333336</ele><time>2026-04-18T10:20:15.338Z</time></trkpt><trkpt lat="43.8664671" lon="11.0953288"><ele>53.0</ele><time>2026-04-18T10:20:16.341Z</time></trkpt><trkpt lat="43.8663503" lon="11.0955158"><ele>53.0</ele><time>2026-04-18T10:20:17.341Z</time></trkpt><trkpt lat="43.8662167" lon="11.0956919"><ele>53.0</ele><time>2026-04-18T10:20:18.331Z</time></trkpt><trkpt lat="43.8660716" lon="11.0958803"><ele>53.0</ele><time>2026-04-18T10:20:19.339Z</time></trkpt><trkpt lat="43.8659486" lon="11.0960875"><ele>53.333333333333336</ele><time>2026-04-18T10:20:20.348Z</time></trkpt><trkpt lat="43.8658277" lon="11.0962726"><ele>53.66666666666667</ele><time>2026-04-18T10:20:21.349Z</time></trkpt><trkpt lat="43.8657182" lon="11.0964614"><ele>54.0</ele><time>2026-04-18T10:20:22.354Z</time></trkpt><trkpt lat="43.8656151" lon="11.0966477"><ele>54.0</ele><time>2026-04-18T10:20:23.355Z</time></trkpt><trkpt lat="43.8655159" lon="11.0968453"><ele>54.0</ele><time>2026-04-18T10:20:24.345Z</time></trkpt><trkpt lat="43.8654239" lon="11.097033"><ele>54.0</ele><time>2026-04-18T10:20:25.361Z</time></trkpt><trkpt lat="43.8653351" lon="11.0972198"><ele>54.0</ele><time>2026-04-18T10:20:26.354Z</time></trkpt><trkpt lat="43.8652382" lon="11.0974113"><ele>54.0</ele><time>2026-04-18T10:20:27.344Z</time></trkpt><trkpt lat="43.865147" lon="11.0976144"><ele>54.0</ele><time>2026-04-18T10:20:28.345Z</time></trkpt><trkpt lat="43.8650468" lon="11.0978131"><ele>53.33333333333333</ele><time>2026-04-18T10:20:29.351Z</time></trkpt><trkpt lat="43.8649527" lon="11.0980199"><ele>52.666666666666664</ele><time>2026-04-18T10:20:30.36Z</time></trkpt><trkpt lat="43.8648579" lon="11.0982161"><ele>52.0</ele><time>2026-04-18T10:20:31.354Z</time></trkpt><trkpt lat="43.8647559" lon="11.0984138"><ele>51.666666666666664</ele><time>2026-04-18T10:20:32.344Z</time></trkpt><trkpt lat="43.8646535" lon="11.0986165"><ele>51.33333333333333</ele><time>2026-04-18T10:20:33.341Z</time></trkpt><trkpt lat="43.8645521" lon="11.0988245"><ele>51.0</ele><time>2026-04-18T10:20:34.343Z</time></trkpt><trkpt lat="43.8644521" lon="11.099024"><ele>51.0</ele><time>2026-04-18T10:20:35.341Z</time></trkpt><trkpt lat="43.864345" lon="11.0992231"><ele>51.0</ele><time>2026-04-18T10:20:36.341Z</time></trkpt><trkpt lat="43.8642399" lon="11.0994314"><ele>51.0</ele><time>2026-04-18T10:20:37.341Z</time></trkpt><trkpt lat="43.8641422" lon="11.0996343"><ele>50.66666666666667</ele><time>2026-04-18T10:20:38.343Z</time></trkpt><trkpt lat="43.8640363" lon="11.0998343"><ele>50.333333333333336</ele><time>2026-04-18T10:20:39.342Z</time></trkpt><trkpt lat="43.863926" lon="11.1000323"><ele>50.0</ele><time>2026-04-18T10:20:40.344Z</time></trkpt><trkpt lat="43.8638219" lon="11.1002326"><ele>50.0</ele><time>2026-04-18T10:20:41.336Z</time></trkpt><trkpt lat="43.8637122" lon="11.1004411"><ele>50.0</ele><time>2026-04-18T10:20:42.339Z</time></trkpt><trkpt lat="43.8636086" lon="11.1006442"><ele>50.0</ele><time>2026-04-18T10:20:43.343Z</time></trkpt><trkpt lat="43.8635146" lon="11.1008497"><ele>50.333333333333336</ele><time>2026-04-18T10:20:44.348Z</time></trkpt><trkpt lat="43.8634033" lon="11.1010508"><ele>50.66666666666667</ele><time>2026-04-18T10:20:45.349Z</time></trkpt><trkpt lat="43.8633017" lon="11.1012492"><ele>51.0</ele><time>2026-04-18T10:20:46.347Z</time></trkpt><trkpt lat="43.8632006" lon="11.1014505"><ele>51.0</ele><time>2026-04-18T10:20:47.348Z</time></trkpt><trkpt lat="43.8631065" lon="11.1016503"><ele>51.0</ele><time>2026-04-18T10:20:48.346Z</time></trkpt><trkpt lat="43.8630069" lon="11.1018457"><ele>51.0</ele><time>2026-04-18T10:20:49.34Z</time></trkpt><trkpt lat="43.8629067" lon="11.1020374"><ele>51.0</ele><time>2026-04-18T10:20:50.343Z</time></trkpt><trkpt lat="43.8628121" lon="11.102233"><ele>51.0</ele><time>2026-04-18T10:20:51.339Z</time></trkpt><trkpt lat="43.8627154" lon="11.1024225"><ele>51.0</ele><time>2026-04-18T10:20:52.347Z</time></trkpt><trkpt lat="43.8626237" lon="11.102602"><ele>50.66666666666667</ele><time>2026-04-18T10:20:53.348Z</time></trkpt><trkpt lat="43.862529" lon="11.1027827"><ele>50.333333333333336</ele><time>2026-04-18T10:20:54.343Z</time></trkpt><trkpt lat="43.8624323" lon="11.1029653"><ele>50.0</ele><time>2026-04-18T10:20:55.345Z</time></trkpt><trkpt lat="43.8623319" lon="11.103147"><ele>48.75</ele><time>2026-04-18T10:20:56.343Z</time></trkpt><trkpt lat="43.8622351" lon="11.1033188"><ele>47.5</ele><time>2026-04-18T10:20:57.34Z</time></trkpt><trkpt lat="43.8621515" lon="11.1034826"><ele>46.25</ele><time>2026-04-18T10:20:58.341Z</time></trkpt><trkpt lat="43.8620711" lon="11.1036522"><ele>45.0</ele><time>2026-04-18T10:20:59.341Z</time></trkpt><trkpt lat="43.8619871" lon="11.1038195"><ele>45.0</ele><time>2026-04-18T10:21:00.345Z</time></trkpt><trkpt lat="43.8619032" lon="11.1039823"><ele>45.0</ele><time>2026-04-18T10:21:01.341Z</time></trkpt><trkpt lat="43.8618174" lon="11.1041366"><ele>45.0</ele><time>2026-04-18T10:21:02.337Z</time></trkpt><trkpt lat="43.8617303" lon="11.1042977"><ele>45.0</ele><time>2026-04-18T10:21:03.341Z</time></trkpt><trkpt lat="43.8616495" lon="11.1044507"><ele>45.75</ele><time>2026-04-18T10:21:04.343Z</time></trkpt><trkpt lat="43.8615677" lon="11.1046083"><ele>46.5</ele><time>2026-04-18T10:21:05.34Z</time></trkpt><trkpt lat="43.8614915" lon="11.1047604"><ele>47.25</ele><time>2026-04-18T10:21:06.342Z</time></trkpt><trkpt lat="43.8614152" lon="11.1049074"><ele>48.0</ele><time>2026-04-18T10:21:07.338Z</time></trkpt><trkpt lat="43.8613453" lon="11.1050558"><ele>48.5</ele><time>2026-04-18T10:21:08.34Z</time></trkpt><trkpt lat="43.8612708" lon="11.1052007"><ele>49.0</ele><time>2026-04-18T10:21:09.341Z</time></trkpt><trkpt lat="43.8611802" lon="11.1053368"><ele>49.5</ele><time>2026-04-18T10:21:10.345Z</time></trkpt><trkpt lat="43.8610937" lon="11.1054815"><ele>50.0</ele><time>2026-04-18T10:21:11.34Z</time></trkpt><trkpt lat="43.8610121" lon="11.10562"><ele>49.25</ele><time>2026-04-18T10:21:12.344Z</time></trkpt><trkpt lat="43.8609257" lon="11.1057698"><ele>48.5</ele><time>2026-04-18T10:21:13.341Z</time></trkpt><trkpt lat="43.8608431" lon="11.1059177"><ele>47.75</ele><time>2026-04-18T10:21:14.346Z</time></trkpt><trkpt lat="43.8607706" lon="11.1060699"><ele>47.0</ele><time>2026-04-18T10:21:15.34Z</time></trkpt><trkpt lat="43.8606985" lon="11.1062196"><ele>47.0</ele><time>2026-04-18T10:21:16.34Z</time></trkpt><trkpt lat="43.8606237" lon="11.1063653"><ele>47.0</ele><time>2026-04-18T10:21:17.343Z</time></trkpt><trkpt lat="43.8605506" lon="11.1065062"><ele>47.0</ele><time>2026-04-18T10:21:18.336Z</time></trkpt><trkpt lat="43.8604798" lon="11.1066426"><ele>47.0</ele><time>2026-04-18T10:21:19.343Z</time></trkpt><trkpt lat="43.8604175" lon="11.1067619"><ele>46.83333333333333</ele><time>2026-04-18T10:21:20.338Z</time></trkpt><trkpt lat="43.860364" lon="11.106862"><ele>46.666666666666664</ele><time>2026-04-18T10:21:21.342Z</time></trkpt><trkpt lat="43.8603198" lon="11.1069486"><ele>46.5</ele><time>2026-04-18T10:21:22.347Z</time></trkpt><trkpt lat="43.860266" lon="11.1070294"><ele>46.333333333333336</ele><time>2026-04-18T10:21:24.345Z</time></trkpt><trkpt lat="43.8602216" lon="11.1070931"><ele>46.16666666666667</ele><time>2026-04-18T10:21:26.341Z</time></trkpt><trkpt lat="43.8601633" lon="11.1071656"><ele>46.0</ele><time>2026-04-18T10:21:28.339Z</time></trkpt><trkpt lat="43.8600933" lon="11.1072668"><ele>46.333333333333336</ele><time>2026-04-18T10:21:30.341Z</time></trkpt><trkpt lat="43.8600821" lon="11.1074336"><ele>46.66666666666667</ele><time>2026-04-18T10:21:32.341Z</time></trkpt><trkpt lat="43.8601125" lon="11.1075214"><ele>47.0</ele><time>2026-04-18T10:21:33.339Z</time></trkpt><trkpt lat="43.8601656" lon="11.1075912"><ele>47.333333333333336</ele><time>2026-04-18T10:21:34.34Z</time></trkpt><trkpt lat="43.8602355" lon="11.1076346"><ele>47.666666666666664</ele><time>2026-04-18T10:21:35.339Z</time></trkpt><trkpt lat="43.8603172" lon="11.1076589"><ele>48.0</ele><time>2026-04-18T10:21:36.336Z</time></trkpt><trkpt lat="43.8604067" lon="11.1076702"><ele>48.333333333333336</ele><time>2026-04-18T10:21:37.339Z</time></trkpt><trkpt lat="43.8604935" lon="11.1076827"><ele>48.66666666666667</ele><time>2026-04-18T10:21:38.338Z</time></trkpt><trkpt lat="43.8605718" lon="11.1077036"><ele>49.0</ele><time>2026-04-18T10:21:39.343Z</time></trkpt><trkpt lat="43.8606554" lon="11.1077396"><ele>49.333333333333336</ele><time>2026-04-18T10:21:40.338Z</time></trkpt><trkpt lat="43.860744" lon="11.1077848"><ele>49.66666666666667</ele><time>2026-04-18T10:21:41.339Z</time></trkpt><trkpt lat="43.8608361" lon="11.1078349"><ele>50.0</ele><time>2026-04-18T10:21:42.345Z</time></trkpt><trkpt lat="43.8609313" lon="11.107888"><ele>50.16666666666667</ele><time>2026-04-18T10:21:43.342Z</time></trkpt><trkpt lat="43.861021" lon="11.1079523"><ele>50.333333333333336</ele><time>2026-04-18T10:21:44.339Z</time></trkpt><trkpt lat="43.8610924" lon="11.1080143"><ele>50.5</ele><time>2026-04-18T10:21:45.347Z</time></trkpt><trkpt lat="43.8611513" lon="11.1080808"><ele>50.66666666666667</ele><time>2026-04-18T10:21:59.366Z</time></trkpt><trkpt lat="43.86121" lon="11.1081661"><ele>50.833333333333336</ele><time>2026-04-18T10:22:01.351Z</time></trkpt><trkpt lat="43.8612763" lon="11.1082263"><ele>51.0</ele><time>2026-04-18T10:22:02.343Z</time></trkpt><trkpt lat="43.8613633" lon="11.1082932"><ele>51.0</ele><time>2026-04-18T10:22:03.342Z</time></trkpt><trkpt lat="43.8614512" lon="11.1083726"><ele>51.0</ele><time>2026-04-18T10:22:04.337Z</time></trkpt><trkpt lat="43.861543" lon="11.1084503"><ele>51.0</ele><time>2026-04-18T10:22:05.339Z</time></trkpt><trkpt lat="43.8616384" lon="11.1085245"><ele>51.0</ele><time>2026-04-18T10:22:06.342Z</time></trkpt><trkpt lat="43.861742" lon="11.1086008"><ele>51.0</ele><time>2026-04-18T10:22:07.341Z</time></trkpt><trkpt lat="43.8618478" lon="11.1086794"><ele>51.0</ele><time>2026-04-18T10:22:08.338Z</time></trkpt><trkpt lat="43.8619588" lon="11.1087632"><ele>51.0</ele><time>2026-04-18T10:22:09.339Z</time></trkpt><trkpt lat="43.8620763" lon="11.108853"><ele>51.0</ele><time>2026-04-18T10:22:10.339Z</time></trkpt><trkpt lat="43.8621992" lon="11.108941"><ele>51.0</ele><time>2026-04-18T10:22:11.336Z</time></trkpt><trkpt lat="43.8623241" lon="11.109028"><ele>50.75</ele><time>2026-04-18T10:22:12.345Z</time></trkpt><trkpt lat="43.8624496" lon="11.109122"><ele>50.5</ele><time>2026-04-18T10:22:13.345Z</time></trkpt><trkpt lat="43.8625763" lon="11.1092152"><ele>50.25</ele><time>2026-04-18T10:22:14.339Z</time></trkpt><trkpt lat="43.862707" lon="11.1093296"><ele>50.0</ele><time>2026-04-18T10:22:15.344Z</time></trkpt><trkpt lat="43.8628259" lon="11.1094294"><ele>49.75</ele><time>2026-04-18T10:22:16.35Z</time></trkpt><trkpt lat="43.862953" lon="11.10953"><ele>49.5</ele><time>2026-04-18T10:22:17.347Z</time></trkpt><trkpt lat="43.8630726" lon="11.1096131"><ele>49.25</ele><time>2026-04-18T10:22:18.351Z</time></trkpt><trkpt lat="43.8631959" lon="11.1097056"><ele>49.0</ele><time>2026-04-18T10:22:19.357Z</time></trkpt><trkpt lat="43.8633177" lon="11.1098137"><ele>49.5</ele><time>2026-04-18T10:22:20.342Z</time></trkpt><trkpt lat="43.8634335" lon="11.1099159"><ele>50.0</ele><time>2026-04-18T10:22:21.35Z</time></trkpt><trkpt lat="43.8635515" lon="11.1100112"><ele>50.5</ele><time>2026-04-18T10:22:22.358Z</time></trkpt><trkpt lat="43.8636718" lon="11.1100905"><ele>51.0</ele><time>2026-04-18T10:22:23.351Z</time></trkpt><trkpt lat="43.8637846" lon="11.1101723"><ele>51.0</ele><time>2026-04-18T10:22:24.35Z</time></trkpt><trkpt lat="43.863885" lon="11.1102497"><ele>51.0</ele><time>2026-04-18T10:22:25.34Z</time></trkpt><trkpt lat="43.8639699" lon="11.1103086"><ele>51.0</ele><time>2026-04-18T10:22:26.346Z</time></trkpt><trkpt lat="43.8640514" lon="11.1103772"><ele>51.0</ele><time>2026-04-18T10:22:27.346Z</time></trkpt><trkpt lat="43.8641251" lon="11.1104493"><ele>51.0</ele><time>2026-04-18T10:22:28.358Z</time></trkpt><trkpt lat="43.864189" lon="11.110521"><ele>51.0</ele><time>2026-04-18T10:22:29.365Z</time></trkpt><trkpt lat="43.8642346" lon="11.1106097"><ele>51.0</ele><time>2026-04-18T10:22:30.355Z</time></trkpt><trkpt lat="43.8642596" lon="11.110712"><ele>51.0</ele><time>2026-04-18T10:22:31.36Z</time></trkpt><trkpt lat="43.864281" lon="11.1108355"><ele>51.0</ele><time>2026-04-18T10:22:32.349Z</time></trkpt><trkpt lat="43.8642805" lon="11.1109695"><ele>51.0</ele><time>2026-04-18T10:22:33.348Z</time></trkpt><trkpt lat="43.8642613" lon="11.1111131"><ele>51.75</ele><time>2026-04-18T10:22:34.356Z</time></trkpt><trkpt lat="43.8642254" lon="11.1112621"><ele>52.5</ele><time>2026-04-18T10:22:35.351Z</time></trkpt><trkpt lat="43.8641831" lon="11.1114225"><ele>53.25</ele><time>2026-04-18T10:22:36.353Z</time></trkpt><trkpt lat="43.8641366" lon="11.1115931"><ele>54.0</ele><time>2026-04-18T10:22:37.336Z</time></trkpt><trkpt lat="43.8640955" lon="11.1117733"><ele>54.0</ele><time>2026-04-18T10:22:38.344Z</time></trkpt><trkpt lat="43.8640564" lon="11.1119524"><ele>54.0</ele><time>2026-04-18T10:22:39.348Z</time></trkpt><trkpt lat="43.8640147" lon="11.1121215"><ele>54.0</ele><time>2026-04-18T10:22:40.338Z</time></trkpt><trkpt lat="43.863976" lon="11.1122716"><ele>54.0</ele><time>2026-04-18T10:22:41.345Z</time></trkpt><trkpt lat="43.8639375" lon="11.1123927"><ele>53.833333333333336</ele><time>2026-04-18T10:22:42.339Z</time></trkpt><trkpt lat="43.8639073" lon="11.112472"><ele>53.66666666666667</ele><time>2026-04-18T10:22:43.344Z</time></trkpt><trkpt lat="43.8638662" lon="11.1125685"><ele>53.5</ele><time>2026-04-18T10:22:46.358Z</time></trkpt><trkpt lat="43.8638494" lon="11.1126599"><ele>53.333333333333336</ele><time>2026-04-18T10:22:49.358Z</time></trkpt><trkpt lat="43.8638395" lon="11.1127571"><ele>53.16666666666667</ele><time>2026-04-18T10:22:51.356Z</time></trkpt><trkpt lat="43.8638389" lon="11.1129029"><ele>53.0</ele><time>2026-04-18T10:22:53.348Z</time></trkpt><trkpt lat="43.8638278" lon="11.1129941"><ele>53.0</ele><time>2026-04-18T10:22:54.344Z</time></trkpt><trkpt lat="43.863811" lon="11.1130957"><ele>53.0</ele><time>2026-04-18T10:22:55.346Z</time></trkpt><trkpt lat="43.8637925" lon="11.1132171"><ele>53.0</ele><time>2026-04-18T10:22:56.35Z</time></trkpt><trkpt lat="43.8637769" lon="11.1133634"><ele>53.0</ele><time>2026-04-18T10:22:57.345Z</time></trkpt><trkpt lat="43.8637481" lon="11.1135459"><ele>53.0</ele><time>2026-04-18T10:22:58.35Z</time></trkpt><trkpt lat="43.8637093" lon="11.113739"><ele>53.333333333333336</ele><time>2026-04-18T10:22:59.346Z</time></trkpt><trkpt lat="43.8636636" lon="11.1139388"><ele>53.66666666666667</ele><time>2026-04-18T10:23:00.345Z</time></trkpt><trkpt lat="43.863613" lon="11.1141551"><ele>54.0</ele><time>2026-04-18T10:23:01.346Z</time></trkpt><trkpt lat="43.8635557" lon="11.1143629"><ele>53.6</ele><time>2026-04-18T10:23:02.333Z</time></trkpt><trkpt lat="43.8635106" lon="11.1145528"><ele>53.2</ele><time>2026-04-18T10:23:03.336Z</time></trkpt><trkpt lat="43.8634842" lon="11.1147065"><ele>52.800000000000004</ele><time>2026-04-18T10:23:04.334Z</time></trkpt><trkpt lat="43.8634577" lon="11.1148372"><ele>52.400000000000006</ele><time>2026-04-18T10:23:05.339Z</time></trkpt><trkpt lat="43.8634119" lon="11.1149402"><ele>52.0</ele><time>2026-04-18T10:23:06.336Z</time></trkpt><trkpt lat="43.8633763" lon="11.1150136"><ele>51.8</ele><time>2026-04-18T10:23:07.338Z</time></trkpt><trkpt lat="43.8633282" lon="11.1150902"><ele>51.6</ele><time>2026-04-18T10:23:09.338Z</time></trkpt><trkpt lat="43.8633344" lon="11.1152274"><ele>51.4</ele><time>2026-04-18T10:23:13.352Z</time></trkpt><trkpt lat="43.863318" lon="11.1153992"><ele>51.199999999999996</ele><time>2026-04-18T10:23:15.332Z</time></trkpt><trkpt lat="43.8632923" lon="11.1155272"><ele>51.0</ele><time>2026-04-18T10:23:16.347Z</time></trkpt><trkpt lat="43.8632674" lon="11.1156636"><ele>51.5</ele><time>2026-04-18T10:23:17.346Z</time></trkpt><trkpt lat="43.8632353" lon="11.1158153"><ele>52.0</ele><time>2026-04-18T10:23:18.336Z</time></trkpt><trkpt lat="43.863206" lon="11.1159721"><ele>52.5</ele><time>2026-04-18T10:23:19.344Z</time></trkpt><trkpt lat="43.8631755" lon="11.1161282"><ele>53.0</ele><time>2026-04-18T10:23:20.346Z</time></trkpt><trkpt lat="43.8631483" lon="11.1162753"><ele>53.0</ele><time>2026-04-18T10:23:21.347Z</time></trkpt><trkpt lat="43.8631225" lon="11.116411"><ele>53.0</ele><time>2026-04-18T10:23:22.347Z</time></trkpt><trkpt lat="43.8630932" lon="11.1165456"><ele>53.0</ele><time>2026-04-18T10:23:23.352Z</time></trkpt><trkpt lat="43.8630606" lon="11.1166797"><ele>53.0</ele><time>2026-04-18T10:23:24.337Z</time></trkpt><trkpt lat="43.8630251" lon="11.1168148"><ele>53.0</ele><time>2026-04-18T10:23:25.341Z</time></trkpt><trkpt lat="43.8629887" lon="11.1169587"><ele>53.0</ele><time>2026-04-18T10:23:26.339Z</time></trkpt><trkpt lat="43.8629546" lon="11.1171057"><ele>53.0</ele><time>2026-04-18T10:23:27.336Z</time></trkpt><trkpt lat="43.8629191" lon="11.1172582"><ele>53.0</ele><time>2026-04-18T10:23:28.343Z</time></trkpt><trkpt lat="43.8628813" lon="11.1174076"><ele>53.0</ele><time>2026-04-18T10:23:29.348Z</time></trkpt><trkpt lat="43.862849" lon="11.1175651"><ele>52.8</ele><time>2026-04-18T10:23:30.338Z</time></trkpt><trkpt lat="43.8628197" lon="11.1177147"><ele>52.599999999999994</ele><time>2026-04-18T10:23:31.34Z</time></trkpt><trkpt lat="43.8627877" lon="11.1178525"><ele>52.400000000000006</ele><time>2026-04-18T10:23:32.339Z</time></trkpt><trkpt lat="43.8627523" lon="11.1179814"><ele>52.2</ele><time>2026-04-18T10:23:33.345Z</time></trkpt><trkpt lat="43.862723" lon="11.1181017"><ele>52.0</ele><time>2026-04-18T10:23:34.344Z</time></trkpt><trkpt lat="43.8626968" lon="11.118213"><ele>52.0</ele><time>2026-04-18T10:23:35.343Z</time></trkpt><trkpt lat="43.8626715" lon="11.1183087"><ele>52.0</ele><time>2026-04-18T10:23:36.349Z</time></trkpt><trkpt lat="43.8626333" lon="11.1184717"><ele>52.0</ele><time>2026-04-18T10:23:38.343Z</time></trkpt><trkpt lat="43.862575" lon="11.1186253"><ele>52.0</ele><time>2026-04-18T10:23:40.339Z</time></trkpt><trkpt lat="43.8625169" lon="11.1186745"><ele>52.0</ele><time>2026-04-18T10:23:41.347Z</time></trkpt><trkpt lat="43.862457" lon="11.1187044"><ele>52.0</ele><time>2026-04-18T10:23:42.329Z</time></trkpt><trkpt lat="43.8623485" lon="11.1187441"><ele>52.0</ele><time>2026-04-18T10:23:44.332Z</time></trkpt><trkpt lat="43.8622819" lon="11.1188464"><ele>52.0</ele><time>2026-04-18T10:23:46.333Z</time></trkpt><trkpt lat="43.8622354" lon="11.1189701"><ele>52.0</ele><time>2026-04-18T10:23:48.347Z</time></trkpt><trkpt lat="43.8621856" lon="11.1190271"><ele>52.0</ele><time>2026-04-18T10:23:49.336Z</time></trkpt><trkpt lat="43.8621142" lon="11.1190839"><ele>52.0</ele><time>2026-04-18T10:23:50.341Z</time></trkpt><trkpt lat="43.8620197" lon="11.1191478"><ele>52.0</ele><time>2026-04-18T10:23:51.335Z</time></trkpt><trkpt lat="43.8619204" lon="11.1192202"><ele>52.0</ele><time>2026-04-18T10:23:52.334Z</time></trkpt><trkpt lat="43.8618038" lon="11.1192972"><ele>52.0</ele><time>2026-04-18T10:23:53.339Z</time></trkpt><trkpt lat="43.8616789" lon="11.1193748"><ele>51.666666666666664</ele><time>2026-04-18T10:23:54.333Z</time></trkpt><trkpt lat="43.8615431" lon="11.1194577"><ele>51.33333333333333</ele><time>2026-04-18T10:23:55.34Z</time></trkpt><trkpt lat="43.8614017" lon="11.1195421"><ele>51.0</ele><time>2026-04-18T10:23:56.338Z</time></trkpt><trkpt lat="43.8612606" lon="11.11963"><ele>51.0</ele><time>2026-04-18T10:23:57.336Z</time></trkpt><trkpt lat="43.861109" lon="11.1197204"><ele>51.0</ele><time>2026-04-18T10:23:58.338Z</time></trkpt><trkpt lat="43.8609527" lon="11.1198215"><ele>51.0</ele><time>2026-04-18T10:23:59.338Z</time></trkpt><trkpt lat="43.8608006" lon="11.1199248"><ele>50.33333333333333</ele><time>2026-04-18T10:24:00.34Z</time></trkpt><trkpt lat="43.8606445" lon="11.1200272"><ele>49.666666666666664</ele><time>2026-04-18T10:24:01.34Z</time></trkpt><trkpt lat="43.8604888" lon="11.1201323"><ele>49.0</ele><time>2026-04-18T10:24:02.338Z</time></trkpt><trkpt lat="43.8603395" lon="11.1202295"><ele>49.0</ele><time>2026-04-18T10:24:03.343Z</time></trkpt><trkpt lat="43.8601997" lon="11.1203175"><ele>49.0</ele><time>2026-04-18T10:24:04.336Z</time></trkpt><trkpt lat="43.8600717" lon="11.1203977"><ele>49.0</ele><time>2026-04-18T10:24:05.335Z</time></trkpt><trkpt lat="43.8599546" lon="11.120484"><ele>49.0</ele><time>2026-04-18T10:24:06.336Z</time></trkpt><trkpt lat="43.859848" lon="11.1205666"><ele>49.166666666666664</ele><time>2026-04-18T10:24:07.34Z</time></trkpt><trkpt lat="43.8597513" lon="11.1206374"><ele>49.33333333333333</ele><time>2026-04-18T10:24:08.335Z</time></trkpt><trkpt lat="43.8596703" lon="11.1206956"><ele>49.5</ele><time>2026-04-18T10:24:09.341Z</time></trkpt><trkpt lat="43.8595871" lon="11.12074"><ele>49.66666666666667</ele><time>2026-04-18T10:24:10.342Z</time></trkpt><trkpt lat="43.8595139" lon="11.1207778"><ele>49.833333333333336</ele><time>2026-04-18T10:24:11.344Z</time></trkpt><trkpt lat="43.8594555" lon="11.1208176"><ele>50.0</ele><time>2026-04-18T10:24:12.334Z</time></trkpt><trkpt lat="43.8593955" lon="11.1208531"><ele>49.833333333333336</ele><time>2026-04-18T10:24:13.333Z</time></trkpt><trkpt lat="43.8593386" lon="11.1208933"><ele>49.66666666666667</ele><time>2026-04-18T10:24:14.343Z</time></trkpt><trkpt lat="43.8592435" lon="11.1209723"><ele>49.5</ele><time>2026-04-18T10:24:16.341Z</time></trkpt><trkpt lat="43.8592271" lon="11.121087"><ele>49.33333333333333</ele><time>2026-04-18T10:24:18.34Z</time></trkpt><trkpt lat="43.8592816" lon="11.1211336"><ele>49.166666666666664</ele><time>2026-04-18T10:24:19.359Z</time></trkpt><trkpt lat="43.8593444" lon="11.1211261"><ele>49.0</ele><time>2026-04-18T10:24:20.357Z</time></trkpt><trkpt lat="43.8594115" lon="11.1210675"><ele>49.2</ele><time>2026-04-18T10:24:21.338Z</time></trkpt><trkpt lat="43.8594711" lon="11.1209861"><ele>49.400000000000006</ele><time>2026-04-18T10:24:22.337Z</time></trkpt><trkpt lat="43.8595373" lon="11.120893"><ele>49.6</ele><time>2026-04-18T10:24:23.337Z</time></trkpt><trkpt lat="43.8596207" lon="11.120803"><ele>49.8</ele><time>2026-04-18T10:24:24.33Z</time></trkpt><trkpt lat="43.8597132" lon="11.1207184"><ele>50.0</ele><time>2026-04-18T10:24:25.34Z</time></trkpt><trkpt lat="43.8598137" lon="11.1206424"><ele>50.0</ele><time>2026-04-18T10:24:26.339Z</time></trkpt><trkpt lat="43.8599387" lon="11.1205679"><ele>50.0</ele><time>2026-04-18T10:24:27.335Z</time></trkpt><trkpt lat="43.8600739" lon="11.1204906"><ele>50.0</ele><time>2026-04-18T10:24:28.34Z</time></trkpt><trkpt lat="43.8602188" lon="11.1204039"><ele>50.0</ele><time>2026-04-18T10:24:29.343Z</time></trkpt><trkpt lat="43.8603665" lon="11.120316"><ele>49.75</ele><time>2026-04-18T10:24:30.342Z</time></trkpt><trkpt lat="43.8605073" lon="11.1202319"><ele>49.5</ele><time>2026-04-18T10:24:31.347Z</time></trkpt><trkpt lat="43.8606448" lon="11.1201584"><ele>49.25</ele><time>2026-04-18T10:24:32.338Z</time></trkpt><trkpt lat="43.860766" lon="11.1201046"><ele>49.0</ele><time>2026-04-18T10:24:33.337Z</time></trkpt><trkpt lat="43.8608703" lon="11.1200778"><ele>48.666666666666664</ele><time>2026-04-18T10:24:34.336Z</time></trkpt><trkpt lat="43.8609667" lon="11.1200607"><ele>48.33333333333333</ele><time>2026-04-18T10:24:35.335Z</time></trkpt><trkpt lat="43.8610422" lon="11.1200319"><ele>48.0</ele><time>2026-04-18T10:24:36.341Z</time></trkpt><trkpt lat="43.8611025" lon="11.1199989"><ele>47.666666666666664</ele><time>2026-04-18T10:24:37.336Z</time></trkpt><trkpt lat="43.8611692" lon="11.1199701"><ele>47.33333333333333</ele><time>2026-04-18T10:24:38.342Z</time></trkpt><trkpt lat="43.8612423" lon="11.1199556"><ele>47.0</ele><time>2026-04-18T10:24:39.336Z</time></trkpt><trkpt lat="43.861311" lon="11.1199507"><ele>47.0</ele><time>2026-04-18T10:24:40.333Z</time></trkpt><trkpt lat="43.8613767" lon="11.1199487"><ele>47.0</ele><time>2026-04-18T10:24:41.332Z</time></trkpt><trkpt lat="43.8614409" lon="11.1199582"><ele>47.0</ele><time>2026-04-18T10:24:42.336Z</time></trkpt><trkpt lat="43.8615043" lon="11.1199799"><ele>47.0</ele><time>2026-04-18T10:24:43.338Z</time></trkpt><trkpt lat="43.8615863" lon="11.1200625"><ele>47.0</ele><time>2026-04-18T10:24:45.342Z</time></trkpt></trkseg></trk></gpx>